<?xml version="1.0" encoding="UTF-8" standalone="no" ?>
<gpx xmlns="http://www.topografix.com/GPX/1/1" xmlns:xsi="http://www.w3.org/2001/XMLSchema-instance" xsi:schemaLocation="http://www.topografix.com/GPX/1/1 http://www.topografix.com/GPX/1/1/gpx.xsd" version="1.1" creator="VisuGPX - https://www.visugpx.com">
  <metadata>
    <name>Circuit de 2 jour en Andorre au départ du parking de la Comella: 14 JUIL 2022 11:36</name>
    <desc><![CDATA[le circuit peut être effectué sur 2  jours et demi  au refuge de Claror et perafita 
Attention au passage aérien rocheux sur les crêtes qui demande un peut d'attention   ]]></desc>
  </metadata>
  <trk>
    <name><![CDATA[Tracé actuel: 14 JUIL 2022 11:36]]></name>
    <trkseg>
      <trkpt lat="42.49867" lon="1.53067">
        <ele>1445.48</ele>
        <time>2022-07-14T09:36:05Z</time>
      </trkpt>
      <trkpt lat="42.49867" lon="1.53068">
        <ele>1445.48</ele>
        <time>2022-07-14T09:36:06Z</time>
      </trkpt>
      <trkpt lat="42.49866" lon="1.53068">
        <ele>1322.91</ele>
        <time>2022-07-14T09:36:12Z</time>
      </trkpt>
      <trkpt lat="42.49866" lon="1.53069">
        <ele>1321.95</ele>
        <time>2022-07-14T09:36:15Z</time>
      </trkpt>
      <trkpt lat="42.49864" lon="1.53071">
        <ele>1321.95</ele>
        <time>2022-07-14T09:36:48Z</time>
      </trkpt>
      <trkpt lat="42.49866" lon="1.53069">
        <ele>1321.47</ele>
        <time>2022-07-14T09:37:06Z</time>
      </trkpt>
      <trkpt lat="42.49866" lon="1.53071">
        <ele>1321.47</ele>
        <time>2022-07-14T09:37:19Z</time>
      </trkpt>
      <trkpt lat="42.49864" lon="1.53067">
        <ele>1321.47</ele>
        <time>2022-07-14T09:37:31Z</time>
      </trkpt>
      <trkpt lat="42.49864" lon="1.53068">
        <ele>1321.47</ele>
        <time>2022-07-14T09:37:43Z</time>
      </trkpt>
      <trkpt lat="42.49863" lon="1.53068">
        <ele>1321.47</ele>
        <time>2022-07-14T09:37:56Z</time>
      </trkpt>
      <trkpt lat="42.49863" lon="1.53072">
        <ele>1321.47</ele>
        <time>2022-07-14T09:38:09Z</time>
      </trkpt>
      <trkpt lat="42.49865" lon="1.53073">
        <ele>1321.47</ele>
        <time>2022-07-14T09:38:17Z</time>
      </trkpt>
      <trkpt lat="42.49869" lon="1.53074">
        <ele>1321.47</ele>
        <time>2022-07-14T09:38:21Z</time>
      </trkpt>
      <trkpt lat="42.49863" lon="1.53061">
        <ele>1321.95</ele>
        <time>2022-07-14T09:40:45Z</time>
      </trkpt>
      <trkpt lat="42.49863" lon="1.53061">
        <ele>1321.95</ele>
        <time>2022-07-14T09:40:46Z</time>
      </trkpt>
      <trkpt lat="42.49864" lon="1.53067">
        <ele>1321.95</ele>
        <time>2022-07-14T09:41:05Z</time>
      </trkpt>
      <trkpt lat="42.49866" lon="1.53067">
        <ele>1321.95</ele>
        <time>2022-07-14T09:41:28Z</time>
      </trkpt>
      <trkpt lat="42.49863" lon="1.53064">
        <ele>1322.43</ele>
        <time>2022-07-14T09:41:43Z</time>
      </trkpt>
      <trkpt lat="42.49856" lon="1.53047">
        <ele>1323.39</ele>
        <time>2022-07-14T09:41:56Z</time>
      </trkpt>
      <trkpt lat="42.49859" lon="1.53035">
        <ele>1323.87</ele>
        <time>2022-07-14T09:42:13Z</time>
      </trkpt>
      <trkpt lat="42.49856" lon="1.53033">
        <ele>1324.35</ele>
        <time>2022-07-14T09:42:28Z</time>
      </trkpt>
      <trkpt lat="42.49849" lon="1.53033">
        <ele>1325.8</ele>
        <time>2022-07-14T09:42:47Z</time>
      </trkpt>
      <trkpt lat="42.49848" lon="1.53042">
        <ele>1327.24</ele>
        <time>2022-07-14T09:43:00Z</time>
      </trkpt>
      <trkpt lat="42.49845" lon="1.53039">
        <ele>1327.72</ele>
        <time>2022-07-14T09:43:27Z</time>
      </trkpt>
      <trkpt lat="42.49845" lon="1.53041">
        <ele>1327.72</ele>
        <time>2022-07-14T09:43:46Z</time>
      </trkpt>
      <trkpt lat="42.49846" lon="1.53044">
        <ele>1328.2</ele>
        <time>2022-07-14T09:44:08Z</time>
      </trkpt>
      <trkpt lat="42.49847" lon="1.53044">
        <ele>1328.2</ele>
        <time>2022-07-14T09:44:20Z</time>
      </trkpt>
      <trkpt lat="42.49844" lon="1.53046">
        <ele>1328.2</ele>
        <time>2022-07-14T09:44:42Z</time>
      </trkpt>
      <trkpt lat="42.49845" lon="1.53051">
        <ele>1328.68</ele>
        <time>2022-07-14T09:44:56Z</time>
      </trkpt>
      <trkpt lat="42.49845" lon="1.53057">
        <ele>1329.16</ele>
        <time>2022-07-14T09:45:11Z</time>
      </trkpt>
      <trkpt lat="42.49845" lon="1.53058">
        <ele>1329.64</ele>
        <time>2022-07-14T09:45:30Z</time>
      </trkpt>
      <trkpt lat="42.49839" lon="1.53058">
        <ele>1330.6</ele>
        <time>2022-07-14T09:45:44Z</time>
      </trkpt>
      <trkpt lat="42.49832" lon="1.53068">
        <ele>1333.49</ele>
        <time>2022-07-14T09:45:58Z</time>
      </trkpt>
      <trkpt lat="42.49822" lon="1.53073">
        <ele>1335.89</ele>
        <time>2022-07-14T09:46:15Z</time>
      </trkpt>
      <trkpt lat="42.49813" lon="1.53078">
        <ele>1338.29</ele>
        <time>2022-07-14T09:46:29Z</time>
      </trkpt>
      <trkpt lat="42.49805" lon="1.53086">
        <ele>1340.22</ele>
        <time>2022-07-14T09:46:43Z</time>
      </trkpt>
      <trkpt lat="42.498" lon="1.53093">
        <ele>1342.62</ele>
        <time>2022-07-14T09:46:56Z</time>
      </trkpt>
      <trkpt lat="42.49795" lon="1.53099">
        <ele>1345.5</ele>
        <time>2022-07-14T09:47:11Z</time>
      </trkpt>
      <trkpt lat="42.49789" lon="1.53118">
        <ele>1348.39</ele>
        <time>2022-07-14T09:47:27Z</time>
      </trkpt>
      <trkpt lat="42.49779" lon="1.53128">
        <ele>1350.79</ele>
        <time>2022-07-14T09:47:41Z</time>
      </trkpt>
      <trkpt lat="42.49772" lon="1.53132">
        <ele>1352.23</ele>
        <time>2022-07-14T09:47:54Z</time>
      </trkpt>
      <trkpt lat="42.49765" lon="1.53138">
        <ele>1355.12</ele>
        <time>2022-07-14T09:48:07Z</time>
      </trkpt>
      <trkpt lat="42.49754" lon="1.53137">
        <ele>1357.52</ele>
        <time>2022-07-14T09:48:23Z</time>
      </trkpt>
      <trkpt lat="42.49752" lon="1.5314">
        <ele>1359.44</ele>
        <time>2022-07-14T09:48:38Z</time>
      </trkpt>
      <trkpt lat="42.49762" lon="1.5315">
        <ele>1361.84</ele>
        <time>2022-07-14T09:48:54Z</time>
      </trkpt>
      <trkpt lat="42.49768" lon="1.53156">
        <ele>1363.77</ele>
        <time>2022-07-14T09:49:07Z</time>
      </trkpt>
      <trkpt lat="42.49771" lon="1.53165">
        <ele>1365.69</ele>
        <time>2022-07-14T09:49:21Z</time>
      </trkpt>
      <trkpt lat="42.49762" lon="1.53167">
        <ele>1369.05</ele>
        <time>2022-07-14T09:49:38Z</time>
      </trkpt>
      <trkpt lat="42.49754" lon="1.53169">
        <ele>1370.5</ele>
        <time>2022-07-14T09:49:53Z</time>
      </trkpt>
      <trkpt lat="42.49758" lon="1.53178">
        <ele>1373.38</ele>
        <time>2022-07-14T09:50:07Z</time>
      </trkpt>
      <trkpt lat="42.49765" lon="1.53184">
        <ele>1375.3</ele>
        <time>2022-07-14T09:50:22Z</time>
      </trkpt>
      <trkpt lat="42.49765" lon="1.53189">
        <ele>1377.23</ele>
        <time>2022-07-14T09:50:38Z</time>
      </trkpt>
      <trkpt lat="42.4976" lon="1.53192">
        <ele>1378.67</ele>
        <time>2022-07-14T09:50:53Z</time>
      </trkpt>
      <trkpt lat="42.49767" lon="1.532">
        <ele>1380.11</ele>
        <time>2022-07-14T09:51:07Z</time>
      </trkpt>
      <trkpt lat="42.49773" lon="1.53214">
        <ele>1382.03</ele>
        <time>2022-07-14T09:51:22Z</time>
      </trkpt>
      <trkpt lat="42.49776" lon="1.53226">
        <ele>1382.99</ele>
        <time>2022-07-14T09:51:35Z</time>
      </trkpt>
      <trkpt lat="42.49773" lon="1.53241">
        <ele>1385.4</ele>
        <time>2022-07-14T09:51:47Z</time>
      </trkpt>
      <trkpt lat="42.4977" lon="1.53255">
        <ele>1387.32</ele>
        <time>2022-07-14T09:52:02Z</time>
      </trkpt>
      <trkpt lat="42.49766" lon="1.53264">
        <ele>1388.76</ele>
        <time>2022-07-14T09:52:15Z</time>
      </trkpt>
      <trkpt lat="42.49762" lon="1.53275">
        <ele>1390.68</ele>
        <time>2022-07-14T09:52:30Z</time>
      </trkpt>
      <trkpt lat="42.49754" lon="1.53287">
        <ele>1392.61</ele>
        <time>2022-07-14T09:52:44Z</time>
      </trkpt>
      <trkpt lat="42.49748" lon="1.53295">
        <ele>1394.53</ele>
        <time>2022-07-14T09:52:57Z</time>
      </trkpt>
      <trkpt lat="42.49753" lon="1.53292">
        <ele>1396.45</ele>
        <time>2022-07-14T09:53:11Z</time>
      </trkpt>
      <trkpt lat="42.49745" lon="1.53282">
        <ele>1398.86</ele>
        <time>2022-07-14T09:53:28Z</time>
      </trkpt>
      <trkpt lat="42.49739" lon="1.53283">
        <ele>1401.26</ele>
        <time>2022-07-14T09:53:44Z</time>
      </trkpt>
      <trkpt lat="42.49735" lon="1.53294">
        <ele>1403.66</ele>
        <time>2022-07-14T09:53:59Z</time>
      </trkpt>
      <trkpt lat="42.49733" lon="1.53291">
        <ele>1405.1</ele>
        <time>2022-07-14T09:54:12Z</time>
      </trkpt>
      <trkpt lat="42.49728" lon="1.53272">
        <ele>1407.99</ele>
        <time>2022-07-14T09:54:29Z</time>
      </trkpt>
      <trkpt lat="42.49724" lon="1.53277">
        <ele>1409.91</ele>
        <time>2022-07-14T09:54:43Z</time>
      </trkpt>
      <trkpt lat="42.4972" lon="1.53294">
        <ele>1412.31</ele>
        <time>2022-07-14T09:54:59Z</time>
      </trkpt>
      <trkpt lat="42.49716" lon="1.53296">
        <ele>1414.24</ele>
        <time>2022-07-14T09:55:12Z</time>
      </trkpt>
      <trkpt lat="42.49711" lon="1.53299">
        <ele>1416.64</ele>
        <time>2022-07-14T09:55:25Z</time>
      </trkpt>
      <trkpt lat="42.49707" lon="1.53309">
        <ele>1419.04</ele>
        <time>2022-07-14T09:55:38Z</time>
      </trkpt>
      <trkpt lat="42.49705" lon="1.53322">
        <ele>1421.45</ele>
        <time>2022-07-14T09:55:56Z</time>
      </trkpt>
      <trkpt lat="42.49699" lon="1.53314">
        <ele>1424.33</ele>
        <time>2022-07-14T09:56:13Z</time>
      </trkpt>
      <trkpt lat="42.49694" lon="1.53299">
        <ele>1426.73</ele>
        <time>2022-07-14T09:56:30Z</time>
      </trkpt>
      <trkpt lat="42.49687" lon="1.53296">
        <ele>1429.14</ele>
        <time>2022-07-14T09:56:47Z</time>
      </trkpt>
      <trkpt lat="42.49685" lon="1.53304">
        <ele>1430.58</ele>
        <time>2022-07-14T09:57:00Z</time>
      </trkpt>
      <trkpt lat="42.49682" lon="1.53323">
        <ele>1433.94</ele>
        <time>2022-07-14T09:57:20Z</time>
      </trkpt>
      <trkpt lat="42.49679" lon="1.53328">
        <ele>1435.87</ele>
        <time>2022-07-14T09:57:34Z</time>
      </trkpt>
      <trkpt lat="42.49679" lon="1.53337">
        <ele>1437.31</ele>
        <time>2022-07-14T09:57:47Z</time>
      </trkpt>
      <trkpt lat="42.49675" lon="1.5333">
        <ele>1439.71</ele>
        <time>2022-07-14T09:58:01Z</time>
      </trkpt>
      <trkpt lat="42.49668" lon="1.53319">
        <ele>1441.15</ele>
        <time>2022-07-14T09:58:21Z</time>
      </trkpt>
      <trkpt lat="42.49663" lon="1.53326">
        <ele>1443.08</ele>
        <time>2022-07-14T09:58:36Z</time>
      </trkpt>
      <trkpt lat="42.49665" lon="1.53337">
        <ele>1445</ele>
        <time>2022-07-14T09:58:46Z</time>
      </trkpt>
      <trkpt lat="42.49657" lon="1.53344">
        <ele>1447.88</ele>
        <time>2022-07-14T09:59:02Z</time>
      </trkpt>
      <trkpt lat="42.49655" lon="1.53337">
        <ele>1449.32</ele>
        <time>2022-07-14T09:59:15Z</time>
      </trkpt>
      <trkpt lat="42.49651" lon="1.53334">
        <ele>1451.25</ele>
        <time>2022-07-14T09:59:31Z</time>
      </trkpt>
      <trkpt lat="42.49639" lon="1.53335">
        <ele>1453.65</ele>
        <time>2022-07-14T09:59:49Z</time>
      </trkpt>
      <trkpt lat="42.49639" lon="1.53351">
        <ele>1455.57</ele>
        <time>2022-07-14T10:00:06Z</time>
      </trkpt>
      <trkpt lat="42.49639" lon="1.5336">
        <ele>1457.98</ele>
        <time>2022-07-14T10:00:20Z</time>
      </trkpt>
      <trkpt lat="42.49637" lon="1.53366">
        <ele>1459.42</ele>
        <time>2022-07-14T10:00:32Z</time>
      </trkpt>
      <trkpt lat="42.4963" lon="1.53363">
        <ele>1462.3</ele>
        <time>2022-07-14T10:00:50Z</time>
      </trkpt>
      <trkpt lat="42.49621" lon="1.53352">
        <ele>1465.19</ele>
        <time>2022-07-14T10:01:10Z</time>
      </trkpt>
      <trkpt lat="42.49613" lon="1.53356">
        <ele>1467.11</ele>
        <time>2022-07-14T10:01:26Z</time>
      </trkpt>
      <trkpt lat="42.49608" lon="1.53364">
        <ele>1469.99</ele>
        <time>2022-07-14T10:01:42Z</time>
      </trkpt>
      <trkpt lat="42.49606" lon="1.53368">
        <ele>1471.92</ele>
        <time>2022-07-14T10:01:58Z</time>
      </trkpt>
      <trkpt lat="42.49605" lon="1.53382">
        <ele>1473.84</ele>
        <time>2022-07-14T10:02:14Z</time>
      </trkpt>
      <trkpt lat="42.49605" lon="1.53384">
        <ele>1475.28</ele>
        <time>2022-07-14T10:02:24Z</time>
      </trkpt>
      <trkpt lat="42.49599" lon="1.53396">
        <ele>1477.68</ele>
        <time>2022-07-14T10:02:39Z</time>
      </trkpt>
      <trkpt lat="42.49594" lon="1.53408">
        <ele>1479.61</ele>
        <time>2022-07-14T10:02:53Z</time>
      </trkpt>
      <trkpt lat="42.4959" lon="1.53414">
        <ele>1481.05</ele>
        <time>2022-07-14T10:03:06Z</time>
      </trkpt>
      <trkpt lat="42.49585" lon="1.53422">
        <ele>1482.97</ele>
        <time>2022-07-14T10:03:20Z</time>
      </trkpt>
      <trkpt lat="42.49582" lon="1.53429">
        <ele>1485.37</ele>
        <time>2022-07-14T10:03:33Z</time>
      </trkpt>
      <trkpt lat="42.49579" lon="1.53435">
        <ele>1485.85</ele>
        <time>2022-07-14T10:03:47Z</time>
      </trkpt>
      <trkpt lat="42.49577" lon="1.53445">
        <ele>1487.78</ele>
        <time>2022-07-14T10:04:04Z</time>
      </trkpt>
      <trkpt lat="42.49574" lon="1.53455">
        <ele>1490.18</ele>
        <time>2022-07-14T10:04:18Z</time>
      </trkpt>
      <trkpt lat="42.49571" lon="1.53464">
        <ele>1492.1</ele>
        <time>2022-07-14T10:04:33Z</time>
      </trkpt>
      <trkpt lat="42.49566" lon="1.53474">
        <ele>1494.99</ele>
        <time>2022-07-14T10:04:49Z</time>
      </trkpt>
      <trkpt lat="42.49558" lon="1.53484">
        <ele>1496.43</ele>
        <time>2022-07-14T10:05:06Z</time>
      </trkpt>
      <trkpt lat="42.49554" lon="1.53492">
        <ele>1498.83</ele>
        <time>2022-07-14T10:05:22Z</time>
      </trkpt>
      <trkpt lat="42.49546" lon="1.53498">
        <ele>1500.76</ele>
        <time>2022-07-14T10:05:35Z</time>
      </trkpt>
      <trkpt lat="42.49538" lon="1.53502">
        <ele>1503.16</ele>
        <time>2022-07-14T10:05:49Z</time>
      </trkpt>
      <trkpt lat="42.49528" lon="1.53501">
        <ele>1504.6</ele>
        <time>2022-07-14T10:06:01Z</time>
      </trkpt>
      <trkpt lat="42.49521" lon="1.53505">
        <ele>1506.04</ele>
        <time>2022-07-14T10:06:13Z</time>
      </trkpt>
      <trkpt lat="42.49514" lon="1.53507">
        <ele>1507.97</ele>
        <time>2022-07-14T10:06:26Z</time>
      </trkpt>
      <trkpt lat="42.49508" lon="1.53508">
        <ele>1508.93</ele>
        <time>2022-07-14T10:06:38Z</time>
      </trkpt>
      <trkpt lat="42.49502" lon="1.53509">
        <ele>1511.33</ele>
        <time>2022-07-14T10:06:53Z</time>
      </trkpt>
      <trkpt lat="42.49494" lon="1.53517">
        <ele>1513.25</ele>
        <time>2022-07-14T10:07:06Z</time>
      </trkpt>
      <trkpt lat="42.49494" lon="1.53527">
        <ele>1514.69</ele>
        <time>2022-07-14T10:07:20Z</time>
      </trkpt>
      <trkpt lat="42.49491" lon="1.53541">
        <ele>1516.62</ele>
        <time>2022-07-14T10:07:35Z</time>
      </trkpt>
      <trkpt lat="42.49487" lon="1.53547">
        <ele>1519.02</ele>
        <time>2022-07-14T10:07:50Z</time>
      </trkpt>
      <trkpt lat="42.49477" lon="1.53552">
        <ele>1520.94</ele>
        <time>2022-07-14T10:08:07Z</time>
      </trkpt>
      <trkpt lat="42.49474" lon="1.53553">
        <ele>1521.42</ele>
        <time>2022-07-14T10:08:30Z</time>
      </trkpt>
      <trkpt lat="42.49465" lon="1.53554">
        <ele>1524.31</ele>
        <time>2022-07-14T10:08:47Z</time>
      </trkpt>
      <trkpt lat="42.4946" lon="1.53558">
        <ele>1526.23</ele>
        <time>2022-07-14T10:09:03Z</time>
      </trkpt>
      <trkpt lat="42.49461" lon="1.5357">
        <ele>1529.11</ele>
        <time>2022-07-14T10:09:18Z</time>
      </trkpt>
      <trkpt lat="42.49467" lon="1.53583">
        <ele>1532</ele>
        <time>2022-07-14T10:09:34Z</time>
      </trkpt>
      <trkpt lat="42.49456" lon="1.53585">
        <ele>1535.36</ele>
        <time>2022-07-14T10:09:54Z</time>
      </trkpt>
      <trkpt lat="42.49444" lon="1.53579">
        <ele>1537.77</ele>
        <time>2022-07-14T10:10:12Z</time>
      </trkpt>
      <trkpt lat="42.49445" lon="1.53594">
        <ele>1540.17</ele>
        <time>2022-07-14T10:10:28Z</time>
      </trkpt>
      <trkpt lat="42.49449" lon="1.53605">
        <ele>1541.13</ele>
        <time>2022-07-14T10:10:39Z</time>
      </trkpt>
      <trkpt lat="42.49443" lon="1.53619">
        <ele>1542.09</ele>
        <time>2022-07-14T10:10:52Z</time>
      </trkpt>
      <trkpt lat="42.4944" lon="1.53633">
        <ele>1544.01</ele>
        <time>2022-07-14T10:11:05Z</time>
      </trkpt>
      <trkpt lat="42.49434" lon="1.53641">
        <ele>1546.42</ele>
        <time>2022-07-14T10:11:19Z</time>
      </trkpt>
      <trkpt lat="42.4943" lon="1.53649">
        <ele>1547.86</ele>
        <time>2022-07-14T10:11:31Z</time>
      </trkpt>
      <trkpt lat="42.49426" lon="1.53653">
        <ele>1550.26</ele>
        <time>2022-07-14T10:11:45Z</time>
      </trkpt>
      <trkpt lat="42.49413" lon="1.53649">
        <ele>1552.67</ele>
        <time>2022-07-14T10:12:04Z</time>
      </trkpt>
      <trkpt lat="42.49407" lon="1.53654">
        <ele>1554.59</ele>
        <time>2022-07-14T10:12:19Z</time>
      </trkpt>
      <trkpt lat="42.49398" lon="1.53661">
        <ele>1556.99</ele>
        <time>2022-07-14T10:12:34Z</time>
      </trkpt>
      <trkpt lat="42.49388" lon="1.5367">
        <ele>1558.92</ele>
        <time>2022-07-14T10:12:48Z</time>
      </trkpt>
      <trkpt lat="42.49382" lon="1.53678">
        <ele>1559.88</ele>
        <time>2022-07-14T10:13:01Z</time>
      </trkpt>
      <trkpt lat="42.49377" lon="1.53686">
        <ele>1561.8</ele>
        <time>2022-07-14T10:13:13Z</time>
      </trkpt>
      <trkpt lat="42.49372" lon="1.53695">
        <ele>1564.2</ele>
        <time>2022-07-14T10:13:27Z</time>
      </trkpt>
      <trkpt lat="42.4937" lon="1.53703">
        <ele>1566.12</ele>
        <time>2022-07-14T10:13:41Z</time>
      </trkpt>
      <trkpt lat="42.49366" lon="1.53713">
        <ele>1567.57</ele>
        <time>2022-07-14T10:13:55Z</time>
      </trkpt>
      <trkpt lat="42.4936" lon="1.53721">
        <ele>1569.49</ele>
        <time>2022-07-14T10:14:09Z</time>
      </trkpt>
      <trkpt lat="42.49353" lon="1.53729">
        <ele>1571.89</ele>
        <time>2022-07-14T10:14:26Z</time>
      </trkpt>
      <trkpt lat="42.49348" lon="1.53735">
        <ele>1574.3</ele>
        <time>2022-07-14T10:14:50Z</time>
      </trkpt>
      <trkpt lat="42.49343" lon="1.53743">
        <ele>1576.22</ele>
        <time>2022-07-14T10:15:03Z</time>
      </trkpt>
      <trkpt lat="42.49339" lon="1.53753">
        <ele>1578.62</ele>
        <time>2022-07-14T10:15:19Z</time>
      </trkpt>
      <trkpt lat="42.4933" lon="1.53761">
        <ele>1581.51</ele>
        <time>2022-07-14T10:15:36Z</time>
      </trkpt>
      <trkpt lat="42.49327" lon="1.5377">
        <ele>1583.43</ele>
        <time>2022-07-14T10:15:51Z</time>
      </trkpt>
      <trkpt lat="42.49329" lon="1.53779">
        <ele>1584.87</ele>
        <time>2022-07-14T10:16:09Z</time>
      </trkpt>
      <trkpt lat="42.49329" lon="1.53781">
        <ele>1586.31</ele>
        <time>2022-07-14T10:16:22Z</time>
      </trkpt>
      <trkpt lat="42.49326" lon="1.53784">
        <ele>1586.79</ele>
        <time>2022-07-14T10:16:45Z</time>
      </trkpt>
      <trkpt lat="42.49322" lon="1.53796">
        <ele>1587.75</ele>
        <time>2022-07-14T10:17:08Z</time>
      </trkpt>
      <trkpt lat="42.49318" lon="1.53804">
        <ele>1589.2</ele>
        <time>2022-07-14T10:17:20Z</time>
      </trkpt>
      <trkpt lat="42.49312" lon="1.53808">
        <ele>1589.68</ele>
        <time>2022-07-14T10:17:30Z</time>
      </trkpt>
      <trkpt lat="42.49306" lon="1.53822">
        <ele>1590.64</ele>
        <time>2022-07-14T10:17:44Z</time>
      </trkpt>
      <trkpt lat="42.49301" lon="1.53832">
        <ele>1591.6</ele>
        <time>2022-07-14T10:17:57Z</time>
      </trkpt>
      <trkpt lat="42.49295" lon="1.5384">
        <ele>1593.52</ele>
        <time>2022-07-14T10:18:09Z</time>
      </trkpt>
      <trkpt lat="42.49294" lon="1.53855">
        <ele>1595.45</ele>
        <time>2022-07-14T10:18:26Z</time>
      </trkpt>
      <trkpt lat="42.49293" lon="1.53868">
        <ele>1596.41</ele>
        <time>2022-07-14T10:18:43Z</time>
      </trkpt>
      <trkpt lat="42.49293" lon="1.53879">
        <ele>1598.33</ele>
        <time>2022-07-14T10:18:57Z</time>
      </trkpt>
      <trkpt lat="42.49289" lon="1.53892">
        <ele>1600.25</ele>
        <time>2022-07-14T10:19:13Z</time>
      </trkpt>
      <trkpt lat="42.49283" lon="1.53902">
        <ele>1602.66</ele>
        <time>2022-07-14T10:19:27Z</time>
      </trkpt>
      <trkpt lat="42.4928" lon="1.53907">
        <ele>1603.62</ele>
        <time>2022-07-14T10:19:40Z</time>
      </trkpt>
      <trkpt lat="42.49282" lon="1.53912">
        <ele>1603.62</ele>
        <time>2022-07-14T10:20:03Z</time>
      </trkpt>
      <trkpt lat="42.4928" lon="1.53911">
        <ele>1604.1</ele>
        <time>2022-07-14T10:20:18Z</time>
      </trkpt>
      <trkpt lat="42.49278" lon="1.53914">
        <ele>1604.1</ele>
        <time>2022-07-14T10:20:35Z</time>
      </trkpt>
      <trkpt lat="42.49279" lon="1.53919">
        <ele>1604.1</ele>
        <time>2022-07-14T10:20:53Z</time>
      </trkpt>
      <trkpt lat="42.49282" lon="1.53916">
        <ele>1604.1</ele>
        <time>2022-07-14T10:21:10Z</time>
      </trkpt>
      <trkpt lat="42.49282" lon="1.53911">
        <ele>1604.58</ele>
        <time>2022-07-14T10:21:30Z</time>
      </trkpt>
      <trkpt lat="42.49278" lon="1.53917">
        <ele>1605.54</ele>
        <time>2022-07-14T10:21:45Z</time>
      </trkpt>
      <trkpt lat="42.49277" lon="1.53922">
        <ele>1606.98</ele>
        <time>2022-07-14T10:22:00Z</time>
      </trkpt>
      <trkpt lat="42.49276" lon="1.53926">
        <ele>1607.46</ele>
        <time>2022-07-14T10:22:19Z</time>
      </trkpt>
      <trkpt lat="42.49272" lon="1.53932">
        <ele>1609.86</ele>
        <time>2022-07-14T10:22:37Z</time>
      </trkpt>
      <trkpt lat="42.49265" lon="1.53936">
        <ele>1612.75</ele>
        <time>2022-07-14T10:22:54Z</time>
      </trkpt>
      <trkpt lat="42.49258" lon="1.53945">
        <ele>1614.67</ele>
        <time>2022-07-14T10:23:10Z</time>
      </trkpt>
      <trkpt lat="42.49252" lon="1.53948">
        <ele>1617.07</ele>
        <time>2022-07-14T10:23:25Z</time>
      </trkpt>
      <trkpt lat="42.49252" lon="1.53952">
        <ele>1617.56</ele>
        <time>2022-07-14T10:23:52Z</time>
      </trkpt>
      <trkpt lat="42.49247" lon="1.53962">
        <ele>1620.92</ele>
        <time>2022-07-14T10:24:09Z</time>
      </trkpt>
      <trkpt lat="42.49245" lon="1.53967">
        <ele>1622.36</ele>
        <time>2022-07-14T10:24:25Z</time>
      </trkpt>
      <trkpt lat="42.49239" lon="1.53975">
        <ele>1624.77</ele>
        <time>2022-07-14T10:24:44Z</time>
      </trkpt>
      <trkpt lat="42.49237" lon="1.53979">
        <ele>1626.69</ele>
        <time>2022-07-14T10:24:58Z</time>
      </trkpt>
      <trkpt lat="42.49231" lon="1.53988">
        <ele>1629.09</ele>
        <time>2022-07-14T10:25:14Z</time>
      </trkpt>
      <trkpt lat="42.4923" lon="1.54005">
        <ele>1630.53</ele>
        <time>2022-07-14T10:25:28Z</time>
      </trkpt>
      <trkpt lat="42.49225" lon="1.5401">
        <ele>1631.98</ele>
        <time>2022-07-14T10:25:45Z</time>
      </trkpt>
      <trkpt lat="42.49223" lon="1.54015">
        <ele>1632.46</ele>
        <time>2022-07-14T10:26:07Z</time>
      </trkpt>
      <trkpt lat="42.49221" lon="1.54017">
        <ele>1632.46</ele>
        <time>2022-07-14T10:26:32Z</time>
      </trkpt>
      <trkpt lat="42.49214" lon="1.54012">
        <ele>1633.9</ele>
        <time>2022-07-14T10:27:00Z</time>
      </trkpt>
      <trkpt lat="42.49207" lon="1.54024">
        <ele>1636.78</ele>
        <time>2022-07-14T10:27:17Z</time>
      </trkpt>
      <trkpt lat="42.49197" lon="1.54028">
        <ele>1640.15</ele>
        <time>2022-07-14T10:27:35Z</time>
      </trkpt>
      <trkpt lat="42.49195" lon="1.54028">
        <ele>1641.11</ele>
        <time>2022-07-14T10:27:52Z</time>
      </trkpt>
      <trkpt lat="42.49188" lon="1.54023">
        <ele>1643.99</ele>
        <time>2022-07-14T10:28:12Z</time>
      </trkpt>
      <trkpt lat="42.49183" lon="1.54033">
        <ele>1645.91</ele>
        <time>2022-07-14T10:28:29Z</time>
      </trkpt>
      <trkpt lat="42.49177" lon="1.54046">
        <ele>1648.8</ele>
        <time>2022-07-14T10:28:46Z</time>
      </trkpt>
      <trkpt lat="42.49172" lon="1.54053">
        <ele>1650.24</ele>
        <time>2022-07-14T10:28:59Z</time>
      </trkpt>
      <trkpt lat="42.49168" lon="1.54058">
        <ele>1652.16</ele>
        <time>2022-07-14T10:29:14Z</time>
      </trkpt>
      <trkpt lat="42.49162" lon="1.54061">
        <ele>1654.09</ele>
        <time>2022-07-14T10:29:31Z</time>
      </trkpt>
      <trkpt lat="42.49161" lon="1.5407">
        <ele>1655.53</ele>
        <time>2022-07-14T10:29:45Z</time>
      </trkpt>
      <trkpt lat="42.49158" lon="1.54083">
        <ele>1656.49</ele>
        <time>2022-07-14T10:30:00Z</time>
      </trkpt>
      <trkpt lat="42.49156" lon="1.54098">
        <ele>1658.89</ele>
        <time>2022-07-14T10:30:16Z</time>
      </trkpt>
      <trkpt lat="42.49154" lon="1.54109">
        <ele>1660.81</ele>
        <time>2022-07-14T10:30:32Z</time>
      </trkpt>
      <trkpt lat="42.49149" lon="1.54117">
        <ele>1663.22</ele>
        <time>2022-07-14T10:30:46Z</time>
      </trkpt>
      <trkpt lat="42.49144" lon="1.54125">
        <ele>1663.7</ele>
        <time>2022-07-14T10:31:06Z</time>
      </trkpt>
      <trkpt lat="42.49143" lon="1.54128">
        <ele>1665.14</ele>
        <time>2022-07-14T10:31:24Z</time>
      </trkpt>
      <trkpt lat="42.49145" lon="1.54133">
        <ele>1666.1</ele>
        <time>2022-07-14T10:31:40Z</time>
      </trkpt>
      <trkpt lat="42.49146" lon="1.54141">
        <ele>1668.02</ele>
        <time>2022-07-14T10:31:54Z</time>
      </trkpt>
      <trkpt lat="42.49144" lon="1.54151">
        <ele>1669.95</ele>
        <time>2022-07-14T10:32:08Z</time>
      </trkpt>
      <trkpt lat="42.49141" lon="1.54158">
        <ele>1671.87</ele>
        <time>2022-07-14T10:32:21Z</time>
      </trkpt>
      <trkpt lat="42.49136" lon="1.54164">
        <ele>1672.35</ele>
        <time>2022-07-14T10:32:38Z</time>
      </trkpt>
      <trkpt lat="42.49136" lon="1.54174">
        <ele>1672.35</ele>
        <time>2022-07-14T10:32:59Z</time>
      </trkpt>
      <trkpt lat="42.49136" lon="1.54179">
        <ele>1673.79</ele>
        <time>2022-07-14T10:33:13Z</time>
      </trkpt>
      <trkpt lat="42.49141" lon="1.54184">
        <ele>1675.72</ele>
        <time>2022-07-14T10:33:29Z</time>
      </trkpt>
      <trkpt lat="42.49141" lon="1.54188">
        <ele>1675.72</ele>
        <time>2022-07-14T10:33:46Z</time>
      </trkpt>
      <trkpt lat="42.49144" lon="1.54187">
        <ele>1675.72</ele>
        <time>2022-07-14T10:34:08Z</time>
      </trkpt>
      <trkpt lat="42.49144" lon="1.54189">
        <ele>1676.2</ele>
        <time>2022-07-14T10:34:29Z</time>
      </trkpt>
      <trkpt lat="42.49138" lon="1.54185">
        <ele>1676.2</ele>
        <time>2022-07-14T10:34:46Z</time>
      </trkpt>
      <trkpt lat="42.4914" lon="1.54186">
        <ele>1677.64</ele>
        <time>2022-07-14T10:35:12Z</time>
      </trkpt>
      <trkpt lat="42.49138" lon="1.54183">
        <ele>1677.64</ele>
        <time>2022-07-14T10:35:33Z</time>
      </trkpt>
      <trkpt lat="42.49135" lon="1.54181">
        <ele>1677.16</ele>
        <time>2022-07-14T10:35:59Z</time>
      </trkpt>
      <trkpt lat="42.49137" lon="1.54181">
        <ele>1677.64</ele>
        <time>2022-07-14T10:36:29Z</time>
      </trkpt>
      <trkpt lat="42.49139" lon="1.54181">
        <ele>1678.12</ele>
        <time>2022-07-14T10:36:54Z</time>
      </trkpt>
      <trkpt lat="42.49137" lon="1.54182">
        <ele>1678.6</ele>
        <time>2022-07-14T10:37:20Z</time>
      </trkpt>
      <trkpt lat="42.49135" lon="1.54182">
        <ele>1680.04</ele>
        <time>2022-07-14T10:37:37Z</time>
      </trkpt>
      <trkpt lat="42.49134" lon="1.54192">
        <ele>1682.44</ele>
        <time>2022-07-14T10:37:53Z</time>
      </trkpt>
      <trkpt lat="42.49134" lon="1.54198">
        <ele>1682.93</ele>
        <time>2022-07-14T10:38:12Z</time>
      </trkpt>
      <trkpt lat="42.49136" lon="1.54198">
        <ele>1682.93</ele>
        <time>2022-07-14T10:38:30Z</time>
      </trkpt>
      <trkpt lat="42.49136" lon="1.54202">
        <ele>1684.37</ele>
        <time>2022-07-14T10:38:37Z</time>
      </trkpt>
      <trkpt lat="42.49134" lon="1.54212">
        <ele>1686.77</ele>
        <time>2022-07-14T10:38:51Z</time>
      </trkpt>
      <trkpt lat="42.49132" lon="1.5422">
        <ele>1689.17</ele>
        <time>2022-07-14T10:39:04Z</time>
      </trkpt>
      <trkpt lat="42.49123" lon="1.54224">
        <ele>1692.06</ele>
        <time>2022-07-14T10:39:20Z</time>
      </trkpt>
      <trkpt lat="42.49118" lon="1.54224">
        <ele>1693.02</ele>
        <time>2022-07-14T10:39:40Z</time>
      </trkpt>
      <trkpt lat="42.49111" lon="1.54227">
        <ele>1695.42</ele>
        <time>2022-07-14T10:39:54Z</time>
      </trkpt>
      <trkpt lat="42.49107" lon="1.54234">
        <ele>1697.34</ele>
        <time>2022-07-14T10:40:08Z</time>
      </trkpt>
      <trkpt lat="42.49105" lon="1.54243">
        <ele>1700.23</ele>
        <time>2022-07-14T10:40:21Z</time>
      </trkpt>
      <trkpt lat="42.49103" lon="1.54247">
        <ele>1701.67</ele>
        <time>2022-07-14T10:40:33Z</time>
      </trkpt>
      <trkpt lat="42.49093" lon="1.54247">
        <ele>1704.55</ele>
        <time>2022-07-14T10:40:49Z</time>
      </trkpt>
      <trkpt lat="42.49087" lon="1.54252">
        <ele>1706.96</ele>
        <time>2022-07-14T10:41:01Z</time>
      </trkpt>
      <trkpt lat="42.49077" lon="1.54258">
        <ele>1708.4</ele>
        <time>2022-07-14T10:41:16Z</time>
      </trkpt>
      <trkpt lat="42.49076" lon="1.54264">
        <ele>1710.32</ele>
        <time>2022-07-14T10:41:37Z</time>
      </trkpt>
      <trkpt lat="42.49072" lon="1.54268">
        <ele>1713.21</ele>
        <time>2022-07-14T10:41:52Z</time>
      </trkpt>
      <trkpt lat="42.49074" lon="1.5428">
        <ele>1714.65</ele>
        <time>2022-07-14T10:42:05Z</time>
      </trkpt>
      <trkpt lat="42.49076" lon="1.54283">
        <ele>1716.09</ele>
        <time>2022-07-14T10:42:21Z</time>
      </trkpt>
      <trkpt lat="42.49076" lon="1.54287">
        <ele>1718.97</ele>
        <time>2022-07-14T10:42:40Z</time>
      </trkpt>
      <trkpt lat="42.4907" lon="1.54298">
        <ele>1720.9</ele>
        <time>2022-07-14T10:42:58Z</time>
      </trkpt>
      <trkpt lat="42.49063" lon="1.54302">
        <ele>1724.26</ele>
        <time>2022-07-14T10:43:16Z</time>
      </trkpt>
      <trkpt lat="42.4906" lon="1.54309">
        <ele>1725.7</ele>
        <time>2022-07-14T10:43:29Z</time>
      </trkpt>
      <trkpt lat="42.49063" lon="1.54316">
        <ele>1727.63</ele>
        <time>2022-07-14T10:43:41Z</time>
      </trkpt>
      <trkpt lat="42.4906" lon="1.54312">
        <ele>1729.07</ele>
        <time>2022-07-14T10:43:59Z</time>
      </trkpt>
      <trkpt lat="42.49051" lon="1.54311">
        <ele>1730.51</ele>
        <time>2022-07-14T10:44:15Z</time>
      </trkpt>
      <trkpt lat="42.49043" lon="1.54315">
        <ele>1732.91</ele>
        <time>2022-07-14T10:44:32Z</time>
      </trkpt>
      <trkpt lat="42.49036" lon="1.54318">
        <ele>1735.32</ele>
        <time>2022-07-14T10:44:45Z</time>
      </trkpt>
      <trkpt lat="42.49033" lon="1.54318">
        <ele>1735.8</ele>
        <time>2022-07-14T10:45:04Z</time>
      </trkpt>
      <trkpt lat="42.4903" lon="1.54321">
        <ele>1736.28</ele>
        <time>2022-07-14T10:45:25Z</time>
      </trkpt>
      <trkpt lat="42.49031" lon="1.54323">
        <ele>1736.76</ele>
        <time>2022-07-14T10:45:48Z</time>
      </trkpt>
      <trkpt lat="42.49034" lon="1.54335">
        <ele>1740.12</ele>
        <time>2022-07-14T10:46:05Z</time>
      </trkpt>
      <trkpt lat="42.4903" lon="1.54341">
        <ele>1742.53</ele>
        <time>2022-07-14T10:46:19Z</time>
      </trkpt>
      <trkpt lat="42.4902" lon="1.54347">
        <ele>1744.45</ele>
        <time>2022-07-14T10:46:36Z</time>
      </trkpt>
      <trkpt lat="42.49015" lon="1.54353">
        <ele>1747.33</ele>
        <time>2022-07-14T10:46:54Z</time>
      </trkpt>
      <trkpt lat="42.49009" lon="1.54356">
        <ele>1748.78</ele>
        <time>2022-07-14T10:47:17Z</time>
      </trkpt>
      <trkpt lat="42.49004" lon="1.54362">
        <ele>1751.18</ele>
        <time>2022-07-14T10:47:34Z</time>
      </trkpt>
      <trkpt lat="42.49017" lon="1.54367">
        <ele>1753.1</ele>
        <time>2022-07-14T10:47:48Z</time>
      </trkpt>
      <trkpt lat="42.4902" lon="1.54375">
        <ele>1755.02</ele>
        <time>2022-07-14T10:48:02Z</time>
      </trkpt>
      <trkpt lat="42.49012" lon="1.5438">
        <ele>1757.91</ele>
        <time>2022-07-14T10:48:21Z</time>
      </trkpt>
      <trkpt lat="42.49001" lon="1.54382">
        <ele>1759.35</ele>
        <time>2022-07-14T10:48:46Z</time>
      </trkpt>
      <trkpt lat="42.4899" lon="1.54386">
        <ele>1761.75</ele>
        <time>2022-07-14T10:49:03Z</time>
      </trkpt>
      <trkpt lat="42.48981" lon="1.54391">
        <ele>1764.16</ele>
        <time>2022-07-14T10:49:19Z</time>
      </trkpt>
      <trkpt lat="42.48974" lon="1.54398">
        <ele>1766.56</ele>
        <time>2022-07-14T10:49:36Z</time>
      </trkpt>
      <trkpt lat="42.48972" lon="1.54406">
        <ele>1768.96</ele>
        <time>2022-07-14T10:49:53Z</time>
      </trkpt>
      <trkpt lat="42.48973" lon="1.5441">
        <ele>1770.41</ele>
        <time>2022-07-14T10:50:13Z</time>
      </trkpt>
      <trkpt lat="42.48965" lon="1.54412">
        <ele>1771.37</ele>
        <time>2022-07-14T10:50:33Z</time>
      </trkpt>
      <trkpt lat="42.48946" lon="1.54411">
        <ele>1771.37</ele>
        <time>2022-07-14T10:51:03Z</time>
      </trkpt>
      <trkpt lat="42.48943" lon="1.54408">
        <ele>1771.37</ele>
        <time>2022-07-14T10:51:33Z</time>
      </trkpt>
      <trkpt lat="42.48939" lon="1.54412">
        <ele>1773.77</ele>
        <time>2022-07-14T10:51:47Z</time>
      </trkpt>
      <trkpt lat="42.4894" lon="1.5442">
        <ele>1776.17</ele>
        <time>2022-07-14T10:52:01Z</time>
      </trkpt>
      <trkpt lat="42.48935" lon="1.54433">
        <ele>1778.58</ele>
        <time>2022-07-14T10:52:19Z</time>
      </trkpt>
      <trkpt lat="42.48933" lon="1.54446">
        <ele>1781.94</ele>
        <time>2022-07-14T10:52:35Z</time>
      </trkpt>
      <trkpt lat="42.48929" lon="1.54453">
        <ele>1784.82</ele>
        <time>2022-07-14T10:52:56Z</time>
      </trkpt>
      <trkpt lat="42.48928" lon="1.54456">
        <ele>1786.27</ele>
        <time>2022-07-14T10:53:16Z</time>
      </trkpt>
      <trkpt lat="42.4892" lon="1.54465">
        <ele>1788.67</ele>
        <time>2022-07-14T10:53:34Z</time>
      </trkpt>
      <trkpt lat="42.48911" lon="1.54471">
        <ele>1791.55</ele>
        <time>2022-07-14T10:53:48Z</time>
      </trkpt>
      <trkpt lat="42.4891" lon="1.54472">
        <ele>1793</ele>
        <time>2022-07-14T10:54:06Z</time>
      </trkpt>
      <trkpt lat="42.489" lon="1.54479">
        <ele>1795.4</ele>
        <time>2022-07-14T10:54:28Z</time>
      </trkpt>
      <trkpt lat="42.48901" lon="1.54486">
        <ele>1797.32</ele>
        <time>2022-07-14T10:54:44Z</time>
      </trkpt>
      <trkpt lat="42.48897" lon="1.54489">
        <ele>1798.28</ele>
        <time>2022-07-14T10:55:06Z</time>
      </trkpt>
      <trkpt lat="42.48896" lon="1.5448">
        <ele>1800.21</ele>
        <time>2022-07-14T10:55:29Z</time>
      </trkpt>
      <trkpt lat="42.48893" lon="1.54481">
        <ele>1802.61</ele>
        <time>2022-07-14T10:55:47Z</time>
      </trkpt>
      <trkpt lat="42.48879" lon="1.54489">
        <ele>1805.49</ele>
        <time>2022-07-14T10:56:05Z</time>
      </trkpt>
      <trkpt lat="42.4887" lon="1.54496">
        <ele>1807.42</ele>
        <time>2022-07-14T10:56:26Z</time>
      </trkpt>
      <trkpt lat="42.48866" lon="1.54496">
        <ele>1808.86</ele>
        <time>2022-07-14T10:56:47Z</time>
      </trkpt>
      <trkpt lat="42.48856" lon="1.545">
        <ele>1810.78</ele>
        <time>2022-07-14T10:57:01Z</time>
      </trkpt>
      <trkpt lat="42.48853" lon="1.54507">
        <ele>1813.66</ele>
        <time>2022-07-14T10:57:17Z</time>
      </trkpt>
      <trkpt lat="42.4885" lon="1.54513">
        <ele>1815.11</ele>
        <time>2022-07-14T10:57:31Z</time>
      </trkpt>
      <trkpt lat="42.48849" lon="1.54518">
        <ele>1816.55</ele>
        <time>2022-07-14T10:57:50Z</time>
      </trkpt>
      <trkpt lat="42.48848" lon="1.54515">
        <ele>1819.43</ele>
        <time>2022-07-14T10:58:09Z</time>
      </trkpt>
      <trkpt lat="42.48842" lon="1.54511">
        <ele>1822.32</ele>
        <time>2022-07-14T10:58:32Z</time>
      </trkpt>
      <trkpt lat="42.48838" lon="1.54524">
        <ele>1825.2</ele>
        <time>2022-07-14T10:58:50Z</time>
      </trkpt>
      <trkpt lat="42.48832" lon="1.54519">
        <ele>1826.64</ele>
        <time>2022-07-14T10:59:10Z</time>
      </trkpt>
      <trkpt lat="42.48821" lon="1.54526">
        <ele>1828.08</ele>
        <time>2022-07-14T10:59:27Z</time>
      </trkpt>
      <trkpt lat="42.48832" lon="1.54536">
        <ele>1830.49</ele>
        <time>2022-07-14T10:59:42Z</time>
      </trkpt>
      <trkpt lat="42.4883" lon="1.54533">
        <ele>1832.89</ele>
        <time>2022-07-14T10:59:58Z</time>
      </trkpt>
      <trkpt lat="42.48823" lon="1.54533">
        <ele>1833.37</ele>
        <time>2022-07-14T11:00:20Z</time>
      </trkpt>
      <trkpt lat="42.48816" lon="1.5454">
        <ele>1836.26</ele>
        <time>2022-07-14T11:00:36Z</time>
      </trkpt>
      <trkpt lat="42.48812" lon="1.54542">
        <ele>1838.66</ele>
        <time>2022-07-14T11:00:51Z</time>
      </trkpt>
      <trkpt lat="42.4881" lon="1.54538">
        <ele>1839.14</ele>
        <time>2022-07-14T11:01:12Z</time>
      </trkpt>
      <trkpt lat="42.48812" lon="1.54535">
        <ele>1839.14</ele>
        <time>2022-07-14T11:01:27Z</time>
      </trkpt>
      <trkpt lat="42.48815" lon="1.54529">
        <ele>1839.62</ele>
        <time>2022-07-14T11:01:48Z</time>
      </trkpt>
      <trkpt lat="42.48813" lon="1.54528">
        <ele>1839.62</ele>
        <time>2022-07-14T11:02:12Z</time>
      </trkpt>
      <trkpt lat="42.4881" lon="1.54527">
        <ele>1840.1</ele>
        <time>2022-07-14T11:02:38Z</time>
      </trkpt>
      <trkpt lat="42.48806" lon="1.54526">
        <ele>1840.58</ele>
        <time>2022-07-14T11:03:04Z</time>
      </trkpt>
      <trkpt lat="42.488" lon="1.54537">
        <ele>1841.06</ele>
        <time>2022-07-14T11:03:33Z</time>
      </trkpt>
      <trkpt lat="42.48812" lon="1.54532">
        <ele>1841.54</ele>
        <time>2022-07-14T11:03:50Z</time>
      </trkpt>
      <trkpt lat="42.48811" lon="1.54532">
        <ele>1841.54</ele>
        <time>2022-07-14T11:04:07Z</time>
      </trkpt>
      <trkpt lat="42.48812" lon="1.54527">
        <ele>1842.5</ele>
        <time>2022-07-14T11:04:23Z</time>
      </trkpt>
      <trkpt lat="42.48812" lon="1.54524">
        <ele>1842.5</ele>
        <time>2022-07-14T11:04:36Z</time>
      </trkpt>
      <trkpt lat="42.4881" lon="1.54525">
        <ele>1842.98</ele>
        <time>2022-07-14T11:04:48Z</time>
      </trkpt>
      <trkpt lat="42.4881" lon="1.54521">
        <ele>1843.47</ele>
        <time>2022-07-14T11:05:10Z</time>
      </trkpt>
      <trkpt lat="42.48809" lon="1.54522">
        <ele>1843.47</ele>
        <time>2022-07-14T11:05:26Z</time>
      </trkpt>
      <trkpt lat="42.48804" lon="1.54526">
        <ele>1844.91</ele>
        <time>2022-07-14T11:05:49Z</time>
      </trkpt>
      <trkpt lat="42.48796" lon="1.54542">
        <ele>1846.83</ele>
        <time>2022-07-14T11:06:19Z</time>
      </trkpt>
      <trkpt lat="42.48796" lon="1.54545">
        <ele>1849.23</ele>
        <time>2022-07-14T11:06:36Z</time>
      </trkpt>
      <trkpt lat="42.4878" lon="1.5455">
        <ele>1850.19</ele>
        <time>2022-07-14T11:06:55Z</time>
      </trkpt>
      <trkpt lat="42.48778" lon="1.54553">
        <ele>1852.6</ele>
        <time>2022-07-14T11:07:14Z</time>
      </trkpt>
      <trkpt lat="42.48775" lon="1.54558">
        <ele>1855</ele>
        <time>2022-07-14T11:07:31Z</time>
      </trkpt>
      <trkpt lat="42.48773" lon="1.54564">
        <ele>1858.37</ele>
        <time>2022-07-14T11:07:49Z</time>
      </trkpt>
      <trkpt lat="42.48772" lon="1.54574">
        <ele>1860.29</ele>
        <time>2022-07-14T11:08:04Z</time>
      </trkpt>
      <trkpt lat="42.48769" lon="1.5458">
        <ele>1862.21</ele>
        <time>2022-07-14T11:08:21Z</time>
      </trkpt>
      <trkpt lat="42.48773" lon="1.54587">
        <ele>1863.17</ele>
        <time>2022-07-14T11:08:42Z</time>
      </trkpt>
      <trkpt lat="42.48771" lon="1.54586">
        <ele>1863.65</ele>
        <time>2022-07-14T11:09:09Z</time>
      </trkpt>
      <trkpt lat="42.48764" lon="1.54591">
        <ele>1866.06</ele>
        <time>2022-07-14T11:09:26Z</time>
      </trkpt>
      <trkpt lat="42.48758" lon="1.54596">
        <ele>1868.46</ele>
        <time>2022-07-14T11:09:40Z</time>
      </trkpt>
      <trkpt lat="42.48755" lon="1.54602">
        <ele>1869.9</ele>
        <time>2022-07-14T11:09:56Z</time>
      </trkpt>
      <trkpt lat="42.48749" lon="1.5461">
        <ele>1871.82</ele>
        <time>2022-07-14T11:10:10Z</time>
      </trkpt>
      <trkpt lat="42.48744" lon="1.54614">
        <ele>1873.75</ele>
        <time>2022-07-14T11:10:25Z</time>
      </trkpt>
      <trkpt lat="42.48739" lon="1.5462">
        <ele>1876.15</ele>
        <time>2022-07-14T11:10:39Z</time>
      </trkpt>
      <trkpt lat="42.48736" lon="1.54623">
        <ele>1877.59</ele>
        <time>2022-07-14T11:10:58Z</time>
      </trkpt>
      <trkpt lat="42.48729" lon="1.54623">
        <ele>1880</ele>
        <time>2022-07-14T11:11:14Z</time>
      </trkpt>
      <trkpt lat="42.48718" lon="1.54624">
        <ele>1881.92</ele>
        <time>2022-07-14T11:11:31Z</time>
      </trkpt>
      <trkpt lat="42.48712" lon="1.54629">
        <ele>1883.84</ele>
        <time>2022-07-14T11:11:46Z</time>
      </trkpt>
      <trkpt lat="42.48708" lon="1.54635">
        <ele>1884.8</ele>
        <time>2022-07-14T11:12:01Z</time>
      </trkpt>
      <trkpt lat="42.48703" lon="1.54643">
        <ele>1886.72</ele>
        <time>2022-07-14T11:12:15Z</time>
      </trkpt>
      <trkpt lat="42.48701" lon="1.54651">
        <ele>1889.61</ele>
        <time>2022-07-14T11:12:32Z</time>
      </trkpt>
      <trkpt lat="42.48696" lon="1.54651">
        <ele>1891.05</ele>
        <time>2022-07-14T11:12:48Z</time>
      </trkpt>
      <trkpt lat="42.48688" lon="1.54653">
        <ele>1892.49</ele>
        <time>2022-07-14T11:13:08Z</time>
      </trkpt>
      <trkpt lat="42.48681" lon="1.54655">
        <ele>1894.9</ele>
        <time>2022-07-14T11:13:24Z</time>
      </trkpt>
      <trkpt lat="42.48677" lon="1.54657">
        <ele>1897.3</ele>
        <time>2022-07-14T11:13:39Z</time>
      </trkpt>
      <trkpt lat="42.48675" lon="1.54668">
        <ele>1899.7</ele>
        <time>2022-07-14T11:13:55Z</time>
      </trkpt>
      <trkpt lat="42.4867" lon="1.5467">
        <ele>1902.11</ele>
        <time>2022-07-14T11:14:09Z</time>
      </trkpt>
      <trkpt lat="42.48663" lon="1.54669">
        <ele>1904.99</ele>
        <time>2022-07-14T11:14:27Z</time>
      </trkpt>
      <trkpt lat="42.48658" lon="1.54672">
        <ele>1906.91</ele>
        <time>2022-07-14T11:14:42Z</time>
      </trkpt>
      <trkpt lat="42.48657" lon="1.54673">
        <ele>1908.35</ele>
        <time>2022-07-14T11:14:58Z</time>
      </trkpt>
      <trkpt lat="42.48658" lon="1.54676">
        <ele>1908.35</ele>
        <time>2022-07-14T11:15:22Z</time>
      </trkpt>
      <trkpt lat="42.48656" lon="1.54677">
        <ele>1909.8</ele>
        <time>2022-07-14T11:15:40Z</time>
      </trkpt>
      <trkpt lat="42.48649" lon="1.54677">
        <ele>1912.2</ele>
        <time>2022-07-14T11:15:55Z</time>
      </trkpt>
      <trkpt lat="42.48641" lon="1.54677">
        <ele>1915.08</ele>
        <time>2022-07-14T11:16:11Z</time>
      </trkpt>
      <trkpt lat="42.48636" lon="1.54682">
        <ele>1916.04</ele>
        <time>2022-07-14T11:16:26Z</time>
      </trkpt>
      <trkpt lat="42.48631" lon="1.54687">
        <ele>1918.93</ele>
        <time>2022-07-14T11:16:40Z</time>
      </trkpt>
      <trkpt lat="42.48627" lon="1.54687">
        <ele>1919.89</ele>
        <time>2022-07-14T11:16:54Z</time>
      </trkpt>
      <trkpt lat="42.48626" lon="1.54688">
        <ele>1921.33</ele>
        <time>2022-07-14T11:17:08Z</time>
      </trkpt>
      <trkpt lat="42.48622" lon="1.54686">
        <ele>1921.81</ele>
        <time>2022-07-14T11:17:29Z</time>
      </trkpt>
      <trkpt lat="42.48612" lon="1.54685">
        <ele>1924.7</ele>
        <time>2022-07-14T11:17:43Z</time>
      </trkpt>
      <trkpt lat="42.48607" lon="1.5469">
        <ele>1926.62</ele>
        <time>2022-07-14T11:18:00Z</time>
      </trkpt>
      <trkpt lat="42.48609" lon="1.54694">
        <ele>1927.58</ele>
        <time>2022-07-14T11:18:23Z</time>
      </trkpt>
      <trkpt lat="42.48605" lon="1.54697">
        <ele>1929.02</ele>
        <time>2022-07-14T11:18:43Z</time>
      </trkpt>
      <trkpt lat="42.48602" lon="1.54697">
        <ele>1929.98</ele>
        <time>2022-07-14T11:18:59Z</time>
      </trkpt>
      <trkpt lat="42.48599" lon="1.54696">
        <ele>1930.46</ele>
        <time>2022-07-14T11:19:23Z</time>
      </trkpt>
      <trkpt lat="42.48598" lon="1.54695">
        <ele>1930.95</ele>
        <time>2022-07-14T11:19:47Z</time>
      </trkpt>
      <trkpt lat="42.48598" lon="1.54702">
        <ele>1931.91</ele>
        <time>2022-07-14T11:20:07Z</time>
      </trkpt>
      <trkpt lat="42.48596" lon="1.54712">
        <ele>1934.31</ele>
        <time>2022-07-14T11:20:22Z</time>
      </trkpt>
      <trkpt lat="42.48591" lon="1.54716">
        <ele>1937.19</ele>
        <time>2022-07-14T11:20:37Z</time>
      </trkpt>
      <trkpt lat="42.48589" lon="1.54722">
        <ele>1939.12</ele>
        <time>2022-07-14T11:20:53Z</time>
      </trkpt>
      <trkpt lat="42.48591" lon="1.54728">
        <ele>1940.56</ele>
        <time>2022-07-14T11:21:11Z</time>
      </trkpt>
      <trkpt lat="42.48591" lon="1.54732">
        <ele>1942.48</ele>
        <time>2022-07-14T11:21:28Z</time>
      </trkpt>
      <trkpt lat="42.48591" lon="1.54729">
        <ele>1942.96</ele>
        <time>2022-07-14T11:21:58Z</time>
      </trkpt>
      <trkpt lat="42.48581" lon="1.54737">
        <ele>1946.33</ele>
        <time>2022-07-14T11:22:15Z</time>
      </trkpt>
      <trkpt lat="42.48571" lon="1.54737">
        <ele>1947.77</ele>
        <time>2022-07-14T11:22:32Z</time>
      </trkpt>
      <trkpt lat="42.48572" lon="1.54738">
        <ele>1947.77</ele>
        <time>2022-07-14T11:23:01Z</time>
      </trkpt>
      <trkpt lat="42.48574" lon="1.54743">
        <ele>1949.69</ele>
        <time>2022-07-14T11:23:22Z</time>
      </trkpt>
      <trkpt lat="42.48574" lon="1.54747">
        <ele>1951.13</ele>
        <time>2022-07-14T11:23:38Z</time>
      </trkpt>
      <trkpt lat="42.48572" lon="1.54753">
        <ele>1953.54</ele>
        <time>2022-07-14T11:23:53Z</time>
      </trkpt>
      <trkpt lat="42.48565" lon="1.54755">
        <ele>1956.42</ele>
        <time>2022-07-14T11:24:11Z</time>
      </trkpt>
      <trkpt lat="42.48561" lon="1.54756">
        <ele>1958.34</ele>
        <time>2022-07-14T11:24:31Z</time>
      </trkpt>
      <trkpt lat="42.48553" lon="1.54755">
        <ele>1960.27</ele>
        <time>2022-07-14T11:24:48Z</time>
      </trkpt>
      <trkpt lat="42.48548" lon="1.54746">
        <ele>1961.71</ele>
        <time>2022-07-14T11:25:05Z</time>
      </trkpt>
      <trkpt lat="42.48542" lon="1.5475">
        <ele>1965.07</ele>
        <time>2022-07-14T11:25:22Z</time>
      </trkpt>
      <trkpt lat="42.48538" lon="1.54755">
        <ele>1966.51</ele>
        <time>2022-07-14T11:25:35Z</time>
      </trkpt>
      <trkpt lat="42.48533" lon="1.54755">
        <ele>1968.44</ele>
        <time>2022-07-14T11:25:53Z</time>
      </trkpt>
      <trkpt lat="42.48534" lon="1.54762">
        <ele>1969.4</ele>
        <time>2022-07-14T11:26:22Z</time>
      </trkpt>
      <trkpt lat="42.48534" lon="1.54769">
        <ele>1971.8</ele>
        <time>2022-07-14T11:26:37Z</time>
      </trkpt>
      <trkpt lat="42.48529" lon="1.54767">
        <ele>1973.24</ele>
        <time>2022-07-14T11:26:50Z</time>
      </trkpt>
      <trkpt lat="42.4852" lon="1.54762">
        <ele>1975.17</ele>
        <time>2022-07-14T11:27:11Z</time>
      </trkpt>
      <trkpt lat="42.48515" lon="1.54762">
        <ele>1977.09</ele>
        <time>2022-07-14T11:27:26Z</time>
      </trkpt>
      <trkpt lat="42.48511" lon="1.54767">
        <ele>1979.01</ele>
        <time>2022-07-14T11:27:42Z</time>
      </trkpt>
      <trkpt lat="42.48507" lon="1.54764">
        <ele>1980.45</ele>
        <time>2022-07-14T11:28:04Z</time>
      </trkpt>
      <trkpt lat="42.48502" lon="1.54762">
        <ele>1982.86</ele>
        <time>2022-07-14T11:28:21Z</time>
      </trkpt>
      <trkpt lat="42.48499" lon="1.54759">
        <ele>1985.26</ele>
        <time>2022-07-14T11:28:39Z</time>
      </trkpt>
      <trkpt lat="42.48499" lon="1.54765">
        <ele>1986.7</ele>
        <time>2022-07-14T11:28:59Z</time>
      </trkpt>
      <trkpt lat="42.48494" lon="1.54759">
        <ele>1989.1</ele>
        <time>2022-07-14T11:29:17Z</time>
      </trkpt>
      <trkpt lat="42.48492" lon="1.54754">
        <ele>1990.55</ele>
        <time>2022-07-14T11:29:38Z</time>
      </trkpt>
      <trkpt lat="42.48491" lon="1.54758">
        <ele>1991.03</ele>
        <time>2022-07-14T11:30:05Z</time>
      </trkpt>
      <trkpt lat="42.48494" lon="1.54759">
        <ele>1991.51</ele>
        <time>2022-07-14T11:30:32Z</time>
      </trkpt>
      <trkpt lat="42.48491" lon="1.54751">
        <ele>1992.95</ele>
        <time>2022-07-14T11:30:50Z</time>
      </trkpt>
      <trkpt lat="42.48482" lon="1.54745">
        <ele>1995.35</ele>
        <time>2022-07-14T11:31:07Z</time>
      </trkpt>
      <trkpt lat="42.48472" lon="1.54747">
        <ele>1998.24</ele>
        <time>2022-07-14T11:31:22Z</time>
      </trkpt>
      <trkpt lat="42.4847" lon="1.54747">
        <ele>1999.68</ele>
        <time>2022-07-14T11:31:38Z</time>
      </trkpt>
      <trkpt lat="42.48465" lon="1.5475">
        <ele>2001.12</ele>
        <time>2022-07-14T11:31:54Z</time>
      </trkpt>
      <trkpt lat="42.48464" lon="1.54755">
        <ele>2002.56</ele>
        <time>2022-07-14T11:32:10Z</time>
      </trkpt>
      <trkpt lat="42.48459" lon="1.54761">
        <ele>2004.01</ele>
        <time>2022-07-14T11:32:33Z</time>
      </trkpt>
      <trkpt lat="42.4845" lon="1.54757">
        <ele>2006.89</ele>
        <time>2022-07-14T11:32:50Z</time>
      </trkpt>
      <trkpt lat="42.48443" lon="1.54756">
        <ele>2008.81</ele>
        <time>2022-07-14T11:33:12Z</time>
      </trkpt>
      <trkpt lat="42.48439" lon="1.54754">
        <ele>2009.77</ele>
        <time>2022-07-14T11:33:35Z</time>
      </trkpt>
      <trkpt lat="42.48436" lon="1.54757">
        <ele>2011.7</ele>
        <time>2022-07-14T11:33:54Z</time>
      </trkpt>
      <trkpt lat="42.48427" lon="1.5476">
        <ele>2014.1</ele>
        <time>2022-07-14T11:34:13Z</time>
      </trkpt>
      <trkpt lat="42.4842" lon="1.54763">
        <ele>2016.98</ele>
        <time>2022-07-14T11:34:29Z</time>
      </trkpt>
      <trkpt lat="42.48413" lon="1.54764">
        <ele>2018.43</ele>
        <time>2022-07-14T11:34:45Z</time>
      </trkpt>
      <trkpt lat="42.48403" lon="1.54764">
        <ele>2021.31</ele>
        <time>2022-07-14T11:35:03Z</time>
      </trkpt>
      <trkpt lat="42.4839" lon="1.54762">
        <ele>2022.27</ele>
        <time>2022-07-14T11:35:21Z</time>
      </trkpt>
      <trkpt lat="42.48389" lon="1.54758">
        <ele>2022.75</ele>
        <time>2022-07-14T11:35:49Z</time>
      </trkpt>
      <trkpt lat="42.48388" lon="1.54757">
        <ele>2022.75</ele>
        <time>2022-07-14T11:36:12Z</time>
      </trkpt>
      <trkpt lat="42.48388" lon="1.54753">
        <ele>2023.23</ele>
        <time>2022-07-14T11:36:41Z</time>
      </trkpt>
      <trkpt lat="42.48392" lon="1.5475">
        <ele>2023.23</ele>
        <time>2022-07-14T11:37:11Z</time>
      </trkpt>
      <trkpt lat="42.48392" lon="1.54749">
        <ele>2023.71</ele>
        <time>2022-07-14T11:37:39Z</time>
      </trkpt>
      <trkpt lat="42.48392" lon="1.54753">
        <ele>2024.19</ele>
        <time>2022-07-14T11:38:12Z</time>
      </trkpt>
      <trkpt lat="42.48394" lon="1.54754">
        <ele>2024.67</ele>
        <time>2022-07-14T11:38:42Z</time>
      </trkpt>
      <trkpt lat="42.48393" lon="1.54756">
        <ele>2025.15</ele>
        <time>2022-07-14T11:39:10Z</time>
      </trkpt>
      <trkpt lat="42.48393" lon="1.54754">
        <ele>2025.64</ele>
        <time>2022-07-14T11:39:37Z</time>
      </trkpt>
      <trkpt lat="42.48387" lon="1.54756">
        <ele>2026.12</ele>
        <time>2022-07-14T11:39:55Z</time>
      </trkpt>
      <trkpt lat="42.48383" lon="1.54755">
        <ele>2026.6</ele>
        <time>2022-07-14T11:40:22Z</time>
      </trkpt>
      <trkpt lat="42.48384" lon="1.54755">
        <ele>2027.56</ele>
        <time>2022-07-14T11:40:48Z</time>
      </trkpt>
      <trkpt lat="42.48383" lon="1.54751">
        <ele>2029.48</ele>
        <time>2022-07-14T11:41:04Z</time>
      </trkpt>
      <trkpt lat="42.48382" lon="1.5475">
        <ele>2030.44</ele>
        <time>2022-07-14T11:41:21Z</time>
      </trkpt>
      <trkpt lat="42.48382" lon="1.54749">
        <ele>2031.4</ele>
        <time>2022-07-14T11:41:51Z</time>
      </trkpt>
      <trkpt lat="42.48373" lon="1.54744">
        <ele>2033.81</ele>
        <time>2022-07-14T11:42:07Z</time>
      </trkpt>
      <trkpt lat="42.4836" lon="1.54734">
        <ele>2035.25</ele>
        <time>2022-07-14T11:42:22Z</time>
      </trkpt>
      <trkpt lat="42.48357" lon="1.54731">
        <ele>2035.73</ele>
        <time>2022-07-14T11:42:40Z</time>
      </trkpt>
      <trkpt lat="42.48347" lon="1.54734">
        <ele>2034.77</ele>
        <time>2022-07-14T11:42:54Z</time>
      </trkpt>
      <trkpt lat="42.48338" lon="1.5474">
        <ele>2036.21</ele>
        <time>2022-07-14T11:43:07Z</time>
      </trkpt>
      <trkpt lat="42.48337" lon="1.5474">
        <ele>2036.21</ele>
        <time>2022-07-14T11:43:08Z</time>
      </trkpt>
      <trkpt lat="42.48328" lon="1.54742">
        <ele>2037.65</ele>
        <time>2022-07-14T11:43:24Z</time>
      </trkpt>
      <trkpt lat="42.48318" lon="1.54744">
        <ele>2039.57</ele>
        <time>2022-07-14T11:43:40Z</time>
      </trkpt>
      <trkpt lat="42.4831" lon="1.5475">
        <ele>2041.5</ele>
        <time>2022-07-14T11:43:57Z</time>
      </trkpt>
      <trkpt lat="42.48308" lon="1.5475">
        <ele>2042.94</ele>
        <time>2022-07-14T11:44:23Z</time>
      </trkpt>
      <trkpt lat="42.48304" lon="1.54759">
        <ele>2045.34</ele>
        <time>2022-07-14T11:44:37Z</time>
      </trkpt>
      <trkpt lat="42.48305" lon="1.54763">
        <ele>2046.3</ele>
        <time>2022-07-14T11:44:55Z</time>
      </trkpt>
      <trkpt lat="42.48301" lon="1.54769">
        <ele>2048.71</ele>
        <time>2022-07-14T11:45:10Z</time>
      </trkpt>
      <trkpt lat="42.48292" lon="1.54771">
        <ele>2051.59</ele>
        <time>2022-07-14T11:45:26Z</time>
      </trkpt>
      <trkpt lat="42.48291" lon="1.54782">
        <ele>2053.51</ele>
        <time>2022-07-14T11:45:40Z</time>
      </trkpt>
      <trkpt lat="42.48289" lon="1.54787">
        <ele>2054.96</ele>
        <time>2022-07-14T11:45:57Z</time>
      </trkpt>
      <trkpt lat="42.48288" lon="1.5479">
        <ele>2055.44</ele>
        <time>2022-07-14T11:46:24Z</time>
      </trkpt>
      <trkpt lat="42.48286" lon="1.54794">
        <ele>2056.4</ele>
        <time>2022-07-14T11:46:43Z</time>
      </trkpt>
      <trkpt lat="42.48281" lon="1.54804">
        <ele>2058.8</ele>
        <time>2022-07-14T11:47:00Z</time>
      </trkpt>
      <trkpt lat="42.48275" lon="1.54812">
        <ele>2060.72</ele>
        <time>2022-07-14T11:47:14Z</time>
      </trkpt>
      <trkpt lat="42.48267" lon="1.54816">
        <ele>2062.65</ele>
        <time>2022-07-14T11:47:29Z</time>
      </trkpt>
      <trkpt lat="42.4826" lon="1.54818">
        <ele>2064.57</ele>
        <time>2022-07-14T11:47:44Z</time>
      </trkpt>
      <trkpt lat="42.48262" lon="1.54819">
        <ele>2064.57</ele>
        <time>2022-07-14T11:48:07Z</time>
      </trkpt>
      <trkpt lat="42.48254" lon="1.54822">
        <ele>2065.53</ele>
        <time>2022-07-14T11:48:23Z</time>
      </trkpt>
      <trkpt lat="42.48245" lon="1.5483">
        <ele>2067.93</ele>
        <time>2022-07-14T11:48:39Z</time>
      </trkpt>
      <trkpt lat="42.48239" lon="1.54837">
        <ele>2069.38</ele>
        <time>2022-07-14T11:48:52Z</time>
      </trkpt>
      <trkpt lat="42.48233" lon="1.54842">
        <ele>2071.3</ele>
        <time>2022-07-14T11:49:05Z</time>
      </trkpt>
      <trkpt lat="42.48228" lon="1.54849">
        <ele>2073.22</ele>
        <time>2022-07-14T11:49:18Z</time>
      </trkpt>
      <trkpt lat="42.48228" lon="1.54852">
        <ele>2073.22</ele>
        <time>2022-07-14T11:49:42Z</time>
      </trkpt>
      <trkpt lat="42.48224" lon="1.54862">
        <ele>2074.18</ele>
        <time>2022-07-14T11:49:56Z</time>
      </trkpt>
      <trkpt lat="42.48221" lon="1.54868">
        <ele>2076.1</ele>
        <time>2022-07-14T11:50:11Z</time>
      </trkpt>
      <trkpt lat="42.48217" lon="1.54876">
        <ele>2077.07</ele>
        <time>2022-07-14T11:50:24Z</time>
      </trkpt>
      <trkpt lat="42.48211" lon="1.54886">
        <ele>2078.99</ele>
        <time>2022-07-14T11:50:38Z</time>
      </trkpt>
      <trkpt lat="42.48205" lon="1.54891">
        <ele>2080.91</ele>
        <time>2022-07-14T11:50:53Z</time>
      </trkpt>
      <trkpt lat="42.48204" lon="1.54895">
        <ele>2082.35</ele>
        <time>2022-07-14T11:51:13Z</time>
      </trkpt>
      <trkpt lat="42.48197" lon="1.54901">
        <ele>2083.79</ele>
        <time>2022-07-14T11:51:26Z</time>
      </trkpt>
      <trkpt lat="42.48188" lon="1.54905">
        <ele>2085.72</ele>
        <time>2022-07-14T11:51:42Z</time>
      </trkpt>
      <trkpt lat="42.48179" lon="1.54909">
        <ele>2087.64</ele>
        <time>2022-07-14T11:51:58Z</time>
      </trkpt>
      <trkpt lat="42.48179" lon="1.54913">
        <ele>2088.12</ele>
        <time>2022-07-14T11:52:15Z</time>
      </trkpt>
      <trkpt lat="42.4817" lon="1.54914">
        <ele>2089.56</ele>
        <time>2022-07-14T11:52:30Z</time>
      </trkpt>
      <trkpt lat="42.48159" lon="1.54915">
        <ele>2090.52</ele>
        <time>2022-07-14T11:52:44Z</time>
      </trkpt>
      <trkpt lat="42.48149" lon="1.54913">
        <ele>2092.45</ele>
        <time>2022-07-14T11:52:58Z</time>
      </trkpt>
      <trkpt lat="42.48137" lon="1.54909">
        <ele>2094.85</ele>
        <time>2022-07-14T11:53:17Z</time>
      </trkpt>
      <trkpt lat="42.48128" lon="1.54915">
        <ele>2095.33</ele>
        <time>2022-07-14T11:53:30Z</time>
      </trkpt>
      <trkpt lat="42.48121" lon="1.54915">
        <ele>2098.21</ele>
        <time>2022-07-14T11:53:42Z</time>
      </trkpt>
      <trkpt lat="42.48117" lon="1.54917">
        <ele>2098.7</ele>
        <time>2022-07-14T11:54:02Z</time>
      </trkpt>
      <trkpt lat="42.48111" lon="1.54915">
        <ele>2101.1</ele>
        <time>2022-07-14T11:54:16Z</time>
      </trkpt>
      <trkpt lat="42.48105" lon="1.54914">
        <ele>2103.5</ele>
        <time>2022-07-14T11:54:30Z</time>
      </trkpt>
      <trkpt lat="42.48101" lon="1.54914">
        <ele>2104.46</ele>
        <time>2022-07-14T11:54:49Z</time>
      </trkpt>
      <trkpt lat="42.48097" lon="1.5491">
        <ele>2105.42</ele>
        <time>2022-07-14T11:55:07Z</time>
      </trkpt>
      <trkpt lat="42.48092" lon="1.54909">
        <ele>2106.39</ele>
        <time>2022-07-14T11:55:18Z</time>
      </trkpt>
      <trkpt lat="42.48089" lon="1.54911">
        <ele>2107.35</ele>
        <time>2022-07-14T11:55:33Z</time>
      </trkpt>
      <trkpt lat="42.48087" lon="1.54921">
        <ele>2109.27</ele>
        <time>2022-07-14T11:55:46Z</time>
      </trkpt>
      <trkpt lat="42.48087" lon="1.54923">
        <ele>2109.27</ele>
        <time>2022-07-14T11:55:59Z</time>
      </trkpt>
      <trkpt lat="42.48086" lon="1.54925">
        <ele>2110.23</ele>
        <time>2022-07-14T11:56:24Z</time>
      </trkpt>
      <trkpt lat="42.48084" lon="1.54933">
        <ele>2110.71</ele>
        <time>2022-07-14T11:56:38Z</time>
      </trkpt>
      <trkpt lat="42.48076" lon="1.54933">
        <ele>2112.15</ele>
        <time>2022-07-14T11:56:52Z</time>
      </trkpt>
      <trkpt lat="42.48076" lon="1.54935">
        <ele>2113.12</ele>
        <time>2022-07-14T11:57:10Z</time>
      </trkpt>
      <trkpt lat="42.48069" lon="1.54936">
        <ele>2114.08</ele>
        <time>2022-07-14T11:57:23Z</time>
      </trkpt>
      <trkpt lat="42.48063" lon="1.54943">
        <ele>2116.48</ele>
        <time>2022-07-14T11:57:37Z</time>
      </trkpt>
      <trkpt lat="42.48054" lon="1.54951">
        <ele>2118.88</ele>
        <time>2022-07-14T11:57:52Z</time>
      </trkpt>
      <trkpt lat="42.48045" lon="1.54949">
        <ele>2119.84</ele>
        <time>2022-07-14T11:58:08Z</time>
      </trkpt>
      <trkpt lat="42.48043" lon="1.54949">
        <ele>2121.29</ele>
        <time>2022-07-14T11:58:22Z</time>
      </trkpt>
      <trkpt lat="42.48038" lon="1.54949">
        <ele>2122.73</ele>
        <time>2022-07-14T11:58:38Z</time>
      </trkpt>
      <trkpt lat="42.4804" lon="1.5495">
        <ele>2123.21</ele>
        <time>2022-07-14T11:58:55Z</time>
      </trkpt>
      <trkpt lat="42.48041" lon="1.54949">
        <ele>2123.69</ele>
        <time>2022-07-14T11:59:16Z</time>
      </trkpt>
      <trkpt lat="42.48041" lon="1.5495">
        <ele>2124.17</ele>
        <time>2022-07-14T11:59:34Z</time>
      </trkpt>
      <trkpt lat="42.4804" lon="1.54951">
        <ele>2124.17</ele>
        <time>2022-07-14T11:59:48Z</time>
      </trkpt>
      <trkpt lat="42.48038" lon="1.54956">
        <ele>2125.13</ele>
        <time>2022-07-14T12:00:01Z</time>
      </trkpt>
      <trkpt lat="42.48039" lon="1.54957">
        <ele>2126.09</ele>
        <time>2022-07-14T12:00:19Z</time>
      </trkpt>
      <trkpt lat="42.48042" lon="1.54961">
        <ele>2126.09</ele>
        <time>2022-07-14T12:00:32Z</time>
      </trkpt>
      <trkpt lat="42.48041" lon="1.54964">
        <ele>2128.5</ele>
        <time>2022-07-14T12:00:51Z</time>
      </trkpt>
      <trkpt lat="42.48041" lon="1.54976">
        <ele>2131.86</ele>
        <time>2022-07-14T12:01:07Z</time>
      </trkpt>
      <trkpt lat="42.48048" lon="1.5498">
        <ele>2132.34</ele>
        <time>2022-07-14T12:01:20Z</time>
      </trkpt>
      <trkpt lat="42.48049" lon="1.54984">
        <ele>2133.78</ele>
        <time>2022-07-14T12:01:35Z</time>
      </trkpt>
      <trkpt lat="42.48052" lon="1.54989">
        <ele>2134.26</ele>
        <time>2022-07-14T12:01:46Z</time>
      </trkpt>
      <trkpt lat="42.48057" lon="1.54997">
        <ele>2135.71</ele>
        <time>2022-07-14T12:01:59Z</time>
      </trkpt>
      <trkpt lat="42.48056" lon="1.55004">
        <ele>2137.15</ele>
        <time>2022-07-14T12:02:14Z</time>
      </trkpt>
      <trkpt lat="42.48056" lon="1.55006">
        <ele>2137.63</ele>
        <time>2022-07-14T12:02:34Z</time>
      </trkpt>
      <trkpt lat="42.48055" lon="1.55006">
        <ele>2137.63</ele>
        <time>2022-07-14T12:03:10Z</time>
      </trkpt>
      <trkpt lat="42.48056" lon="1.55008">
        <ele>2138.11</ele>
        <time>2022-07-14T12:03:43Z</time>
      </trkpt>
      <trkpt lat="42.48055" lon="1.55006">
        <ele>2138.11</ele>
        <time>2022-07-14T12:04:04Z</time>
      </trkpt>
      <trkpt lat="42.4805" lon="1.55004">
        <ele>2138.59</ele>
        <time>2022-07-14T12:04:31Z</time>
      </trkpt>
      <trkpt lat="42.4805" lon="1.55006">
        <ele>2139.07</ele>
        <time>2022-07-14T12:04:57Z</time>
      </trkpt>
      <trkpt lat="42.48045" lon="1.55019">
        <ele>2142.44</ele>
        <time>2022-07-14T12:05:13Z</time>
      </trkpt>
      <trkpt lat="42.48038" lon="1.55028">
        <ele>2145.32</ele>
        <time>2022-07-14T12:05:29Z</time>
      </trkpt>
      <trkpt lat="42.48038" lon="1.55031">
        <ele>2146.76</ele>
        <time>2022-07-14T12:05:47Z</time>
      </trkpt>
      <trkpt lat="42.48035" lon="1.55033">
        <ele>2148.2</ele>
        <time>2022-07-14T12:06:09Z</time>
      </trkpt>
      <trkpt lat="42.48029" lon="1.5504">
        <ele>2150.13</ele>
        <time>2022-07-14T12:06:24Z</time>
      </trkpt>
      <trkpt lat="42.48022" lon="1.55044">
        <ele>2153.49</ele>
        <time>2022-07-14T12:06:40Z</time>
      </trkpt>
      <trkpt lat="42.4802" lon="1.5505">
        <ele>2154.93</ele>
        <time>2022-07-14T12:07:01Z</time>
      </trkpt>
      <trkpt lat="42.48012" lon="1.55055">
        <ele>2157.34</ele>
        <time>2022-07-14T12:07:15Z</time>
      </trkpt>
      <trkpt lat="42.4801" lon="1.55058">
        <ele>2158.78</ele>
        <time>2022-07-14T12:07:33Z</time>
      </trkpt>
      <trkpt lat="42.48002" lon="1.55064">
        <ele>2160.7</ele>
        <time>2022-07-14T12:07:52Z</time>
      </trkpt>
      <trkpt lat="42.47997" lon="1.55073">
        <ele>2163.58</ele>
        <time>2022-07-14T12:08:06Z</time>
      </trkpt>
      <trkpt lat="42.47994" lon="1.55075">
        <ele>2165.03</ele>
        <time>2022-07-14T12:08:26Z</time>
      </trkpt>
      <trkpt lat="42.47991" lon="1.5508">
        <ele>2166.47</ele>
        <time>2022-07-14T12:08:39Z</time>
      </trkpt>
      <trkpt lat="42.47987" lon="1.55083">
        <ele>2167.43</ele>
        <time>2022-07-14T12:08:47Z</time>
      </trkpt>
      <trkpt lat="42.47983" lon="1.55085">
        <ele>2168.39</ele>
        <time>2022-07-14T12:09:01Z</time>
      </trkpt>
      <trkpt lat="42.47978" lon="1.55088">
        <ele>2169.83</ele>
        <time>2022-07-14T12:09:15Z</time>
      </trkpt>
      <trkpt lat="42.4797" lon="1.55091">
        <ele>2171.27</ele>
        <time>2022-07-14T12:09:30Z</time>
      </trkpt>
      <trkpt lat="42.47967" lon="1.55095">
        <ele>2173.2</ele>
        <time>2022-07-14T12:09:43Z</time>
      </trkpt>
      <trkpt lat="42.47967" lon="1.55097">
        <ele>2173.2</ele>
        <time>2022-07-14T12:10:00Z</time>
      </trkpt>
      <trkpt lat="42.47965" lon="1.55099">
        <ele>2173.68</ele>
        <time>2022-07-14T12:10:24Z</time>
      </trkpt>
      <trkpt lat="42.4796" lon="1.55103">
        <ele>2176.56</ele>
        <time>2022-07-14T12:10:38Z</time>
      </trkpt>
      <trkpt lat="42.47955" lon="1.55107">
        <ele>2179.45</ele>
        <time>2022-07-14T12:10:52Z</time>
      </trkpt>
      <trkpt lat="42.47948" lon="1.5511">
        <ele>2181.37</ele>
        <time>2022-07-14T12:11:06Z</time>
      </trkpt>
      <trkpt lat="42.47949" lon="1.55109">
        <ele>2181.37</ele>
        <time>2022-07-14T12:11:28Z</time>
      </trkpt>
      <trkpt lat="42.4794" lon="1.55112">
        <ele>2182.81</ele>
        <time>2022-07-14T12:11:42Z</time>
      </trkpt>
      <trkpt lat="42.47932" lon="1.55112">
        <ele>2185.21</ele>
        <time>2022-07-14T12:11:57Z</time>
      </trkpt>
      <trkpt lat="42.47923" lon="1.5511">
        <ele>2187.14</ele>
        <time>2022-07-14T12:12:12Z</time>
      </trkpt>
      <trkpt lat="42.4792" lon="1.5511">
        <ele>2187.62</ele>
        <time>2022-07-14T12:12:29Z</time>
      </trkpt>
      <trkpt lat="42.4791" lon="1.55109">
        <ele>2190.02</ele>
        <time>2022-07-14T12:12:46Z</time>
      </trkpt>
      <trkpt lat="42.47901" lon="1.55108">
        <ele>2192.42</ele>
        <time>2022-07-14T12:13:02Z</time>
      </trkpt>
      <trkpt lat="42.47899" lon="1.55107">
        <ele>2194.35</ele>
        <time>2022-07-14T12:13:22Z</time>
      </trkpt>
      <trkpt lat="42.47898" lon="1.55105">
        <ele>2195.79</ele>
        <time>2022-07-14T12:13:38Z</time>
      </trkpt>
      <trkpt lat="42.47894" lon="1.55103">
        <ele>2197.71</ele>
        <time>2022-07-14T12:13:54Z</time>
      </trkpt>
      <trkpt lat="42.47889" lon="1.55099">
        <ele>2199.15</ele>
        <time>2022-07-14T12:14:09Z</time>
      </trkpt>
      <trkpt lat="42.47885" lon="1.55096">
        <ele>2200.59</ele>
        <time>2022-07-14T12:14:23Z</time>
      </trkpt>
      <trkpt lat="42.47877" lon="1.55094">
        <ele>2203</ele>
        <time>2022-07-14T12:14:37Z</time>
      </trkpt>
      <trkpt lat="42.47871" lon="1.55092">
        <ele>2204.44</ele>
        <time>2022-07-14T12:14:52Z</time>
      </trkpt>
      <trkpt lat="42.47865" lon="1.55091">
        <ele>2205.4</ele>
        <time>2022-07-14T12:15:04Z</time>
      </trkpt>
      <trkpt lat="42.47858" lon="1.55089">
        <ele>2207.32</ele>
        <time>2022-07-14T12:15:21Z</time>
      </trkpt>
      <trkpt lat="42.47852" lon="1.55084">
        <ele>2208.77</ele>
        <time>2022-07-14T12:15:42Z</time>
      </trkpt>
      <trkpt lat="42.47848" lon="1.55079">
        <ele>2209.73</ele>
        <time>2022-07-14T12:15:55Z</time>
      </trkpt>
      <trkpt lat="42.47844" lon="1.55071">
        <ele>2210.69</ele>
        <time>2022-07-14T12:16:10Z</time>
      </trkpt>
      <trkpt lat="42.47841" lon="1.55059">
        <ele>2212.61</ele>
        <time>2022-07-14T12:16:24Z</time>
      </trkpt>
      <trkpt lat="42.4784" lon="1.5505">
        <ele>2215.5</ele>
        <time>2022-07-14T12:16:36Z</time>
      </trkpt>
      <trkpt lat="42.47842" lon="1.55039">
        <ele>2216.94</ele>
        <time>2022-07-14T12:16:51Z</time>
      </trkpt>
      <trkpt lat="42.47847" lon="1.55032">
        <ele>2217.9</ele>
        <time>2022-07-14T12:17:06Z</time>
      </trkpt>
      <trkpt lat="42.47849" lon="1.55032">
        <ele>2217.9</ele>
        <time>2022-07-14T12:17:21Z</time>
      </trkpt>
      <trkpt lat="42.47849" lon="1.55032">
        <ele>2218.38</ele>
        <time>2022-07-14T12:17:36Z</time>
      </trkpt>
      <trkpt lat="42.47844" lon="1.55032">
        <ele>2218.38</ele>
        <time>2022-07-14T12:17:48Z</time>
      </trkpt>
      <trkpt lat="42.47846" lon="1.55032">
        <ele>2218.86</ele>
        <time>2022-07-14T12:18:05Z</time>
      </trkpt>
      <trkpt lat="42.47845" lon="1.55028">
        <ele>2219.34</ele>
        <time>2022-07-14T12:18:22Z</time>
      </trkpt>
      <trkpt lat="42.47845" lon="1.55028">
        <ele>2219.34</ele>
        <time>2022-07-14T12:18:23Z</time>
      </trkpt>
      <trkpt lat="42.47838" lon="1.5504">
        <ele>2215.01</ele>
        <time>2022-07-14T13:13:42Z</time>
      </trkpt>
      <trkpt lat="42.47838" lon="1.55043">
        <ele>2215.01</ele>
        <time>2022-07-14T13:13:43Z</time>
      </trkpt>
      <trkpt lat="42.47839" lon="1.5504">
        <ele>2217.9</ele>
        <time>2022-07-14T13:13:58Z</time>
      </trkpt>
      <trkpt lat="42.47838" lon="1.55039">
        <ele>2217.9</ele>
        <time>2022-07-14T13:14:11Z</time>
      </trkpt>
      <trkpt lat="42.4784" lon="1.55037">
        <ele>2218.86</ele>
        <time>2022-07-14T13:14:31Z</time>
      </trkpt>
      <trkpt lat="42.47838" lon="1.5504">
        <ele>2218.86</ele>
        <time>2022-07-14T13:14:50Z</time>
      </trkpt>
      <trkpt lat="42.47837" lon="1.5504">
        <ele>2219.34</ele>
        <time>2022-07-14T13:15:11Z</time>
      </trkpt>
      <trkpt lat="42.47838" lon="1.5504">
        <ele>2217.9</ele>
        <time>2022-07-14T13:15:29Z</time>
      </trkpt>
      <trkpt lat="42.47831" lon="1.55045">
        <ele>2218.38</ele>
        <time>2022-07-14T13:15:48Z</time>
      </trkpt>
      <trkpt lat="42.4783" lon="1.55049">
        <ele>2217.9</ele>
        <time>2022-07-14T13:15:51Z</time>
      </trkpt>
      <trkpt lat="42.47821" lon="1.55065">
        <ele>2217.42</ele>
        <time>2022-07-14T13:16:07Z</time>
      </trkpt>
      <trkpt lat="42.47813" lon="1.55076">
        <ele>2219.34</ele>
        <time>2022-07-14T13:16:24Z</time>
      </trkpt>
      <trkpt lat="42.47808" lon="1.55082">
        <ele>2219.82</ele>
        <time>2022-07-14T13:16:40Z</time>
      </trkpt>
      <trkpt lat="42.47804" lon="1.55085">
        <ele>2220.3</ele>
        <time>2022-07-14T13:16:56Z</time>
      </trkpt>
      <trkpt lat="42.47797" lon="1.55093">
        <ele>2222.22</ele>
        <time>2022-07-14T13:17:10Z</time>
      </trkpt>
      <trkpt lat="42.4779" lon="1.55099">
        <ele>2223.67</ele>
        <time>2022-07-14T13:17:25Z</time>
      </trkpt>
      <trkpt lat="42.47786" lon="1.55104">
        <ele>2226.07</ele>
        <time>2022-07-14T13:17:41Z</time>
      </trkpt>
      <trkpt lat="42.47783" lon="1.55107">
        <ele>2227.03</ele>
        <time>2022-07-14T13:17:58Z</time>
      </trkpt>
      <trkpt lat="42.47778" lon="1.55112">
        <ele>2228.95</ele>
        <time>2022-07-14T13:18:11Z</time>
      </trkpt>
      <trkpt lat="42.47772" lon="1.55118">
        <ele>2231.36</ele>
        <time>2022-07-14T13:18:25Z</time>
      </trkpt>
      <trkpt lat="42.47767" lon="1.55123">
        <ele>2234.24</ele>
        <time>2022-07-14T13:18:39Z</time>
      </trkpt>
      <trkpt lat="42.47763" lon="1.55127">
        <ele>2236.64</ele>
        <time>2022-07-14T13:18:53Z</time>
      </trkpt>
      <trkpt lat="42.47755" lon="1.55128">
        <ele>2239.53</ele>
        <time>2022-07-14T13:19:08Z</time>
      </trkpt>
      <trkpt lat="42.47756" lon="1.55129">
        <ele>2240.01</ele>
        <time>2022-07-14T13:19:22Z</time>
      </trkpt>
      <trkpt lat="42.47751" lon="1.5513">
        <ele>2240.97</ele>
        <time>2022-07-14T13:19:41Z</time>
      </trkpt>
      <trkpt lat="42.47751" lon="1.5513">
        <ele>2240.97</ele>
        <time>2022-07-14T13:19:42Z</time>
      </trkpt>
      <trkpt lat="42.47745" lon="1.55133">
        <ele>2243.85</ele>
        <time>2022-07-14T13:19:56Z</time>
      </trkpt>
      <trkpt lat="42.47739" lon="1.55136">
        <ele>2245.3</ele>
        <time>2022-07-14T13:20:10Z</time>
      </trkpt>
      <trkpt lat="42.47733" lon="1.55141">
        <ele>2246.74</ele>
        <time>2022-07-14T13:20:26Z</time>
      </trkpt>
      <trkpt lat="42.47729" lon="1.55142">
        <ele>2248.18</ele>
        <time>2022-07-14T13:20:49Z</time>
      </trkpt>
      <trkpt lat="42.47722" lon="1.55146">
        <ele>2249.62</ele>
        <time>2022-07-14T13:21:05Z</time>
      </trkpt>
      <trkpt lat="42.47716" lon="1.55148">
        <ele>2252.03</ele>
        <time>2022-07-14T13:21:18Z</time>
      </trkpt>
      <trkpt lat="42.47708" lon="1.55149">
        <ele>2254.91</ele>
        <time>2022-07-14T13:21:35Z</time>
      </trkpt>
      <trkpt lat="42.47702" lon="1.55148">
        <ele>2255.87</ele>
        <time>2022-07-14T13:21:49Z</time>
      </trkpt>
      <trkpt lat="42.47697" lon="1.55149">
        <ele>2257.31</ele>
        <time>2022-07-14T13:22:10Z</time>
      </trkpt>
      <trkpt lat="42.47692" lon="1.55149">
        <ele>2258.75</ele>
        <time>2022-07-14T13:22:26Z</time>
      </trkpt>
      <trkpt lat="42.47688" lon="1.55148">
        <ele>2259.72</ele>
        <time>2022-07-14T13:22:42Z</time>
      </trkpt>
      <trkpt lat="42.47686" lon="1.55146">
        <ele>2260.68</ele>
        <time>2022-07-14T13:23:02Z</time>
      </trkpt>
      <trkpt lat="42.47682" lon="1.55144">
        <ele>2262.6</ele>
        <time>2022-07-14T13:23:18Z</time>
      </trkpt>
      <trkpt lat="42.47682" lon="1.55139">
        <ele>2264.04</ele>
        <time>2022-07-14T13:23:30Z</time>
      </trkpt>
      <trkpt lat="42.47685" lon="1.55136">
        <ele>2264.52</ele>
        <time>2022-07-14T13:23:42Z</time>
      </trkpt>
      <trkpt lat="42.47686" lon="1.55133">
        <ele>2263.56</ele>
        <time>2022-07-14T13:23:53Z</time>
      </trkpt>
      <trkpt lat="42.47688" lon="1.55133">
        <ele>2263.08</ele>
        <time>2022-07-14T13:24:16Z</time>
      </trkpt>
      <trkpt lat="42.47689" lon="1.55133">
        <ele>2264.52</ele>
        <time>2022-07-14T13:24:48Z</time>
      </trkpt>
      <trkpt lat="42.47688" lon="1.55129">
        <ele>2264.52</ele>
        <time>2022-07-14T13:25:13Z</time>
      </trkpt>
      <trkpt lat="42.4768" lon="1.55136">
        <ele>2265.96</ele>
        <time>2022-07-14T13:25:30Z</time>
      </trkpt>
      <trkpt lat="42.47672" lon="1.55137">
        <ele>2267.89</ele>
        <time>2022-07-14T13:25:45Z</time>
      </trkpt>
      <trkpt lat="42.47672" lon="1.55137">
        <ele>2267.89</ele>
        <time>2022-07-14T13:26:09Z</time>
      </trkpt>
      <trkpt lat="42.4767" lon="1.55137">
        <ele>2267.89</ele>
        <time>2022-07-14T13:26:38Z</time>
      </trkpt>
      <trkpt lat="42.47666" lon="1.55141">
        <ele>2269.33</ele>
        <time>2022-07-14T13:26:53Z</time>
      </trkpt>
      <trkpt lat="42.4766" lon="1.55141">
        <ele>2271.25</ele>
        <time>2022-07-14T13:27:06Z</time>
      </trkpt>
      <trkpt lat="42.47654" lon="1.55143">
        <ele>2273.17</ele>
        <time>2022-07-14T13:27:21Z</time>
      </trkpt>
      <trkpt lat="42.4765" lon="1.55143">
        <ele>2274.14</ele>
        <time>2022-07-14T13:27:41Z</time>
      </trkpt>
      <trkpt lat="42.47645" lon="1.55144">
        <ele>2275.58</ele>
        <time>2022-07-14T13:28:07Z</time>
      </trkpt>
      <trkpt lat="42.47637" lon="1.55143">
        <ele>2277.98</ele>
        <time>2022-07-14T13:28:22Z</time>
      </trkpt>
      <trkpt lat="42.47628" lon="1.55142">
        <ele>2280.38</ele>
        <time>2022-07-14T13:28:37Z</time>
      </trkpt>
      <trkpt lat="42.47622" lon="1.55142">
        <ele>2281.83</ele>
        <time>2022-07-14T13:28:54Z</time>
      </trkpt>
      <trkpt lat="42.47618" lon="1.55142">
        <ele>2282.79</ele>
        <time>2022-07-14T13:29:06Z</time>
      </trkpt>
      <trkpt lat="42.47615" lon="1.55142">
        <ele>2284.23</ele>
        <time>2022-07-14T13:29:22Z</time>
      </trkpt>
      <trkpt lat="42.47612" lon="1.55138">
        <ele>2285.67</ele>
        <time>2022-07-14T13:29:36Z</time>
      </trkpt>
      <trkpt lat="42.47607" lon="1.55137">
        <ele>2288.56</ele>
        <time>2022-07-14T13:29:50Z</time>
      </trkpt>
      <trkpt lat="42.47607" lon="1.55135">
        <ele>2289.52</ele>
        <time>2022-07-14T13:30:08Z</time>
      </trkpt>
      <trkpt lat="42.47605" lon="1.55134">
        <ele>2290.48</ele>
        <time>2022-07-14T13:30:25Z</time>
      </trkpt>
      <trkpt lat="42.47601" lon="1.55134">
        <ele>2293.84</ele>
        <time>2022-07-14T13:30:39Z</time>
      </trkpt>
      <trkpt lat="42.47596" lon="1.55134">
        <ele>2295.77</ele>
        <time>2022-07-14T13:30:55Z</time>
      </trkpt>
      <trkpt lat="42.47592" lon="1.55137">
        <ele>2296.73</ele>
        <time>2022-07-14T13:31:17Z</time>
      </trkpt>
      <trkpt lat="42.47587" lon="1.55139">
        <ele>2299.13</ele>
        <time>2022-07-14T13:31:32Z</time>
      </trkpt>
      <trkpt lat="42.47584" lon="1.55139">
        <ele>2301.05</ele>
        <time>2022-07-14T13:31:46Z</time>
      </trkpt>
      <trkpt lat="42.47578" lon="1.5514">
        <ele>2302.01</ele>
        <time>2022-07-14T13:32:07Z</time>
      </trkpt>
      <trkpt lat="42.4757" lon="1.55143">
        <ele>2304.9</ele>
        <time>2022-07-14T13:32:23Z</time>
      </trkpt>
      <trkpt lat="42.47565" lon="1.55145">
        <ele>2306.34</ele>
        <time>2022-07-14T13:32:36Z</time>
      </trkpt>
      <trkpt lat="42.47557" lon="1.55148">
        <ele>2307.78</ele>
        <time>2022-07-14T13:32:54Z</time>
      </trkpt>
      <trkpt lat="42.47551" lon="1.55151">
        <ele>2309.7</ele>
        <time>2022-07-14T13:33:07Z</time>
      </trkpt>
      <trkpt lat="42.47542" lon="1.55155">
        <ele>2312.11</ele>
        <time>2022-07-14T13:33:27Z</time>
      </trkpt>
      <trkpt lat="42.47537" lon="1.55159">
        <ele>2313.55</ele>
        <time>2022-07-14T13:33:41Z</time>
      </trkpt>
      <trkpt lat="42.47531" lon="1.55164">
        <ele>2314.51</ele>
        <time>2022-07-14T13:33:55Z</time>
      </trkpt>
      <trkpt lat="42.4752" lon="1.55169">
        <ele>2317.88</ele>
        <time>2022-07-14T13:34:16Z</time>
      </trkpt>
      <trkpt lat="42.47518" lon="1.5517">
        <ele>2318.36</ele>
        <time>2022-07-14T13:34:29Z</time>
      </trkpt>
      <trkpt lat="42.47518" lon="1.5517">
        <ele>2318.84</ele>
        <time>2022-07-14T13:34:48Z</time>
      </trkpt>
      <trkpt lat="42.47513" lon="1.55171">
        <ele>2318.84</ele>
        <time>2022-07-14T13:35:01Z</time>
      </trkpt>
      <trkpt lat="42.47504" lon="1.55178">
        <ele>2320.28</ele>
        <time>2022-07-14T13:35:17Z</time>
      </trkpt>
      <trkpt lat="42.47501" lon="1.55183">
        <ele>2320.28</ele>
        <time>2022-07-14T13:35:22Z</time>
      </trkpt>
      <trkpt lat="42.4749" lon="1.55189">
        <ele>2320.28</ele>
        <time>2022-07-14T13:35:36Z</time>
      </trkpt>
      <trkpt lat="42.47477" lon="1.55193">
        <ele>2320.76</ele>
        <time>2022-07-14T13:35:50Z</time>
      </trkpt>
      <trkpt lat="42.47463" lon="1.552">
        <ele>2321.72</ele>
        <time>2022-07-14T13:36:08Z</time>
      </trkpt>
      <trkpt lat="42.4745" lon="1.55207">
        <ele>2321.72</ele>
        <time>2022-07-14T13:36:23Z</time>
      </trkpt>
      <trkpt lat="42.47436" lon="1.55218">
        <ele>2318.84</ele>
        <time>2022-07-14T13:36:41Z</time>
      </trkpt>
      <trkpt lat="42.47427" lon="1.55233">
        <ele>2317.88</ele>
        <time>2022-07-14T13:36:56Z</time>
      </trkpt>
      <trkpt lat="42.47422" lon="1.5524">
        <ele>2318.36</ele>
        <time>2022-07-14T13:37:08Z</time>
      </trkpt>
      <trkpt lat="42.47419" lon="1.55249">
        <ele>2318.36</ele>
        <time>2022-07-14T13:37:19Z</time>
      </trkpt>
      <trkpt lat="42.47418" lon="1.55252">
        <ele>2318.36</ele>
        <time>2022-07-14T13:37:22Z</time>
      </trkpt>
      <trkpt lat="42.47415" lon="1.55265">
        <ele>2319.8</ele>
        <time>2022-07-14T13:37:32Z</time>
      </trkpt>
      <trkpt lat="42.47415" lon="1.55283">
        <ele>2321.24</ele>
        <time>2022-07-14T13:37:47Z</time>
      </trkpt>
      <trkpt lat="42.47414" lon="1.55295">
        <ele>2322.68</ele>
        <time>2022-07-14T13:38:00Z</time>
      </trkpt>
      <trkpt lat="42.47415" lon="1.55304">
        <ele>2324.61</ele>
        <time>2022-07-14T13:38:15Z</time>
      </trkpt>
      <trkpt lat="42.47418" lon="1.55312">
        <ele>2327.01</ele>
        <time>2022-07-14T13:38:32Z</time>
      </trkpt>
      <trkpt lat="42.47418" lon="1.55316">
        <ele>2327.97</ele>
        <time>2022-07-14T13:38:53Z</time>
      </trkpt>
      <trkpt lat="42.47418" lon="1.5532">
        <ele>2328.45</ele>
        <time>2022-07-14T13:39:14Z</time>
      </trkpt>
      <trkpt lat="42.47419" lon="1.55324">
        <ele>2329.41</ele>
        <time>2022-07-14T13:39:18Z</time>
      </trkpt>
      <trkpt lat="42.47425" lon="1.55337">
        <ele>2331.33</ele>
        <time>2022-07-14T13:39:32Z</time>
      </trkpt>
      <trkpt lat="42.47428" lon="1.55345">
        <ele>2332.78</ele>
        <time>2022-07-14T13:39:47Z</time>
      </trkpt>
      <trkpt lat="42.47431" lon="1.55349">
        <ele>2333.74</ele>
        <time>2022-07-14T13:40:07Z</time>
      </trkpt>
      <trkpt lat="42.47434" lon="1.55355">
        <ele>2335.18</ele>
        <time>2022-07-14T13:40:24Z</time>
      </trkpt>
      <trkpt lat="42.47435" lon="1.55363">
        <ele>2338.06</ele>
        <time>2022-07-14T13:40:41Z</time>
      </trkpt>
      <trkpt lat="42.47437" lon="1.55363">
        <ele>2338.06</ele>
        <time>2022-07-14T13:41:12Z</time>
      </trkpt>
      <trkpt lat="42.47441" lon="1.55375">
        <ele>2339.02</ele>
        <time>2022-07-14T13:41:28Z</time>
      </trkpt>
      <trkpt lat="42.47442" lon="1.55385">
        <ele>2340.47</ele>
        <time>2022-07-14T13:41:41Z</time>
      </trkpt>
      <trkpt lat="42.47443" lon="1.55395">
        <ele>2342.87</ele>
        <time>2022-07-14T13:41:56Z</time>
      </trkpt>
      <trkpt lat="42.47445" lon="1.55401">
        <ele>2343.83</ele>
        <time>2022-07-14T13:42:12Z</time>
      </trkpt>
      <trkpt lat="42.47445" lon="1.55408">
        <ele>2345.75</ele>
        <time>2022-07-14T13:42:26Z</time>
      </trkpt>
      <trkpt lat="42.47447" lon="1.55409">
        <ele>2347.2</ele>
        <time>2022-07-14T13:42:48Z</time>
      </trkpt>
      <trkpt lat="42.47447" lon="1.55418">
        <ele>2349.12</ele>
        <time>2022-07-14T13:43:03Z</time>
      </trkpt>
      <trkpt lat="42.47446" lon="1.55424">
        <ele>2351.04</ele>
        <time>2022-07-14T13:43:17Z</time>
      </trkpt>
      <trkpt lat="42.47446" lon="1.5543">
        <ele>2352.96</ele>
        <time>2022-07-14T13:43:38Z</time>
      </trkpt>
      <trkpt lat="42.47446" lon="1.55435">
        <ele>2354.41</ele>
        <time>2022-07-14T13:44:01Z</time>
      </trkpt>
      <trkpt lat="42.47446" lon="1.55441">
        <ele>2356.33</ele>
        <time>2022-07-14T13:44:13Z</time>
      </trkpt>
      <trkpt lat="42.47446" lon="1.55445">
        <ele>2357.29</ele>
        <time>2022-07-14T13:44:30Z</time>
      </trkpt>
      <trkpt lat="42.47446" lon="1.55452">
        <ele>2359.21</ele>
        <time>2022-07-14T13:44:43Z</time>
      </trkpt>
      <trkpt lat="42.47448" lon="1.55457">
        <ele>2360.65</ele>
        <time>2022-07-14T13:44:59Z</time>
      </trkpt>
      <trkpt lat="42.47447" lon="1.55462">
        <ele>2362.1</ele>
        <time>2022-07-14T13:45:13Z</time>
      </trkpt>
      <trkpt lat="42.47447" lon="1.55462">
        <ele>2363.54</ele>
        <time>2022-07-14T13:45:31Z</time>
      </trkpt>
      <trkpt lat="42.47446" lon="1.55466">
        <ele>2364.02</ele>
        <time>2022-07-14T13:45:44Z</time>
      </trkpt>
      <trkpt lat="42.47446" lon="1.55473">
        <ele>2365.46</ele>
        <time>2022-07-14T13:45:57Z</time>
      </trkpt>
      <trkpt lat="42.4745" lon="1.55474">
        <ele>2366.9</ele>
        <time>2022-07-14T13:46:12Z</time>
      </trkpt>
      <trkpt lat="42.47455" lon="1.55478">
        <ele>2367.38</ele>
        <time>2022-07-14T13:46:31Z</time>
      </trkpt>
      <trkpt lat="42.47457" lon="1.55484">
        <ele>2369.31</ele>
        <time>2022-07-14T13:46:46Z</time>
      </trkpt>
      <trkpt lat="42.47462" lon="1.55492">
        <ele>2372.19</ele>
        <time>2022-07-14T13:47:03Z</time>
      </trkpt>
      <trkpt lat="42.47461" lon="1.55492">
        <ele>2372.19</ele>
        <time>2022-07-14T13:47:24Z</time>
      </trkpt>
      <trkpt lat="42.4746" lon="1.55491">
        <ele>2372.67</ele>
        <time>2022-07-14T13:47:43Z</time>
      </trkpt>
      <trkpt lat="42.47462" lon="1.55489">
        <ele>2372.67</ele>
        <time>2022-07-14T13:48:02Z</time>
      </trkpt>
      <trkpt lat="42.47463" lon="1.55489">
        <ele>2373.15</ele>
        <time>2022-07-14T13:48:27Z</time>
      </trkpt>
      <trkpt lat="42.47463" lon="1.55497">
        <ele>2373.63</ele>
        <time>2022-07-14T13:48:47Z</time>
      </trkpt>
      <trkpt lat="42.4746" lon="1.55504">
        <ele>2375.55</ele>
        <time>2022-07-14T13:49:02Z</time>
      </trkpt>
      <trkpt lat="42.47455" lon="1.55507">
        <ele>2377.96</ele>
        <time>2022-07-14T13:49:19Z</time>
      </trkpt>
      <trkpt lat="42.47454" lon="1.55507">
        <ele>2378.92</ele>
        <time>2022-07-14T13:49:37Z</time>
      </trkpt>
      <trkpt lat="42.47451" lon="1.5551">
        <ele>2380.36</ele>
        <time>2022-07-14T13:49:56Z</time>
      </trkpt>
      <trkpt lat="42.47445" lon="1.55507">
        <ele>2382.28</ele>
        <time>2022-07-14T13:50:10Z</time>
      </trkpt>
      <trkpt lat="42.47442" lon="1.55507">
        <ele>2383.73</ele>
        <time>2022-07-14T13:50:27Z</time>
      </trkpt>
      <trkpt lat="42.47436" lon="1.55507">
        <ele>2386.13</ele>
        <time>2022-07-14T13:50:47Z</time>
      </trkpt>
      <trkpt lat="42.47438" lon="1.55515">
        <ele>2388.05</ele>
        <time>2022-07-14T13:51:02Z</time>
      </trkpt>
      <trkpt lat="42.47439" lon="1.55524">
        <ele>2389.49</ele>
        <time>2022-07-14T13:51:15Z</time>
      </trkpt>
      <trkpt lat="42.47438" lon="1.55529">
        <ele>2389.97</ele>
        <time>2022-07-14T13:51:35Z</time>
      </trkpt>
      <trkpt lat="42.47432" lon="1.5553">
        <ele>2391.9</ele>
        <time>2022-07-14T13:51:48Z</time>
      </trkpt>
      <trkpt lat="42.47429" lon="1.55528">
        <ele>2393.34</ele>
        <time>2022-07-14T13:52:03Z</time>
      </trkpt>
      <trkpt lat="42.47426" lon="1.55524">
        <ele>2394.3</ele>
        <time>2022-07-14T13:52:23Z</time>
      </trkpt>
      <trkpt lat="42.47422" lon="1.55535">
        <ele>2396.7</ele>
        <time>2022-07-14T13:52:39Z</time>
      </trkpt>
      <trkpt lat="42.4742" lon="1.55542">
        <ele>2399.59</ele>
        <time>2022-07-14T13:52:56Z</time>
      </trkpt>
      <trkpt lat="42.4742" lon="1.55547">
        <ele>2399.59</ele>
        <time>2022-07-14T13:53:21Z</time>
      </trkpt>
      <trkpt lat="42.47415" lon="1.55553">
        <ele>2401.51</ele>
        <time>2022-07-14T13:53:36Z</time>
      </trkpt>
      <trkpt lat="42.47412" lon="1.55551">
        <ele>2403.43</ele>
        <time>2022-07-14T13:53:55Z</time>
      </trkpt>
      <trkpt lat="42.47406" lon="1.5555">
        <ele>2405.36</ele>
        <time>2022-07-14T13:54:10Z</time>
      </trkpt>
      <trkpt lat="42.47404" lon="1.55544">
        <ele>2406.32</ele>
        <time>2022-07-14T13:54:28Z</time>
      </trkpt>
      <trkpt lat="42.474" lon="1.55543">
        <ele>2408.24</ele>
        <time>2022-07-14T13:54:43Z</time>
      </trkpt>
      <trkpt lat="42.47392" lon="1.55538">
        <ele>2410.64</ele>
        <time>2022-07-14T13:55:02Z</time>
      </trkpt>
      <trkpt lat="42.4739" lon="1.55541">
        <ele>2411.6</ele>
        <time>2022-07-14T13:55:21Z</time>
      </trkpt>
      <trkpt lat="42.47387" lon="1.55541">
        <ele>2412.57</ele>
        <time>2022-07-14T13:55:44Z</time>
      </trkpt>
      <trkpt lat="42.47382" lon="1.5554">
        <ele>2414.01</ele>
        <time>2022-07-14T13:56:01Z</time>
      </trkpt>
      <trkpt lat="42.47378" lon="1.55541">
        <ele>2416.41</ele>
        <time>2022-07-14T13:56:19Z</time>
      </trkpt>
      <trkpt lat="42.47377" lon="1.55548">
        <ele>2418.81</ele>
        <time>2022-07-14T13:56:31Z</time>
      </trkpt>
      <trkpt lat="42.47377" lon="1.55547">
        <ele>2419.3</ele>
        <time>2022-07-14T13:56:53Z</time>
      </trkpt>
      <trkpt lat="42.47375" lon="1.55555">
        <ele>2420.74</ele>
        <time>2022-07-14T13:57:12Z</time>
      </trkpt>
      <trkpt lat="42.47373" lon="1.5556">
        <ele>2423.14</ele>
        <time>2022-07-14T13:57:27Z</time>
      </trkpt>
      <trkpt lat="42.47372" lon="1.55561">
        <ele>2424.1</ele>
        <time>2022-07-14T13:57:46Z</time>
      </trkpt>
      <trkpt lat="42.47371" lon="1.55563">
        <ele>2425.06</ele>
        <time>2022-07-14T13:58:03Z</time>
      </trkpt>
      <trkpt lat="42.47371" lon="1.55566">
        <ele>2425.54</ele>
        <time>2022-07-14T13:58:27Z</time>
      </trkpt>
      <trkpt lat="42.47366" lon="1.55569">
        <ele>2427.95</ele>
        <time>2022-07-14T13:58:43Z</time>
      </trkpt>
      <trkpt lat="42.47363" lon="1.55562">
        <ele>2428.43</ele>
        <time>2022-07-14T13:59:04Z</time>
      </trkpt>
      <trkpt lat="42.47358" lon="1.55561">
        <ele>2430.83</ele>
        <time>2022-07-14T13:59:22Z</time>
      </trkpt>
      <trkpt lat="42.47352" lon="1.55563">
        <ele>2433.71</ele>
        <time>2022-07-14T13:59:38Z</time>
      </trkpt>
      <trkpt lat="42.47348" lon="1.55565">
        <ele>2435.16</ele>
        <time>2022-07-14T13:59:58Z</time>
      </trkpt>
      <trkpt lat="42.47344" lon="1.55567">
        <ele>2436.6</ele>
        <time>2022-07-14T14:00:15Z</time>
      </trkpt>
      <trkpt lat="42.47339" lon="1.55565">
        <ele>2438.52</ele>
        <time>2022-07-14T14:00:28Z</time>
      </trkpt>
      <trkpt lat="42.47337" lon="1.55563">
        <ele>2440.44</ele>
        <time>2022-07-14T14:00:47Z</time>
      </trkpt>
      <trkpt lat="42.47331" lon="1.55557">
        <ele>2442.37</ele>
        <time>2022-07-14T14:01:03Z</time>
      </trkpt>
      <trkpt lat="42.47328" lon="1.55552">
        <ele>2445.25</ele>
        <time>2022-07-14T14:01:25Z</time>
      </trkpt>
      <trkpt lat="42.47324" lon="1.55556">
        <ele>2446.21</ele>
        <time>2022-07-14T14:01:44Z</time>
      </trkpt>
      <trkpt lat="42.47322" lon="1.5557">
        <ele>2447.65</ele>
        <time>2022-07-14T14:01:58Z</time>
      </trkpt>
      <trkpt lat="42.47322" lon="1.55574">
        <ele>2448.62</ele>
        <time>2022-07-14T14:02:14Z</time>
      </trkpt>
      <trkpt lat="42.47317" lon="1.55584">
        <ele>2451.02</ele>
        <time>2022-07-14T14:02:29Z</time>
      </trkpt>
      <trkpt lat="42.47315" lon="1.55586">
        <ele>2451.98</ele>
        <time>2022-07-14T14:02:49Z</time>
      </trkpt>
      <trkpt lat="42.4731" lon="1.5559">
        <ele>2453.42</ele>
        <time>2022-07-14T14:03:02Z</time>
      </trkpt>
      <trkpt lat="42.47305" lon="1.55594">
        <ele>2455.82</ele>
        <time>2022-07-14T14:03:16Z</time>
      </trkpt>
      <trkpt lat="42.47302" lon="1.556">
        <ele>2458.71</ele>
        <time>2022-07-14T14:03:32Z</time>
      </trkpt>
      <trkpt lat="42.473" lon="1.55606">
        <ele>2460.15</ele>
        <time>2022-07-14T14:03:57Z</time>
      </trkpt>
      <trkpt lat="42.47298" lon="1.55609">
        <ele>2462.07</ele>
        <time>2022-07-14T14:04:11Z</time>
      </trkpt>
      <trkpt lat="42.47294" lon="1.55614">
        <ele>2464.48</ele>
        <time>2022-07-14T14:04:26Z</time>
      </trkpt>
      <trkpt lat="42.47293" lon="1.55616">
        <ele>2465.92</ele>
        <time>2022-07-14T14:04:48Z</time>
      </trkpt>
      <trkpt lat="42.47289" lon="1.55617">
        <ele>2468.32</ele>
        <time>2022-07-14T14:05:05Z</time>
      </trkpt>
      <trkpt lat="42.47285" lon="1.55621">
        <ele>2470.24</ele>
        <time>2022-07-14T14:05:19Z</time>
      </trkpt>
      <trkpt lat="42.47284" lon="1.55623">
        <ele>2471.69</ele>
        <time>2022-07-14T14:05:39Z</time>
      </trkpt>
      <trkpt lat="42.47281" lon="1.55632">
        <ele>2474.09</ele>
        <time>2022-07-14T14:05:55Z</time>
      </trkpt>
      <trkpt lat="42.4728" lon="1.55634">
        <ele>2475.53</ele>
        <time>2022-07-14T14:06:11Z</time>
      </trkpt>
      <trkpt lat="42.4728" lon="1.55634">
        <ele>2476.01</ele>
        <time>2022-07-14T14:06:48Z</time>
      </trkpt>
      <trkpt lat="42.4728" lon="1.55638">
        <ele>2476.49</ele>
        <time>2022-07-14T14:07:15Z</time>
      </trkpt>
      <trkpt lat="42.47281" lon="1.55639">
        <ele>2476.49</ele>
        <time>2022-07-14T14:07:38Z</time>
      </trkpt>
      <trkpt lat="42.47281" lon="1.55638">
        <ele>2476.97</ele>
        <time>2022-07-14T14:08:13Z</time>
      </trkpt>
      <trkpt lat="42.47279" lon="1.55636">
        <ele>2476.97</ele>
        <time>2022-07-14T14:08:21Z</time>
      </trkpt>
      <trkpt lat="42.47276" lon="1.55628">
        <ele>2476.01</ele>
        <time>2022-07-14T14:08:37Z</time>
      </trkpt>
      <trkpt lat="42.47275" lon="1.55627">
        <ele>2477.45</ele>
        <time>2022-07-14T14:08:48Z</time>
      </trkpt>
      <trkpt lat="42.47279" lon="1.55625">
        <ele>2476.97</ele>
        <time>2022-07-14T14:09:32Z</time>
      </trkpt>
      <trkpt lat="42.47279" lon="1.55627">
        <ele>2477.45</ele>
        <time>2022-07-14T14:10:10Z</time>
      </trkpt>
      <trkpt lat="42.47278" lon="1.55628">
        <ele>2476.01</ele>
        <time>2022-07-14T14:10:15Z</time>
      </trkpt>
      <trkpt lat="42.47278" lon="1.55628">
        <ele>2476.97</ele>
        <time>2022-07-14T14:10:19Z</time>
      </trkpt>
      <trkpt lat="42.47276" lon="1.5563">
        <ele>2477.94</ele>
        <time>2022-07-14T14:10:42Z</time>
      </trkpt>
      <trkpt lat="42.47275" lon="1.55631">
        <ele>2478.42</ele>
        <time>2022-07-14T14:11:13Z</time>
      </trkpt>
      <trkpt lat="42.47277" lon="1.55629">
        <ele>2477.94</ele>
        <time>2022-07-14T14:11:53Z</time>
      </trkpt>
      <trkpt lat="42.47278" lon="1.55631">
        <ele>2478.42</ele>
        <time>2022-07-14T14:12:15Z</time>
      </trkpt>
      <trkpt lat="42.47276" lon="1.55633">
        <ele>2478.42</ele>
        <time>2022-07-14T14:12:37Z</time>
      </trkpt>
      <trkpt lat="42.47276" lon="1.55635">
        <ele>2478.9</ele>
        <time>2022-07-14T14:13:04Z</time>
      </trkpt>
      <trkpt lat="42.47275" lon="1.55632">
        <ele>2478.9</ele>
        <time>2022-07-14T14:13:41Z</time>
      </trkpt>
      <trkpt lat="42.47273" lon="1.55629">
        <ele>2478.9</ele>
        <time>2022-07-14T14:14:10Z</time>
      </trkpt>
      <trkpt lat="42.47275" lon="1.55632">
        <ele>2478.9</ele>
        <time>2022-07-14T14:14:36Z</time>
      </trkpt>
      <trkpt lat="42.47276" lon="1.55631">
        <ele>2479.38</ele>
        <time>2022-07-14T14:14:56Z</time>
      </trkpt>
      <trkpt lat="42.47276" lon="1.55629">
        <ele>2479.38</ele>
        <time>2022-07-14T14:15:15Z</time>
      </trkpt>
      <trkpt lat="42.47278" lon="1.55631">
        <ele>2479.38</ele>
        <time>2022-07-14T14:15:39Z</time>
      </trkpt>
      <trkpt lat="42.47278" lon="1.55653">
        <ele>2478.42</ele>
        <time>2022-07-14T14:15:54Z</time>
      </trkpt>
      <trkpt lat="42.47277" lon="1.5567">
        <ele>2476.01</ele>
        <time>2022-07-14T14:16:07Z</time>
      </trkpt>
      <trkpt lat="42.47274" lon="1.55681">
        <ele>2472.65</ele>
        <time>2022-07-14T14:16:18Z</time>
      </trkpt>
      <trkpt lat="42.47267" lon="1.55671">
        <ele>2469.28</ele>
        <time>2022-07-14T14:16:30Z</time>
      </trkpt>
      <trkpt lat="42.47263" lon="1.55666">
        <ele>2467.84</ele>
        <time>2022-07-14T14:16:37Z</time>
      </trkpt>
      <trkpt lat="42.47259" lon="1.55662">
        <ele>2465.44</ele>
        <time>2022-07-14T14:16:44Z</time>
      </trkpt>
      <trkpt lat="42.47249" lon="1.55652">
        <ele>2462.55</ele>
        <time>2022-07-14T14:16:59Z</time>
      </trkpt>
      <trkpt lat="42.47245" lon="1.5565">
        <ele>2460.15</ele>
        <time>2022-07-14T14:17:04Z</time>
      </trkpt>
      <trkpt lat="42.47245" lon="1.5565">
        <ele>2459.19</ele>
        <time>2022-07-14T14:17:19Z</time>
      </trkpt>
      <trkpt lat="42.47243" lon="1.55649">
        <ele>2459.19</ele>
        <time>2022-07-14T14:17:34Z</time>
      </trkpt>
      <trkpt lat="42.47232" lon="1.55648">
        <ele>2454.86</ele>
        <time>2022-07-14T14:17:45Z</time>
      </trkpt>
      <trkpt lat="42.47223" lon="1.55645">
        <ele>2451.5</ele>
        <time>2022-07-14T14:17:55Z</time>
      </trkpt>
      <trkpt lat="42.47219" lon="1.55644">
        <ele>2449.58</ele>
        <time>2022-07-14T14:18:00Z</time>
      </trkpt>
      <trkpt lat="42.4721" lon="1.55642">
        <ele>2446.21</ele>
        <time>2022-07-14T14:18:10Z</time>
      </trkpt>
      <trkpt lat="42.47201" lon="1.5564">
        <ele>2443.33</ele>
        <time>2022-07-14T14:18:20Z</time>
      </trkpt>
      <trkpt lat="42.47193" lon="1.55637">
        <ele>2439.96</ele>
        <time>2022-07-14T14:18:29Z</time>
      </trkpt>
      <trkpt lat="42.47183" lon="1.5563">
        <ele>2437.08</ele>
        <time>2022-07-14T14:18:40Z</time>
      </trkpt>
      <trkpt lat="42.47175" lon="1.55624">
        <ele>2433.23</ele>
        <time>2022-07-14T14:18:50Z</time>
      </trkpt>
      <trkpt lat="42.47173" lon="1.5563">
        <ele>2433.23</ele>
        <time>2022-07-14T14:19:02Z</time>
      </trkpt>
      <trkpt lat="42.47168" lon="1.55641">
        <ele>2432.27</ele>
        <time>2022-07-14T14:19:25Z</time>
      </trkpt>
      <trkpt lat="42.47169" lon="1.55642">
        <ele>2432.27</ele>
        <time>2022-07-14T14:19:26Z</time>
      </trkpt>
      <trkpt lat="42.47169" lon="1.55646">
        <ele>2430.83</ele>
        <time>2022-07-14T14:19:31Z</time>
      </trkpt>
      <trkpt lat="42.47171" lon="1.55653">
        <ele>2427.95</ele>
        <time>2022-07-14T14:19:40Z</time>
      </trkpt>
      <trkpt lat="42.47172" lon="1.55664">
        <ele>2425.06</ele>
        <time>2022-07-14T14:19:51Z</time>
      </trkpt>
      <trkpt lat="42.47172" lon="1.55675">
        <ele>2421.22</ele>
        <time>2022-07-14T14:20:03Z</time>
      </trkpt>
      <trkpt lat="42.47173" lon="1.55691">
        <ele>2417.85</ele>
        <time>2022-07-14T14:20:15Z</time>
      </trkpt>
      <trkpt lat="42.47174" lon="1.55705">
        <ele>2414.49</ele>
        <time>2022-07-14T14:20:29Z</time>
      </trkpt>
      <trkpt lat="42.47173" lon="1.5572">
        <ele>2412.57</ele>
        <time>2022-07-14T14:20:45Z</time>
      </trkpt>
      <trkpt lat="42.47174" lon="1.55732">
        <ele>2411.6</ele>
        <time>2022-07-14T14:21:01Z</time>
      </trkpt>
      <trkpt lat="42.47174" lon="1.55751">
        <ele>2410.16</ele>
        <time>2022-07-14T14:21:27Z</time>
      </trkpt>
      <trkpt lat="42.47173" lon="1.55765">
        <ele>2406.8</ele>
        <time>2022-07-14T14:21:39Z</time>
      </trkpt>
      <trkpt lat="42.47171" lon="1.55776">
        <ele>2403.43</ele>
        <time>2022-07-14T14:21:53Z</time>
      </trkpt>
      <trkpt lat="42.47169" lon="1.55791">
        <ele>2401.03</ele>
        <time>2022-07-14T14:22:07Z</time>
      </trkpt>
      <trkpt lat="42.47161" lon="1.55802">
        <ele>2397.18</ele>
        <time>2022-07-14T14:22:21Z</time>
      </trkpt>
      <trkpt lat="42.47155" lon="1.55811">
        <ele>2394.3</ele>
        <time>2022-07-14T14:22:34Z</time>
      </trkpt>
      <trkpt lat="42.4715" lon="1.55808">
        <ele>2392.86</ele>
        <time>2022-07-14T14:22:42Z</time>
      </trkpt>
      <trkpt lat="42.47137" lon="1.55808">
        <ele>2390.94</ele>
        <time>2022-07-14T14:22:57Z</time>
      </trkpt>
      <trkpt lat="42.47132" lon="1.55805">
        <ele>2389.49</ele>
        <time>2022-07-14T14:23:05Z</time>
      </trkpt>
      <trkpt lat="42.4712" lon="1.55793">
        <ele>2386.13</ele>
        <time>2022-07-14T14:23:20Z</time>
      </trkpt>
      <trkpt lat="42.47117" lon="1.55785">
        <ele>2384.69</ele>
        <time>2022-07-14T14:23:35Z</time>
      </trkpt>
      <trkpt lat="42.47112" lon="1.55784">
        <ele>2384.21</ele>
        <time>2022-07-14T14:23:48Z</time>
      </trkpt>
      <trkpt lat="42.47112" lon="1.55785">
        <ele>2383.73</ele>
        <time>2022-07-14T14:24:11Z</time>
      </trkpt>
      <trkpt lat="42.47112" lon="1.55785">
        <ele>2383.73</ele>
        <time>2022-07-14T14:24:34Z</time>
      </trkpt>
      <trkpt lat="42.4711" lon="1.55786">
        <ele>2383.73</ele>
        <time>2022-07-14T14:24:57Z</time>
      </trkpt>
      <trkpt lat="42.4711" lon="1.55789">
        <ele>2383.73</ele>
        <time>2022-07-14T14:25:26Z</time>
      </trkpt>
      <trkpt lat="42.47109" lon="1.55787">
        <ele>2383.73</ele>
        <time>2022-07-14T14:25:50Z</time>
      </trkpt>
      <trkpt lat="42.47109" lon="1.55793">
        <ele>2385.17</ele>
        <time>2022-07-14T14:26:17Z</time>
      </trkpt>
      <trkpt lat="42.47113" lon="1.55804">
        <ele>2387.09</ele>
        <time>2022-07-14T14:26:32Z</time>
      </trkpt>
      <trkpt lat="42.47114" lon="1.55805">
        <ele>2388.05</ele>
        <time>2022-07-14T14:26:47Z</time>
      </trkpt>
      <trkpt lat="42.47114" lon="1.55808">
        <ele>2388.05</ele>
        <time>2022-07-14T14:26:50Z</time>
      </trkpt>
      <trkpt lat="42.47115" lon="1.55821">
        <ele>2387.09</ele>
        <time>2022-07-14T14:27:00Z</time>
      </trkpt>
      <trkpt lat="42.47115" lon="1.5583">
        <ele>2389.01</ele>
        <time>2022-07-14T14:27:07Z</time>
      </trkpt>
      <trkpt lat="42.47117" lon="1.55841">
        <ele>2388.53</ele>
        <time>2022-07-14T14:27:17Z</time>
      </trkpt>
      <trkpt lat="42.47118" lon="1.55844">
        <ele>2389.97</ele>
        <time>2022-07-14T14:27:19Z</time>
      </trkpt>
      <trkpt lat="42.4712" lon="1.55849">
        <ele>2389.97</ele>
        <time>2022-07-14T14:27:24Z</time>
      </trkpt>
      <trkpt lat="42.47126" lon="1.55864">
        <ele>2391.42</ele>
        <time>2022-07-14T14:27:38Z</time>
      </trkpt>
      <trkpt lat="42.47129" lon="1.55873">
        <ele>2389.01</ele>
        <time>2022-07-14T14:27:49Z</time>
      </trkpt>
      <trkpt lat="42.4713" lon="1.55875">
        <ele>2390.46</ele>
        <time>2022-07-14T14:27:54Z</time>
      </trkpt>
      <trkpt lat="42.47129" lon="1.55876">
        <ele>2391.42</ele>
        <time>2022-07-14T14:28:10Z</time>
      </trkpt>
      <trkpt lat="42.47128" lon="1.55876">
        <ele>2389.97</ele>
        <time>2022-07-14T14:28:17Z</time>
      </trkpt>
      <trkpt lat="42.47128" lon="1.55876">
        <ele>2391.42</ele>
        <time>2022-07-14T14:28:26Z</time>
      </trkpt>
      <trkpt lat="42.47127" lon="1.55876">
        <ele>2389.49</ele>
        <time>2022-07-14T14:28:36Z</time>
      </trkpt>
      <trkpt lat="42.47128" lon="1.55874">
        <ele>2390.46</ele>
        <time>2022-07-14T14:28:48Z</time>
      </trkpt>
      <trkpt lat="42.47127" lon="1.55876">
        <ele>2389.97</ele>
        <time>2022-07-14T14:29:15Z</time>
      </trkpt>
      <trkpt lat="42.47128" lon="1.55876">
        <ele>2390.94</ele>
        <time>2022-07-14T14:29:22Z</time>
      </trkpt>
      <trkpt lat="42.47128" lon="1.55877">
        <ele>2389.49</ele>
        <time>2022-07-14T14:29:50Z</time>
      </trkpt>
      <trkpt lat="42.47127" lon="1.55878">
        <ele>2390.94</ele>
        <time>2022-07-14T14:29:55Z</time>
      </trkpt>
      <trkpt lat="42.47127" lon="1.55878">
        <ele>2389.49</ele>
        <time>2022-07-14T14:29:59Z</time>
      </trkpt>
      <trkpt lat="42.47129" lon="1.55884">
        <ele>2389.01</ele>
        <time>2022-07-14T14:30:26Z</time>
      </trkpt>
      <trkpt lat="42.47128" lon="1.55892">
        <ele>2387.57</ele>
        <time>2022-07-14T14:30:37Z</time>
      </trkpt>
      <trkpt lat="42.47128" lon="1.55893">
        <ele>2386.13</ele>
        <time>2022-07-14T14:30:40Z</time>
      </trkpt>
      <trkpt lat="42.47129" lon="1.55894">
        <ele>2388.05</ele>
        <time>2022-07-14T14:30:57Z</time>
      </trkpt>
      <trkpt lat="42.4713" lon="1.55898">
        <ele>2386.61</ele>
        <time>2022-07-14T14:31:02Z</time>
      </trkpt>
      <trkpt lat="42.47128" lon="1.55907">
        <ele>2385.65</ele>
        <time>2022-07-14T14:31:15Z</time>
      </trkpt>
      <trkpt lat="42.47132" lon="1.55915">
        <ele>2381.8</ele>
        <time>2022-07-14T14:31:25Z</time>
      </trkpt>
      <trkpt lat="42.47132" lon="1.55916">
        <ele>2381.32</ele>
        <time>2022-07-14T14:31:26Z</time>
      </trkpt>
      <trkpt lat="42.47132" lon="1.55919">
        <ele>2380.36</ele>
        <time>2022-07-14T14:31:37Z</time>
      </trkpt>
      <trkpt lat="42.4713" lon="1.55928">
        <ele>2377.96</ele>
        <time>2022-07-14T14:31:51Z</time>
      </trkpt>
      <trkpt lat="42.4713" lon="1.55929">
        <ele>2377.96</ele>
        <time>2022-07-14T14:31:52Z</time>
      </trkpt>
      <trkpt lat="42.47128" lon="1.5594">
        <ele>2375.07</ele>
        <time>2022-07-14T14:32:04Z</time>
      </trkpt>
      <trkpt lat="42.47128" lon="1.5594">
        <ele>2375.07</ele>
        <time>2022-07-14T14:32:05Z</time>
      </trkpt>
      <trkpt lat="42.47129" lon="1.55955">
        <ele>2374.11</ele>
        <time>2022-07-14T14:32:17Z</time>
      </trkpt>
      <trkpt lat="42.47129" lon="1.55969">
        <ele>2372.19</ele>
        <time>2022-07-14T14:32:31Z</time>
      </trkpt>
      <trkpt lat="42.47128" lon="1.55971">
        <ele>2371.23</ele>
        <time>2022-07-14T14:32:34Z</time>
      </trkpt>
      <trkpt lat="42.4713" lon="1.55979">
        <ele>2371.23</ele>
        <time>2022-07-14T14:32:47Z</time>
      </trkpt>
      <trkpt lat="42.4713" lon="1.55978">
        <ele>2368.83</ele>
        <time>2022-07-14T14:33:04Z</time>
      </trkpt>
      <trkpt lat="42.47129" lon="1.55982">
        <ele>2368.83</ele>
        <time>2022-07-14T14:33:11Z</time>
      </trkpt>
      <trkpt lat="42.47126" lon="1.55989">
        <ele>2367.38</ele>
        <time>2022-07-14T14:33:23Z</time>
      </trkpt>
      <trkpt lat="42.47122" lon="1.56">
        <ele>2364.02</ele>
        <time>2022-07-14T14:33:35Z</time>
      </trkpt>
      <trkpt lat="42.4712" lon="1.56012">
        <ele>2360.65</ele>
        <time>2022-07-14T14:33:50Z</time>
      </trkpt>
      <trkpt lat="42.4712" lon="1.56013">
        <ele>2359.69</ele>
        <time>2022-07-14T14:33:52Z</time>
      </trkpt>
      <trkpt lat="42.47115" lon="1.56024">
        <ele>2355.85</ele>
        <time>2022-07-14T14:34:06Z</time>
      </trkpt>
      <trkpt lat="42.47112" lon="1.56037">
        <ele>2352.96</ele>
        <time>2022-07-14T14:34:20Z</time>
      </trkpt>
      <trkpt lat="42.47108" lon="1.56044">
        <ele>2349.12</ele>
        <time>2022-07-14T14:34:31Z</time>
      </trkpt>
      <trkpt lat="42.47105" lon="1.56054">
        <ele>2346.23</ele>
        <time>2022-07-14T14:34:48Z</time>
      </trkpt>
      <trkpt lat="42.47103" lon="1.56065">
        <ele>2342.87</ele>
        <time>2022-07-14T14:35:03Z</time>
      </trkpt>
      <trkpt lat="42.47101" lon="1.56079">
        <ele>2339.99</ele>
        <time>2022-07-14T14:35:19Z</time>
      </trkpt>
      <trkpt lat="42.47099" lon="1.56086">
        <ele>2336.62</ele>
        <time>2022-07-14T14:35:29Z</time>
      </trkpt>
      <trkpt lat="42.47098" lon="1.56087">
        <ele>2336.14</ele>
        <time>2022-07-14T14:35:46Z</time>
      </trkpt>
      <trkpt lat="42.47098" lon="1.56089">
        <ele>2335.66</ele>
        <time>2022-07-14T14:36:05Z</time>
      </trkpt>
      <trkpt lat="42.47096" lon="1.56091">
        <ele>2334.22</ele>
        <time>2022-07-14T14:36:10Z</time>
      </trkpt>
      <trkpt lat="42.47092" lon="1.561">
        <ele>2330.85</ele>
        <time>2022-07-14T14:36:21Z</time>
      </trkpt>
      <trkpt lat="42.47088" lon="1.5611">
        <ele>2327.97</ele>
        <time>2022-07-14T14:36:34Z</time>
      </trkpt>
      <trkpt lat="42.47081" lon="1.56118">
        <ele>2324.61</ele>
        <time>2022-07-14T14:36:48Z</time>
      </trkpt>
      <trkpt lat="42.47077" lon="1.56128">
        <ele>2322.68</ele>
        <time>2022-07-14T14:37:02Z</time>
      </trkpt>
      <trkpt lat="42.47075" lon="1.56129">
        <ele>2321.24</ele>
        <time>2022-07-14T14:37:05Z</time>
      </trkpt>
      <trkpt lat="42.47068" lon="1.56132">
        <ele>2319.32</ele>
        <time>2022-07-14T14:37:17Z</time>
      </trkpt>
      <trkpt lat="42.47062" lon="1.56141">
        <ele>2315.95</ele>
        <time>2022-07-14T14:37:28Z</time>
      </trkpt>
      <trkpt lat="42.47055" lon="1.56152">
        <ele>2313.07</ele>
        <time>2022-07-14T14:37:44Z</time>
      </trkpt>
      <trkpt lat="42.4705" lon="1.5617">
        <ele>2309.7</ele>
        <time>2022-07-14T14:38:00Z</time>
      </trkpt>
      <trkpt lat="42.47046" lon="1.56184">
        <ele>2306.82</ele>
        <time>2022-07-14T14:38:13Z</time>
      </trkpt>
      <trkpt lat="42.47042" lon="1.56191">
        <ele>2303.94</ele>
        <time>2022-07-14T14:38:29Z</time>
      </trkpt>
      <trkpt lat="42.47034" lon="1.56197">
        <ele>2302.98</ele>
        <time>2022-07-14T14:38:43Z</time>
      </trkpt>
      <trkpt lat="42.47034" lon="1.56201">
        <ele>2302.98</ele>
        <time>2022-07-14T14:38:59Z</time>
      </trkpt>
      <trkpt lat="42.47026" lon="1.56202">
        <ele>2302.98</ele>
        <time>2022-07-14T14:39:12Z</time>
      </trkpt>
      <trkpt lat="42.47017" lon="1.56206">
        <ele>2301.53</ele>
        <time>2022-07-14T14:39:26Z</time>
      </trkpt>
      <trkpt lat="42.47015" lon="1.56207">
        <ele>2301.53</ele>
        <time>2022-07-14T14:39:32Z</time>
      </trkpt>
      <trkpt lat="42.47006" lon="1.56207">
        <ele>2300.57</ele>
        <time>2022-07-14T14:39:49Z</time>
      </trkpt>
      <trkpt lat="42.47006" lon="1.562">
        <ele>2300.57</ele>
        <time>2022-07-14T14:40:08Z</time>
      </trkpt>
      <trkpt lat="42.47006" lon="1.56194">
        <ele>2301.53</ele>
        <time>2022-07-14T14:40:22Z</time>
      </trkpt>
      <trkpt lat="42.47007" lon="1.56201">
        <ele>2300.57</ele>
        <time>2022-07-14T14:40:30Z</time>
      </trkpt>
      <trkpt lat="42.47007" lon="1.56207">
        <ele>2299.61</ele>
        <time>2022-07-14T14:40:41Z</time>
      </trkpt>
      <trkpt lat="42.47005" lon="1.56209">
        <ele>2299.13</ele>
        <time>2022-07-14T14:41:04Z</time>
      </trkpt>
      <trkpt lat="42.4701" lon="1.5621">
        <ele>2299.13</ele>
        <time>2022-07-14T14:41:11Z</time>
      </trkpt>
      <trkpt lat="42.47019" lon="1.56218">
        <ele>2298.17</ele>
        <time>2022-07-14T14:41:25Z</time>
      </trkpt>
      <trkpt lat="42.47023" lon="1.56224">
        <ele>2298.17</ele>
        <time>2022-07-14T14:41:38Z</time>
      </trkpt>
      <trkpt lat="42.47027" lon="1.56236">
        <ele>2295.77</ele>
        <time>2022-07-14T14:41:53Z</time>
      </trkpt>
      <trkpt lat="42.47027" lon="1.56237">
        <ele>2295.77</ele>
        <time>2022-07-14T14:41:54Z</time>
      </trkpt>
      <trkpt lat="42.47029" lon="1.56251">
        <ele>2294.32</ele>
        <time>2022-07-14T14:42:07Z</time>
      </trkpt>
      <trkpt lat="42.47023" lon="1.56261">
        <ele>2291.92</ele>
        <time>2022-07-14T14:42:22Z</time>
      </trkpt>
      <trkpt lat="42.4702" lon="1.56258">
        <ele>2290.96</ele>
        <time>2022-07-14T14:42:40Z</time>
      </trkpt>
      <trkpt lat="42.4702" lon="1.56259">
        <ele>2291.92</ele>
        <time>2022-07-14T14:43:10Z</time>
      </trkpt>
      <trkpt lat="42.47024" lon="1.56262">
        <ele>2291.92</ele>
        <time>2022-07-14T14:43:27Z</time>
      </trkpt>
      <trkpt lat="42.47025" lon="1.56271">
        <ele>2291.92</ele>
        <time>2022-07-14T14:43:39Z</time>
      </trkpt>
      <trkpt lat="42.47024" lon="1.5628">
        <ele>2290</ele>
        <time>2022-07-14T14:43:53Z</time>
      </trkpt>
      <trkpt lat="42.47022" lon="1.56282">
        <ele>2290</ele>
        <time>2022-07-14T14:44:09Z</time>
      </trkpt>
      <trkpt lat="42.47023" lon="1.56281">
        <ele>2290</ele>
        <time>2022-07-14T14:44:30Z</time>
      </trkpt>
      <trkpt lat="42.47023" lon="1.56282">
        <ele>2289.04</ele>
        <time>2022-07-14T14:44:43Z</time>
      </trkpt>
      <trkpt lat="42.47023" lon="1.56281">
        <ele>2288.56</ele>
        <time>2022-07-14T14:45:03Z</time>
      </trkpt>
      <trkpt lat="42.47023" lon="1.56281">
        <ele>2288.56</ele>
        <time>2022-07-14T14:45:26Z</time>
      </trkpt>
      <trkpt lat="42.47022" lon="1.5628">
        <ele>2288.56</ele>
        <time>2022-07-14T14:45:46Z</time>
      </trkpt>
      <trkpt lat="42.47021" lon="1.56288">
        <ele>2290</ele>
        <time>2022-07-14T14:46:01Z</time>
      </trkpt>
      <trkpt lat="42.47017" lon="1.56303">
        <ele>2288.56</ele>
        <time>2022-07-14T14:46:15Z</time>
      </trkpt>
      <trkpt lat="42.47016" lon="1.5631">
        <ele>2288.08</ele>
        <time>2022-07-14T14:46:28Z</time>
      </trkpt>
      <trkpt lat="42.47014" lon="1.56321">
        <ele>2288.08</ele>
        <time>2022-07-14T14:46:40Z</time>
      </trkpt>
      <trkpt lat="42.47014" lon="1.56329">
        <ele>2287.59</ele>
        <time>2022-07-14T14:46:53Z</time>
      </trkpt>
      <trkpt lat="42.47013" lon="1.56337">
        <ele>2287.11</ele>
        <time>2022-07-14T14:47:06Z</time>
      </trkpt>
      <trkpt lat="42.47013" lon="1.56346">
        <ele>2286.15</ele>
        <time>2022-07-14T14:47:14Z</time>
      </trkpt>
      <trkpt lat="42.47016" lon="1.56352">
        <ele>2285.67</ele>
        <time>2022-07-14T14:47:28Z</time>
      </trkpt>
      <trkpt lat="42.47022" lon="1.56356">
        <ele>2284.23</ele>
        <time>2022-07-14T14:47:39Z</time>
      </trkpt>
      <trkpt lat="42.47021" lon="1.56358">
        <ele>2284.23</ele>
        <time>2022-07-14T14:47:41Z</time>
      </trkpt>
      <trkpt lat="42.47019" lon="1.56361">
        <ele>2284.23</ele>
        <time>2022-07-14T14:47:44Z</time>
      </trkpt>
      <trkpt lat="42.47015" lon="1.56364">
        <ele>2285.67</ele>
        <time>2022-07-14T14:47:59Z</time>
      </trkpt>
      <trkpt lat="42.47014" lon="1.56367">
        <ele>2285.67</ele>
        <time>2022-07-14T14:48:17Z</time>
      </trkpt>
      <trkpt lat="42.47008" lon="1.56377">
        <ele>2285.67</ele>
        <time>2022-07-14T14:48:35Z</time>
      </trkpt>
      <trkpt lat="42.47006" lon="1.56382">
        <ele>2286.15</ele>
        <time>2022-07-14T14:48:45Z</time>
      </trkpt>
      <trkpt lat="42.47006" lon="1.5639">
        <ele>2284.23</ele>
        <time>2022-07-14T14:48:58Z</time>
      </trkpt>
      <trkpt lat="42.47007" lon="1.56393">
        <ele>2284.23</ele>
        <time>2022-07-14T14:49:17Z</time>
      </trkpt>
      <trkpt lat="42.47012" lon="1.56402">
        <ele>2282.79</ele>
        <time>2022-07-14T14:49:31Z</time>
      </trkpt>
      <trkpt lat="42.47012" lon="1.56401">
        <ele>2284.23</ele>
        <time>2022-07-14T14:49:40Z</time>
      </trkpt>
      <trkpt lat="42.47013" lon="1.56401">
        <ele>2284.23</ele>
        <time>2022-07-14T14:49:48Z</time>
      </trkpt>
      <trkpt lat="42.47019" lon="1.56356">
        <ele>2232.32</ele>
        <time>2022-07-15T05:35:13Z</time>
      </trkpt>
      <trkpt lat="42.47017" lon="1.56357">
        <ele>2234.72</ele>
        <time>2022-07-15T05:35:15Z</time>
      </trkpt>
      <trkpt lat="42.47016" lon="1.56357">
        <ele>2239.53</ele>
        <time>2022-07-15T05:35:17Z</time>
      </trkpt>
      <trkpt lat="42.47014" lon="1.56355">
        <ele>2243.37</ele>
        <time>2022-07-15T05:35:19Z</time>
      </trkpt>
      <trkpt lat="42.47014" lon="1.56354">
        <ele>2245.3</ele>
        <time>2022-07-15T05:35:20Z</time>
      </trkpt>
      <trkpt lat="42.4701" lon="1.56351">
        <ele>2250.58</ele>
        <time>2022-07-15T05:35:23Z</time>
      </trkpt>
      <trkpt lat="42.47009" lon="1.56347">
        <ele>2254.91</ele>
        <time>2022-07-15T05:35:26Z</time>
      </trkpt>
      <trkpt lat="42.4701" lon="1.56345">
        <ele>2258.75</ele>
        <time>2022-07-15T05:35:29Z</time>
      </trkpt>
      <trkpt lat="42.47009" lon="1.56345">
        <ele>2261.64</ele>
        <time>2022-07-15T05:35:32Z</time>
      </trkpt>
      <trkpt lat="42.4701" lon="1.56345">
        <ele>2265.48</ele>
        <time>2022-07-15T05:35:36Z</time>
      </trkpt>
      <trkpt lat="42.4701" lon="1.56345">
        <ele>2268.37</ele>
        <time>2022-07-15T05:35:39Z</time>
      </trkpt>
      <trkpt lat="42.4701" lon="1.56345">
        <ele>2268.37</ele>
        <time>2022-07-15T05:35:40Z</time>
      </trkpt>
      <trkpt lat="42.4701" lon="1.56347">
        <ele>2271.73</ele>
        <time>2022-07-15T05:35:45Z</time>
      </trkpt>
      <trkpt lat="42.47011" lon="1.5635">
        <ele>2274.62</ele>
        <time>2022-07-15T05:35:53Z</time>
      </trkpt>
      <trkpt lat="42.47014" lon="1.56343">
        <ele>2277.5</ele>
        <time>2022-07-15T05:36:14Z</time>
      </trkpt>
      <trkpt lat="42.47018" lon="1.56327">
        <ele>2279.42</ele>
        <time>2022-07-15T05:36:28Z</time>
      </trkpt>
      <trkpt lat="42.47023" lon="1.56314">
        <ele>2279.42</ele>
        <time>2022-07-15T05:36:42Z</time>
      </trkpt>
      <trkpt lat="42.47025" lon="1.56298">
        <ele>2280.38</ele>
        <time>2022-07-15T05:36:55Z</time>
      </trkpt>
      <trkpt lat="42.47025" lon="1.5628">
        <ele>2282.31</ele>
        <time>2022-07-15T05:37:10Z</time>
      </trkpt>
      <trkpt lat="42.47024" lon="1.56274">
        <ele>2282.31</ele>
        <time>2022-07-15T05:37:14Z</time>
      </trkpt>
      <trkpt lat="42.47022" lon="1.56263">
        <ele>2284.71</ele>
        <time>2022-07-15T05:37:28Z</time>
      </trkpt>
      <trkpt lat="42.4702" lon="1.5625">
        <ele>2285.67</ele>
        <time>2022-07-15T05:37:41Z</time>
      </trkpt>
      <trkpt lat="42.47017" lon="1.56236">
        <ele>2287.11</ele>
        <time>2022-07-15T05:37:53Z</time>
      </trkpt>
      <trkpt lat="42.47009" lon="1.56224">
        <ele>2290</ele>
        <time>2022-07-15T05:38:08Z</time>
      </trkpt>
      <trkpt lat="42.47002" lon="1.56213">
        <ele>2292.88</ele>
        <time>2022-07-15T05:38:25Z</time>
      </trkpt>
      <trkpt lat="42.47001" lon="1.56204">
        <ele>2294.32</ele>
        <time>2022-07-15T05:38:39Z</time>
      </trkpt>
      <trkpt lat="42.46999" lon="1.56197">
        <ele>2295.28</ele>
        <time>2022-07-15T05:38:53Z</time>
      </trkpt>
      <trkpt lat="42.46995" lon="1.56186">
        <ele>2296.73</ele>
        <time>2022-07-15T05:39:05Z</time>
      </trkpt>
      <trkpt lat="42.46994" lon="1.56181">
        <ele>2298.65</ele>
        <time>2022-07-15T05:39:18Z</time>
      </trkpt>
      <trkpt lat="42.46994" lon="1.56176">
        <ele>2298.65</ele>
        <time>2022-07-15T05:39:38Z</time>
      </trkpt>
      <trkpt lat="42.46988" lon="1.56171">
        <ele>2301.53</ele>
        <time>2022-07-15T05:39:51Z</time>
      </trkpt>
      <trkpt lat="42.46983" lon="1.5617">
        <ele>2302.98</ele>
        <time>2022-07-15T05:40:04Z</time>
      </trkpt>
      <trkpt lat="42.46978" lon="1.56165">
        <ele>2305.86</ele>
        <time>2022-07-15T05:40:17Z</time>
      </trkpt>
      <trkpt lat="42.46972" lon="1.5616">
        <ele>2306.82</ele>
        <time>2022-07-15T05:40:32Z</time>
      </trkpt>
      <trkpt lat="42.46966" lon="1.56151">
        <ele>2307.78</ele>
        <time>2022-07-15T05:40:46Z</time>
      </trkpt>
      <trkpt lat="42.46959" lon="1.56146">
        <ele>2309.22</ele>
        <time>2022-07-15T05:40:59Z</time>
      </trkpt>
      <trkpt lat="42.46955" lon="1.56142">
        <ele>2309.7</ele>
        <time>2022-07-15T05:41:22Z</time>
      </trkpt>
      <trkpt lat="42.46955" lon="1.56146">
        <ele>2310.67</ele>
        <time>2022-07-15T05:41:39Z</time>
      </trkpt>
      <trkpt lat="42.46955" lon="1.56147">
        <ele>2311.15</ele>
        <time>2022-07-15T05:41:56Z</time>
      </trkpt>
      <trkpt lat="42.46954" lon="1.56144">
        <ele>2311.63</ele>
        <time>2022-07-15T05:42:13Z</time>
      </trkpt>
      <trkpt lat="42.4695" lon="1.56134">
        <ele>2309.7</ele>
        <time>2022-07-15T05:42:26Z</time>
      </trkpt>
      <trkpt lat="42.46944" lon="1.56125">
        <ele>2309.7</ele>
        <time>2022-07-15T05:42:39Z</time>
      </trkpt>
      <trkpt lat="42.46937" lon="1.56121">
        <ele>2311.15</ele>
        <time>2022-07-15T05:42:49Z</time>
      </trkpt>
      <trkpt lat="42.46929" lon="1.56113">
        <ele>2312.11</ele>
        <time>2022-07-15T05:43:03Z</time>
      </trkpt>
      <trkpt lat="42.4693" lon="1.56111">
        <ele>2312.59</ele>
        <time>2022-07-15T05:43:10Z</time>
      </trkpt>
      <trkpt lat="42.46927" lon="1.561">
        <ele>2313.07</ele>
        <time>2022-07-15T05:43:19Z</time>
      </trkpt>
      <trkpt lat="42.46926" lon="1.56095">
        <ele>2313.07</ele>
        <time>2022-07-15T05:43:23Z</time>
      </trkpt>
      <trkpt lat="42.46926" lon="1.56074">
        <ele>2314.03</ele>
        <time>2022-07-15T05:43:38Z</time>
      </trkpt>
      <trkpt lat="42.4693" lon="1.5606">
        <ele>2314.03</ele>
        <time>2022-07-15T05:43:50Z</time>
      </trkpt>
      <trkpt lat="42.46929" lon="1.56042">
        <ele>2314.99</ele>
        <time>2022-07-15T05:44:05Z</time>
      </trkpt>
      <trkpt lat="42.46925" lon="1.56028">
        <ele>2316.43</ele>
        <time>2022-07-15T05:44:17Z</time>
      </trkpt>
      <trkpt lat="42.46923" lon="1.56011">
        <ele>2317.88</ele>
        <time>2022-07-15T05:44:31Z</time>
      </trkpt>
      <trkpt lat="42.46912" lon="1.55998">
        <ele>2319.8</ele>
        <time>2022-07-15T05:44:45Z</time>
      </trkpt>
      <trkpt lat="42.46906" lon="1.55987">
        <ele>2322.2</ele>
        <time>2022-07-15T05:44:58Z</time>
      </trkpt>
      <trkpt lat="42.46904" lon="1.55975">
        <ele>2324.61</ele>
        <time>2022-07-15T05:45:12Z</time>
      </trkpt>
      <trkpt lat="42.46903" lon="1.55966">
        <ele>2326.05</ele>
        <time>2022-07-15T05:45:24Z</time>
      </trkpt>
      <trkpt lat="42.46902" lon="1.55958">
        <ele>2327.01</ele>
        <time>2022-07-15T05:45:40Z</time>
      </trkpt>
      <trkpt lat="42.46899" lon="1.55945">
        <ele>2329.41</ele>
        <time>2022-07-15T05:45:56Z</time>
      </trkpt>
      <trkpt lat="42.46899" lon="1.55939">
        <ele>2331.33</ele>
        <time>2022-07-15T05:46:11Z</time>
      </trkpt>
      <trkpt lat="42.46897" lon="1.5593">
        <ele>2333.26</ele>
        <time>2022-07-15T05:46:31Z</time>
      </trkpt>
      <trkpt lat="42.46899" lon="1.55924">
        <ele>2335.18</ele>
        <time>2022-07-15T05:46:47Z</time>
      </trkpt>
      <trkpt lat="42.46899" lon="1.55917">
        <ele>2337.58</ele>
        <time>2022-07-15T05:47:02Z</time>
      </trkpt>
      <trkpt lat="42.469" lon="1.55912">
        <ele>2338.54</ele>
        <time>2022-07-15T05:47:22Z</time>
      </trkpt>
      <trkpt lat="42.469" lon="1.55906">
        <ele>2341.43</ele>
        <time>2022-07-15T05:47:35Z</time>
      </trkpt>
      <trkpt lat="42.46899" lon="1.55906">
        <ele>2341.43</ele>
        <time>2022-07-15T05:47:58Z</time>
      </trkpt>
      <trkpt lat="42.46897" lon="1.55902">
        <ele>2341.91</ele>
        <time>2022-07-15T05:48:17Z</time>
      </trkpt>
      <trkpt lat="42.46899" lon="1.55892">
        <ele>2345.27</ele>
        <time>2022-07-15T05:48:31Z</time>
      </trkpt>
      <trkpt lat="42.46899" lon="1.55883">
        <ele>2348.16</ele>
        <time>2022-07-15T05:48:46Z</time>
      </trkpt>
      <trkpt lat="42.46899" lon="1.55879">
        <ele>2350.08</ele>
        <time>2022-07-15T05:48:59Z</time>
      </trkpt>
      <trkpt lat="42.46897" lon="1.55875">
        <ele>2351.04</ele>
        <time>2022-07-15T05:49:06Z</time>
      </trkpt>
      <trkpt lat="42.46891" lon="1.55869">
        <ele>2353.44</ele>
        <time>2022-07-15T05:49:18Z</time>
      </trkpt>
      <trkpt lat="42.46884" lon="1.55865">
        <ele>2355.37</ele>
        <time>2022-07-15T05:49:31Z</time>
      </trkpt>
      <trkpt lat="42.46881" lon="1.55862">
        <ele>2356.33</ele>
        <time>2022-07-15T05:49:45Z</time>
      </trkpt>
      <trkpt lat="42.46874" lon="1.55856">
        <ele>2358.25</ele>
        <time>2022-07-15T05:49:58Z</time>
      </trkpt>
      <trkpt lat="42.46865" lon="1.55853">
        <ele>2359.69</ele>
        <time>2022-07-15T05:50:09Z</time>
      </trkpt>
      <trkpt lat="42.46859" lon="1.55852">
        <ele>2359.69</ele>
        <time>2022-07-15T05:50:16Z</time>
      </trkpt>
      <trkpt lat="42.46848" lon="1.55852">
        <ele>2359.69</ele>
        <time>2022-07-15T05:50:29Z</time>
      </trkpt>
      <trkpt lat="42.46839" lon="1.55853">
        <ele>2361.14</ele>
        <time>2022-07-15T05:50:41Z</time>
      </trkpt>
      <trkpt lat="42.46829" lon="1.55855">
        <ele>2362.1</ele>
        <time>2022-07-15T05:50:54Z</time>
      </trkpt>
      <trkpt lat="42.46822" lon="1.55862">
        <ele>2362.58</ele>
        <time>2022-07-15T05:51:04Z</time>
      </trkpt>
      <trkpt lat="42.46814" lon="1.55866">
        <ele>2364.5</ele>
        <time>2022-07-15T05:51:17Z</time>
      </trkpt>
      <trkpt lat="42.46807" lon="1.55873">
        <ele>2365.94</ele>
        <time>2022-07-15T05:51:30Z</time>
      </trkpt>
      <trkpt lat="42.46799" lon="1.55886">
        <ele>2368.83</ele>
        <time>2022-07-15T05:51:45Z</time>
      </trkpt>
      <trkpt lat="42.4679" lon="1.55897">
        <ele>2370.75</ele>
        <time>2022-07-15T05:51:59Z</time>
      </trkpt>
      <trkpt lat="42.46786" lon="1.55906">
        <ele>2371.23</ele>
        <time>2022-07-15T05:52:12Z</time>
      </trkpt>
      <trkpt lat="42.46782" lon="1.55915">
        <ele>2373.15</ele>
        <time>2022-07-15T05:52:26Z</time>
      </trkpt>
      <trkpt lat="42.46774" lon="1.55917">
        <ele>2375.07</ele>
        <time>2022-07-15T05:52:38Z</time>
      </trkpt>
      <trkpt lat="42.46767" lon="1.55915">
        <ele>2377</ele>
        <time>2022-07-15T05:52:51Z</time>
      </trkpt>
      <trkpt lat="42.46759" lon="1.55913">
        <ele>2379.4</ele>
        <time>2022-07-15T05:53:06Z</time>
      </trkpt>
      <trkpt lat="42.46754" lon="1.55912">
        <ele>2381.8</ele>
        <time>2022-07-15T05:53:21Z</time>
      </trkpt>
      <trkpt lat="42.46749" lon="1.55913">
        <ele>2382.76</ele>
        <time>2022-07-15T05:53:36Z</time>
      </trkpt>
      <trkpt lat="42.46741" lon="1.5591">
        <ele>2384.69</ele>
        <time>2022-07-15T05:53:50Z</time>
      </trkpt>
      <trkpt lat="42.46736" lon="1.55915">
        <ele>2386.13</ele>
        <time>2022-07-15T05:54:05Z</time>
      </trkpt>
      <trkpt lat="42.46731" lon="1.55915">
        <ele>2387.57</ele>
        <time>2022-07-15T05:54:27Z</time>
      </trkpt>
      <trkpt lat="42.46723" lon="1.55915">
        <ele>2389.97</ele>
        <time>2022-07-15T05:54:42Z</time>
      </trkpt>
      <trkpt lat="42.46716" lon="1.55918">
        <ele>2392.38</ele>
        <time>2022-07-15T05:54:56Z</time>
      </trkpt>
      <trkpt lat="42.46708" lon="1.55919">
        <ele>2395.26</ele>
        <time>2022-07-15T05:55:12Z</time>
      </trkpt>
      <trkpt lat="42.46702" lon="1.55922">
        <ele>2397.67</ele>
        <time>2022-07-15T05:55:27Z</time>
      </trkpt>
      <trkpt lat="42.46699" lon="1.55928">
        <ele>2399.11</ele>
        <time>2022-07-15T05:55:41Z</time>
      </trkpt>
      <trkpt lat="42.46699" lon="1.55928">
        <ele>2399.59</ele>
        <time>2022-07-15T05:56:01Z</time>
      </trkpt>
      <trkpt lat="42.46695" lon="1.5594">
        <ele>2401.51</ele>
        <time>2022-07-15T05:56:15Z</time>
      </trkpt>
      <trkpt lat="42.46688" lon="1.55947">
        <ele>2403.43</ele>
        <time>2022-07-15T05:56:29Z</time>
      </trkpt>
      <trkpt lat="42.46684" lon="1.55957">
        <ele>2405.36</ele>
        <time>2022-07-15T05:56:42Z</time>
      </trkpt>
      <trkpt lat="42.46676" lon="1.55966">
        <ele>2406.8</ele>
        <time>2022-07-15T05:56:57Z</time>
      </trkpt>
      <trkpt lat="42.46667" lon="1.55973">
        <ele>2407.76</ele>
        <time>2022-07-15T05:57:10Z</time>
      </trkpt>
      <trkpt lat="42.46658" lon="1.55978">
        <ele>2408.72</ele>
        <time>2022-07-15T05:57:24Z</time>
      </trkpt>
      <trkpt lat="42.4665" lon="1.55985">
        <ele>2410.64</ele>
        <time>2022-07-15T05:57:39Z</time>
      </trkpt>
      <trkpt lat="42.46642" lon="1.55992">
        <ele>2412.09</ele>
        <time>2022-07-15T05:57:54Z</time>
      </trkpt>
      <trkpt lat="42.46635" lon="1.55996">
        <ele>2413.05</ele>
        <time>2022-07-15T05:58:08Z</time>
      </trkpt>
      <trkpt lat="42.46628" lon="1.56003">
        <ele>2415.45</ele>
        <time>2022-07-15T05:58:22Z</time>
      </trkpt>
      <trkpt lat="42.4662" lon="1.5601">
        <ele>2417.85</ele>
        <time>2022-07-15T05:58:37Z</time>
      </trkpt>
      <trkpt lat="42.46611" lon="1.56017">
        <ele>2420.26</ele>
        <time>2022-07-15T05:58:52Z</time>
      </trkpt>
      <trkpt lat="42.46603" lon="1.56022">
        <ele>2421.7</ele>
        <time>2022-07-15T05:59:05Z</time>
      </trkpt>
      <trkpt lat="42.46593" lon="1.5603">
        <ele>2422.18</ele>
        <time>2022-07-15T05:59:19Z</time>
      </trkpt>
      <trkpt lat="42.46583" lon="1.5604">
        <ele>2424.1</ele>
        <time>2022-07-15T05:59:34Z</time>
      </trkpt>
      <trkpt lat="42.46574" lon="1.56043">
        <ele>2425.54</ele>
        <time>2022-07-15T05:59:47Z</time>
      </trkpt>
      <trkpt lat="42.46567" lon="1.5605">
        <ele>2427.47</ele>
        <time>2022-07-15T05:59:59Z</time>
      </trkpt>
      <trkpt lat="42.46558" lon="1.56058">
        <ele>2429.87</ele>
        <time>2022-07-15T06:00:14Z</time>
      </trkpt>
      <trkpt lat="42.4655" lon="1.56064">
        <ele>2431.79</ele>
        <time>2022-07-15T06:00:28Z</time>
      </trkpt>
      <trkpt lat="42.4654" lon="1.5607">
        <ele>2432.75</ele>
        <time>2022-07-15T06:00:42Z</time>
      </trkpt>
      <trkpt lat="42.46533" lon="1.56082">
        <ele>2433.71</ele>
        <time>2022-07-15T06:00:57Z</time>
      </trkpt>
      <trkpt lat="42.46528" lon="1.56087">
        <ele>2435.16</ele>
        <time>2022-07-15T06:01:05Z</time>
      </trkpt>
      <trkpt lat="42.46518" lon="1.56096">
        <ele>2436.12</ele>
        <time>2022-07-15T06:01:19Z</time>
      </trkpt>
      <trkpt lat="42.46506" lon="1.56103">
        <ele>2438.04</ele>
        <time>2022-07-15T06:01:35Z</time>
      </trkpt>
      <trkpt lat="42.46498" lon="1.56107">
        <ele>2439</ele>
        <time>2022-07-15T06:01:48Z</time>
      </trkpt>
      <trkpt lat="42.46489" lon="1.56109">
        <ele>2441.41</ele>
        <time>2022-07-15T06:02:01Z</time>
      </trkpt>
      <trkpt lat="42.46479" lon="1.5611">
        <ele>2442.37</ele>
        <time>2022-07-15T06:02:13Z</time>
      </trkpt>
      <trkpt lat="42.46468" lon="1.5611">
        <ele>2443.33</ele>
        <time>2022-07-15T06:02:26Z</time>
      </trkpt>
      <trkpt lat="42.46456" lon="1.56106">
        <ele>2444.77</ele>
        <time>2022-07-15T06:02:39Z</time>
      </trkpt>
      <trkpt lat="42.46453" lon="1.56108">
        <ele>2444.77</ele>
        <time>2022-07-15T06:02:44Z</time>
      </trkpt>
      <trkpt lat="42.46443" lon="1.56114">
        <ele>2445.73</ele>
        <time>2022-07-15T06:02:57Z</time>
      </trkpt>
      <trkpt lat="42.46434" lon="1.56113">
        <ele>2447.65</ele>
        <time>2022-07-15T06:03:11Z</time>
      </trkpt>
      <trkpt lat="42.46424" lon="1.5612">
        <ele>2448.62</ele>
        <time>2022-07-15T06:03:26Z</time>
      </trkpt>
      <trkpt lat="42.4642" lon="1.56121">
        <ele>2448.62</ele>
        <time>2022-07-15T06:03:30Z</time>
      </trkpt>
      <trkpt lat="42.46405" lon="1.56125">
        <ele>2448.62</ele>
        <time>2022-07-15T06:03:47Z</time>
      </trkpt>
      <trkpt lat="42.46392" lon="1.56123">
        <ele>2450.06</ele>
        <time>2022-07-15T06:04:02Z</time>
      </trkpt>
      <trkpt lat="42.46381" lon="1.5612">
        <ele>2451.5</ele>
        <time>2022-07-15T06:04:16Z</time>
      </trkpt>
      <trkpt lat="42.46371" lon="1.56118">
        <ele>2453.9</ele>
        <time>2022-07-15T06:04:30Z</time>
      </trkpt>
      <trkpt lat="42.46361" lon="1.56117">
        <ele>2454.86</ele>
        <time>2022-07-15T06:04:42Z</time>
      </trkpt>
      <trkpt lat="42.46351" lon="1.56116">
        <ele>2456.79</ele>
        <time>2022-07-15T06:04:56Z</time>
      </trkpt>
      <trkpt lat="42.46342" lon="1.56117">
        <ele>2459.19</ele>
        <time>2022-07-15T06:05:10Z</time>
      </trkpt>
      <trkpt lat="42.46332" lon="1.56115">
        <ele>2461.59</ele>
        <time>2022-07-15T06:05:24Z</time>
      </trkpt>
      <trkpt lat="42.46326" lon="1.56116">
        <ele>2463.04</ele>
        <time>2022-07-15T06:05:38Z</time>
      </trkpt>
      <trkpt lat="42.46317" lon="1.56118">
        <ele>2465.44</ele>
        <time>2022-07-15T06:05:52Z</time>
      </trkpt>
      <trkpt lat="42.46311" lon="1.56115">
        <ele>2467.36</ele>
        <time>2022-07-15T06:06:07Z</time>
      </trkpt>
      <trkpt lat="42.46303" lon="1.56114">
        <ele>2470.24</ele>
        <time>2022-07-15T06:06:23Z</time>
      </trkpt>
      <trkpt lat="42.46299" lon="1.56112">
        <ele>2472.17</ele>
        <time>2022-07-15T06:06:40Z</time>
      </trkpt>
      <trkpt lat="42.46294" lon="1.56107">
        <ele>2473.61</ele>
        <time>2022-07-15T06:06:53Z</time>
      </trkpt>
      <trkpt lat="42.46288" lon="1.56101">
        <ele>2476.01</ele>
        <time>2022-07-15T06:07:06Z</time>
      </trkpt>
      <trkpt lat="42.46285" lon="1.561">
        <ele>2477.45</ele>
        <time>2022-07-15T06:07:18Z</time>
      </trkpt>
      <trkpt lat="42.46284" lon="1.561">
        <ele>2477.94</ele>
        <time>2022-07-15T06:07:36Z</time>
      </trkpt>
      <trkpt lat="42.46285" lon="1.56099">
        <ele>2478.42</ele>
        <time>2022-07-15T06:08:00Z</time>
      </trkpt>
      <trkpt lat="42.46284" lon="1.56102">
        <ele>2478.42</ele>
        <time>2022-07-15T06:08:19Z</time>
      </trkpt>
      <trkpt lat="42.46284" lon="1.56102">
        <ele>2478.9</ele>
        <time>2022-07-15T06:08:41Z</time>
      </trkpt>
      <trkpt lat="42.46284" lon="1.56103">
        <ele>2479.38</ele>
        <time>2022-07-15T06:09:10Z</time>
      </trkpt>
      <trkpt lat="42.46285" lon="1.56103">
        <ele>2479.38</ele>
        <time>2022-07-15T06:09:31Z</time>
      </trkpt>
      <trkpt lat="42.46279" lon="1.56098">
        <ele>2479.86</ele>
        <time>2022-07-15T06:09:46Z</time>
      </trkpt>
      <trkpt lat="42.46267" lon="1.561">
        <ele>2481.78</ele>
        <time>2022-07-15T06:10:00Z</time>
      </trkpt>
      <trkpt lat="42.46256" lon="1.56097">
        <ele>2484.18</ele>
        <time>2022-07-15T06:10:15Z</time>
      </trkpt>
      <trkpt lat="42.46247" lon="1.56094">
        <ele>2487.07</ele>
        <time>2022-07-15T06:10:30Z</time>
      </trkpt>
      <trkpt lat="42.46241" lon="1.56093">
        <ele>2489.95</ele>
        <time>2022-07-15T06:10:44Z</time>
      </trkpt>
      <trkpt lat="42.46231" lon="1.56094">
        <ele>2490.91</ele>
        <time>2022-07-15T06:10:59Z</time>
      </trkpt>
      <trkpt lat="42.46221" lon="1.56092">
        <ele>2493.32</ele>
        <time>2022-07-15T06:11:13Z</time>
      </trkpt>
      <trkpt lat="42.46211" lon="1.56092">
        <ele>2495.72</ele>
        <time>2022-07-15T06:11:28Z</time>
      </trkpt>
      <trkpt lat="42.46205" lon="1.56095">
        <ele>2496.68</ele>
        <time>2022-07-15T06:11:44Z</time>
      </trkpt>
      <trkpt lat="42.46208" lon="1.56093">
        <ele>2496.68</ele>
        <time>2022-07-15T06:12:02Z</time>
      </trkpt>
      <trkpt lat="42.46203" lon="1.56097">
        <ele>2497.16</ele>
        <time>2022-07-15T06:12:14Z</time>
      </trkpt>
      <trkpt lat="42.46207" lon="1.5609">
        <ele>2498.12</ele>
        <time>2022-07-15T06:12:28Z</time>
      </trkpt>
      <trkpt lat="42.46214" lon="1.56088">
        <ele>2497.16</ele>
        <time>2022-07-15T06:12:44Z</time>
      </trkpt>
      <trkpt lat="42.46207" lon="1.56088">
        <ele>2496.68</ele>
        <time>2022-07-15T06:12:58Z</time>
      </trkpt>
      <trkpt lat="42.46207" lon="1.56088">
        <ele>2497.64</ele>
        <time>2022-07-15T06:13:10Z</time>
      </trkpt>
      <trkpt lat="42.46208" lon="1.56088">
        <ele>2497.64</ele>
        <time>2022-07-15T06:13:24Z</time>
      </trkpt>
      <trkpt lat="42.46204" lon="1.56089">
        <ele>2496.68</ele>
        <time>2022-07-15T06:13:57Z</time>
      </trkpt>
      <trkpt lat="42.46203" lon="1.56089">
        <ele>2498.12</ele>
        <time>2022-07-15T06:13:59Z</time>
      </trkpt>
      <trkpt lat="42.4619" lon="1.56093">
        <ele>2499.57</ele>
        <time>2022-07-15T06:14:14Z</time>
      </trkpt>
      <trkpt lat="42.46176" lon="1.56101">
        <ele>2500.53</ele>
        <time>2022-07-15T06:14:30Z</time>
      </trkpt>
      <trkpt lat="42.46163" lon="1.56102">
        <ele>2501.49</ele>
        <time>2022-07-15T06:14:45Z</time>
      </trkpt>
      <trkpt lat="42.4615" lon="1.56106">
        <ele>2502.45</ele>
        <time>2022-07-15T06:14:59Z</time>
      </trkpt>
      <trkpt lat="42.46138" lon="1.56113">
        <ele>2504.85</ele>
        <time>2022-07-15T06:15:14Z</time>
      </trkpt>
      <trkpt lat="42.46129" lon="1.56116">
        <ele>2506.77</ele>
        <time>2022-07-15T06:15:28Z</time>
      </trkpt>
      <trkpt lat="42.46118" lon="1.56131">
        <ele>2507.74</ele>
        <time>2022-07-15T06:15:44Z</time>
      </trkpt>
      <trkpt lat="42.46108" lon="1.56145">
        <ele>2508.22</ele>
        <time>2022-07-15T06:16:00Z</time>
      </trkpt>
      <trkpt lat="42.46098" lon="1.56155">
        <ele>2509.18</ele>
        <time>2022-07-15T06:16:14Z</time>
      </trkpt>
      <trkpt lat="42.46087" lon="1.56163">
        <ele>2511.58</ele>
        <time>2022-07-15T06:16:28Z</time>
      </trkpt>
      <trkpt lat="42.4608" lon="1.56171">
        <ele>2513.5</ele>
        <time>2022-07-15T06:16:42Z</time>
      </trkpt>
      <trkpt lat="42.46074" lon="1.56177">
        <ele>2515.91</ele>
        <time>2022-07-15T06:16:55Z</time>
      </trkpt>
      <trkpt lat="42.46064" lon="1.56185">
        <ele>2517.83</ele>
        <time>2022-07-15T06:17:11Z</time>
      </trkpt>
      <trkpt lat="42.46056" lon="1.56193">
        <ele>2519.27</ele>
        <time>2022-07-15T06:17:26Z</time>
      </trkpt>
      <trkpt lat="42.4605" lon="1.56199">
        <ele>2522.16</ele>
        <time>2022-07-15T06:17:40Z</time>
      </trkpt>
      <trkpt lat="42.46042" lon="1.56206">
        <ele>2524.08</ele>
        <time>2022-07-15T06:17:54Z</time>
      </trkpt>
      <trkpt lat="42.46034" lon="1.56213">
        <ele>2526</ele>
        <time>2022-07-15T06:18:09Z</time>
      </trkpt>
      <trkpt lat="42.46027" lon="1.56221">
        <ele>2528.89</ele>
        <time>2022-07-15T06:18:24Z</time>
      </trkpt>
      <trkpt lat="42.46021" lon="1.56225">
        <ele>2530.81</ele>
        <time>2022-07-15T06:18:38Z</time>
      </trkpt>
      <trkpt lat="42.46021" lon="1.56225">
        <ele>2529.37</ele>
        <time>2022-07-15T06:18:43Z</time>
      </trkpt>
      <trkpt lat="42.46022" lon="1.56225">
        <ele>2530.81</ele>
        <time>2022-07-15T06:18:52Z</time>
      </trkpt>
      <trkpt lat="42.46022" lon="1.56224">
        <ele>2531.29</ele>
        <time>2022-07-15T06:19:16Z</time>
      </trkpt>
      <trkpt lat="42.46021" lon="1.56223">
        <ele>2529.85</ele>
        <time>2022-07-15T06:19:24Z</time>
      </trkpt>
      <trkpt lat="42.46021" lon="1.56224">
        <ele>2530.81</ele>
        <time>2022-07-15T06:19:52Z</time>
      </trkpt>
      <trkpt lat="42.4602" lon="1.56225">
        <ele>2530.81</ele>
        <time>2022-07-15T06:19:53Z</time>
      </trkpt>
      <trkpt lat="42.46011" lon="1.56229">
        <ele>2533.69</ele>
        <time>2022-07-15T06:20:08Z</time>
      </trkpt>
      <trkpt lat="42.46001" lon="1.56238">
        <ele>2535.13</ele>
        <time>2022-07-15T06:20:21Z</time>
      </trkpt>
      <trkpt lat="42.45991" lon="1.56244">
        <ele>2536.1</ele>
        <time>2022-07-15T06:20:36Z</time>
      </trkpt>
      <trkpt lat="42.45983" lon="1.56252">
        <ele>2538.02</ele>
        <time>2022-07-15T06:20:49Z</time>
      </trkpt>
      <trkpt lat="42.45971" lon="1.56256">
        <ele>2540.9</ele>
        <time>2022-07-15T06:21:05Z</time>
      </trkpt>
      <trkpt lat="42.45965" lon="1.56257">
        <ele>2542.34</ele>
        <time>2022-07-15T06:21:24Z</time>
      </trkpt>
      <trkpt lat="42.45966" lon="1.56259">
        <ele>2542.34</ele>
        <time>2022-07-15T06:21:33Z</time>
      </trkpt>
      <trkpt lat="42.45956" lon="1.56265">
        <ele>2543.79</ele>
        <time>2022-07-15T06:21:47Z</time>
      </trkpt>
      <trkpt lat="42.45946" lon="1.56273">
        <ele>2546.19</ele>
        <time>2022-07-15T06:22:02Z</time>
      </trkpt>
      <trkpt lat="42.45939" lon="1.56279">
        <ele>2548.11</ele>
        <time>2022-07-15T06:22:15Z</time>
      </trkpt>
      <trkpt lat="42.4593" lon="1.56284">
        <ele>2550.51</ele>
        <time>2022-07-15T06:22:31Z</time>
      </trkpt>
      <trkpt lat="42.45921" lon="1.5629">
        <ele>2553.4</ele>
        <time>2022-07-15T06:22:47Z</time>
      </trkpt>
      <trkpt lat="42.45914" lon="1.56295">
        <ele>2555.32</ele>
        <time>2022-07-15T06:23:03Z</time>
      </trkpt>
      <trkpt lat="42.45914" lon="1.56297">
        <ele>2555.32</ele>
        <time>2022-07-15T06:23:30Z</time>
      </trkpt>
      <trkpt lat="42.45908" lon="1.56302">
        <ele>2557.24</ele>
        <time>2022-07-15T06:23:46Z</time>
      </trkpt>
      <trkpt lat="42.459" lon="1.56308">
        <ele>2560.61</ele>
        <time>2022-07-15T06:24:04Z</time>
      </trkpt>
      <trkpt lat="42.45892" lon="1.56313">
        <ele>2563.49</ele>
        <time>2022-07-15T06:24:19Z</time>
      </trkpt>
      <trkpt lat="42.45886" lon="1.56315">
        <ele>2565.9</ele>
        <time>2022-07-15T06:24:33Z</time>
      </trkpt>
      <trkpt lat="42.45884" lon="1.56316">
        <ele>2566.86</ele>
        <time>2022-07-15T06:24:47Z</time>
      </trkpt>
      <trkpt lat="42.45879" lon="1.56315">
        <ele>2567.82</ele>
        <time>2022-07-15T06:25:00Z</time>
      </trkpt>
      <trkpt lat="42.45871" lon="1.56318">
        <ele>2570.22</ele>
        <time>2022-07-15T06:25:15Z</time>
      </trkpt>
      <trkpt lat="42.45863" lon="1.56322">
        <ele>2572.63</ele>
        <time>2022-07-15T06:25:30Z</time>
      </trkpt>
      <trkpt lat="42.45856" lon="1.56325">
        <ele>2575.03</ele>
        <time>2022-07-15T06:25:47Z</time>
      </trkpt>
      <trkpt lat="42.45847" lon="1.56323">
        <ele>2577.43</ele>
        <time>2022-07-15T06:26:03Z</time>
      </trkpt>
      <trkpt lat="42.45839" lon="1.56324">
        <ele>2580.32</ele>
        <time>2022-07-15T06:26:19Z</time>
      </trkpt>
      <trkpt lat="42.45833" lon="1.56325">
        <ele>2583.2</ele>
        <time>2022-07-15T06:26:35Z</time>
      </trkpt>
      <trkpt lat="42.45831" lon="1.56326">
        <ele>2584.16</ele>
        <time>2022-07-15T06:26:54Z</time>
      </trkpt>
      <trkpt lat="42.45824" lon="1.56324">
        <ele>2587.53</ele>
        <time>2022-07-15T06:27:09Z</time>
      </trkpt>
      <trkpt lat="42.45819" lon="1.56322">
        <ele>2589.45</ele>
        <time>2022-07-15T06:27:27Z</time>
      </trkpt>
      <trkpt lat="42.45817" lon="1.56322">
        <ele>2591.37</ele>
        <time>2022-07-15T06:27:34Z</time>
      </trkpt>
      <trkpt lat="42.45814" lon="1.56328">
        <ele>2593.29</ele>
        <time>2022-07-15T06:27:51Z</time>
      </trkpt>
      <trkpt lat="42.45814" lon="1.56335">
        <ele>2595.22</ele>
        <time>2022-07-15T06:28:05Z</time>
      </trkpt>
      <trkpt lat="42.45815" lon="1.56346">
        <ele>2595.22</ele>
        <time>2022-07-15T06:28:21Z</time>
      </trkpt>
      <trkpt lat="42.45817" lon="1.56346">
        <ele>2596.66</ele>
        <time>2022-07-15T06:28:35Z</time>
      </trkpt>
      <trkpt lat="42.45815" lon="1.56352">
        <ele>2597.14</ele>
        <time>2022-07-15T06:28:51Z</time>
      </trkpt>
      <trkpt lat="42.45815" lon="1.56357">
        <ele>2597.14</ele>
        <time>2022-07-15T06:29:07Z</time>
      </trkpt>
      <trkpt lat="42.45812" lon="1.5636">
        <ele>2596.18</ele>
        <time>2022-07-15T06:29:13Z</time>
      </trkpt>
      <trkpt lat="42.45813" lon="1.56368">
        <ele>2596.18</ele>
        <time>2022-07-15T06:29:30Z</time>
      </trkpt>
      <trkpt lat="42.45815" lon="1.5637">
        <ele>2593.77</ele>
        <time>2022-07-15T06:29:34Z</time>
      </trkpt>
      <trkpt lat="42.45814" lon="1.56369">
        <ele>2595.22</ele>
        <time>2022-07-15T06:29:53Z</time>
      </trkpt>
      <trkpt lat="42.45804" lon="1.56364">
        <ele>2595.7</ele>
        <time>2022-07-15T06:30:07Z</time>
      </trkpt>
      <trkpt lat="42.45805" lon="1.56363">
        <ele>2595.7</ele>
        <time>2022-07-15T06:30:31Z</time>
      </trkpt>
      <trkpt lat="42.45806" lon="1.56364">
        <ele>2591.37</ele>
        <time>2022-07-15T06:30:46Z</time>
      </trkpt>
      <trkpt lat="42.45806" lon="1.56365">
        <ele>2593.29</ele>
        <time>2022-07-15T06:30:47Z</time>
      </trkpt>
      <trkpt lat="42.45808" lon="1.56367">
        <ele>2593.29</ele>
        <time>2022-07-15T06:30:50Z</time>
      </trkpt>
      <trkpt lat="42.45809" lon="1.56369">
        <ele>2594.74</ele>
        <time>2022-07-15T06:30:52Z</time>
      </trkpt>
      <trkpt lat="42.45812" lon="1.5638">
        <ele>2595.7</ele>
        <time>2022-07-15T06:31:02Z</time>
      </trkpt>
      <trkpt lat="42.45813" lon="1.5639">
        <ele>2596.66</ele>
        <time>2022-07-15T06:31:17Z</time>
      </trkpt>
      <trkpt lat="42.45815" lon="1.56392">
        <ele>2592.81</ele>
        <time>2022-07-15T06:31:20Z</time>
      </trkpt>
      <trkpt lat="42.45816" lon="1.56392">
        <ele>2594.25</ele>
        <time>2022-07-15T06:31:21Z</time>
      </trkpt>
      <trkpt lat="42.45816" lon="1.56392">
        <ele>2596.18</ele>
        <time>2022-07-15T06:31:29Z</time>
      </trkpt>
      <trkpt lat="42.45816" lon="1.56393">
        <ele>2593.29</ele>
        <time>2022-07-15T06:31:31Z</time>
      </trkpt>
      <trkpt lat="42.45817" lon="1.56395">
        <ele>2596.66</ele>
        <time>2022-07-15T06:31:33Z</time>
      </trkpt>
      <trkpt lat="42.45818" lon="1.56396">
        <ele>2593.29</ele>
        <time>2022-07-15T06:31:35Z</time>
      </trkpt>
      <trkpt lat="42.45819" lon="1.56398">
        <ele>2596.66</ele>
        <time>2022-07-15T06:31:37Z</time>
      </trkpt>
      <trkpt lat="42.45823" lon="1.56419">
        <ele>2597.14</ele>
        <time>2022-07-15T06:31:53Z</time>
      </trkpt>
      <trkpt lat="42.45827" lon="1.56436">
        <ele>2598.1</ele>
        <time>2022-07-15T06:32:08Z</time>
      </trkpt>
      <trkpt lat="42.4583" lon="1.56452">
        <ele>2600.02</ele>
        <time>2022-07-15T06:32:23Z</time>
      </trkpt>
      <trkpt lat="42.45831" lon="1.56459">
        <ele>2601.95</ele>
        <time>2022-07-15T06:32:32Z</time>
      </trkpt>
      <trkpt lat="42.45832" lon="1.56464">
        <ele>2602.43</ele>
        <time>2022-07-15T06:32:49Z</time>
      </trkpt>
      <trkpt lat="42.4583" lon="1.56465">
        <ele>2603.39</ele>
        <time>2022-07-15T06:33:12Z</time>
      </trkpt>
      <trkpt lat="42.45831" lon="1.56464">
        <ele>2602.43</ele>
        <time>2022-07-15T06:33:35Z</time>
      </trkpt>
      <trkpt lat="42.45835" lon="1.56475">
        <ele>2603.39</ele>
        <time>2022-07-15T06:33:51Z</time>
      </trkpt>
      <trkpt lat="42.45836" lon="1.5648">
        <ele>2604.35</ele>
        <time>2022-07-15T06:33:59Z</time>
      </trkpt>
      <trkpt lat="42.45835" lon="1.56479">
        <ele>2603.39</ele>
        <time>2022-07-15T06:34:05Z</time>
      </trkpt>
      <trkpt lat="42.45836" lon="1.56481">
        <ele>2604.83</ele>
        <time>2022-07-15T06:34:10Z</time>
      </trkpt>
      <trkpt lat="42.4584" lon="1.56494">
        <ele>2605.31</ele>
        <time>2022-07-15T06:34:23Z</time>
      </trkpt>
      <trkpt lat="42.45841" lon="1.56497">
        <ele>2604.35</ele>
        <time>2022-07-15T06:34:30Z</time>
      </trkpt>
      <trkpt lat="42.45843" lon="1.565">
        <ele>2606.75</ele>
        <time>2022-07-15T06:34:34Z</time>
      </trkpt>
      <trkpt lat="42.45845" lon="1.56513">
        <ele>2609.16</ele>
        <time>2022-07-15T06:34:49Z</time>
      </trkpt>
      <trkpt lat="42.45849" lon="1.56525">
        <ele>2610.6</ele>
        <time>2022-07-15T06:35:06Z</time>
      </trkpt>
      <trkpt lat="42.45849" lon="1.56531">
        <ele>2612.04</ele>
        <time>2022-07-15T06:35:19Z</time>
      </trkpt>
      <trkpt lat="42.4585" lon="1.56534">
        <ele>2613</ele>
        <time>2022-07-15T06:35:37Z</time>
      </trkpt>
      <trkpt lat="42.45852" lon="1.5654">
        <ele>2613.96</ele>
        <time>2022-07-15T06:35:52Z</time>
      </trkpt>
      <trkpt lat="42.45852" lon="1.56543">
        <ele>2613</ele>
        <time>2022-07-15T06:36:10Z</time>
      </trkpt>
      <trkpt lat="42.45854" lon="1.56547">
        <ele>2616.37</ele>
        <time>2022-07-15T06:36:15Z</time>
      </trkpt>
      <trkpt lat="42.45857" lon="1.56557">
        <ele>2617.81</ele>
        <time>2022-07-15T06:36:30Z</time>
      </trkpt>
      <trkpt lat="42.45859" lon="1.56562">
        <ele>2619.25</ele>
        <time>2022-07-15T06:36:38Z</time>
      </trkpt>
      <trkpt lat="42.45862" lon="1.56572">
        <ele>2621.65</ele>
        <time>2022-07-15T06:36:52Z</time>
      </trkpt>
      <trkpt lat="42.45864" lon="1.56578">
        <ele>2624.06</ele>
        <time>2022-07-15T06:37:07Z</time>
      </trkpt>
      <trkpt lat="42.45867" lon="1.56581">
        <ele>2625.02</ele>
        <time>2022-07-15T06:37:25Z</time>
      </trkpt>
      <trkpt lat="42.45871" lon="1.5659">
        <ele>2626.94</ele>
        <time>2022-07-15T06:37:38Z</time>
      </trkpt>
      <trkpt lat="42.45873" lon="1.56596">
        <ele>2629.34</ele>
        <time>2022-07-15T06:37:56Z</time>
      </trkpt>
      <trkpt lat="42.45875" lon="1.56598">
        <ele>2629.34</ele>
        <time>2022-07-15T06:38:23Z</time>
      </trkpt>
      <trkpt lat="42.45879" lon="1.56604">
        <ele>2631.27</ele>
        <time>2022-07-15T06:38:37Z</time>
      </trkpt>
      <trkpt lat="42.45877" lon="1.56613">
        <ele>2633.19</ele>
        <time>2022-07-15T06:38:52Z</time>
      </trkpt>
      <trkpt lat="42.45874" lon="1.5662">
        <ele>2635.59</ele>
        <time>2022-07-15T06:39:08Z</time>
      </trkpt>
      <trkpt lat="42.45873" lon="1.56627">
        <ele>2636.55</ele>
        <time>2022-07-15T06:39:28Z</time>
      </trkpt>
      <trkpt lat="42.4587" lon="1.56636">
        <ele>2638.48</ele>
        <time>2022-07-15T06:39:43Z</time>
      </trkpt>
      <trkpt lat="42.4587" lon="1.56644">
        <ele>2641.84</ele>
        <time>2022-07-15T06:39:58Z</time>
      </trkpt>
      <trkpt lat="42.45869" lon="1.56647">
        <ele>2643.28</ele>
        <time>2022-07-15T06:40:17Z</time>
      </trkpt>
      <trkpt lat="42.45872" lon="1.56651">
        <ele>2644.72</ele>
        <time>2022-07-15T06:40:27Z</time>
      </trkpt>
      <trkpt lat="42.4587" lon="1.56656">
        <ele>2646.65</ele>
        <time>2022-07-15T06:40:42Z</time>
      </trkpt>
      <trkpt lat="42.4587" lon="1.56657">
        <ele>2646.65</ele>
        <time>2022-07-15T06:41:01Z</time>
      </trkpt>
      <trkpt lat="42.45875" lon="1.56659">
        <ele>2648.57</ele>
        <time>2022-07-15T06:41:17Z</time>
      </trkpt>
      <trkpt lat="42.4588" lon="1.56661">
        <ele>2649.53</ele>
        <time>2022-07-15T06:41:33Z</time>
      </trkpt>
      <trkpt lat="42.45883" lon="1.56665">
        <ele>2652.9</ele>
        <time>2022-07-15T06:41:48Z</time>
      </trkpt>
      <trkpt lat="42.4588" lon="1.56671">
        <ele>2653.86</ele>
        <time>2022-07-15T06:41:59Z</time>
      </trkpt>
      <trkpt lat="42.45878" lon="1.56679">
        <ele>2656.26</ele>
        <time>2022-07-15T06:42:17Z</time>
      </trkpt>
      <trkpt lat="42.45878" lon="1.56685">
        <ele>2657.22</ele>
        <time>2022-07-15T06:42:33Z</time>
      </trkpt>
      <trkpt lat="42.45879" lon="1.56688">
        <ele>2657.7</ele>
        <time>2022-07-15T06:42:48Z</time>
      </trkpt>
      <trkpt lat="42.45878" lon="1.56691">
        <ele>2661.07</ele>
        <time>2022-07-15T06:42:57Z</time>
      </trkpt>
      <trkpt lat="42.45879" lon="1.56695">
        <ele>2662.03</ele>
        <time>2022-07-15T06:43:11Z</time>
      </trkpt>
      <trkpt lat="42.45877" lon="1.56702">
        <ele>2664.91</ele>
        <time>2022-07-15T06:43:24Z</time>
      </trkpt>
      <trkpt lat="42.45876" lon="1.56705">
        <ele>2665.39</ele>
        <time>2022-07-15T06:43:43Z</time>
      </trkpt>
      <trkpt lat="42.45875" lon="1.5671">
        <ele>2666.35</ele>
        <time>2022-07-15T06:44:01Z</time>
      </trkpt>
      <trkpt lat="42.45872" lon="1.56718">
        <ele>2667.31</ele>
        <time>2022-07-15T06:44:18Z</time>
      </trkpt>
      <trkpt lat="42.4587" lon="1.56728">
        <ele>2668.76</ele>
        <time>2022-07-15T06:44:34Z</time>
      </trkpt>
      <trkpt lat="42.45869" lon="1.56735">
        <ele>2670.68</ele>
        <time>2022-07-15T06:44:46Z</time>
      </trkpt>
      <trkpt lat="42.45868" lon="1.56736">
        <ele>2671.16</ele>
        <time>2022-07-15T06:45:10Z</time>
      </trkpt>
      <trkpt lat="42.45867" lon="1.56736">
        <ele>2671.16</ele>
        <time>2022-07-15T06:45:41Z</time>
      </trkpt>
      <trkpt lat="42.45864" lon="1.56743">
        <ele>2672.12</ele>
        <time>2022-07-15T06:45:58Z</time>
      </trkpt>
      <trkpt lat="42.45861" lon="1.56753">
        <ele>2673.56</ele>
        <time>2022-07-15T06:46:12Z</time>
      </trkpt>
      <trkpt lat="42.45858" lon="1.56759">
        <ele>2675.49</ele>
        <time>2022-07-15T06:46:26Z</time>
      </trkpt>
      <trkpt lat="42.45857" lon="1.56765">
        <ele>2678.37</ele>
        <time>2022-07-15T06:46:46Z</time>
      </trkpt>
      <trkpt lat="42.45856" lon="1.56772">
        <ele>2678.85</ele>
        <time>2022-07-15T06:47:00Z</time>
      </trkpt>
      <trkpt lat="42.45853" lon="1.56782">
        <ele>2681.25</ele>
        <time>2022-07-15T06:47:14Z</time>
      </trkpt>
      <trkpt lat="42.45851" lon="1.56785">
        <ele>2680.29</ele>
        <time>2022-07-15T06:47:22Z</time>
      </trkpt>
      <trkpt lat="42.45851" lon="1.56786">
        <ele>2681.25</ele>
        <time>2022-07-15T06:47:24Z</time>
      </trkpt>
      <trkpt lat="42.45851" lon="1.56786">
        <ele>2681.25</ele>
        <time>2022-07-15T06:47:32Z</time>
      </trkpt>
      <trkpt lat="42.45853" lon="1.5679">
        <ele>2680.77</ele>
        <time>2022-07-15T06:47:41Z</time>
      </trkpt>
      <trkpt lat="42.45857" lon="1.56788">
        <ele>2681.73</ele>
        <time>2022-07-15T06:47:49Z</time>
      </trkpt>
      <trkpt lat="42.45866" lon="1.56782">
        <ele>2682.22</ele>
        <time>2022-07-15T06:48:00Z</time>
      </trkpt>
      <trkpt lat="42.45878" lon="1.56772">
        <ele>2680.77</ele>
        <time>2022-07-15T06:48:15Z</time>
      </trkpt>
      <trkpt lat="42.45886" lon="1.56768">
        <ele>2681.25</ele>
        <time>2022-07-15T06:48:26Z</time>
      </trkpt>
      <trkpt lat="42.45887" lon="1.56767">
        <ele>2678.37</ele>
        <time>2022-07-15T06:48:28Z</time>
      </trkpt>
      <trkpt lat="42.45889" lon="1.56763">
        <ele>2680.29</ele>
        <time>2022-07-15T06:48:40Z</time>
      </trkpt>
      <trkpt lat="42.45889" lon="1.56763">
        <ele>2679.33</ele>
        <time>2022-07-15T06:48:46Z</time>
      </trkpt>
      <trkpt lat="42.45889" lon="1.56763">
        <ele>2680.77</ele>
        <time>2022-07-15T06:48:50Z</time>
      </trkpt>
      <trkpt lat="42.45888" lon="1.56765">
        <ele>2681.73</ele>
        <time>2022-07-15T06:49:20Z</time>
      </trkpt>
      <trkpt lat="42.45888" lon="1.56764">
        <ele>2679.33</ele>
        <time>2022-07-15T06:49:35Z</time>
      </trkpt>
      <trkpt lat="42.45888" lon="1.56763">
        <ele>2678.37</ele>
        <time>2022-07-15T06:49:45Z</time>
      </trkpt>
      <trkpt lat="42.45888" lon="1.56763">
        <ele>2681.73</ele>
        <time>2022-07-15T06:49:54Z</time>
      </trkpt>
      <trkpt lat="42.45888" lon="1.56763">
        <ele>2681.73</ele>
        <time>2022-07-15T06:49:55Z</time>
      </trkpt>
      <trkpt lat="42.45887" lon="1.56762">
        <ele>2678.85</ele>
        <time>2022-07-15T06:50:06Z</time>
      </trkpt>
      <trkpt lat="42.45887" lon="1.56762">
        <ele>2678.37</ele>
        <time>2022-07-15T06:50:11Z</time>
      </trkpt>
      <trkpt lat="42.45887" lon="1.56762">
        <ele>2679.81</ele>
        <time>2022-07-15T06:50:17Z</time>
      </trkpt>
      <trkpt lat="42.45886" lon="1.56764">
        <ele>2682.22</ele>
        <time>2022-07-15T06:50:25Z</time>
      </trkpt>
      <trkpt lat="42.45887" lon="1.56765">
        <ele>2681.73</ele>
        <time>2022-07-15T06:51:02Z</time>
      </trkpt>
      <trkpt lat="42.45886" lon="1.56765">
        <ele>2679.33</ele>
        <time>2022-07-15T06:51:11Z</time>
      </trkpt>
      <trkpt lat="42.45887" lon="1.56764">
        <ele>2682.22</ele>
        <time>2022-07-15T06:51:31Z</time>
      </trkpt>
      <trkpt lat="42.45888" lon="1.56763">
        <ele>2679.81</ele>
        <time>2022-07-15T06:51:40Z</time>
      </trkpt>
      <trkpt lat="42.45888" lon="1.56763">
        <ele>2676.93</ele>
        <time>2022-07-15T06:52:02Z</time>
      </trkpt>
      <trkpt lat="42.45887" lon="1.56763">
        <ele>2678.37</ele>
        <time>2022-07-15T06:52:18Z</time>
      </trkpt>
      <trkpt lat="42.45886" lon="1.56763">
        <ele>2681.25</ele>
        <time>2022-07-15T06:52:32Z</time>
      </trkpt>
      <trkpt lat="42.45886" lon="1.56763">
        <ele>2680.29</ele>
        <time>2022-07-15T06:52:34Z</time>
      </trkpt>
      <trkpt lat="42.45885" lon="1.56763">
        <ele>2679.33</ele>
        <time>2022-07-15T06:52:45Z</time>
      </trkpt>
      <trkpt lat="42.45885" lon="1.56763">
        <ele>2677.41</ele>
        <time>2022-07-15T06:52:53Z</time>
      </trkpt>
      <trkpt lat="42.45886" lon="1.56764">
        <ele>2681.73</ele>
        <time>2022-07-15T06:53:00Z</time>
      </trkpt>
      <trkpt lat="42.45885" lon="1.56765">
        <ele>2681.73</ele>
        <time>2022-07-15T06:53:01Z</time>
      </trkpt>
      <trkpt lat="42.45884" lon="1.56765">
        <ele>2682.7</ele>
        <time>2022-07-15T06:53:04Z</time>
      </trkpt>
      <trkpt lat="42.45875" lon="1.56772">
        <ele>2683.18</ele>
        <time>2022-07-15T06:53:18Z</time>
      </trkpt>
      <trkpt lat="42.45866" lon="1.56778">
        <ele>2684.14</ele>
        <time>2022-07-15T06:53:31Z</time>
      </trkpt>
      <trkpt lat="42.45855" lon="1.56786">
        <ele>2684.62</ele>
        <time>2022-07-15T06:53:46Z</time>
      </trkpt>
      <trkpt lat="42.45854" lon="1.56787">
        <ele>2684.62</ele>
        <time>2022-07-15T06:53:47Z</time>
      </trkpt>
      <trkpt lat="42.45845" lon="1.56796">
        <ele>2685.1</ele>
        <time>2022-07-15T06:54:00Z</time>
      </trkpt>
      <trkpt lat="42.45836" lon="1.568">
        <ele>2682.7</ele>
        <time>2022-07-15T06:54:09Z</time>
      </trkpt>
      <trkpt lat="42.45829" lon="1.56813">
        <ele>2682.7</ele>
        <time>2022-07-15T06:54:25Z</time>
      </trkpt>
      <trkpt lat="42.45829" lon="1.56813">
        <ele>2682.7</ele>
        <time>2022-07-15T06:54:26Z</time>
      </trkpt>
      <trkpt lat="42.45829" lon="1.56816">
        <ele>2681.73</ele>
        <time>2022-07-15T06:54:46Z</time>
      </trkpt>
      <trkpt lat="42.45828" lon="1.56818">
        <ele>2681.73</ele>
        <time>2022-07-15T06:54:48Z</time>
      </trkpt>
      <trkpt lat="42.45826" lon="1.56824">
        <ele>2684.14</ele>
        <time>2022-07-15T06:54:54Z</time>
      </trkpt>
      <trkpt lat="42.45825" lon="1.56828">
        <ele>2682.7</ele>
        <time>2022-07-15T06:54:59Z</time>
      </trkpt>
      <trkpt lat="42.45822" lon="1.56838">
        <ele>2686.06</ele>
        <time>2022-07-15T06:55:09Z</time>
      </trkpt>
      <trkpt lat="42.45822" lon="1.56839">
        <ele>2686.06</ele>
        <time>2022-07-15T06:55:10Z</time>
      </trkpt>
      <trkpt lat="42.4582" lon="1.56848">
        <ele>2686.06</ele>
        <time>2022-07-15T06:55:19Z</time>
      </trkpt>
      <trkpt lat="42.45813" lon="1.56863">
        <ele>2685.1</ele>
        <time>2022-07-15T06:55:33Z</time>
      </trkpt>
      <trkpt lat="42.45806" lon="1.56879">
        <ele>2685.1</ele>
        <time>2022-07-15T06:55:48Z</time>
      </trkpt>
      <trkpt lat="42.45803" lon="1.56885">
        <ele>2686.54</ele>
        <time>2022-07-15T06:55:54Z</time>
      </trkpt>
      <trkpt lat="42.45797" lon="1.56897">
        <ele>2687.98</ele>
        <time>2022-07-15T06:56:07Z</time>
      </trkpt>
      <trkpt lat="42.45791" lon="1.5691">
        <ele>2689.43</ele>
        <time>2022-07-15T06:56:21Z</time>
      </trkpt>
      <trkpt lat="42.45786" lon="1.56919">
        <ele>2691.35</ele>
        <time>2022-07-15T06:56:31Z</time>
      </trkpt>
      <trkpt lat="42.45779" lon="1.56926">
        <ele>2692.79</ele>
        <time>2022-07-15T06:56:45Z</time>
      </trkpt>
      <trkpt lat="42.45777" lon="1.56927">
        <ele>2693.27</ele>
        <time>2022-07-15T06:56:58Z</time>
      </trkpt>
      <trkpt lat="42.45776" lon="1.56927">
        <ele>2693.27</ele>
        <time>2022-07-15T06:57:22Z</time>
      </trkpt>
      <trkpt lat="42.45773" lon="1.56927">
        <ele>2691.83</ele>
        <time>2022-07-15T06:57:27Z</time>
      </trkpt>
      <trkpt lat="42.45769" lon="1.56931">
        <ele>2691.35</ele>
        <time>2022-07-15T06:57:33Z</time>
      </trkpt>
      <trkpt lat="42.45767" lon="1.56932">
        <ele>2691.35</ele>
        <time>2022-07-15T06:57:35Z</time>
      </trkpt>
      <trkpt lat="42.45755" lon="1.5694">
        <ele>2692.79</ele>
        <time>2022-07-15T06:57:50Z</time>
      </trkpt>
      <trkpt lat="42.45746" lon="1.56947">
        <ele>2693.27</ele>
        <time>2022-07-15T06:58:03Z</time>
      </trkpt>
      <trkpt lat="42.45739" lon="1.56958">
        <ele>2693.27</ele>
        <time>2022-07-15T06:58:18Z</time>
      </trkpt>
      <trkpt lat="42.45737" lon="1.56961">
        <ele>2693.27</ele>
        <time>2022-07-15T06:58:22Z</time>
      </trkpt>
      <trkpt lat="42.45735" lon="1.56962">
        <ele>2691.83</ele>
        <time>2022-07-15T06:58:24Z</time>
      </trkpt>
      <trkpt lat="42.45733" lon="1.56964">
        <ele>2691.83</ele>
        <time>2022-07-15T06:58:26Z</time>
      </trkpt>
      <trkpt lat="42.4572" lon="1.56976">
        <ele>2691.35</ele>
        <time>2022-07-15T06:58:42Z</time>
      </trkpt>
      <trkpt lat="42.45713" lon="1.56977">
        <ele>2689.91</ele>
        <time>2022-07-15T06:58:49Z</time>
      </trkpt>
      <trkpt lat="42.45701" lon="1.56985">
        <ele>2687.98</ele>
        <time>2022-07-15T06:59:05Z</time>
      </trkpt>
      <trkpt lat="42.45691" lon="1.56991">
        <ele>2686.06</ele>
        <time>2022-07-15T06:59:17Z</time>
      </trkpt>
      <trkpt lat="42.45679" lon="1.56999">
        <ele>2682.7</ele>
        <time>2022-07-15T06:59:32Z</time>
      </trkpt>
      <trkpt lat="42.45666" lon="1.57007">
        <ele>2681.73</ele>
        <time>2022-07-15T06:59:48Z</time>
      </trkpt>
      <trkpt lat="42.45653" lon="1.57014">
        <ele>2679.81</ele>
        <time>2022-07-15T07:00:03Z</time>
      </trkpt>
      <trkpt lat="42.45652" lon="1.57015">
        <ele>2679.81</ele>
        <time>2022-07-15T07:00:04Z</time>
      </trkpt>
      <trkpt lat="42.45639" lon="1.57025">
        <ele>2679.33</ele>
        <time>2022-07-15T07:00:17Z</time>
      </trkpt>
      <trkpt lat="42.45625" lon="1.57035">
        <ele>2678.37</ele>
        <time>2022-07-15T07:00:33Z</time>
      </trkpt>
      <trkpt lat="42.45621" lon="1.57038">
        <ele>2678.37</ele>
        <time>2022-07-15T07:00:38Z</time>
      </trkpt>
      <trkpt lat="42.45619" lon="1.5704">
        <ele>2677.89</ele>
        <time>2022-07-15T07:00:40Z</time>
      </trkpt>
      <trkpt lat="42.45609" lon="1.57047">
        <ele>2676.93</ele>
        <time>2022-07-15T07:00:52Z</time>
      </trkpt>
      <trkpt lat="42.45604" lon="1.57049">
        <ele>2675.97</ele>
        <time>2022-07-15T07:00:57Z</time>
      </trkpt>
      <trkpt lat="42.45591" lon="1.5706">
        <ele>2676.45</ele>
        <time>2022-07-15T07:01:13Z</time>
      </trkpt>
      <trkpt lat="42.45587" lon="1.57063">
        <ele>2677.41</ele>
        <time>2022-07-15T07:01:18Z</time>
      </trkpt>
      <trkpt lat="42.45575" lon="1.57071">
        <ele>2677.41</ele>
        <time>2022-07-15T07:01:32Z</time>
      </trkpt>
      <trkpt lat="42.45572" lon="1.57075">
        <ele>2677.41</ele>
        <time>2022-07-15T07:01:36Z</time>
      </trkpt>
      <trkpt lat="42.45559" lon="1.57089">
        <ele>2676.93</ele>
        <time>2022-07-15T07:01:52Z</time>
      </trkpt>
      <trkpt lat="42.45555" lon="1.57092">
        <ele>2678.37</ele>
        <time>2022-07-15T07:01:57Z</time>
      </trkpt>
      <trkpt lat="42.45552" lon="1.57093">
        <ele>2676.93</ele>
        <time>2022-07-15T07:02:01Z</time>
      </trkpt>
      <trkpt lat="42.45542" lon="1.57099">
        <ele>2675.01</ele>
        <time>2022-07-15T07:02:16Z</time>
      </trkpt>
      <trkpt lat="42.45535" lon="1.57105">
        <ele>2675.49</ele>
        <time>2022-07-15T07:02:29Z</time>
      </trkpt>
      <trkpt lat="42.45534" lon="1.57106">
        <ele>2676.93</ele>
        <time>2022-07-15T07:02:31Z</time>
      </trkpt>
      <trkpt lat="42.45532" lon="1.57107">
        <ele>2675.49</ele>
        <time>2022-07-15T07:02:33Z</time>
      </trkpt>
      <trkpt lat="42.45528" lon="1.5711">
        <ele>2673.56</ele>
        <time>2022-07-15T07:02:40Z</time>
      </trkpt>
      <trkpt lat="42.45521" lon="1.57114">
        <ele>2673.56</ele>
        <time>2022-07-15T07:02:52Z</time>
      </trkpt>
      <trkpt lat="42.45517" lon="1.57121">
        <ele>2673.08</ele>
        <time>2022-07-15T07:03:04Z</time>
      </trkpt>
      <trkpt lat="42.45509" lon="1.57127">
        <ele>2672.12</ele>
        <time>2022-07-15T07:03:18Z</time>
      </trkpt>
      <trkpt lat="42.45501" lon="1.57133">
        <ele>2671.64</ele>
        <time>2022-07-15T07:03:31Z</time>
      </trkpt>
      <trkpt lat="42.45499" lon="1.57135">
        <ele>2671.64</ele>
        <time>2022-07-15T07:03:50Z</time>
      </trkpt>
      <trkpt lat="42.45493" lon="1.5714">
        <ele>2670.68</ele>
        <time>2022-07-15T07:04:04Z</time>
      </trkpt>
      <trkpt lat="42.45479" lon="1.57146">
        <ele>2670.2</ele>
        <time>2022-07-15T07:04:19Z</time>
      </trkpt>
      <trkpt lat="42.45468" lon="1.57155">
        <ele>2669.72</ele>
        <time>2022-07-15T07:04:35Z</time>
      </trkpt>
      <trkpt lat="42.45458" lon="1.57164">
        <ele>2669.72</ele>
        <time>2022-07-15T07:04:50Z</time>
      </trkpt>
      <trkpt lat="42.45445" lon="1.57171">
        <ele>2669.24</ele>
        <time>2022-07-15T07:05:04Z</time>
      </trkpt>
      <trkpt lat="42.45441" lon="1.57171">
        <ele>2669.24</ele>
        <time>2022-07-15T07:05:09Z</time>
      </trkpt>
      <trkpt lat="42.45435" lon="1.57175">
        <ele>2668.76</ele>
        <time>2022-07-15T07:05:16Z</time>
      </trkpt>
      <trkpt lat="42.45424" lon="1.57183">
        <ele>2668.28</ele>
        <time>2022-07-15T07:05:29Z</time>
      </trkpt>
      <trkpt lat="42.45418" lon="1.57189">
        <ele>2666.83</ele>
        <time>2022-07-15T07:05:37Z</time>
      </trkpt>
      <trkpt lat="42.45411" lon="1.57194">
        <ele>2666.35</ele>
        <time>2022-07-15T07:05:46Z</time>
      </trkpt>
      <trkpt lat="42.45404" lon="1.57203">
        <ele>2667.8</ele>
        <time>2022-07-15T07:05:55Z</time>
      </trkpt>
      <trkpt lat="42.45401" lon="1.57205">
        <ele>2670.2</ele>
        <time>2022-07-15T07:05:59Z</time>
      </trkpt>
      <trkpt lat="42.45396" lon="1.57208">
        <ele>2668.28</ele>
        <time>2022-07-15T07:06:05Z</time>
      </trkpt>
      <trkpt lat="42.45393" lon="1.57211">
        <ele>2669.72</ele>
        <time>2022-07-15T07:06:10Z</time>
      </trkpt>
      <trkpt lat="42.45391" lon="1.57212">
        <ele>2669.72</ele>
        <time>2022-07-15T07:06:12Z</time>
      </trkpt>
      <trkpt lat="42.45388" lon="1.57213">
        <ele>2669.24</ele>
        <time>2022-07-15T07:06:15Z</time>
      </trkpt>
      <trkpt lat="42.45387" lon="1.57214">
        <ele>2668.28</ele>
        <time>2022-07-15T07:06:17Z</time>
      </trkpt>
      <trkpt lat="42.45372" lon="1.5722">
        <ele>2667.31</ele>
        <time>2022-07-15T07:06:34Z</time>
      </trkpt>
      <trkpt lat="42.45371" lon="1.5722">
        <ele>2666.83</ele>
        <time>2022-07-15T07:06:35Z</time>
      </trkpt>
      <trkpt lat="42.45362" lon="1.57234">
        <ele>2666.83</ele>
        <time>2022-07-15T07:06:50Z</time>
      </trkpt>
      <trkpt lat="42.45352" lon="1.57249">
        <ele>2668.76</ele>
        <time>2022-07-15T07:07:06Z</time>
      </trkpt>
      <trkpt lat="42.45351" lon="1.5725">
        <ele>2668.76</ele>
        <time>2022-07-15T07:07:08Z</time>
      </trkpt>
      <trkpt lat="42.45339" lon="1.57264">
        <ele>2668.76</ele>
        <time>2022-07-15T07:07:23Z</time>
      </trkpt>
      <trkpt lat="42.4533" lon="1.57279">
        <ele>2668.76</ele>
        <time>2022-07-15T07:07:38Z</time>
      </trkpt>
      <trkpt lat="42.45321" lon="1.57293">
        <ele>2669.24</ele>
        <time>2022-07-15T07:07:53Z</time>
      </trkpt>
      <trkpt lat="42.45312" lon="1.57304">
        <ele>2670.68</ele>
        <time>2022-07-15T07:08:07Z</time>
      </trkpt>
      <trkpt lat="42.4531" lon="1.57305">
        <ele>2671.64</ele>
        <time>2022-07-15T07:08:10Z</time>
      </trkpt>
      <trkpt lat="42.45302" lon="1.57311">
        <ele>2673.08</ele>
        <time>2022-07-15T07:08:24Z</time>
      </trkpt>
      <trkpt lat="42.45293" lon="1.57318">
        <ele>2674.52</ele>
        <time>2022-07-15T07:08:38Z</time>
      </trkpt>
      <trkpt lat="42.45285" lon="1.57328">
        <ele>2675.97</ele>
        <time>2022-07-15T07:08:53Z</time>
      </trkpt>
      <trkpt lat="42.45279" lon="1.57339">
        <ele>2676.45</ele>
        <time>2022-07-15T07:09:08Z</time>
      </trkpt>
      <trkpt lat="42.45278" lon="1.57343">
        <ele>2675.01</ele>
        <time>2022-07-15T07:09:28Z</time>
      </trkpt>
      <trkpt lat="42.45278" lon="1.57347">
        <ele>2675.01</ele>
        <time>2022-07-15T07:09:48Z</time>
      </trkpt>
      <trkpt lat="42.45277" lon="1.57347">
        <ele>2675.01</ele>
        <time>2022-07-15T07:09:58Z</time>
      </trkpt>
      <trkpt lat="42.45275" lon="1.57347">
        <ele>2676.93</ele>
        <time>2022-07-15T07:10:00Z</time>
      </trkpt>
      <trkpt lat="42.45275" lon="1.57348">
        <ele>2676.93</ele>
        <time>2022-07-15T07:10:01Z</time>
      </trkpt>
      <trkpt lat="42.45267" lon="1.57354">
        <ele>2677.41</ele>
        <time>2022-07-15T07:10:17Z</time>
      </trkpt>
      <trkpt lat="42.45256" lon="1.57363">
        <ele>2677.89</ele>
        <time>2022-07-15T07:10:32Z</time>
      </trkpt>
      <trkpt lat="42.45247" lon="1.57367">
        <ele>2678.37</ele>
        <time>2022-07-15T07:10:42Z</time>
      </trkpt>
      <trkpt lat="42.45238" lon="1.57381">
        <ele>2680.29</ele>
        <time>2022-07-15T07:10:59Z</time>
      </trkpt>
      <trkpt lat="42.45239" lon="1.57385">
        <ele>2681.73</ele>
        <time>2022-07-15T07:11:06Z</time>
      </trkpt>
      <trkpt lat="42.45235" lon="1.57398">
        <ele>2682.7</ele>
        <time>2022-07-15T07:11:22Z</time>
      </trkpt>
      <trkpt lat="42.45231" lon="1.57403">
        <ele>2682.7</ele>
        <time>2022-07-15T07:11:28Z</time>
      </trkpt>
      <trkpt lat="42.45223" lon="1.57417">
        <ele>2683.66</ele>
        <time>2022-07-15T07:11:43Z</time>
      </trkpt>
      <trkpt lat="42.45218" lon="1.57424">
        <ele>2684.62</ele>
        <time>2022-07-15T07:11:57Z</time>
      </trkpt>
      <trkpt lat="42.45219" lon="1.57423">
        <ele>2684.62</ele>
        <time>2022-07-15T07:12:12Z</time>
      </trkpt>
      <trkpt lat="42.45217" lon="1.57423">
        <ele>2684.62</ele>
        <time>2022-07-15T07:12:29Z</time>
      </trkpt>
      <trkpt lat="42.45217" lon="1.57423">
        <ele>2683.66</ele>
        <time>2022-07-15T07:12:45Z</time>
      </trkpt>
      <trkpt lat="42.45216" lon="1.57424">
        <ele>2683.66</ele>
        <time>2022-07-15T07:13:04Z</time>
      </trkpt>
      <trkpt lat="42.45217" lon="1.57424">
        <ele>2683.66</ele>
        <time>2022-07-15T07:13:23Z</time>
      </trkpt>
      <trkpt lat="42.45218" lon="1.57425">
        <ele>2683.66</ele>
        <time>2022-07-15T07:13:36Z</time>
      </trkpt>
      <trkpt lat="42.45218" lon="1.57424">
        <ele>2684.14</ele>
        <time>2022-07-15T07:14:02Z</time>
      </trkpt>
      <trkpt lat="42.45217" lon="1.57423">
        <ele>2684.14</ele>
        <time>2022-07-15T07:14:23Z</time>
      </trkpt>
      <trkpt lat="42.45217" lon="1.57424">
        <ele>2685.1</ele>
        <time>2022-07-15T07:14:44Z</time>
      </trkpt>
      <trkpt lat="42.45216" lon="1.57424">
        <ele>2686.06</ele>
        <time>2022-07-15T07:15:11Z</time>
      </trkpt>
      <trkpt lat="42.45216" lon="1.57423">
        <ele>2684.62</ele>
        <time>2022-07-15T07:15:23Z</time>
      </trkpt>
      <trkpt lat="42.45216" lon="1.57424">
        <ele>2684.62</ele>
        <time>2022-07-15T07:15:37Z</time>
      </trkpt>
      <trkpt lat="42.45216" lon="1.57421">
        <ele>2685.1</ele>
        <time>2022-07-15T07:15:58Z</time>
      </trkpt>
      <trkpt lat="42.45217" lon="1.57419">
        <ele>2685.1</ele>
        <time>2022-07-15T07:16:31Z</time>
      </trkpt>
      <trkpt lat="42.45217" lon="1.57422">
        <ele>2685.1</ele>
        <time>2022-07-15T07:16:44Z</time>
      </trkpt>
      <trkpt lat="42.45217" lon="1.5742">
        <ele>2686.06</ele>
        <time>2022-07-15T07:17:07Z</time>
      </trkpt>
      <trkpt lat="42.45218" lon="1.57422">
        <ele>2686.06</ele>
        <time>2022-07-15T07:17:29Z</time>
      </trkpt>
      <trkpt lat="42.45217" lon="1.57421">
        <ele>2686.54</ele>
        <time>2022-07-15T07:17:44Z</time>
      </trkpt>
      <trkpt lat="42.45217" lon="1.57423">
        <ele>2686.54</ele>
        <time>2022-07-15T07:18:00Z</time>
      </trkpt>
      <trkpt lat="42.45216" lon="1.57423">
        <ele>2686.54</ele>
        <time>2022-07-15T07:18:25Z</time>
      </trkpt>
      <trkpt lat="42.45216" lon="1.57424">
        <ele>2685.1</ele>
        <time>2022-07-15T07:18:41Z</time>
      </trkpt>
      <trkpt lat="42.45216" lon="1.57425">
        <ele>2685.1</ele>
        <time>2022-07-15T07:18:58Z</time>
      </trkpt>
      <trkpt lat="42.45216" lon="1.57426">
        <ele>2685.1</ele>
        <time>2022-07-15T07:19:19Z</time>
      </trkpt>
      <trkpt lat="42.45213" lon="1.57431">
        <ele>2685.1</ele>
        <time>2022-07-15T07:19:28Z</time>
      </trkpt>
      <trkpt lat="42.45201" lon="1.57439">
        <ele>2686.54</ele>
        <time>2022-07-15T07:19:44Z</time>
      </trkpt>
      <trkpt lat="42.45199" lon="1.57442">
        <ele>2686.54</ele>
        <time>2022-07-15T07:19:48Z</time>
      </trkpt>
      <trkpt lat="42.45196" lon="1.57445">
        <ele>2686.54</ele>
        <time>2022-07-15T07:19:51Z</time>
      </trkpt>
      <trkpt lat="42.45191" lon="1.5745">
        <ele>2686.54</ele>
        <time>2022-07-15T07:19:58Z</time>
      </trkpt>
      <trkpt lat="42.4518" lon="1.57462">
        <ele>2685.1</ele>
        <time>2022-07-15T07:20:15Z</time>
      </trkpt>
      <trkpt lat="42.45179" lon="1.57465">
        <ele>2684.62</ele>
        <time>2022-07-15T07:20:18Z</time>
      </trkpt>
      <trkpt lat="42.45169" lon="1.57485">
        <ele>2684.14</ele>
        <time>2022-07-15T07:20:37Z</time>
      </trkpt>
      <trkpt lat="42.45165" lon="1.57495">
        <ele>2684.14</ele>
        <time>2022-07-15T07:20:50Z</time>
      </trkpt>
      <trkpt lat="42.45163" lon="1.57501">
        <ele>2684.14</ele>
        <time>2022-07-15T07:21:05Z</time>
      </trkpt>
      <trkpt lat="42.45158" lon="1.57505">
        <ele>2683.18</ele>
        <time>2022-07-15T07:21:34Z</time>
      </trkpt>
      <trkpt lat="42.45159" lon="1.5752">
        <ele>2682.22</ele>
        <time>2022-07-15T07:21:50Z</time>
      </trkpt>
      <trkpt lat="42.45158" lon="1.57525">
        <ele>2682.22</ele>
        <time>2022-07-15T07:21:54Z</time>
      </trkpt>
      <trkpt lat="42.45153" lon="1.57545">
        <ele>2680.29</ele>
        <time>2022-07-15T07:22:10Z</time>
      </trkpt>
      <trkpt lat="42.45149" lon="1.57555">
        <ele>2680.29</ele>
        <time>2022-07-15T07:22:20Z</time>
      </trkpt>
      <trkpt lat="42.45146" lon="1.57561">
        <ele>2680.29</ele>
        <time>2022-07-15T07:22:26Z</time>
      </trkpt>
      <trkpt lat="42.45139" lon="1.57573">
        <ele>2680.29</ele>
        <time>2022-07-15T07:22:42Z</time>
      </trkpt>
      <trkpt lat="42.45135" lon="1.57583">
        <ele>2680.29</ele>
        <time>2022-07-15T07:22:51Z</time>
      </trkpt>
      <trkpt lat="42.45129" lon="1.57603">
        <ele>2679.33</ele>
        <time>2022-07-15T07:23:07Z</time>
      </trkpt>
      <trkpt lat="42.45121" lon="1.57623">
        <ele>2677.41</ele>
        <time>2022-07-15T07:23:24Z</time>
      </trkpt>
      <trkpt lat="42.45119" lon="1.57624">
        <ele>2677.41</ele>
        <time>2022-07-15T07:23:37Z</time>
      </trkpt>
      <trkpt lat="42.4512" lon="1.57624">
        <ele>2677.41</ele>
        <time>2022-07-15T07:24:02Z</time>
      </trkpt>
      <trkpt lat="42.45111" lon="1.57632">
        <ele>2678.85</ele>
        <time>2022-07-15T07:24:18Z</time>
      </trkpt>
      <trkpt lat="42.45102" lon="1.57644">
        <ele>2680.77</ele>
        <time>2022-07-15T07:24:32Z</time>
      </trkpt>
      <trkpt lat="42.45093" lon="1.57656">
        <ele>2681.25</ele>
        <time>2022-07-15T07:24:45Z</time>
      </trkpt>
      <trkpt lat="42.45088" lon="1.57661">
        <ele>2678.85</ele>
        <time>2022-07-15T07:24:58Z</time>
      </trkpt>
      <trkpt lat="42.45087" lon="1.57663">
        <ele>2680.29</ele>
        <time>2022-07-15T07:25:05Z</time>
      </trkpt>
      <trkpt lat="42.45083" lon="1.57665">
        <ele>2681.25</ele>
        <time>2022-07-15T07:25:10Z</time>
      </trkpt>
      <trkpt lat="42.45081" lon="1.57666">
        <ele>2680.77</ele>
        <time>2022-07-15T07:25:12Z</time>
      </trkpt>
      <trkpt lat="42.4508" lon="1.57667">
        <ele>2680.77</ele>
        <time>2022-07-15T07:25:14Z</time>
      </trkpt>
      <trkpt lat="42.45068" lon="1.57676">
        <ele>2680.77</ele>
        <time>2022-07-15T07:25:28Z</time>
      </trkpt>
      <trkpt lat="42.45057" lon="1.57688">
        <ele>2682.22</ele>
        <time>2022-07-15T07:25:44Z</time>
      </trkpt>
      <trkpt lat="42.4505" lon="1.57699">
        <ele>2684.14</ele>
        <time>2022-07-15T07:25:59Z</time>
      </trkpt>
      <trkpt lat="42.45043" lon="1.57702">
        <ele>2685.58</ele>
        <time>2022-07-15T07:26:14Z</time>
      </trkpt>
      <trkpt lat="42.45032" lon="1.57707">
        <ele>2688.46</ele>
        <time>2022-07-15T07:26:29Z</time>
      </trkpt>
      <trkpt lat="42.45024" lon="1.57712">
        <ele>2689.43</ele>
        <time>2022-07-15T07:26:44Z</time>
      </trkpt>
      <trkpt lat="42.4502" lon="1.57714">
        <ele>2690.39</ele>
        <time>2022-07-15T07:26:58Z</time>
      </trkpt>
      <trkpt lat="42.45015" lon="1.57721">
        <ele>2690.39</ele>
        <time>2022-07-15T07:27:13Z</time>
      </trkpt>
      <trkpt lat="42.45009" lon="1.57733">
        <ele>2693.27</ele>
        <time>2022-07-15T07:27:27Z</time>
      </trkpt>
      <trkpt lat="42.45006" lon="1.57743">
        <ele>2697.12</ele>
        <time>2022-07-15T07:27:41Z</time>
      </trkpt>
      <trkpt lat="42.45002" lon="1.57752">
        <ele>2697.6</ele>
        <time>2022-07-15T07:27:54Z</time>
      </trkpt>
      <trkpt lat="42.44996" lon="1.57762">
        <ele>2698.56</ele>
        <time>2022-07-15T07:28:06Z</time>
      </trkpt>
      <trkpt lat="42.4499" lon="1.57775">
        <ele>2699.52</ele>
        <time>2022-07-15T07:28:20Z</time>
      </trkpt>
      <trkpt lat="42.44986" lon="1.57791">
        <ele>2701.44</ele>
        <time>2022-07-15T07:28:35Z</time>
      </trkpt>
      <trkpt lat="42.44983" lon="1.578">
        <ele>2702.4</ele>
        <time>2022-07-15T07:28:51Z</time>
      </trkpt>
      <trkpt lat="42.4498" lon="1.57815">
        <ele>2704.81</ele>
        <time>2022-07-15T07:29:06Z</time>
      </trkpt>
      <trkpt lat="42.44977" lon="1.5783">
        <ele>2705.77</ele>
        <time>2022-07-15T07:29:19Z</time>
      </trkpt>
      <trkpt lat="42.44976" lon="1.57845">
        <ele>2707.21</ele>
        <time>2022-07-15T07:29:33Z</time>
      </trkpt>
      <trkpt lat="42.44971" lon="1.57859">
        <ele>2708.65</ele>
        <time>2022-07-15T07:29:48Z</time>
      </trkpt>
      <trkpt lat="42.44969" lon="1.57868">
        <ele>2710.57</ele>
        <time>2022-07-15T07:30:04Z</time>
      </trkpt>
      <trkpt lat="42.44967" lon="1.57879">
        <ele>2712.5</ele>
        <time>2022-07-15T07:30:17Z</time>
      </trkpt>
      <trkpt lat="42.44965" lon="1.5789">
        <ele>2713.94</ele>
        <time>2022-07-15T07:30:29Z</time>
      </trkpt>
      <trkpt lat="42.44964" lon="1.57895">
        <ele>2714.9</ele>
        <time>2022-07-15T07:30:50Z</time>
      </trkpt>
      <trkpt lat="42.44962" lon="1.57904">
        <ele>2715.86</ele>
        <time>2022-07-15T07:31:03Z</time>
      </trkpt>
      <trkpt lat="42.44959" lon="1.57917">
        <ele>2718.27</ele>
        <time>2022-07-15T07:31:17Z</time>
      </trkpt>
      <trkpt lat="42.44959" lon="1.57925">
        <ele>2719.71</ele>
        <time>2022-07-15T07:31:30Z</time>
      </trkpt>
      <trkpt lat="42.44956" lon="1.57933">
        <ele>2720.67</ele>
        <time>2022-07-15T07:31:43Z</time>
      </trkpt>
      <trkpt lat="42.44955" lon="1.57944">
        <ele>2723.07</ele>
        <time>2022-07-15T07:31:59Z</time>
      </trkpt>
      <trkpt lat="42.44955" lon="1.57953">
        <ele>2724.51</ele>
        <time>2022-07-15T07:32:16Z</time>
      </trkpt>
      <trkpt lat="42.44956" lon="1.57962">
        <ele>2725.48</ele>
        <time>2022-07-15T07:32:30Z</time>
      </trkpt>
      <trkpt lat="42.44957" lon="1.57966">
        <ele>2726.44</ele>
        <time>2022-07-15T07:32:44Z</time>
      </trkpt>
      <trkpt lat="42.44957" lon="1.57967">
        <ele>2726.44</ele>
        <time>2022-07-15T07:32:45Z</time>
      </trkpt>
      <trkpt lat="42.44956" lon="1.57971">
        <ele>2728.36</ele>
        <time>2022-07-15T07:32:53Z</time>
      </trkpt>
      <trkpt lat="42.44955" lon="1.5798">
        <ele>2729.32</ele>
        <time>2022-07-15T07:33:07Z</time>
      </trkpt>
      <trkpt lat="42.44952" lon="1.57992">
        <ele>2731.24</ele>
        <time>2022-07-15T07:33:21Z</time>
      </trkpt>
      <trkpt lat="42.4495" lon="1.58005">
        <ele>2733.65</ele>
        <time>2022-07-15T07:33:36Z</time>
      </trkpt>
      <trkpt lat="42.4495" lon="1.58012">
        <ele>2735.09</ele>
        <time>2022-07-15T07:33:52Z</time>
      </trkpt>
      <trkpt lat="42.44949" lon="1.58013">
        <ele>2735.09</ele>
        <time>2022-07-15T07:34:10Z</time>
      </trkpt>
      <trkpt lat="42.4495" lon="1.58014">
        <ele>2735.57</ele>
        <time>2022-07-15T07:34:52Z</time>
      </trkpt>
      <trkpt lat="42.4495" lon="1.58017">
        <ele>2736.05</ele>
        <time>2022-07-15T07:35:21Z</time>
      </trkpt>
      <trkpt lat="42.44951" lon="1.58015">
        <ele>2736.53</ele>
        <time>2022-07-15T07:35:34Z</time>
      </trkpt>
      <trkpt lat="42.44953" lon="1.58024">
        <ele>2737.49</ele>
        <time>2022-07-15T07:35:50Z</time>
      </trkpt>
      <trkpt lat="42.44955" lon="1.58033">
        <ele>2739.41</ele>
        <time>2022-07-15T07:36:04Z</time>
      </trkpt>
      <trkpt lat="42.44957" lon="1.58037">
        <ele>2739.89</ele>
        <time>2022-07-15T07:36:18Z</time>
      </trkpt>
      <trkpt lat="42.44957" lon="1.58041">
        <ele>2740.38</ele>
        <time>2022-07-15T07:36:36Z</time>
      </trkpt>
      <trkpt lat="42.44958" lon="1.58048">
        <ele>2742.3</ele>
        <time>2022-07-15T07:36:56Z</time>
      </trkpt>
      <trkpt lat="42.4496" lon="1.58054">
        <ele>2744.22</ele>
        <time>2022-07-15T07:37:07Z</time>
      </trkpt>
      <trkpt lat="42.44964" lon="1.58058">
        <ele>2744.22</ele>
        <time>2022-07-15T07:37:24Z</time>
      </trkpt>
      <trkpt lat="42.44972" lon="1.58058">
        <ele>2746.14</ele>
        <time>2022-07-15T07:37:37Z</time>
      </trkpt>
      <trkpt lat="42.44974" lon="1.58057">
        <ele>2746.62</ele>
        <time>2022-07-15T07:37:58Z</time>
      </trkpt>
      <trkpt lat="42.44973" lon="1.5806">
        <ele>2747.59</ele>
        <time>2022-07-15T07:38:31Z</time>
      </trkpt>
      <trkpt lat="42.44974" lon="1.58062">
        <ele>2747.59</ele>
        <time>2022-07-15T07:38:45Z</time>
      </trkpt>
      <trkpt lat="42.44975" lon="1.58068">
        <ele>2748.55</ele>
        <time>2022-07-15T07:39:11Z</time>
      </trkpt>
      <trkpt lat="42.44973" lon="1.5808">
        <ele>2749.99</ele>
        <time>2022-07-15T07:39:24Z</time>
      </trkpt>
      <trkpt lat="42.44972" lon="1.58091">
        <ele>2751.43</ele>
        <time>2022-07-15T07:39:38Z</time>
      </trkpt>
      <trkpt lat="42.44976" lon="1.58102">
        <ele>2752.39</ele>
        <time>2022-07-15T07:39:53Z</time>
      </trkpt>
      <trkpt lat="42.44983" lon="1.58111">
        <ele>2753.83</ele>
        <time>2022-07-15T07:40:06Z</time>
      </trkpt>
      <trkpt lat="42.44986" lon="1.58113">
        <ele>2755.28</ele>
        <time>2022-07-15T07:40:14Z</time>
      </trkpt>
      <trkpt lat="42.44989" lon="1.58117">
        <ele>2755.76</ele>
        <time>2022-07-15T07:40:34Z</time>
      </trkpt>
      <trkpt lat="42.44989" lon="1.58118">
        <ele>2754.31</ele>
        <time>2022-07-15T07:40:38Z</time>
      </trkpt>
      <trkpt lat="42.4499" lon="1.58125">
        <ele>2755.28</ele>
        <time>2022-07-15T07:40:50Z</time>
      </trkpt>
      <trkpt lat="42.44991" lon="1.58124">
        <ele>2756.72</ele>
        <time>2022-07-15T07:40:53Z</time>
      </trkpt>
      <trkpt lat="42.44995" lon="1.58125">
        <ele>2757.2</ele>
        <time>2022-07-15T07:41:09Z</time>
      </trkpt>
      <trkpt lat="42.44997" lon="1.58119">
        <ele>2757.2</ele>
        <time>2022-07-15T07:41:21Z</time>
      </trkpt>
      <trkpt lat="42.44998" lon="1.58132">
        <ele>2754.31</ele>
        <time>2022-07-15T07:41:35Z</time>
      </trkpt>
      <trkpt lat="42.44997" lon="1.58137">
        <ele>2755.76</ele>
        <time>2022-07-15T07:41:45Z</time>
      </trkpt>
      <trkpt lat="42.44997" lon="1.58138">
        <ele>2755.76</ele>
        <time>2022-07-15T07:42:05Z</time>
      </trkpt>
      <trkpt lat="42.44999" lon="1.58135">
        <ele>2756.24</ele>
        <time>2022-07-15T07:42:24Z</time>
      </trkpt>
      <trkpt lat="42.44999" lon="1.58137">
        <ele>2755.76</ele>
        <time>2022-07-15T07:42:35Z</time>
      </trkpt>
      <trkpt lat="42.44995" lon="1.5814">
        <ele>2756.24</ele>
        <time>2022-07-15T07:42:52Z</time>
      </trkpt>
      <trkpt lat="42.44991" lon="1.58139">
        <ele>2754.31</ele>
        <time>2022-07-15T07:43:06Z</time>
      </trkpt>
      <trkpt lat="42.44991" lon="1.5814">
        <ele>2755.76</ele>
        <time>2022-07-15T07:43:10Z</time>
      </trkpt>
      <trkpt lat="42.44993" lon="1.58141">
        <ele>2754.31</ele>
        <time>2022-07-15T07:43:17Z</time>
      </trkpt>
      <trkpt lat="42.44994" lon="1.58141">
        <ele>2755.76</ele>
        <time>2022-07-15T07:43:19Z</time>
      </trkpt>
      <trkpt lat="42.45003" lon="1.5814">
        <ele>2754.8</ele>
        <time>2022-07-15T07:43:33Z</time>
      </trkpt>
      <trkpt lat="42.4501" lon="1.58134">
        <ele>2756.24</ele>
        <time>2022-07-15T07:43:45Z</time>
      </trkpt>
      <trkpt lat="42.4502" lon="1.58128">
        <ele>2756.72</ele>
        <time>2022-07-15T07:43:59Z</time>
      </trkpt>
      <trkpt lat="42.45024" lon="1.58127">
        <ele>2754.8</ele>
        <time>2022-07-15T07:44:13Z</time>
      </trkpt>
      <trkpt lat="42.45024" lon="1.58127">
        <ele>2754.8</ele>
        <time>2022-07-15T07:44:36Z</time>
      </trkpt>
      <trkpt lat="42.45028" lon="1.58124">
        <ele>2755.76</ele>
        <time>2022-07-15T07:44:48Z</time>
      </trkpt>
      <trkpt lat="42.45033" lon="1.58122">
        <ele>2754.31</ele>
        <time>2022-07-15T07:44:55Z</time>
      </trkpt>
      <trkpt lat="42.45041" lon="1.58121">
        <ele>2751.91</ele>
        <time>2022-07-15T07:45:07Z</time>
      </trkpt>
      <trkpt lat="42.45042" lon="1.58121">
        <ele>2751.91</ele>
        <time>2022-07-15T07:45:09Z</time>
      </trkpt>
      <trkpt lat="42.45046" lon="1.5812">
        <ele>2750.95</ele>
        <time>2022-07-15T07:45:13Z</time>
      </trkpt>
      <trkpt lat="42.45059" lon="1.5812">
        <ele>2749.99</ele>
        <time>2022-07-15T07:45:28Z</time>
      </trkpt>
      <trkpt lat="42.45062" lon="1.58118">
        <ele>2749.99</ele>
        <time>2022-07-15T07:45:31Z</time>
      </trkpt>
      <trkpt lat="42.45072" lon="1.58122">
        <ele>2749.51</ele>
        <time>2022-07-15T07:45:45Z</time>
      </trkpt>
      <trkpt lat="42.45075" lon="1.58119">
        <ele>2750.47</ele>
        <time>2022-07-15T07:45:57Z</time>
      </trkpt>
      <trkpt lat="42.45075" lon="1.58119">
        <ele>2749.03</ele>
        <time>2022-07-15T07:46:05Z</time>
      </trkpt>
      <trkpt lat="42.45076" lon="1.58122">
        <ele>2750.47</ele>
        <time>2022-07-15T07:46:09Z</time>
      </trkpt>
      <trkpt lat="42.45075" lon="1.58121">
        <ele>2750.47</ele>
        <time>2022-07-15T07:46:33Z</time>
      </trkpt>
      <trkpt lat="42.45072" lon="1.58122">
        <ele>2751.43</ele>
        <time>2022-07-15T07:46:58Z</time>
      </trkpt>
      <trkpt lat="42.45072" lon="1.58122">
        <ele>2749.51</ele>
        <time>2022-07-15T07:47:00Z</time>
      </trkpt>
      <trkpt lat="42.45072" lon="1.58123">
        <ele>2750.95</ele>
        <time>2022-07-15T07:47:03Z</time>
      </trkpt>
      <trkpt lat="42.45066" lon="1.58125">
        <ele>2749.51</ele>
        <time>2022-07-15T07:47:15Z</time>
      </trkpt>
      <trkpt lat="42.4506" lon="1.5813">
        <ele>2748.07</ele>
        <time>2022-07-15T07:47:27Z</time>
      </trkpt>
      <trkpt lat="42.45058" lon="1.58131">
        <ele>2746.14</ele>
        <time>2022-07-15T07:47:41Z</time>
      </trkpt>
      <trkpt lat="42.45061" lon="1.58132">
        <ele>2744.7</ele>
        <time>2022-07-15T07:47:52Z</time>
      </trkpt>
      <trkpt lat="42.45061" lon="1.58137">
        <ele>2742.78</ele>
        <time>2022-07-15T07:48:04Z</time>
      </trkpt>
      <trkpt lat="42.45057" lon="1.58142">
        <ele>2741.82</ele>
        <time>2022-07-15T07:48:17Z</time>
      </trkpt>
      <trkpt lat="42.45052" lon="1.58146">
        <ele>2740.86</ele>
        <time>2022-07-15T07:48:30Z</time>
      </trkpt>
      <trkpt lat="42.45051" lon="1.5815">
        <ele>2738.45</ele>
        <time>2022-07-15T07:48:36Z</time>
      </trkpt>
      <trkpt lat="42.4505" lon="1.58151">
        <ele>2738.45</ele>
        <time>2022-07-15T07:48:56Z</time>
      </trkpt>
      <trkpt lat="42.4505" lon="1.58151">
        <ele>2739.41</ele>
        <time>2022-07-15T07:49:10Z</time>
      </trkpt>
      <trkpt lat="42.45051" lon="1.58152">
        <ele>2738.45</ele>
        <time>2022-07-15T07:49:37Z</time>
      </trkpt>
      <trkpt lat="42.4505" lon="1.58154">
        <ele>2738.45</ele>
        <time>2022-07-15T07:50:07Z</time>
      </trkpt>
      <trkpt lat="42.45053" lon="1.58155">
        <ele>2738.45</ele>
        <time>2022-07-15T07:50:31Z</time>
      </trkpt>
      <trkpt lat="42.45054" lon="1.58157">
        <ele>2736.53</ele>
        <time>2022-07-15T07:50:46Z</time>
      </trkpt>
      <trkpt lat="42.45058" lon="1.58157">
        <ele>2735.09</ele>
        <time>2022-07-15T07:51:00Z</time>
      </trkpt>
      <trkpt lat="42.45058" lon="1.5816">
        <ele>2733.65</ele>
        <time>2022-07-15T07:51:13Z</time>
      </trkpt>
      <trkpt lat="42.45056" lon="1.58162">
        <ele>2733.17</ele>
        <time>2022-07-15T07:51:29Z</time>
      </trkpt>
      <trkpt lat="42.45059" lon="1.58164">
        <ele>2732.68</ele>
        <time>2022-07-15T07:51:43Z</time>
      </trkpt>
      <trkpt lat="42.45062" lon="1.58169">
        <ele>2730.28</ele>
        <time>2022-07-15T07:51:56Z</time>
      </trkpt>
      <trkpt lat="42.4506" lon="1.58173">
        <ele>2727.4</ele>
        <time>2022-07-15T07:52:10Z</time>
      </trkpt>
      <trkpt lat="42.4506" lon="1.58179">
        <ele>2726.44</ele>
        <time>2022-07-15T07:52:33Z</time>
      </trkpt>
      <trkpt lat="42.4506" lon="1.58179">
        <ele>2725.48</ele>
        <time>2022-07-15T07:52:51Z</time>
      </trkpt>
      <trkpt lat="42.45063" lon="1.5818">
        <ele>2724.03</ele>
        <time>2022-07-15T07:53:08Z</time>
      </trkpt>
      <trkpt lat="42.45063" lon="1.58182">
        <ele>2722.59</ele>
        <time>2022-07-15T07:53:27Z</time>
      </trkpt>
      <trkpt lat="42.45065" lon="1.58184">
        <ele>2721.15</ele>
        <time>2022-07-15T07:53:48Z</time>
      </trkpt>
      <trkpt lat="42.45068" lon="1.58183">
        <ele>2719.71</ele>
        <time>2022-07-15T07:54:03Z</time>
      </trkpt>
      <trkpt lat="42.45073" lon="1.58178">
        <ele>2719.23</ele>
        <time>2022-07-15T07:54:17Z</time>
      </trkpt>
      <trkpt lat="42.45075" lon="1.58175">
        <ele>2718.75</ele>
        <time>2022-07-15T07:54:32Z</time>
      </trkpt>
      <trkpt lat="42.45079" lon="1.58169">
        <ele>2720.67</ele>
        <time>2022-07-15T07:54:48Z</time>
      </trkpt>
      <trkpt lat="42.45082" lon="1.58167">
        <ele>2721.15</ele>
        <time>2022-07-15T07:55:01Z</time>
      </trkpt>
      <trkpt lat="42.45087" lon="1.58164">
        <ele>2721.15</ele>
        <time>2022-07-15T07:55:13Z</time>
      </trkpt>
      <trkpt lat="42.4509" lon="1.58163">
        <ele>2721.15</ele>
        <time>2022-07-15T07:55:28Z</time>
      </trkpt>
      <trkpt lat="42.45092" lon="1.58161">
        <ele>2721.15</ele>
        <time>2022-07-15T07:55:45Z</time>
      </trkpt>
      <trkpt lat="42.45096" lon="1.58161">
        <ele>2719.71</ele>
        <time>2022-07-15T07:55:57Z</time>
      </trkpt>
      <trkpt lat="42.45098" lon="1.58161">
        <ele>2719.23</ele>
        <time>2022-07-15T07:56:23Z</time>
      </trkpt>
      <trkpt lat="42.45102" lon="1.5816">
        <ele>2719.71</ele>
        <time>2022-07-15T07:56:43Z</time>
      </trkpt>
      <trkpt lat="42.45109" lon="1.58161">
        <ele>2717.78</ele>
        <time>2022-07-15T07:56:59Z</time>
      </trkpt>
      <trkpt lat="42.45112" lon="1.58165">
        <ele>2715.38</ele>
        <time>2022-07-15T07:57:12Z</time>
      </trkpt>
      <trkpt lat="42.4512" lon="1.58171">
        <ele>2712.98</ele>
        <time>2022-07-15T07:57:25Z</time>
      </trkpt>
      <trkpt lat="42.45125" lon="1.58174">
        <ele>2711.54</ele>
        <time>2022-07-15T07:57:40Z</time>
      </trkpt>
      <trkpt lat="42.45125" lon="1.58173">
        <ele>2711.54</ele>
        <time>2022-07-15T07:57:58Z</time>
      </trkpt>
      <trkpt lat="42.45127" lon="1.58173">
        <ele>2711.54</ele>
        <time>2022-07-15T07:58:26Z</time>
      </trkpt>
      <trkpt lat="42.45128" lon="1.58173">
        <ele>2711.54</ele>
        <time>2022-07-15T07:58:50Z</time>
      </trkpt>
      <trkpt lat="42.4513" lon="1.58174">
        <ele>2711.54</ele>
        <time>2022-07-15T07:59:22Z</time>
      </trkpt>
      <trkpt lat="42.45133" lon="1.58171">
        <ele>2710.57</ele>
        <time>2022-07-15T07:59:51Z</time>
      </trkpt>
      <trkpt lat="42.45134" lon="1.58173">
        <ele>2709.61</ele>
        <time>2022-07-15T08:00:03Z</time>
      </trkpt>
      <trkpt lat="42.45137" lon="1.58173">
        <ele>2708.17</ele>
        <time>2022-07-15T08:00:18Z</time>
      </trkpt>
      <trkpt lat="42.45142" lon="1.58175">
        <ele>2706.25</ele>
        <time>2022-07-15T08:00:31Z</time>
      </trkpt>
      <trkpt lat="42.45146" lon="1.58179">
        <ele>2703.85</ele>
        <time>2022-07-15T08:00:43Z</time>
      </trkpt>
      <trkpt lat="42.45155" lon="1.58181">
        <ele>2701.92</ele>
        <time>2022-07-15T08:00:57Z</time>
      </trkpt>
      <trkpt lat="42.45158" lon="1.58185">
        <ele>2700</ele>
        <time>2022-07-15T08:01:07Z</time>
      </trkpt>
      <trkpt lat="42.45162" lon="1.58186">
        <ele>2698.08</ele>
        <time>2022-07-15T08:01:18Z</time>
      </trkpt>
      <trkpt lat="42.45162" lon="1.58189">
        <ele>2696.64</ele>
        <time>2022-07-15T08:01:30Z</time>
      </trkpt>
      <trkpt lat="42.4517" lon="1.58191">
        <ele>2693.75</ele>
        <time>2022-07-15T08:01:46Z</time>
      </trkpt>
      <trkpt lat="42.45177" lon="1.58194">
        <ele>2691.35</ele>
        <time>2022-07-15T08:02:01Z</time>
      </trkpt>
      <trkpt lat="42.45186" lon="1.58197">
        <ele>2688.94</ele>
        <time>2022-07-15T08:02:16Z</time>
      </trkpt>
      <trkpt lat="42.45192" lon="1.58198">
        <ele>2688.46</ele>
        <time>2022-07-15T08:02:29Z</time>
      </trkpt>
      <trkpt lat="42.45193" lon="1.582">
        <ele>2687.98</ele>
        <time>2022-07-15T08:02:50Z</time>
      </trkpt>
      <trkpt lat="42.45191" lon="1.58202">
        <ele>2687.98</ele>
        <time>2022-07-15T08:03:21Z</time>
      </trkpt>
      <trkpt lat="42.45192" lon="1.58203">
        <ele>2686.54</ele>
        <time>2022-07-15T08:03:49Z</time>
      </trkpt>
      <trkpt lat="42.45197" lon="1.58205">
        <ele>2684.62</ele>
        <time>2022-07-15T08:04:02Z</time>
      </trkpt>
      <trkpt lat="42.45205" lon="1.5821">
        <ele>2681.25</ele>
        <time>2022-07-15T08:04:16Z</time>
      </trkpt>
      <trkpt lat="42.45214" lon="1.5821">
        <ele>2679.33</ele>
        <time>2022-07-15T08:04:29Z</time>
      </trkpt>
      <trkpt lat="42.45216" lon="1.58211">
        <ele>2679.81</ele>
        <time>2022-07-15T08:04:40Z</time>
      </trkpt>
      <trkpt lat="42.45219" lon="1.58211">
        <ele>2677.89</ele>
        <time>2022-07-15T08:04:54Z</time>
      </trkpt>
      <trkpt lat="42.45223" lon="1.58214">
        <ele>2675.01</ele>
        <time>2022-07-15T08:05:11Z</time>
      </trkpt>
      <trkpt lat="42.45222" lon="1.58217">
        <ele>2674.04</ele>
        <time>2022-07-15T08:05:30Z</time>
      </trkpt>
      <trkpt lat="42.45225" lon="1.58215">
        <ele>2671.64</ele>
        <time>2022-07-15T08:05:45Z</time>
      </trkpt>
      <trkpt lat="42.45228" lon="1.58217">
        <ele>2669.72</ele>
        <time>2022-07-15T08:05:59Z</time>
      </trkpt>
      <trkpt lat="42.45231" lon="1.58218">
        <ele>2668.76</ele>
        <time>2022-07-15T08:06:13Z</time>
      </trkpt>
      <trkpt lat="42.45231" lon="1.5822">
        <ele>2668.28</ele>
        <time>2022-07-15T08:06:16Z</time>
      </trkpt>
      <trkpt lat="42.45236" lon="1.58224">
        <ele>2665.87</ele>
        <time>2022-07-15T08:06:30Z</time>
      </trkpt>
      <trkpt lat="42.4524" lon="1.58226">
        <ele>2664.91</ele>
        <time>2022-07-15T08:06:44Z</time>
      </trkpt>
      <trkpt lat="42.45242" lon="1.58229">
        <ele>2663.47</ele>
        <time>2022-07-15T08:06:56Z</time>
      </trkpt>
      <trkpt lat="42.45246" lon="1.58228">
        <ele>2661.55</ele>
        <time>2022-07-15T08:07:06Z</time>
      </trkpt>
      <trkpt lat="42.45243" lon="1.58228">
        <ele>2661.07</ele>
        <time>2022-07-15T08:07:22Z</time>
      </trkpt>
      <trkpt lat="42.45248" lon="1.58228">
        <ele>2659.14</ele>
        <time>2022-07-15T08:07:37Z</time>
      </trkpt>
      <trkpt lat="42.45247" lon="1.5823">
        <ele>2657.22</ele>
        <time>2022-07-15T08:07:54Z</time>
      </trkpt>
      <trkpt lat="42.45251" lon="1.58232">
        <ele>2656.26</ele>
        <time>2022-07-15T08:08:08Z</time>
      </trkpt>
      <trkpt lat="42.45253" lon="1.58231">
        <ele>2653.86</ele>
        <time>2022-07-15T08:08:24Z</time>
      </trkpt>
      <trkpt lat="42.45254" lon="1.58235">
        <ele>2652.42</ele>
        <time>2022-07-15T08:08:41Z</time>
      </trkpt>
      <trkpt lat="42.45256" lon="1.58239">
        <ele>2649.53</ele>
        <time>2022-07-15T08:08:56Z</time>
      </trkpt>
      <trkpt lat="42.45261" lon="1.58235">
        <ele>2647.61</ele>
        <time>2022-07-15T08:09:10Z</time>
      </trkpt>
      <trkpt lat="42.45265" lon="1.58239">
        <ele>2645.21</ele>
        <time>2022-07-15T08:09:23Z</time>
      </trkpt>
      <trkpt lat="42.45267" lon="1.58243">
        <ele>2643.28</ele>
        <time>2022-07-15T08:09:36Z</time>
      </trkpt>
      <trkpt lat="42.45273" lon="1.58245">
        <ele>2640.4</ele>
        <time>2022-07-15T08:09:48Z</time>
      </trkpt>
      <trkpt lat="42.45278" lon="1.58246">
        <ele>2639.44</ele>
        <time>2022-07-15T08:10:02Z</time>
      </trkpt>
      <trkpt lat="42.4528" lon="1.58247">
        <ele>2638.48</ele>
        <time>2022-07-15T08:10:06Z</time>
      </trkpt>
      <trkpt lat="42.45288" lon="1.58252">
        <ele>2637.99</ele>
        <time>2022-07-15T08:10:20Z</time>
      </trkpt>
      <trkpt lat="42.45289" lon="1.58251">
        <ele>2637.03</ele>
        <time>2022-07-15T08:10:33Z</time>
      </trkpt>
      <trkpt lat="42.45292" lon="1.58253">
        <ele>2636.55</ele>
        <time>2022-07-15T08:10:53Z</time>
      </trkpt>
      <trkpt lat="42.45294" lon="1.58249">
        <ele>2635.59</ele>
        <time>2022-07-15T08:11:13Z</time>
      </trkpt>
      <trkpt lat="42.45286" lon="1.58246">
        <ele>2635.59</ele>
        <time>2022-07-15T08:11:30Z</time>
      </trkpt>
      <trkpt lat="42.45287" lon="1.58247">
        <ele>2634.15</ele>
        <time>2022-07-15T08:11:49Z</time>
      </trkpt>
      <trkpt lat="42.45289" lon="1.58249">
        <ele>2632.71</ele>
        <time>2022-07-15T08:12:10Z</time>
      </trkpt>
      <trkpt lat="42.45293" lon="1.58249">
        <ele>2631.75</ele>
        <time>2022-07-15T08:12:26Z</time>
      </trkpt>
      <trkpt lat="42.45296" lon="1.58253">
        <ele>2630.79</ele>
        <time>2022-07-15T08:12:44Z</time>
      </trkpt>
      <trkpt lat="42.45298" lon="1.58255">
        <ele>2629.34</ele>
        <time>2022-07-15T08:12:57Z</time>
      </trkpt>
      <trkpt lat="42.45304" lon="1.58249">
        <ele>2627.42</ele>
        <time>2022-07-15T08:13:13Z</time>
      </trkpt>
      <trkpt lat="42.45309" lon="1.5825">
        <ele>2625.02</ele>
        <time>2022-07-15T08:13:28Z</time>
      </trkpt>
      <trkpt lat="42.45313" lon="1.58252">
        <ele>2622.13</ele>
        <time>2022-07-15T08:13:44Z</time>
      </trkpt>
      <trkpt lat="42.45316" lon="1.58255">
        <ele>2620.21</ele>
        <time>2022-07-15T08:13:58Z</time>
      </trkpt>
      <trkpt lat="42.45322" lon="1.58257">
        <ele>2617.81</ele>
        <time>2022-07-15T08:14:14Z</time>
      </trkpt>
      <trkpt lat="42.45325" lon="1.58257">
        <ele>2616.85</ele>
        <time>2022-07-15T08:14:28Z</time>
      </trkpt>
      <trkpt lat="42.45331" lon="1.58256">
        <ele>2613.48</ele>
        <time>2022-07-15T08:14:42Z</time>
      </trkpt>
      <trkpt lat="42.45332" lon="1.58257">
        <ele>2612.04</ele>
        <time>2022-07-15T08:15:01Z</time>
      </trkpt>
      <trkpt lat="42.45337" lon="1.58259">
        <ele>2609.16</ele>
        <time>2022-07-15T08:15:15Z</time>
      </trkpt>
      <trkpt lat="42.45343" lon="1.58265">
        <ele>2606.27</ele>
        <time>2022-07-15T08:15:29Z</time>
      </trkpt>
      <trkpt lat="42.45346" lon="1.58262">
        <ele>2604.83</ele>
        <time>2022-07-15T08:15:44Z</time>
      </trkpt>
      <trkpt lat="42.45347" lon="1.58259">
        <ele>2603.39</ele>
        <time>2022-07-15T08:15:57Z</time>
      </trkpt>
      <trkpt lat="42.45349" lon="1.58257">
        <ele>2600.98</ele>
        <time>2022-07-15T08:16:13Z</time>
      </trkpt>
      <trkpt lat="42.45357" lon="1.5826">
        <ele>2598.1</ele>
        <time>2022-07-15T08:16:28Z</time>
      </trkpt>
      <trkpt lat="42.45361" lon="1.58261">
        <ele>2596.66</ele>
        <time>2022-07-15T08:16:40Z</time>
      </trkpt>
      <trkpt lat="42.45364" lon="1.5826">
        <ele>2596.18</ele>
        <time>2022-07-15T08:17:05Z</time>
      </trkpt>
      <trkpt lat="42.45371" lon="1.58264">
        <ele>2594.74</ele>
        <time>2022-07-15T08:17:17Z</time>
      </trkpt>
      <trkpt lat="42.45375" lon="1.58266">
        <ele>2593.29</ele>
        <time>2022-07-15T08:17:29Z</time>
      </trkpt>
      <trkpt lat="42.45383" lon="1.58266">
        <ele>2591.85</ele>
        <time>2022-07-15T08:17:43Z</time>
      </trkpt>
      <trkpt lat="42.45388" lon="1.58268">
        <ele>2589.45</ele>
        <time>2022-07-15T08:17:57Z</time>
      </trkpt>
      <trkpt lat="42.45392" lon="1.5827">
        <ele>2588.01</ele>
        <time>2022-07-15T08:18:10Z</time>
      </trkpt>
      <trkpt lat="42.45398" lon="1.58272">
        <ele>2587.04</ele>
        <time>2022-07-15T08:18:22Z</time>
      </trkpt>
      <trkpt lat="42.45397" lon="1.58272">
        <ele>2586.56</ele>
        <time>2022-07-15T08:18:34Z</time>
      </trkpt>
      <trkpt lat="42.45393" lon="1.58273">
        <ele>2586.56</ele>
        <time>2022-07-15T08:19:05Z</time>
      </trkpt>
      <trkpt lat="42.45392" lon="1.58274">
        <ele>2586.08</ele>
        <time>2022-07-15T08:19:35Z</time>
      </trkpt>
      <trkpt lat="42.45392" lon="1.58272">
        <ele>2586.08</ele>
        <time>2022-07-15T08:20:01Z</time>
      </trkpt>
      <trkpt lat="42.45395" lon="1.58267">
        <ele>2586.08</ele>
        <time>2022-07-15T08:20:36Z</time>
      </trkpt>
      <trkpt lat="42.45395" lon="1.58272">
        <ele>2585.6</ele>
        <time>2022-07-15T08:21:06Z</time>
      </trkpt>
      <trkpt lat="42.454" lon="1.58273">
        <ele>2585.6</ele>
        <time>2022-07-15T08:21:32Z</time>
      </trkpt>
      <trkpt lat="42.45401" lon="1.58272">
        <ele>2585.6</ele>
        <time>2022-07-15T08:21:49Z</time>
      </trkpt>
      <trkpt lat="42.45399" lon="1.58269">
        <ele>2585.6</ele>
        <time>2022-07-15T08:22:16Z</time>
      </trkpt>
      <trkpt lat="42.454" lon="1.58275">
        <ele>2584.64</ele>
        <time>2022-07-15T08:22:36Z</time>
      </trkpt>
      <trkpt lat="42.45407" lon="1.58279">
        <ele>2582.24</ele>
        <time>2022-07-15T08:22:50Z</time>
      </trkpt>
      <trkpt lat="42.45412" lon="1.5828">
        <ele>2579.84</ele>
        <time>2022-07-15T08:23:04Z</time>
      </trkpt>
      <trkpt lat="42.45414" lon="1.5828">
        <ele>2578.87</ele>
        <time>2022-07-15T08:23:08Z</time>
      </trkpt>
      <trkpt lat="42.4542" lon="1.58289">
        <ele>2575.99</ele>
        <time>2022-07-15T08:23:23Z</time>
      </trkpt>
      <trkpt lat="42.45427" lon="1.58292">
        <ele>2575.03</ele>
        <time>2022-07-15T08:23:37Z</time>
      </trkpt>
      <trkpt lat="42.45432" lon="1.58294">
        <ele>2574.55</ele>
        <time>2022-07-15T08:23:49Z</time>
      </trkpt>
      <trkpt lat="42.4543" lon="1.58294">
        <ele>2574.55</ele>
        <time>2022-07-15T08:24:12Z</time>
      </trkpt>
      <trkpt lat="42.45442" lon="1.58295">
        <ele>2574.55</ele>
        <time>2022-07-15T08:24:27Z</time>
      </trkpt>
      <trkpt lat="42.45448" lon="1.58298">
        <ele>2575.51</ele>
        <time>2022-07-15T08:24:41Z</time>
      </trkpt>
      <trkpt lat="42.45454" lon="1.583">
        <ele>2575.51</ele>
        <time>2022-07-15T08:24:55Z</time>
      </trkpt>
      <trkpt lat="42.4546" lon="1.58302">
        <ele>2574.07</ele>
        <time>2022-07-15T08:25:01Z</time>
      </trkpt>
      <trkpt lat="42.45466" lon="1.58309">
        <ele>2575.51</ele>
        <time>2022-07-15T08:25:16Z</time>
      </trkpt>
      <trkpt lat="42.45474" lon="1.58314">
        <ele>2578.87</ele>
        <time>2022-07-15T08:25:31Z</time>
      </trkpt>
      <trkpt lat="42.45483" lon="1.58317">
        <ele>2580.32</ele>
        <time>2022-07-15T08:25:44Z</time>
      </trkpt>
      <trkpt lat="42.45491" lon="1.58318">
        <ele>2581.28</ele>
        <time>2022-07-15T08:25:58Z</time>
      </trkpt>
      <trkpt lat="42.4549" lon="1.5832">
        <ele>2581.76</ele>
        <time>2022-07-15T08:26:21Z</time>
      </trkpt>
      <trkpt lat="42.45491" lon="1.58319">
        <ele>2581.76</ele>
        <time>2022-07-15T08:26:43Z</time>
      </trkpt>
      <trkpt lat="42.45492" lon="1.5832">
        <ele>2581.28</ele>
        <time>2022-07-15T08:27:12Z</time>
      </trkpt>
      <trkpt lat="42.45494" lon="1.58318">
        <ele>2581.76</ele>
        <time>2022-07-15T08:27:38Z</time>
      </trkpt>
      <trkpt lat="42.45501" lon="1.58319">
        <ele>2581.76</ele>
        <time>2022-07-15T08:27:53Z</time>
      </trkpt>
      <trkpt lat="42.45503" lon="1.5832">
        <ele>2584.16</ele>
        <time>2022-07-15T08:28:05Z</time>
      </trkpt>
      <trkpt lat="42.45504" lon="1.58321">
        <ele>2584.16</ele>
        <time>2022-07-15T08:28:22Z</time>
      </trkpt>
      <trkpt lat="42.45505" lon="1.58324">
        <ele>2584.16</ele>
        <time>2022-07-15T08:28:39Z</time>
      </trkpt>
      <trkpt lat="42.45507" lon="1.58327">
        <ele>2586.56</ele>
        <time>2022-07-15T08:28:51Z</time>
      </trkpt>
      <trkpt lat="42.45512" lon="1.58331">
        <ele>2587.53</ele>
        <time>2022-07-15T08:29:06Z</time>
      </trkpt>
      <trkpt lat="42.45518" lon="1.58333">
        <ele>2588.01</ele>
        <time>2022-07-15T08:29:20Z</time>
      </trkpt>
      <trkpt lat="42.4552" lon="1.58336">
        <ele>2589.45</ele>
        <time>2022-07-15T08:29:34Z</time>
      </trkpt>
      <trkpt lat="42.45524" lon="1.58344">
        <ele>2591.85</ele>
        <time>2022-07-15T08:29:49Z</time>
      </trkpt>
      <trkpt lat="42.45526" lon="1.58344">
        <ele>2592.33</ele>
        <time>2022-07-15T08:30:07Z</time>
      </trkpt>
      <trkpt lat="42.45531" lon="1.58348">
        <ele>2592.33</ele>
        <time>2022-07-15T08:30:18Z</time>
      </trkpt>
      <trkpt lat="42.45541" lon="1.58353">
        <ele>2592.33</ele>
        <time>2022-07-15T08:30:32Z</time>
      </trkpt>
      <trkpt lat="42.45542" lon="1.58353">
        <ele>2591.85</ele>
        <time>2022-07-15T08:30:43Z</time>
      </trkpt>
      <trkpt lat="42.45558" lon="1.5835">
        <ele>2589.93</ele>
        <time>2022-07-15T08:30:58Z</time>
      </trkpt>
      <trkpt lat="42.4556" lon="1.58351">
        <ele>2589.93</ele>
        <time>2022-07-15T08:31:00Z</time>
      </trkpt>
      <trkpt lat="42.4557" lon="1.58355">
        <ele>2591.37</ele>
        <time>2022-07-15T08:31:14Z</time>
      </trkpt>
      <trkpt lat="42.45581" lon="1.58358">
        <ele>2594.25</ele>
        <time>2022-07-15T08:31:28Z</time>
      </trkpt>
      <trkpt lat="42.45588" lon="1.58358">
        <ele>2594.74</ele>
        <time>2022-07-15T08:31:37Z</time>
      </trkpt>
      <trkpt lat="42.45594" lon="1.58358">
        <ele>2595.7</ele>
        <time>2022-07-15T08:31:51Z</time>
      </trkpt>
      <trkpt lat="42.45602" lon="1.5836">
        <ele>2596.18</ele>
        <time>2022-07-15T08:32:09Z</time>
      </trkpt>
      <trkpt lat="42.45612" lon="1.58359">
        <ele>2597.62</ele>
        <time>2022-07-15T08:32:23Z</time>
      </trkpt>
      <trkpt lat="42.45622" lon="1.58362">
        <ele>2599.06</ele>
        <time>2022-07-15T08:32:37Z</time>
      </trkpt>
      <trkpt lat="42.45629" lon="1.5836">
        <ele>2600.02</ele>
        <time>2022-07-15T08:32:55Z</time>
      </trkpt>
      <trkpt lat="42.45636" lon="1.58361">
        <ele>2600.98</ele>
        <time>2022-07-15T08:33:08Z</time>
      </trkpt>
      <trkpt lat="42.4564" lon="1.58359">
        <ele>2601.95</ele>
        <time>2022-07-15T08:33:24Z</time>
      </trkpt>
      <trkpt lat="42.45649" lon="1.58359">
        <ele>2603.87</ele>
        <time>2022-07-15T08:33:38Z</time>
      </trkpt>
      <trkpt lat="42.45652" lon="1.58359">
        <ele>2604.83</ele>
        <time>2022-07-15T08:33:56Z</time>
      </trkpt>
      <trkpt lat="42.4566" lon="1.58359">
        <ele>2607.23</ele>
        <time>2022-07-15T08:34:12Z</time>
      </trkpt>
      <trkpt lat="42.45664" lon="1.58359">
        <ele>2608.67</ele>
        <time>2022-07-15T08:34:29Z</time>
      </trkpt>
      <trkpt lat="42.45669" lon="1.58361">
        <ele>2610.6</ele>
        <time>2022-07-15T08:34:47Z</time>
      </trkpt>
      <trkpt lat="42.45674" lon="1.58363">
        <ele>2612.04</ele>
        <time>2022-07-15T08:35:02Z</time>
      </trkpt>
      <trkpt lat="42.45678" lon="1.58365">
        <ele>2613.48</ele>
        <time>2022-07-15T08:35:17Z</time>
      </trkpt>
      <trkpt lat="42.45678" lon="1.58371">
        <ele>2614.44</ele>
        <time>2022-07-15T08:35:37Z</time>
      </trkpt>
      <trkpt lat="42.45677" lon="1.58382">
        <ele>2616.85</ele>
        <time>2022-07-15T08:35:52Z</time>
      </trkpt>
      <trkpt lat="42.45677" lon="1.58388">
        <ele>2618.77</ele>
        <time>2022-07-15T08:36:04Z</time>
      </trkpt>
      <trkpt lat="42.45678" lon="1.5839">
        <ele>2619.25</ele>
        <time>2022-07-15T08:36:18Z</time>
      </trkpt>
      <trkpt lat="42.45684" lon="1.58389">
        <ele>2621.65</ele>
        <time>2022-07-15T08:36:36Z</time>
      </trkpt>
      <trkpt lat="42.45687" lon="1.58392">
        <ele>2624.06</ele>
        <time>2022-07-15T08:36:51Z</time>
      </trkpt>
      <trkpt lat="42.45688" lon="1.58397">
        <ele>2625.02</ele>
        <time>2022-07-15T08:37:10Z</time>
      </trkpt>
      <trkpt lat="42.45691" lon="1.58403">
        <ele>2627.42</ele>
        <time>2022-07-15T08:37:25Z</time>
      </trkpt>
      <trkpt lat="42.45691" lon="1.58402">
        <ele>2627.9</ele>
        <time>2022-07-15T08:37:50Z</time>
      </trkpt>
      <trkpt lat="42.45694" lon="1.58407">
        <ele>2628.86</ele>
        <time>2022-07-15T08:38:13Z</time>
      </trkpt>
      <trkpt lat="42.45697" lon="1.58412">
        <ele>2631.27</ele>
        <time>2022-07-15T08:38:26Z</time>
      </trkpt>
      <trkpt lat="42.45703" lon="1.58413">
        <ele>2633.67</ele>
        <time>2022-07-15T08:38:41Z</time>
      </trkpt>
      <trkpt lat="42.45705" lon="1.58416">
        <ele>2634.15</ele>
        <time>2022-07-15T08:39:08Z</time>
      </trkpt>
      <trkpt lat="42.45705" lon="1.58417">
        <ele>2634.15</ele>
        <time>2022-07-15T08:39:37Z</time>
      </trkpt>
      <trkpt lat="42.45711" lon="1.58421">
        <ele>2634.63</ele>
        <time>2022-07-15T08:39:51Z</time>
      </trkpt>
      <trkpt lat="42.45716" lon="1.58426">
        <ele>2637.51</ele>
        <time>2022-07-15T08:40:07Z</time>
      </trkpt>
      <trkpt lat="42.4572" lon="1.58429">
        <ele>2639.92</ele>
        <time>2022-07-15T08:40:22Z</time>
      </trkpt>
      <trkpt lat="42.45721" lon="1.58428">
        <ele>2640.4</ele>
        <time>2022-07-15T08:40:51Z</time>
      </trkpt>
      <trkpt lat="42.45723" lon="1.58428">
        <ele>2642.32</ele>
        <time>2022-07-15T08:41:06Z</time>
      </trkpt>
      <trkpt lat="42.45725" lon="1.5843">
        <ele>2643.28</ele>
        <time>2022-07-15T08:41:19Z</time>
      </trkpt>
      <trkpt lat="42.45729" lon="1.58433">
        <ele>2645.21</ele>
        <time>2022-07-15T08:41:33Z</time>
      </trkpt>
      <trkpt lat="42.45732" lon="1.58434">
        <ele>2646.65</ele>
        <time>2022-07-15T08:41:47Z</time>
      </trkpt>
      <trkpt lat="42.45734" lon="1.58436">
        <ele>2647.61</ele>
        <time>2022-07-15T08:42:04Z</time>
      </trkpt>
      <trkpt lat="42.45737" lon="1.58438">
        <ele>2649.05</ele>
        <time>2022-07-15T08:42:19Z</time>
      </trkpt>
      <trkpt lat="42.45739" lon="1.58436">
        <ele>2650.97</ele>
        <time>2022-07-15T08:42:36Z</time>
      </trkpt>
      <trkpt lat="42.4574" lon="1.58439">
        <ele>2651.45</ele>
        <time>2022-07-15T08:42:50Z</time>
      </trkpt>
      <trkpt lat="42.45744" lon="1.58442">
        <ele>2652.42</ele>
        <time>2022-07-15T08:43:13Z</time>
      </trkpt>
      <trkpt lat="42.45748" lon="1.58445">
        <ele>2654.82</ele>
        <time>2022-07-15T08:43:26Z</time>
      </trkpt>
      <trkpt lat="42.45751" lon="1.58448">
        <ele>2656.26</ele>
        <time>2022-07-15T08:43:39Z</time>
      </trkpt>
      <trkpt lat="42.45754" lon="1.58451">
        <ele>2656.74</ele>
        <time>2022-07-15T08:43:57Z</time>
      </trkpt>
      <trkpt lat="42.45757" lon="1.58455">
        <ele>2659.14</ele>
        <time>2022-07-15T08:44:11Z</time>
      </trkpt>
      <trkpt lat="42.45762" lon="1.58456">
        <ele>2661.55</ele>
        <time>2022-07-15T08:44:25Z</time>
      </trkpt>
      <trkpt lat="42.45761" lon="1.58458">
        <ele>2662.03</ele>
        <time>2022-07-15T08:44:59Z</time>
      </trkpt>
      <trkpt lat="42.45765" lon="1.5846">
        <ele>2664.43</ele>
        <time>2022-07-15T08:45:11Z</time>
      </trkpt>
      <trkpt lat="42.45766" lon="1.58463">
        <ele>2665.87</ele>
        <time>2022-07-15T08:45:19Z</time>
      </trkpt>
      <trkpt lat="42.45769" lon="1.58464">
        <ele>2666.35</ele>
        <time>2022-07-15T08:45:31Z</time>
      </trkpt>
      <trkpt lat="42.45772" lon="1.58467">
        <ele>2667.8</ele>
        <time>2022-07-15T08:45:49Z</time>
      </trkpt>
      <trkpt lat="42.45775" lon="1.58469">
        <ele>2669.72</ele>
        <time>2022-07-15T08:46:10Z</time>
      </trkpt>
      <trkpt lat="42.45777" lon="1.58468">
        <ele>2670.68</ele>
        <time>2022-07-15T08:46:27Z</time>
      </trkpt>
      <trkpt lat="42.45781" lon="1.58468">
        <ele>2673.08</ele>
        <time>2022-07-15T08:46:43Z</time>
      </trkpt>
      <trkpt lat="42.45783" lon="1.58474">
        <ele>2674.04</ele>
        <time>2022-07-15T08:47:05Z</time>
      </trkpt>
      <trkpt lat="42.45783" lon="1.58471">
        <ele>2674.52</ele>
        <time>2022-07-15T08:47:24Z</time>
      </trkpt>
      <trkpt lat="42.45787" lon="1.58471">
        <ele>2677.41</ele>
        <time>2022-07-15T08:47:41Z</time>
      </trkpt>
      <trkpt lat="42.45792" lon="1.58474">
        <ele>2679.33</ele>
        <time>2022-07-15T08:47:57Z</time>
      </trkpt>
      <trkpt lat="42.45794" lon="1.58474">
        <ele>2681.25</ele>
        <time>2022-07-15T08:48:13Z</time>
      </trkpt>
      <trkpt lat="42.45793" lon="1.58472">
        <ele>2682.22</ele>
        <time>2022-07-15T08:48:39Z</time>
      </trkpt>
      <trkpt lat="42.45797" lon="1.58474">
        <ele>2683.18</ele>
        <time>2022-07-15T08:48:53Z</time>
      </trkpt>
      <trkpt lat="42.45798" lon="1.58474">
        <ele>2683.18</ele>
        <time>2022-07-15T08:49:20Z</time>
      </trkpt>
      <trkpt lat="42.45799" lon="1.58475">
        <ele>2684.62</ele>
        <time>2022-07-15T08:49:35Z</time>
      </trkpt>
      <trkpt lat="42.45804" lon="1.58478">
        <ele>2686.54</ele>
        <time>2022-07-15T08:49:50Z</time>
      </trkpt>
      <trkpt lat="42.45803" lon="1.58476">
        <ele>2687.5</ele>
        <time>2022-07-15T08:50:04Z</time>
      </trkpt>
      <trkpt lat="42.45808" lon="1.58474">
        <ele>2687.5</ele>
        <time>2022-07-15T08:50:19Z</time>
      </trkpt>
      <trkpt lat="42.45809" lon="1.58476">
        <ele>2688.46</ele>
        <time>2022-07-15T08:50:33Z</time>
      </trkpt>
      <trkpt lat="42.45809" lon="1.58479">
        <ele>2689.91</ele>
        <time>2022-07-15T08:50:51Z</time>
      </trkpt>
      <trkpt lat="42.45811" lon="1.58478">
        <ele>2689.91</ele>
        <time>2022-07-15T08:51:11Z</time>
      </trkpt>
      <trkpt lat="42.45812" lon="1.58477">
        <ele>2690.39</ele>
        <time>2022-07-15T08:51:26Z</time>
      </trkpt>
      <trkpt lat="42.45812" lon="1.5848">
        <ele>2691.35</ele>
        <time>2022-07-15T08:51:39Z</time>
      </trkpt>
      <trkpt lat="42.45811" lon="1.58482">
        <ele>2692.79</ele>
        <time>2022-07-15T08:51:52Z</time>
      </trkpt>
      <trkpt lat="42.45816" lon="1.58483">
        <ele>2694.23</ele>
        <time>2022-07-15T08:52:07Z</time>
      </trkpt>
      <trkpt lat="42.4582" lon="1.58482">
        <ele>2696.15</ele>
        <time>2022-07-15T08:52:21Z</time>
      </trkpt>
      <trkpt lat="42.45823" lon="1.58479">
        <ele>2697.12</ele>
        <time>2022-07-15T08:52:39Z</time>
      </trkpt>
      <trkpt lat="42.45825" lon="1.5848">
        <ele>2698.56</ele>
        <time>2022-07-15T08:52:55Z</time>
      </trkpt>
      <trkpt lat="42.45825" lon="1.58485">
        <ele>2700</ele>
        <time>2022-07-15T08:53:10Z</time>
      </trkpt>
      <trkpt lat="42.45828" lon="1.58485">
        <ele>2701.92</ele>
        <time>2022-07-15T08:53:25Z</time>
      </trkpt>
      <trkpt lat="42.45831" lon="1.58484">
        <ele>2702.88</ele>
        <time>2022-07-15T08:53:45Z</time>
      </trkpt>
      <trkpt lat="42.45837" lon="1.58488">
        <ele>2703.36</ele>
        <time>2022-07-15T08:54:00Z</time>
      </trkpt>
      <trkpt lat="42.45841" lon="1.58496">
        <ele>2705.77</ele>
        <time>2022-07-15T08:54:13Z</time>
      </trkpt>
      <trkpt lat="42.45847" lon="1.585">
        <ele>2707.69</ele>
        <time>2022-07-15T08:54:27Z</time>
      </trkpt>
      <trkpt lat="42.45845" lon="1.585">
        <ele>2707.69</ele>
        <time>2022-07-15T08:54:54Z</time>
      </trkpt>
      <trkpt lat="42.45852" lon="1.585">
        <ele>2709.13</ele>
        <time>2022-07-15T08:55:11Z</time>
      </trkpt>
      <trkpt lat="42.45857" lon="1.58503">
        <ele>2711.54</ele>
        <time>2022-07-15T08:55:25Z</time>
      </trkpt>
      <trkpt lat="42.45861" lon="1.58503">
        <ele>2713.46</ele>
        <time>2022-07-15T08:55:42Z</time>
      </trkpt>
      <trkpt lat="42.45861" lon="1.58503">
        <ele>2713.94</ele>
        <time>2022-07-15T08:56:10Z</time>
      </trkpt>
      <trkpt lat="42.45863" lon="1.58504">
        <ele>2715.38</ele>
        <time>2022-07-15T08:56:21Z</time>
      </trkpt>
      <trkpt lat="42.45869" lon="1.58506">
        <ele>2717.3</ele>
        <time>2022-07-15T08:56:34Z</time>
      </trkpt>
      <trkpt lat="42.45872" lon="1.58509">
        <ele>2719.71</ele>
        <time>2022-07-15T08:56:49Z</time>
      </trkpt>
      <trkpt lat="42.45872" lon="1.58507">
        <ele>2719.71</ele>
        <time>2022-07-15T08:57:16Z</time>
      </trkpt>
      <trkpt lat="42.45877" lon="1.58512">
        <ele>2721.15</ele>
        <time>2022-07-15T08:57:37Z</time>
      </trkpt>
      <trkpt lat="42.45881" lon="1.58517">
        <ele>2723.55</ele>
        <time>2022-07-15T08:57:51Z</time>
      </trkpt>
      <trkpt lat="42.45887" lon="1.58521">
        <ele>2725.96</ele>
        <time>2022-07-15T08:58:05Z</time>
      </trkpt>
      <trkpt lat="42.45885" lon="1.58518">
        <ele>2726.44</ele>
        <time>2022-07-15T08:58:30Z</time>
      </trkpt>
      <trkpt lat="42.45888" lon="1.5852">
        <ele>2727.4</ele>
        <time>2022-07-15T08:58:49Z</time>
      </trkpt>
      <trkpt lat="42.45891" lon="1.58523">
        <ele>2728.36</ele>
        <time>2022-07-15T08:59:02Z</time>
      </trkpt>
      <trkpt lat="42.45894" lon="1.58524">
        <ele>2731.24</ele>
        <time>2022-07-15T08:59:19Z</time>
      </trkpt>
      <trkpt lat="42.45893" lon="1.58528">
        <ele>2732.68</ele>
        <time>2022-07-15T08:59:38Z</time>
      </trkpt>
      <trkpt lat="42.45896" lon="1.58533">
        <ele>2735.09</ele>
        <time>2022-07-15T08:59:50Z</time>
      </trkpt>
      <trkpt lat="42.45898" lon="1.58534">
        <ele>2736.05</ele>
        <time>2022-07-15T09:00:16Z</time>
      </trkpt>
      <trkpt lat="42.45902" lon="1.58539">
        <ele>2737.97</ele>
        <time>2022-07-15T09:00:30Z</time>
      </trkpt>
      <trkpt lat="42.45904" lon="1.58544">
        <ele>2740.38</ele>
        <time>2022-07-15T09:00:44Z</time>
      </trkpt>
      <trkpt lat="42.45908" lon="1.58551">
        <ele>2742.78</ele>
        <time>2022-07-15T09:01:02Z</time>
      </trkpt>
      <trkpt lat="42.45913" lon="1.58552">
        <ele>2744.22</ele>
        <time>2022-07-15T09:01:16Z</time>
      </trkpt>
      <trkpt lat="42.45918" lon="1.58552">
        <ele>2744.22</ele>
        <time>2022-07-15T09:01:31Z</time>
      </trkpt>
      <trkpt lat="42.45918" lon="1.5855">
        <ele>2744.7</ele>
        <time>2022-07-15T09:01:50Z</time>
      </trkpt>
      <trkpt lat="42.45917" lon="1.5855">
        <ele>2744.7</ele>
        <time>2022-07-15T09:02:03Z</time>
      </trkpt>
      <trkpt lat="42.45917" lon="1.58551">
        <ele>2744.7</ele>
        <time>2022-07-15T09:02:24Z</time>
      </trkpt>
      <trkpt lat="42.4592" lon="1.58552">
        <ele>2744.7</ele>
        <time>2022-07-15T09:02:45Z</time>
      </trkpt>
      <trkpt lat="42.45919" lon="1.58552">
        <ele>2744.7</ele>
        <time>2022-07-15T09:02:59Z</time>
      </trkpt>
      <trkpt lat="42.45919" lon="1.58551">
        <ele>2744.7</ele>
        <time>2022-07-15T09:03:05Z</time>
      </trkpt>
      <trkpt lat="42.45911" lon="1.58543">
        <ele>2743.26</ele>
        <time>2022-07-15T09:18:24Z</time>
      </trkpt>
      <trkpt lat="42.45915" lon="1.58546">
        <ele>2743.26</ele>
        <time>2022-07-15T09:18:25Z</time>
      </trkpt>
      <trkpt lat="42.45922" lon="1.58554">
        <ele>2745.18</ele>
        <time>2022-07-15T09:18:40Z</time>
      </trkpt>
      <trkpt lat="42.45924" lon="1.58555">
        <ele>2746.14</ele>
        <time>2022-07-15T09:18:45Z</time>
      </trkpt>
      <trkpt lat="42.45928" lon="1.58557">
        <ele>2747.1</ele>
        <time>2022-07-15T09:18:49Z</time>
      </trkpt>
      <trkpt lat="42.45934" lon="1.58558">
        <ele>2749.51</ele>
        <time>2022-07-15T09:19:06Z</time>
      </trkpt>
      <trkpt lat="42.45941" lon="1.5856">
        <ele>2749.51</ele>
        <time>2022-07-15T09:19:22Z</time>
      </trkpt>
      <trkpt lat="42.45947" lon="1.58561">
        <ele>2746.14</ele>
        <time>2022-07-15T09:19:29Z</time>
      </trkpt>
      <trkpt lat="42.45954" lon="1.5856">
        <ele>2744.7</ele>
        <time>2022-07-15T09:19:41Z</time>
      </trkpt>
      <trkpt lat="42.45955" lon="1.5856">
        <ele>2744.22</ele>
        <time>2022-07-15T09:19:44Z</time>
      </trkpt>
      <trkpt lat="42.45962" lon="1.58556">
        <ele>2741.82</ele>
        <time>2022-07-15T09:19:54Z</time>
      </trkpt>
      <trkpt lat="42.4597" lon="1.58555">
        <ele>2741.34</ele>
        <time>2022-07-15T09:20:02Z</time>
      </trkpt>
      <trkpt lat="42.45983" lon="1.58541">
        <ele>2739.41</ele>
        <time>2022-07-15T09:20:18Z</time>
      </trkpt>
      <trkpt lat="42.4599" lon="1.58535">
        <ele>2739.41</ele>
        <time>2022-07-15T09:20:32Z</time>
      </trkpt>
      <trkpt lat="42.45989" lon="1.58535">
        <ele>2739.41</ele>
        <time>2022-07-15T09:20:58Z</time>
      </trkpt>
      <trkpt lat="42.45989" lon="1.58536">
        <ele>2739.41</ele>
        <time>2022-07-15T09:21:26Z</time>
      </trkpt>
      <trkpt lat="42.45989" lon="1.58537">
        <ele>2739.41</ele>
        <time>2022-07-15T09:21:51Z</time>
      </trkpt>
      <trkpt lat="42.4599" lon="1.58535">
        <ele>2739.41</ele>
        <time>2022-07-15T09:22:26Z</time>
      </trkpt>
      <trkpt lat="42.45989" lon="1.5854">
        <ele>2738.45</ele>
        <time>2022-07-15T09:22:38Z</time>
      </trkpt>
      <trkpt lat="42.45989" lon="1.58543">
        <ele>2737.97</ele>
        <time>2022-07-15T09:22:41Z</time>
      </trkpt>
      <trkpt lat="42.45994" lon="1.58549">
        <ele>2735.57</ele>
        <time>2022-07-15T09:22:49Z</time>
      </trkpt>
      <trkpt lat="42.46004" lon="1.58557">
        <ele>2732.2</ele>
        <time>2022-07-15T09:23:02Z</time>
      </trkpt>
      <trkpt lat="42.46008" lon="1.58564">
        <ele>2731.24</ele>
        <time>2022-07-15T09:23:09Z</time>
      </trkpt>
      <trkpt lat="42.46015" lon="1.58571">
        <ele>2729.32</ele>
        <time>2022-07-15T09:23:17Z</time>
      </trkpt>
      <trkpt lat="42.46026" lon="1.58581">
        <ele>2725.96</ele>
        <time>2022-07-15T09:23:29Z</time>
      </trkpt>
      <trkpt lat="42.4603" lon="1.58587">
        <ele>2724.99</ele>
        <time>2022-07-15T09:23:34Z</time>
      </trkpt>
      <trkpt lat="42.46037" lon="1.58598">
        <ele>2722.11</ele>
        <time>2022-07-15T09:23:45Z</time>
      </trkpt>
      <trkpt lat="42.46043" lon="1.58603">
        <ele>2721.15</ele>
        <time>2022-07-15T09:23:52Z</time>
      </trkpt>
      <trkpt lat="42.46055" lon="1.58616">
        <ele>2719.23</ele>
        <time>2022-07-15T09:24:06Z</time>
      </trkpt>
      <trkpt lat="42.46056" lon="1.58619">
        <ele>2718.27</ele>
        <time>2022-07-15T09:24:21Z</time>
      </trkpt>
      <trkpt lat="42.46059" lon="1.58621">
        <ele>2716.34</ele>
        <time>2022-07-15T09:24:33Z</time>
      </trkpt>
      <trkpt lat="42.46061" lon="1.58623">
        <ele>2714.9</ele>
        <time>2022-07-15T09:24:40Z</time>
      </trkpt>
      <trkpt lat="42.46064" lon="1.58624">
        <ele>2713.46</ele>
        <time>2022-07-15T09:24:53Z</time>
      </trkpt>
      <trkpt lat="42.46072" lon="1.58631">
        <ele>2710.57</ele>
        <time>2022-07-15T09:25:05Z</time>
      </trkpt>
      <trkpt lat="42.46077" lon="1.58639">
        <ele>2708.17</ele>
        <time>2022-07-15T09:25:19Z</time>
      </trkpt>
      <trkpt lat="42.46077" lon="1.58646">
        <ele>2705.77</ele>
        <time>2022-07-15T09:25:34Z</time>
      </trkpt>
      <trkpt lat="42.46082" lon="1.58651">
        <ele>2703.36</ele>
        <time>2022-07-15T09:25:46Z</time>
      </trkpt>
      <trkpt lat="42.46086" lon="1.58656">
        <ele>2700.96</ele>
        <time>2022-07-15T09:26:00Z</time>
      </trkpt>
      <trkpt lat="42.46092" lon="1.5866">
        <ele>2698.08</ele>
        <time>2022-07-15T09:26:14Z</time>
      </trkpt>
      <trkpt lat="42.46098" lon="1.58664">
        <ele>2695.67</ele>
        <time>2022-07-15T09:26:25Z</time>
      </trkpt>
      <trkpt lat="42.46104" lon="1.58668">
        <ele>2693.75</ele>
        <time>2022-07-15T09:26:36Z</time>
      </trkpt>
      <trkpt lat="42.46105" lon="1.58667">
        <ele>2692.79</ele>
        <time>2022-07-15T09:26:39Z</time>
      </trkpt>
      <trkpt lat="42.4611" lon="1.58671">
        <ele>2690.87</ele>
        <time>2022-07-15T09:26:51Z</time>
      </trkpt>
      <trkpt lat="42.46114" lon="1.58675">
        <ele>2688.46</ele>
        <time>2022-07-15T09:27:04Z</time>
      </trkpt>
      <trkpt lat="42.46112" lon="1.58675">
        <ele>2688.46</ele>
        <time>2022-07-15T09:27:10Z</time>
      </trkpt>
      <trkpt lat="42.46109" lon="1.58683">
        <ele>2685.1</ele>
        <time>2022-07-15T09:27:20Z</time>
      </trkpt>
      <trkpt lat="42.46113" lon="1.58688">
        <ele>2682.7</ele>
        <time>2022-07-15T09:27:34Z</time>
      </trkpt>
      <trkpt lat="42.46121" lon="1.58697">
        <ele>2679.81</ele>
        <time>2022-07-15T09:27:47Z</time>
      </trkpt>
      <trkpt lat="42.46125" lon="1.58701">
        <ele>2677.41</ele>
        <time>2022-07-15T09:27:59Z</time>
      </trkpt>
      <trkpt lat="42.46129" lon="1.58704">
        <ele>2674.04</ele>
        <time>2022-07-15T09:28:10Z</time>
      </trkpt>
      <trkpt lat="42.46135" lon="1.58713">
        <ele>2671.64</ele>
        <time>2022-07-15T09:28:23Z</time>
      </trkpt>
      <trkpt lat="42.46139" lon="1.58716">
        <ele>2669.72</ele>
        <time>2022-07-15T09:28:30Z</time>
      </trkpt>
      <trkpt lat="42.46142" lon="1.5873">
        <ele>2666.35</ele>
        <time>2022-07-15T09:28:43Z</time>
      </trkpt>
      <trkpt lat="42.46144" lon="1.58733">
        <ele>2664.91</ele>
        <time>2022-07-15T09:28:52Z</time>
      </trkpt>
      <trkpt lat="42.46158" lon="1.58743">
        <ele>2662.51</ele>
        <time>2022-07-15T09:29:06Z</time>
      </trkpt>
      <trkpt lat="42.46164" lon="1.58749">
        <ele>2661.55</ele>
        <time>2022-07-15T09:29:21Z</time>
      </trkpt>
      <trkpt lat="42.46166" lon="1.58752">
        <ele>2661.55</ele>
        <time>2022-07-15T09:29:36Z</time>
      </trkpt>
      <trkpt lat="42.46169" lon="1.58747">
        <ele>2661.07</ele>
        <time>2022-07-15T09:29:50Z</time>
      </trkpt>
      <trkpt lat="42.46173" lon="1.58755">
        <ele>2660.59</ele>
        <time>2022-07-15T09:30:03Z</time>
      </trkpt>
      <trkpt lat="42.46176" lon="1.58756">
        <ele>2660.11</ele>
        <time>2022-07-15T09:30:18Z</time>
      </trkpt>
      <trkpt lat="42.46178" lon="1.58756">
        <ele>2659.62</ele>
        <time>2022-07-15T09:30:32Z</time>
      </trkpt>
      <trkpt lat="42.46178" lon="1.58756">
        <ele>2659.62</ele>
        <time>2022-07-15T09:30:56Z</time>
      </trkpt>
      <trkpt lat="42.46174" lon="1.58753">
        <ele>2659.62</ele>
        <time>2022-07-15T09:31:30Z</time>
      </trkpt>
      <trkpt lat="42.46179" lon="1.58756">
        <ele>2659.14</ele>
        <time>2022-07-15T09:32:03Z</time>
      </trkpt>
      <trkpt lat="42.46178" lon="1.58754">
        <ele>2657.7</ele>
        <time>2022-07-15T09:32:18Z</time>
      </trkpt>
      <trkpt lat="42.46186" lon="1.5876">
        <ele>2655.3</ele>
        <time>2022-07-15T09:32:33Z</time>
      </trkpt>
      <trkpt lat="42.46186" lon="1.58765">
        <ele>2653.38</ele>
        <time>2022-07-15T09:32:45Z</time>
      </trkpt>
      <trkpt lat="42.46185" lon="1.58768">
        <ele>2650.01</ele>
        <time>2022-07-15T09:33:00Z</time>
      </trkpt>
      <trkpt lat="42.46193" lon="1.58772">
        <ele>2646.65</ele>
        <time>2022-07-15T09:33:13Z</time>
      </trkpt>
      <trkpt lat="42.46201" lon="1.58781">
        <ele>2644.72</ele>
        <time>2022-07-15T09:33:25Z</time>
      </trkpt>
      <trkpt lat="42.46208" lon="1.58794">
        <ele>2640.88</ele>
        <time>2022-07-15T09:33:40Z</time>
      </trkpt>
      <trkpt lat="42.46215" lon="1.58805">
        <ele>2637.99</ele>
        <time>2022-07-15T09:33:55Z</time>
      </trkpt>
      <trkpt lat="42.46228" lon="1.58817">
        <ele>2635.59</ele>
        <time>2022-07-15T09:34:08Z</time>
      </trkpt>
      <trkpt lat="42.4623" lon="1.58815">
        <ele>2634.15</ele>
        <time>2022-07-15T09:34:21Z</time>
      </trkpt>
      <trkpt lat="42.46229" lon="1.58825">
        <ele>2634.15</ele>
        <time>2022-07-15T09:34:28Z</time>
      </trkpt>
      <trkpt lat="42.46229" lon="1.58828">
        <ele>2634.15</ele>
        <time>2022-07-15T09:34:30Z</time>
      </trkpt>
      <trkpt lat="42.46235" lon="1.58836">
        <ele>2632.23</ele>
        <time>2022-07-15T09:34:42Z</time>
      </trkpt>
      <trkpt lat="42.46245" lon="1.58848">
        <ele>2628.86</ele>
        <time>2022-07-15T09:34:56Z</time>
      </trkpt>
      <trkpt lat="42.4625" lon="1.58853">
        <ele>2627.9</ele>
        <time>2022-07-15T09:35:04Z</time>
      </trkpt>
      <trkpt lat="42.46257" lon="1.58857">
        <ele>2625.5</ele>
        <time>2022-07-15T09:35:13Z</time>
      </trkpt>
      <trkpt lat="42.46262" lon="1.58866">
        <ele>2624.06</ele>
        <time>2022-07-15T09:35:20Z</time>
      </trkpt>
      <trkpt lat="42.46268" lon="1.58872">
        <ele>2623.09</ele>
        <time>2022-07-15T09:35:27Z</time>
      </trkpt>
      <trkpt lat="42.46274" lon="1.58876">
        <ele>2621.65</ele>
        <time>2022-07-15T09:35:33Z</time>
      </trkpt>
      <trkpt lat="42.46279" lon="1.58882">
        <ele>2618.77</ele>
        <time>2022-07-15T09:35:45Z</time>
      </trkpt>
      <trkpt lat="42.4628" lon="1.5889">
        <ele>2616.37</ele>
        <time>2022-07-15T09:35:56Z</time>
      </trkpt>
      <trkpt lat="42.46287" lon="1.58893">
        <ele>2613.96</ele>
        <time>2022-07-15T09:36:07Z</time>
      </trkpt>
      <trkpt lat="42.46298" lon="1.58898">
        <ele>2611.56</ele>
        <time>2022-07-15T09:36:19Z</time>
      </trkpt>
      <trkpt lat="42.463" lon="1.58903">
        <ele>2608.67</ele>
        <time>2022-07-15T09:36:30Z</time>
      </trkpt>
      <trkpt lat="42.46304" lon="1.58908">
        <ele>2605.31</ele>
        <time>2022-07-15T09:36:44Z</time>
      </trkpt>
      <trkpt lat="42.46307" lon="1.5892">
        <ele>2602.91</ele>
        <time>2022-07-15T09:36:57Z</time>
      </trkpt>
      <trkpt lat="42.46321" lon="1.58935">
        <ele>2600.02</ele>
        <time>2022-07-15T09:37:12Z</time>
      </trkpt>
      <trkpt lat="42.46334" lon="1.58946">
        <ele>2598.58</ele>
        <time>2022-07-15T09:37:26Z</time>
      </trkpt>
      <trkpt lat="42.4635" lon="1.58966">
        <ele>2596.66</ele>
        <time>2022-07-15T09:37:43Z</time>
      </trkpt>
      <trkpt lat="42.4635" lon="1.58967">
        <ele>2596.66</ele>
        <time>2022-07-15T09:37:44Z</time>
      </trkpt>
      <trkpt lat="42.46358" lon="1.58975">
        <ele>2594.74</ele>
        <time>2022-07-15T09:37:57Z</time>
      </trkpt>
      <trkpt lat="42.46361" lon="1.58975">
        <ele>2593.77</ele>
        <time>2022-07-15T09:38:02Z</time>
      </trkpt>
      <trkpt lat="42.46362" lon="1.58971">
        <ele>2592.33</ele>
        <time>2022-07-15T09:38:09Z</time>
      </trkpt>
      <trkpt lat="42.46365" lon="1.58968">
        <ele>2591.37</ele>
        <time>2022-07-15T09:38:14Z</time>
      </trkpt>
      <trkpt lat="42.46366" lon="1.58965">
        <ele>2590.41</ele>
        <time>2022-07-15T09:38:17Z</time>
      </trkpt>
      <trkpt lat="42.46369" lon="1.58955">
        <ele>2588.49</ele>
        <time>2022-07-15T09:38:25Z</time>
      </trkpt>
      <trkpt lat="42.46373" lon="1.58945">
        <ele>2587.04</ele>
        <time>2022-07-15T09:38:39Z</time>
      </trkpt>
      <trkpt lat="42.46374" lon="1.58939">
        <ele>2584.16</ele>
        <time>2022-07-15T09:38:52Z</time>
      </trkpt>
      <trkpt lat="42.46374" lon="1.58935">
        <ele>2581.28</ele>
        <time>2022-07-15T09:39:05Z</time>
      </trkpt>
      <trkpt lat="42.46377" lon="1.58927">
        <ele>2578.39</ele>
        <time>2022-07-15T09:39:16Z</time>
      </trkpt>
      <trkpt lat="42.46378" lon="1.58926">
        <ele>2578.39</ele>
        <time>2022-07-15T09:39:18Z</time>
      </trkpt>
      <trkpt lat="42.46385" lon="1.58919">
        <ele>2576.47</ele>
        <time>2022-07-15T09:39:30Z</time>
      </trkpt>
      <trkpt lat="42.46392" lon="1.58915">
        <ele>2573.11</ele>
        <time>2022-07-15T09:39:44Z</time>
      </trkpt>
      <trkpt lat="42.46392" lon="1.58914">
        <ele>2572.63</ele>
        <time>2022-07-15T09:39:59Z</time>
      </trkpt>
      <trkpt lat="42.46388" lon="1.58912">
        <ele>2571.18</ele>
        <time>2022-07-15T09:40:05Z</time>
      </trkpt>
      <trkpt lat="42.4638" lon="1.58904">
        <ele>2568.78</ele>
        <time>2022-07-15T09:40:17Z</time>
      </trkpt>
      <trkpt lat="42.46375" lon="1.58891">
        <ele>2565.42</ele>
        <time>2022-07-15T09:40:31Z</time>
      </trkpt>
      <trkpt lat="42.4638" lon="1.58885">
        <ele>2563.01</ele>
        <time>2022-07-15T09:40:44Z</time>
      </trkpt>
      <trkpt lat="42.46386" lon="1.58884">
        <ele>2561.09</ele>
        <time>2022-07-15T09:40:57Z</time>
      </trkpt>
      <trkpt lat="42.46395" lon="1.58882">
        <ele>2557.24</ele>
        <time>2022-07-15T09:41:11Z</time>
      </trkpt>
      <trkpt lat="42.46402" lon="1.5888">
        <ele>2554.84</ele>
        <time>2022-07-15T09:41:24Z</time>
      </trkpt>
      <trkpt lat="42.46402" lon="1.5888">
        <ele>2554.84</ele>
        <time>2022-07-15T09:41:25Z</time>
      </trkpt>
      <trkpt lat="42.46409" lon="1.58879">
        <ele>2552.92</ele>
        <time>2022-07-15T09:41:37Z</time>
      </trkpt>
      <trkpt lat="42.46406" lon="1.58875">
        <ele>2551.48</ele>
        <time>2022-07-15T09:41:53Z</time>
      </trkpt>
      <trkpt lat="42.46407" lon="1.58876">
        <ele>2551</ele>
        <time>2022-07-15T09:42:08Z</time>
      </trkpt>
      <trkpt lat="42.46409" lon="1.58871">
        <ele>2550.51</ele>
        <time>2022-07-15T09:42:40Z</time>
      </trkpt>
      <trkpt lat="42.46404" lon="1.5887">
        <ele>2549.55</ele>
        <time>2022-07-15T09:42:54Z</time>
      </trkpt>
      <trkpt lat="42.46397" lon="1.58864">
        <ele>2547.15</ele>
        <time>2022-07-15T09:43:17Z</time>
      </trkpt>
      <trkpt lat="42.46398" lon="1.58862">
        <ele>2543.79</ele>
        <time>2022-07-15T09:43:28Z</time>
      </trkpt>
      <trkpt lat="42.46401" lon="1.58857">
        <ele>2541.38</ele>
        <time>2022-07-15T09:43:42Z</time>
      </trkpt>
      <trkpt lat="42.46398" lon="1.58853">
        <ele>2539.46</ele>
        <time>2022-07-15T09:43:52Z</time>
      </trkpt>
      <trkpt lat="42.46406" lon="1.58849">
        <ele>2536.58</ele>
        <time>2022-07-15T09:44:08Z</time>
      </trkpt>
      <trkpt lat="42.4641" lon="1.5885">
        <ele>2535.13</ele>
        <time>2022-07-15T09:44:20Z</time>
      </trkpt>
      <trkpt lat="42.46416" lon="1.58848">
        <ele>2533.21</ele>
        <time>2022-07-15T09:44:31Z</time>
      </trkpt>
      <trkpt lat="42.46416" lon="1.58843">
        <ele>2531.29</ele>
        <time>2022-07-15T09:44:41Z</time>
      </trkpt>
      <trkpt lat="42.46411" lon="1.58839">
        <ele>2529.37</ele>
        <time>2022-07-15T09:44:59Z</time>
      </trkpt>
      <trkpt lat="42.46408" lon="1.58839">
        <ele>2528.89</ele>
        <time>2022-07-15T09:45:07Z</time>
      </trkpt>
      <trkpt lat="42.46401" lon="1.58831">
        <ele>2525.52</ele>
        <time>2022-07-15T09:45:19Z</time>
      </trkpt>
      <trkpt lat="42.46397" lon="1.58823">
        <ele>2524.08</ele>
        <time>2022-07-15T09:45:31Z</time>
      </trkpt>
      <trkpt lat="42.46397" lon="1.58823">
        <ele>2523.12</ele>
        <time>2022-07-15T09:45:46Z</time>
      </trkpt>
      <trkpt lat="42.46397" lon="1.58824">
        <ele>2522.64</ele>
        <time>2022-07-15T09:46:16Z</time>
      </trkpt>
      <trkpt lat="42.464" lon="1.58821">
        <ele>2522.16</ele>
        <time>2022-07-15T09:46:46Z</time>
      </trkpt>
      <trkpt lat="42.46401" lon="1.58821">
        <ele>2522.16</ele>
        <time>2022-07-15T09:46:49Z</time>
      </trkpt>
      <trkpt lat="42.46409" lon="1.58822">
        <ele>2519.27</ele>
        <time>2022-07-15T09:47:01Z</time>
      </trkpt>
      <trkpt lat="42.46407" lon="1.58812">
        <ele>2516.87</ele>
        <time>2022-07-15T09:47:14Z</time>
      </trkpt>
      <trkpt lat="42.46407" lon="1.58806">
        <ele>2514.95</ele>
        <time>2022-07-15T09:47:25Z</time>
      </trkpt>
      <trkpt lat="42.46408" lon="1.588">
        <ele>2512.54</ele>
        <time>2022-07-15T09:47:40Z</time>
      </trkpt>
      <trkpt lat="42.46408" lon="1.58792">
        <ele>2509.66</ele>
        <time>2022-07-15T09:47:51Z</time>
      </trkpt>
      <trkpt lat="42.46412" lon="1.58788">
        <ele>2506.77</ele>
        <time>2022-07-15T09:48:02Z</time>
      </trkpt>
      <trkpt lat="42.4642" lon="1.58784">
        <ele>2503.41</ele>
        <time>2022-07-15T09:48:15Z</time>
      </trkpt>
      <trkpt lat="42.46424" lon="1.5878">
        <ele>2502.45</ele>
        <time>2022-07-15T09:48:28Z</time>
      </trkpt>
      <trkpt lat="42.46427" lon="1.58778">
        <ele>2500.53</ele>
        <time>2022-07-15T09:48:31Z</time>
      </trkpt>
      <trkpt lat="42.46431" lon="1.58774">
        <ele>2497.16</ele>
        <time>2022-07-15T09:48:40Z</time>
      </trkpt>
      <trkpt lat="42.46437" lon="1.58771">
        <ele>2494.28</ele>
        <time>2022-07-15T09:48:52Z</time>
      </trkpt>
      <trkpt lat="42.46439" lon="1.58766">
        <ele>2492.36</ele>
        <time>2022-07-15T09:49:02Z</time>
      </trkpt>
      <trkpt lat="42.46441" lon="1.58761">
        <ele>2490.91</ele>
        <time>2022-07-15T09:49:24Z</time>
      </trkpt>
      <trkpt lat="42.46448" lon="1.58755">
        <ele>2488.03</ele>
        <time>2022-07-15T09:49:38Z</time>
      </trkpt>
      <trkpt lat="42.46452" lon="1.58753">
        <ele>2486.11</ele>
        <time>2022-07-15T09:49:45Z</time>
      </trkpt>
      <trkpt lat="42.46462" lon="1.58748">
        <ele>2483.7</ele>
        <time>2022-07-15T09:49:59Z</time>
      </trkpt>
      <trkpt lat="42.46469" lon="1.58739">
        <ele>2482.26</ele>
        <time>2022-07-15T09:50:09Z</time>
      </trkpt>
      <trkpt lat="42.46484" lon="1.58728">
        <ele>2479.38</ele>
        <time>2022-07-15T09:50:25Z</time>
      </trkpt>
      <trkpt lat="42.4649" lon="1.58724">
        <ele>2477.94</ele>
        <time>2022-07-15T09:50:32Z</time>
      </trkpt>
      <trkpt lat="42.46492" lon="1.58723">
        <ele>2477.94</ele>
        <time>2022-07-15T09:50:34Z</time>
      </trkpt>
      <trkpt lat="42.46507" lon="1.58711">
        <ele>2474.57</ele>
        <time>2022-07-15T09:50:49Z</time>
      </trkpt>
      <trkpt lat="42.4652" lon="1.58702">
        <ele>2473.61</ele>
        <time>2022-07-15T09:51:02Z</time>
      </trkpt>
      <trkpt lat="42.46529" lon="1.58701">
        <ele>2472.65</ele>
        <time>2022-07-15T09:51:15Z</time>
      </trkpt>
      <trkpt lat="42.4654" lon="1.58697">
        <ele>2472.17</ele>
        <time>2022-07-15T09:51:29Z</time>
      </trkpt>
      <trkpt lat="42.4655" lon="1.5869">
        <ele>2472.17</ele>
        <time>2022-07-15T09:51:44Z</time>
      </trkpt>
      <trkpt lat="42.46555" lon="1.58696">
        <ele>2472.17</ele>
        <time>2022-07-15T09:51:55Z</time>
      </trkpt>
      <trkpt lat="42.46555" lon="1.58697">
        <ele>2471.69</ele>
        <time>2022-07-15T09:52:11Z</time>
      </trkpt>
      <trkpt lat="42.46563" lon="1.58698">
        <ele>2471.21</ele>
        <time>2022-07-15T09:52:27Z</time>
      </trkpt>
      <trkpt lat="42.46574" lon="1.58698">
        <ele>2471.21</ele>
        <time>2022-07-15T09:52:41Z</time>
      </trkpt>
      <trkpt lat="42.46584" lon="1.58699">
        <ele>2471.21</ele>
        <time>2022-07-15T09:52:54Z</time>
      </trkpt>
      <trkpt lat="42.46595" lon="1.58703">
        <ele>2470.73</ele>
        <time>2022-07-15T09:53:09Z</time>
      </trkpt>
      <trkpt lat="42.46602" lon="1.58711">
        <ele>2470.73</ele>
        <time>2022-07-15T09:53:21Z</time>
      </trkpt>
      <trkpt lat="42.46607" lon="1.58717">
        <ele>2471.69</ele>
        <time>2022-07-15T09:53:33Z</time>
      </trkpt>
      <trkpt lat="42.4661" lon="1.58718">
        <ele>2471.69</ele>
        <time>2022-07-15T09:53:38Z</time>
      </trkpt>
      <trkpt lat="42.46617" lon="1.5873">
        <ele>2471.69</ele>
        <time>2022-07-15T09:53:51Z</time>
      </trkpt>
      <trkpt lat="42.46625" lon="1.58741">
        <ele>2471.69</ele>
        <time>2022-07-15T09:54:04Z</time>
      </trkpt>
      <trkpt lat="42.46627" lon="1.58746">
        <ele>2471.69</ele>
        <time>2022-07-15T09:54:15Z</time>
      </trkpt>
      <trkpt lat="42.46632" lon="1.5875">
        <ele>2471.69</ele>
        <time>2022-07-15T09:54:28Z</time>
      </trkpt>
      <trkpt lat="42.46633" lon="1.5875">
        <ele>2471.69</ele>
        <time>2022-07-15T09:54:29Z</time>
      </trkpt>
      <trkpt lat="42.4664" lon="1.58755">
        <ele>2471.69</ele>
        <time>2022-07-15T09:54:42Z</time>
      </trkpt>
      <trkpt lat="42.46641" lon="1.58755">
        <ele>2471.69</ele>
        <time>2022-07-15T09:54:44Z</time>
      </trkpt>
      <trkpt lat="42.46653" lon="1.58759">
        <ele>2471.21</ele>
        <time>2022-07-15T09:54:58Z</time>
      </trkpt>
      <trkpt lat="42.46655" lon="1.58759">
        <ele>2471.21</ele>
        <time>2022-07-15T09:55:00Z</time>
      </trkpt>
      <trkpt lat="42.4666" lon="1.5876">
        <ele>2471.69</ele>
        <time>2022-07-15T09:55:06Z</time>
      </trkpt>
      <trkpt lat="42.4667" lon="1.5876">
        <ele>2470.24</ele>
        <time>2022-07-15T09:55:14Z</time>
      </trkpt>
      <trkpt lat="42.46671" lon="1.5876">
        <ele>2470.24</ele>
        <time>2022-07-15T09:55:15Z</time>
      </trkpt>
      <trkpt lat="42.46677" lon="1.58768">
        <ele>2469.76</ele>
        <time>2022-07-15T09:55:26Z</time>
      </trkpt>
      <trkpt lat="42.46678" lon="1.58772">
        <ele>2469.76</ele>
        <time>2022-07-15T09:55:32Z</time>
      </trkpt>
      <trkpt lat="42.46691" lon="1.58783">
        <ele>2469.28</ele>
        <time>2022-07-15T09:55:48Z</time>
      </trkpt>
      <trkpt lat="42.46697" lon="1.58786">
        <ele>2468.32</ele>
        <time>2022-07-15T09:56:00Z</time>
      </trkpt>
      <trkpt lat="42.46702" lon="1.58791">
        <ele>2465.92</ele>
        <time>2022-07-15T09:56:13Z</time>
      </trkpt>
      <trkpt lat="42.46709" lon="1.58793">
        <ele>2462.55</ele>
        <time>2022-07-15T09:56:25Z</time>
      </trkpt>
      <trkpt lat="42.46716" lon="1.58793">
        <ele>2460.63</ele>
        <time>2022-07-15T09:56:36Z</time>
      </trkpt>
      <trkpt lat="42.46728" lon="1.58792">
        <ele>2458.71</ele>
        <time>2022-07-15T09:56:48Z</time>
      </trkpt>
      <trkpt lat="42.46742" lon="1.58796">
        <ele>2456.31</ele>
        <time>2022-07-15T09:57:01Z</time>
      </trkpt>
      <trkpt lat="42.46748" lon="1.58803">
        <ele>2455.34</ele>
        <time>2022-07-15T09:57:14Z</time>
      </trkpt>
      <trkpt lat="42.46752" lon="1.5881">
        <ele>2455.34</ele>
        <time>2022-07-15T09:57:26Z</time>
      </trkpt>
      <trkpt lat="42.46755" lon="1.58818">
        <ele>2454.38</ele>
        <time>2022-07-15T09:57:38Z</time>
      </trkpt>
      <trkpt lat="42.46755" lon="1.5882">
        <ele>2453.9</ele>
        <time>2022-07-15T09:57:41Z</time>
      </trkpt>
      <trkpt lat="42.4676" lon="1.58832">
        <ele>2452.46</ele>
        <time>2022-07-15T09:57:54Z</time>
      </trkpt>
      <trkpt lat="42.4676" lon="1.58833">
        <ele>2451.98</ele>
        <time>2022-07-15T09:57:55Z</time>
      </trkpt>
      <trkpt lat="42.46767" lon="1.58841">
        <ele>2449.1</ele>
        <time>2022-07-15T09:58:07Z</time>
      </trkpt>
      <trkpt lat="42.46773" lon="1.58844">
        <ele>2447.17</ele>
        <time>2022-07-15T09:58:20Z</time>
      </trkpt>
      <trkpt lat="42.46782" lon="1.5884">
        <ele>2444.29</ele>
        <time>2022-07-15T09:58:33Z</time>
      </trkpt>
      <trkpt lat="42.46787" lon="1.58845">
        <ele>2440.92</ele>
        <time>2022-07-15T09:58:48Z</time>
      </trkpt>
      <trkpt lat="42.46792" lon="1.58845">
        <ele>2439</ele>
        <time>2022-07-15T09:58:58Z</time>
      </trkpt>
      <trkpt lat="42.46798" lon="1.58848">
        <ele>2437.56</ele>
        <time>2022-07-15T09:59:09Z</time>
      </trkpt>
      <trkpt lat="42.46805" lon="1.58846">
        <ele>2434.68</ele>
        <time>2022-07-15T09:59:22Z</time>
      </trkpt>
      <trkpt lat="42.4681" lon="1.58844">
        <ele>2431.31</ele>
        <time>2022-07-15T09:59:34Z</time>
      </trkpt>
      <trkpt lat="42.46812" lon="1.58843">
        <ele>2430.35</ele>
        <time>2022-07-15T09:59:39Z</time>
      </trkpt>
      <trkpt lat="42.46816" lon="1.5884">
        <ele>2427.95</ele>
        <time>2022-07-15T09:59:51Z</time>
      </trkpt>
      <trkpt lat="42.46819" lon="1.58835">
        <ele>2425.06</ele>
        <time>2022-07-15T10:00:03Z</time>
      </trkpt>
      <trkpt lat="42.46827" lon="1.58832">
        <ele>2422.66</ele>
        <time>2022-07-15T10:00:15Z</time>
      </trkpt>
      <trkpt lat="42.46834" lon="1.58834">
        <ele>2419.3</ele>
        <time>2022-07-15T10:00:30Z</time>
      </trkpt>
      <trkpt lat="42.46843" lon="1.58835">
        <ele>2416.41</ele>
        <time>2022-07-15T10:00:43Z</time>
      </trkpt>
      <trkpt lat="42.46849" lon="1.58838">
        <ele>2413.53</ele>
        <time>2022-07-15T10:00:56Z</time>
      </trkpt>
      <trkpt lat="42.46852" lon="1.58839">
        <ele>2412.09</ele>
        <time>2022-07-15T10:01:01Z</time>
      </trkpt>
      <trkpt lat="42.46861" lon="1.58841">
        <ele>2410.16</ele>
        <time>2022-07-15T10:01:12Z</time>
      </trkpt>
      <trkpt lat="42.46875" lon="1.58841">
        <ele>2408.24</ele>
        <time>2022-07-15T10:01:23Z</time>
      </trkpt>
      <trkpt lat="42.46881" lon="1.58841">
        <ele>2407.28</ele>
        <time>2022-07-15T10:01:36Z</time>
      </trkpt>
      <trkpt lat="42.46888" lon="1.5884">
        <ele>2405.84</ele>
        <time>2022-07-15T10:01:50Z</time>
      </trkpt>
      <trkpt lat="42.46894" lon="1.58839">
        <ele>2402.95</ele>
        <time>2022-07-15T10:02:02Z</time>
      </trkpt>
      <trkpt lat="42.46897" lon="1.5884">
        <ele>2401.51</ele>
        <time>2022-07-15T10:02:14Z</time>
      </trkpt>
      <trkpt lat="42.46899" lon="1.5884">
        <ele>2401.03</ele>
        <time>2022-07-15T10:02:26Z</time>
      </trkpt>
      <trkpt lat="42.46904" lon="1.58838">
        <ele>2399.11</ele>
        <time>2022-07-15T10:02:37Z</time>
      </trkpt>
      <trkpt lat="42.46908" lon="1.58838">
        <ele>2396.7</ele>
        <time>2022-07-15T10:02:48Z</time>
      </trkpt>
      <trkpt lat="42.4691" lon="1.58838">
        <ele>2395.74</ele>
        <time>2022-07-15T10:03:01Z</time>
      </trkpt>
      <trkpt lat="42.46911" lon="1.58841">
        <ele>2393.82</ele>
        <time>2022-07-15T10:03:14Z</time>
      </trkpt>
      <trkpt lat="42.46916" lon="1.58843">
        <ele>2392.38</ele>
        <time>2022-07-15T10:03:29Z</time>
      </trkpt>
      <trkpt lat="42.46919" lon="1.58845">
        <ele>2389.97</ele>
        <time>2022-07-15T10:03:41Z</time>
      </trkpt>
      <trkpt lat="42.46922" lon="1.58851">
        <ele>2387.57</ele>
        <time>2022-07-15T10:03:53Z</time>
      </trkpt>
      <trkpt lat="42.46927" lon="1.58853">
        <ele>2385.65</ele>
        <time>2022-07-15T10:04:04Z</time>
      </trkpt>
      <trkpt lat="42.4693" lon="1.58861">
        <ele>2383.25</ele>
        <time>2022-07-15T10:04:16Z</time>
      </trkpt>
      <trkpt lat="42.4694" lon="1.58867">
        <ele>2380.36</ele>
        <time>2022-07-15T10:04:30Z</time>
      </trkpt>
      <trkpt lat="42.46942" lon="1.58872">
        <ele>2379.4</ele>
        <time>2022-07-15T10:04:35Z</time>
      </trkpt>
      <trkpt lat="42.46944" lon="1.58876">
        <ele>2377.96</ele>
        <time>2022-07-15T10:04:40Z</time>
      </trkpt>
      <trkpt lat="42.46955" lon="1.58881">
        <ele>2376.04</ele>
        <time>2022-07-15T10:04:54Z</time>
      </trkpt>
      <trkpt lat="42.46961" lon="1.58881">
        <ele>2374.59</ele>
        <time>2022-07-15T10:05:13Z</time>
      </trkpt>
      <trkpt lat="42.46962" lon="1.58887">
        <ele>2374.11</ele>
        <time>2022-07-15T10:05:23Z</time>
      </trkpt>
      <trkpt lat="42.46961" lon="1.58886">
        <ele>2374.11</ele>
        <time>2022-07-15T10:05:42Z</time>
      </trkpt>
      <trkpt lat="42.4696" lon="1.58886">
        <ele>2374.11</ele>
        <time>2022-07-15T10:06:10Z</time>
      </trkpt>
      <trkpt lat="42.46958" lon="1.58886">
        <ele>2373.63</ele>
        <time>2022-07-15T10:06:29Z</time>
      </trkpt>
      <trkpt lat="42.4696" lon="1.58884">
        <ele>2373.63</ele>
        <time>2022-07-15T10:06:33Z</time>
      </trkpt>
      <trkpt lat="42.46966" lon="1.58885">
        <ele>2373.15</ele>
        <time>2022-07-15T10:06:48Z</time>
      </trkpt>
      <trkpt lat="42.46975" lon="1.58887">
        <ele>2373.15</ele>
        <time>2022-07-15T10:07:00Z</time>
      </trkpt>
      <trkpt lat="42.46984" lon="1.58889">
        <ele>2372.19</ele>
        <time>2022-07-15T10:07:11Z</time>
      </trkpt>
      <trkpt lat="42.46994" lon="1.5889">
        <ele>2372.19</ele>
        <time>2022-07-15T10:07:23Z</time>
      </trkpt>
      <trkpt lat="42.47003" lon="1.5889">
        <ele>2371.71</ele>
        <time>2022-07-15T10:07:36Z</time>
      </trkpt>
      <trkpt lat="42.47007" lon="1.58897">
        <ele>2371.71</ele>
        <time>2022-07-15T10:07:48Z</time>
      </trkpt>
      <trkpt lat="42.47007" lon="1.58904">
        <ele>2371.71</ele>
        <time>2022-07-15T10:07:59Z</time>
      </trkpt>
      <trkpt lat="42.47001" lon="1.58911">
        <ele>2371.71</ele>
        <time>2022-07-15T10:08:11Z</time>
      </trkpt>
      <trkpt lat="42.46998" lon="1.58918">
        <ele>2372.67</ele>
        <time>2022-07-15T10:08:26Z</time>
      </trkpt>
      <trkpt lat="42.46997" lon="1.58919">
        <ele>2373.15</ele>
        <time>2022-07-15T10:08:39Z</time>
      </trkpt>
      <trkpt lat="42.47003" lon="1.58919">
        <ele>2373.15</ele>
        <time>2022-07-15T10:08:58Z</time>
      </trkpt>
      <trkpt lat="42.47005" lon="1.58919">
        <ele>2373.15</ele>
        <time>2022-07-15T10:09:11Z</time>
      </trkpt>
      <trkpt lat="42.47" lon="1.58921">
        <ele>2373.15</ele>
        <time>2022-07-15T10:09:22Z</time>
      </trkpt>
      <trkpt lat="42.47002" lon="1.58919">
        <ele>2373.15</ele>
        <time>2022-07-15T10:09:47Z</time>
      </trkpt>
      <trkpt lat="42.47" lon="1.58919">
        <ele>2373.15</ele>
        <time>2022-07-15T10:10:11Z</time>
      </trkpt>
      <trkpt lat="42.47002" lon="1.5892">
        <ele>2372.67</ele>
        <time>2022-07-15T10:10:40Z</time>
      </trkpt>
      <trkpt lat="42.47007" lon="1.58924">
        <ele>2372.67</ele>
        <time>2022-07-15T10:11:03Z</time>
      </trkpt>
      <trkpt lat="42.47004" lon="1.58928">
        <ele>2373.15</ele>
        <time>2022-07-15T10:11:18Z</time>
      </trkpt>
      <trkpt lat="42.47004" lon="1.58928">
        <ele>2373.15</ele>
        <time>2022-07-15T10:11:35Z</time>
      </trkpt>
      <trkpt lat="42.47003" lon="1.58928">
        <ele>2372.67</ele>
        <time>2022-07-15T10:11:40Z</time>
      </trkpt>
      <trkpt lat="42.47011" lon="1.58913">
        <ele>2366.9</ele>
        <time>2022-07-15T11:23:46Z</time>
      </trkpt>
      <trkpt lat="42.47011" lon="1.58921">
        <ele>2366.9</ele>
        <time>2022-07-15T11:24:03Z</time>
      </trkpt>
      <trkpt lat="42.47009" lon="1.58921">
        <ele>2367.38</ele>
        <time>2022-07-15T11:24:19Z</time>
      </trkpt>
      <trkpt lat="42.47004" lon="1.5892">
        <ele>2364.02</ele>
        <time>2022-07-15T11:24:37Z</time>
      </trkpt>
      <trkpt lat="42.47004" lon="1.58921">
        <ele>2363.06</ele>
        <time>2022-07-15T11:24:49Z</time>
      </trkpt>
      <trkpt lat="42.47007" lon="1.58926">
        <ele>2361.62</ele>
        <time>2022-07-15T11:25:03Z</time>
      </trkpt>
      <trkpt lat="42.47007" lon="1.58926">
        <ele>2361.62</ele>
        <time>2022-07-15T11:25:04Z</time>
      </trkpt>
      <trkpt lat="42.47011" lon="1.58925">
        <ele>2359.69</ele>
        <time>2022-07-15T11:25:16Z</time>
      </trkpt>
      <trkpt lat="42.47018" lon="1.58925">
        <ele>2358.25</ele>
        <time>2022-07-15T11:25:30Z</time>
      </trkpt>
      <trkpt lat="42.47019" lon="1.58925">
        <ele>2358.25</ele>
        <time>2022-07-15T11:25:31Z</time>
      </trkpt>
      <trkpt lat="42.47034" lon="1.58932">
        <ele>2357.29</ele>
        <time>2022-07-15T11:25:47Z</time>
      </trkpt>
      <trkpt lat="42.47042" lon="1.58946">
        <ele>2355.85</ele>
        <time>2022-07-15T11:25:59Z</time>
      </trkpt>
      <trkpt lat="42.47045" lon="1.58954">
        <ele>2354.89</ele>
        <time>2022-07-15T11:26:07Z</time>
      </trkpt>
      <trkpt lat="42.47049" lon="1.58965">
        <ele>2354.41</ele>
        <time>2022-07-15T11:26:16Z</time>
      </trkpt>
      <trkpt lat="42.47061" lon="1.58974">
        <ele>2353.93</ele>
        <time>2022-07-15T11:26:31Z</time>
      </trkpt>
      <trkpt lat="42.47067" lon="1.58978">
        <ele>2353.93</ele>
        <time>2022-07-15T11:26:42Z</time>
      </trkpt>
      <trkpt lat="42.47077" lon="1.58981">
        <ele>2353.93</ele>
        <time>2022-07-15T11:26:53Z</time>
      </trkpt>
      <trkpt lat="42.47082" lon="1.58981">
        <ele>2353.93</ele>
        <time>2022-07-15T11:26:58Z</time>
      </trkpt>
      <trkpt lat="42.47081" lon="1.58988">
        <ele>2353.93</ele>
        <time>2022-07-15T11:27:10Z</time>
      </trkpt>
      <trkpt lat="42.47074" lon="1.58996">
        <ele>2353.44</ele>
        <time>2022-07-15T11:27:22Z</time>
      </trkpt>
      <trkpt lat="42.47071" lon="1.58997">
        <ele>2353.44</ele>
        <time>2022-07-15T11:27:36Z</time>
      </trkpt>
      <trkpt lat="42.47069" lon="1.58996">
        <ele>2353.44</ele>
        <time>2022-07-15T11:27:42Z</time>
      </trkpt>
      <trkpt lat="42.47066" lon="1.58991">
        <ele>2353.44</ele>
        <time>2022-07-15T11:27:47Z</time>
      </trkpt>
      <trkpt lat="42.47065" lon="1.5899">
        <ele>2353.44</ele>
        <time>2022-07-15T11:28:02Z</time>
      </trkpt>
      <trkpt lat="42.47064" lon="1.58991">
        <ele>2353.44</ele>
        <time>2022-07-15T11:28:27Z</time>
      </trkpt>
      <trkpt lat="42.47069" lon="1.58992">
        <ele>2353.44</ele>
        <time>2022-07-15T11:28:51Z</time>
      </trkpt>
      <trkpt lat="42.47069" lon="1.58991">
        <ele>2353.44</ele>
        <time>2022-07-15T11:29:15Z</time>
      </trkpt>
      <trkpt lat="42.47069" lon="1.5899">
        <ele>2353.44</ele>
        <time>2022-07-15T11:29:16Z</time>
      </trkpt>
      <trkpt lat="42.47075" lon="1.58985">
        <ele>2353.44</ele>
        <time>2022-07-15T11:29:26Z</time>
      </trkpt>
      <trkpt lat="42.47088" lon="1.58983">
        <ele>2353.44</ele>
        <time>2022-07-15T11:29:39Z</time>
      </trkpt>
      <trkpt lat="42.47092" lon="1.58982">
        <ele>2353.44</ele>
        <time>2022-07-15T11:29:43Z</time>
      </trkpt>
      <trkpt lat="42.47108" lon="1.58982">
        <ele>2352</ele>
        <time>2022-07-15T11:29:57Z</time>
      </trkpt>
      <trkpt lat="42.47119" lon="1.5898">
        <ele>2351.52</ele>
        <time>2022-07-15T11:30:08Z</time>
      </trkpt>
      <trkpt lat="42.47131" lon="1.58982">
        <ele>2352</ele>
        <time>2022-07-15T11:30:22Z</time>
      </trkpt>
      <trkpt lat="42.47131" lon="1.58981">
        <ele>2352</ele>
        <time>2022-07-15T11:30:42Z</time>
      </trkpt>
      <trkpt lat="42.47132" lon="1.5898">
        <ele>2351.04</ele>
        <time>2022-07-15T11:30:59Z</time>
      </trkpt>
      <trkpt lat="42.47134" lon="1.58982">
        <ele>2352.48</ele>
        <time>2022-07-15T11:31:17Z</time>
      </trkpt>
      <trkpt lat="42.47136" lon="1.58982">
        <ele>2352.48</ele>
        <time>2022-07-15T11:31:30Z</time>
      </trkpt>
      <trkpt lat="42.47138" lon="1.5898">
        <ele>2352.48</ele>
        <time>2022-07-15T11:31:33Z</time>
      </trkpt>
      <trkpt lat="42.47154" lon="1.58967">
        <ele>2352.48</ele>
        <time>2022-07-15T11:31:49Z</time>
      </trkpt>
      <trkpt lat="42.4716" lon="1.58962">
        <ele>2353.44</ele>
        <time>2022-07-15T11:32:01Z</time>
      </trkpt>
      <trkpt lat="42.47168" lon="1.58961">
        <ele>2352.96</ele>
        <time>2022-07-15T11:32:10Z</time>
      </trkpt>
      <trkpt lat="42.47177" lon="1.58962">
        <ele>2352.96</ele>
        <time>2022-07-15T11:32:24Z</time>
      </trkpt>
      <trkpt lat="42.47175" lon="1.58963">
        <ele>2353.44</ele>
        <time>2022-07-15T11:32:50Z</time>
      </trkpt>
      <trkpt lat="42.47178" lon="1.58963">
        <ele>2353.44</ele>
        <time>2022-07-15T11:33:01Z</time>
      </trkpt>
      <trkpt lat="42.47182" lon="1.58963">
        <ele>2353.44</ele>
        <time>2022-07-15T11:33:09Z</time>
      </trkpt>
      <trkpt lat="42.4719" lon="1.58964">
        <ele>2352</ele>
        <time>2022-07-15T11:33:17Z</time>
      </trkpt>
      <trkpt lat="42.47201" lon="1.58965">
        <ele>2351.04</ele>
        <time>2022-07-15T11:33:29Z</time>
      </trkpt>
      <trkpt lat="42.47205" lon="1.58963">
        <ele>2349.6</ele>
        <time>2022-07-15T11:33:33Z</time>
      </trkpt>
      <trkpt lat="42.47212" lon="1.58955">
        <ele>2347.2</ele>
        <time>2022-07-15T11:33:45Z</time>
      </trkpt>
      <trkpt lat="42.47214" lon="1.58952">
        <ele>2346.72</ele>
        <time>2022-07-15T11:33:57Z</time>
      </trkpt>
      <trkpt lat="42.47219" lon="1.58951">
        <ele>2345.75</ele>
        <time>2022-07-15T11:34:04Z</time>
      </trkpt>
      <trkpt lat="42.47228" lon="1.58945">
        <ele>2343.35</ele>
        <time>2022-07-15T11:34:17Z</time>
      </trkpt>
      <trkpt lat="42.47234" lon="1.58943">
        <ele>2342.39</ele>
        <time>2022-07-15T11:34:30Z</time>
      </trkpt>
      <trkpt lat="42.47238" lon="1.58938">
        <ele>2341.43</ele>
        <time>2022-07-15T11:34:45Z</time>
      </trkpt>
      <trkpt lat="42.47238" lon="1.58928">
        <ele>2339.51</ele>
        <time>2022-07-15T11:34:57Z</time>
      </trkpt>
      <trkpt lat="42.47242" lon="1.58921">
        <ele>2339.51</ele>
        <time>2022-07-15T11:35:06Z</time>
      </trkpt>
      <trkpt lat="42.47256" lon="1.5891">
        <ele>2336.62</ele>
        <time>2022-07-15T11:35:21Z</time>
      </trkpt>
      <trkpt lat="42.47271" lon="1.58899">
        <ele>2334.7</ele>
        <time>2022-07-15T11:35:36Z</time>
      </trkpt>
      <trkpt lat="42.47277" lon="1.58897">
        <ele>2332.78</ele>
        <time>2022-07-15T11:35:48Z</time>
      </trkpt>
      <trkpt lat="42.47282" lon="1.58891">
        <ele>2330.85</ele>
        <time>2022-07-15T11:35:56Z</time>
      </trkpt>
      <trkpt lat="42.47289" lon="1.58878">
        <ele>2328.45</ele>
        <time>2022-07-15T11:36:09Z</time>
      </trkpt>
      <trkpt lat="42.47292" lon="1.58865">
        <ele>2326.05</ele>
        <time>2022-07-15T11:36:23Z</time>
      </trkpt>
      <trkpt lat="42.47296" lon="1.58859">
        <ele>2323.64</ele>
        <time>2022-07-15T11:36:31Z</time>
      </trkpt>
      <trkpt lat="42.47303" lon="1.58847">
        <ele>2321.24</ele>
        <time>2022-07-15T11:36:45Z</time>
      </trkpt>
      <trkpt lat="42.47307" lon="1.58836">
        <ele>2319.8</ele>
        <time>2022-07-15T11:36:55Z</time>
      </trkpt>
      <trkpt lat="42.47315" lon="1.58821">
        <ele>2318.36</ele>
        <time>2022-07-15T11:37:08Z</time>
      </trkpt>
      <trkpt lat="42.47322" lon="1.58803">
        <ele>2317.4</ele>
        <time>2022-07-15T11:37:22Z</time>
      </trkpt>
      <trkpt lat="42.47327" lon="1.58783">
        <ele>2317.4</ele>
        <time>2022-07-15T11:37:36Z</time>
      </trkpt>
      <trkpt lat="42.47333" lon="1.58771">
        <ele>2316.43</ele>
        <time>2022-07-15T11:37:47Z</time>
      </trkpt>
      <trkpt lat="42.47342" lon="1.58755">
        <ele>2316.43</ele>
        <time>2022-07-15T11:38:01Z</time>
      </trkpt>
      <trkpt lat="42.47353" lon="1.58736">
        <ele>2314.51</ele>
        <time>2022-07-15T11:38:17Z</time>
      </trkpt>
      <trkpt lat="42.47368" lon="1.58722">
        <ele>2312.59</ele>
        <time>2022-07-15T11:38:34Z</time>
      </trkpt>
      <trkpt lat="42.47374" lon="1.58719">
        <ele>2311.63</ele>
        <time>2022-07-15T11:38:45Z</time>
      </trkpt>
      <trkpt lat="42.47382" lon="1.58712">
        <ele>2310.67</ele>
        <time>2022-07-15T11:39:00Z</time>
      </trkpt>
      <trkpt lat="42.47391" lon="1.58702">
        <ele>2309.7</ele>
        <time>2022-07-15T11:39:16Z</time>
      </trkpt>
      <trkpt lat="42.47401" lon="1.58699">
        <ele>2308.74</ele>
        <time>2022-07-15T11:39:29Z</time>
      </trkpt>
      <trkpt lat="42.47402" lon="1.58699">
        <ele>2308.26</ele>
        <time>2022-07-15T11:39:43Z</time>
      </trkpt>
      <trkpt lat="42.47401" lon="1.587">
        <ele>2308.26</ele>
        <time>2022-07-15T11:40:03Z</time>
      </trkpt>
      <trkpt lat="42.47408" lon="1.58689">
        <ele>2307.3</ele>
        <time>2022-07-15T11:40:17Z</time>
      </trkpt>
      <trkpt lat="42.47417" lon="1.5868">
        <ele>2304.42</ele>
        <time>2022-07-15T11:40:33Z</time>
      </trkpt>
      <trkpt lat="42.47422" lon="1.58673">
        <ele>2301.05</ele>
        <time>2022-07-15T11:40:45Z</time>
      </trkpt>
      <trkpt lat="42.4743" lon="1.58664">
        <ele>2299.13</ele>
        <time>2022-07-15T11:40:59Z</time>
      </trkpt>
      <trkpt lat="42.47434" lon="1.58665">
        <ele>2298.65</ele>
        <time>2022-07-15T11:41:12Z</time>
      </trkpt>
      <trkpt lat="42.47434" lon="1.58666">
        <ele>2298.65</ele>
        <time>2022-07-15T11:41:34Z</time>
      </trkpt>
      <trkpt lat="42.47437" lon="1.58668">
        <ele>2298.65</ele>
        <time>2022-07-15T11:42:00Z</time>
      </trkpt>
      <trkpt lat="42.47438" lon="1.58668">
        <ele>2298.65</ele>
        <time>2022-07-15T11:42:19Z</time>
      </trkpt>
      <trkpt lat="42.47439" lon="1.58668">
        <ele>2298.65</ele>
        <time>2022-07-15T11:42:35Z</time>
      </trkpt>
      <trkpt lat="42.47438" lon="1.58668">
        <ele>2298.65</ele>
        <time>2022-07-15T11:42:54Z</time>
      </trkpt>
      <trkpt lat="42.47439" lon="1.58661">
        <ele>2298.65</ele>
        <time>2022-07-15T11:43:09Z</time>
      </trkpt>
      <trkpt lat="42.47446" lon="1.58648">
        <ele>2297.69</ele>
        <time>2022-07-15T11:43:21Z</time>
      </trkpt>
      <trkpt lat="42.47451" lon="1.58643">
        <ele>2296.25</ele>
        <time>2022-07-15T11:43:28Z</time>
      </trkpt>
      <trkpt lat="42.47455" lon="1.58639">
        <ele>2294.8</ele>
        <time>2022-07-15T11:43:34Z</time>
      </trkpt>
      <trkpt lat="42.47463" lon="1.58632">
        <ele>2292.88</ele>
        <time>2022-07-15T11:43:46Z</time>
      </trkpt>
      <trkpt lat="42.47468" lon="1.58632">
        <ele>2292.4</ele>
        <time>2022-07-15T11:43:59Z</time>
      </trkpt>
      <trkpt lat="42.4747" lon="1.58633">
        <ele>2292.4</ele>
        <time>2022-07-15T11:44:22Z</time>
      </trkpt>
      <trkpt lat="42.4747" lon="1.58623">
        <ele>2291.44</ele>
        <time>2022-07-15T11:44:32Z</time>
      </trkpt>
      <trkpt lat="42.47479" lon="1.58611">
        <ele>2290.48</ele>
        <time>2022-07-15T11:44:45Z</time>
      </trkpt>
      <trkpt lat="42.47491" lon="1.58597">
        <ele>2290</ele>
        <time>2022-07-15T11:45:00Z</time>
      </trkpt>
      <trkpt lat="42.47498" lon="1.58591">
        <ele>2289.04</ele>
        <time>2022-07-15T11:45:07Z</time>
      </trkpt>
      <trkpt lat="42.47507" lon="1.58573">
        <ele>2286.15</ele>
        <time>2022-07-15T11:45:23Z</time>
      </trkpt>
      <trkpt lat="42.47516" lon="1.58563">
        <ele>2283.27</ele>
        <time>2022-07-15T11:45:36Z</time>
      </trkpt>
      <trkpt lat="42.47521" lon="1.58553">
        <ele>2280.38</ele>
        <time>2022-07-15T11:45:48Z</time>
      </trkpt>
      <trkpt lat="42.4753" lon="1.5855">
        <ele>2278.46</ele>
        <time>2022-07-15T11:46:03Z</time>
      </trkpt>
      <trkpt lat="42.47537" lon="1.58546">
        <ele>2276.54</ele>
        <time>2022-07-15T11:46:15Z</time>
      </trkpt>
      <trkpt lat="42.47539" lon="1.58539">
        <ele>2274.62</ele>
        <time>2022-07-15T11:46:27Z</time>
      </trkpt>
      <trkpt lat="42.47538" lon="1.58538">
        <ele>2274.14</ele>
        <time>2022-07-15T11:46:30Z</time>
      </trkpt>
      <trkpt lat="42.47538" lon="1.58531">
        <ele>2271.73</ele>
        <time>2022-07-15T11:46:40Z</time>
      </trkpt>
      <trkpt lat="42.47538" lon="1.58529">
        <ele>2271.25</ele>
        <time>2022-07-15T11:46:42Z</time>
      </trkpt>
      <trkpt lat="42.47539" lon="1.58518">
        <ele>2269.81</ele>
        <time>2022-07-15T11:46:54Z</time>
      </trkpt>
      <trkpt lat="42.47539" lon="1.58509">
        <ele>2266.45</ele>
        <time>2022-07-15T11:47:05Z</time>
      </trkpt>
      <trkpt lat="42.47546" lon="1.585">
        <ele>2263.56</ele>
        <time>2022-07-15T11:47:20Z</time>
      </trkpt>
      <trkpt lat="42.47553" lon="1.58488">
        <ele>2261.16</ele>
        <time>2022-07-15T11:47:34Z</time>
      </trkpt>
      <trkpt lat="42.47557" lon="1.58478">
        <ele>2258.75</ele>
        <time>2022-07-15T11:47:46Z</time>
      </trkpt>
      <trkpt lat="42.47557" lon="1.58476">
        <ele>2257.79</ele>
        <time>2022-07-15T11:47:49Z</time>
      </trkpt>
      <trkpt lat="42.47557" lon="1.58462">
        <ele>2255.39</ele>
        <time>2022-07-15T11:48:02Z</time>
      </trkpt>
      <trkpt lat="42.47561" lon="1.58448">
        <ele>2252.99</ele>
        <time>2022-07-15T11:48:16Z</time>
      </trkpt>
      <trkpt lat="42.47564" lon="1.5844">
        <ele>2252.03</ele>
        <time>2022-07-15T11:48:23Z</time>
      </trkpt>
      <trkpt lat="42.47571" lon="1.58432">
        <ele>2250.1</ele>
        <time>2022-07-15T11:48:34Z</time>
      </trkpt>
      <trkpt lat="42.47572" lon="1.58428">
        <ele>2249.62</ele>
        <time>2022-07-15T11:48:37Z</time>
      </trkpt>
      <trkpt lat="42.47584" lon="1.58414">
        <ele>2247.7</ele>
        <time>2022-07-15T11:48:52Z</time>
      </trkpt>
      <trkpt lat="42.47586" lon="1.58409">
        <ele>2246.26</ele>
        <time>2022-07-15T11:48:56Z</time>
      </trkpt>
      <trkpt lat="42.47588" lon="1.58408">
        <ele>2246.26</ele>
        <time>2022-07-15T11:48:58Z</time>
      </trkpt>
      <trkpt lat="42.476" lon="1.58389">
        <ele>2242.89</ele>
        <time>2022-07-15T11:49:13Z</time>
      </trkpt>
      <trkpt lat="42.47614" lon="1.58364">
        <ele>2241.45</ele>
        <time>2022-07-15T11:49:32Z</time>
      </trkpt>
      <trkpt lat="42.47624" lon="1.58341">
        <ele>2240.49</ele>
        <time>2022-07-15T11:49:49Z</time>
      </trkpt>
      <trkpt lat="42.47631" lon="1.58319">
        <ele>2240.01</ele>
        <time>2022-07-15T11:50:05Z</time>
      </trkpt>
      <trkpt lat="42.47635" lon="1.58311">
        <ele>2240.01</ele>
        <time>2022-07-15T11:50:18Z</time>
      </trkpt>
      <trkpt lat="42.47638" lon="1.5831">
        <ele>2239.53</ele>
        <time>2022-07-15T11:50:33Z</time>
      </trkpt>
      <trkpt lat="42.47636" lon="1.58312">
        <ele>2239.53</ele>
        <time>2022-07-15T11:50:51Z</time>
      </trkpt>
      <trkpt lat="42.47635" lon="1.58315">
        <ele>2239.53</ele>
        <time>2022-07-15T11:51:21Z</time>
      </trkpt>
      <trkpt lat="42.47636" lon="1.58314">
        <ele>2239.53</ele>
        <time>2022-07-15T11:51:47Z</time>
      </trkpt>
      <trkpt lat="42.47637" lon="1.58312">
        <ele>2239.53</ele>
        <time>2022-07-15T11:51:51Z</time>
      </trkpt>
      <trkpt lat="42.47641" lon="1.58304">
        <ele>2239.53</ele>
        <time>2022-07-15T11:51:59Z</time>
      </trkpt>
      <trkpt lat="42.47648" lon="1.58289">
        <ele>2239.53</ele>
        <time>2022-07-15T11:52:12Z</time>
      </trkpt>
      <trkpt lat="42.47655" lon="1.58281">
        <ele>2238.57</ele>
        <time>2022-07-15T11:52:26Z</time>
      </trkpt>
      <trkpt lat="42.47659" lon="1.58274">
        <ele>2237.61</ele>
        <time>2022-07-15T11:52:39Z</time>
      </trkpt>
      <trkpt lat="42.47669" lon="1.58255">
        <ele>2237.61</ele>
        <time>2022-07-15T11:52:56Z</time>
      </trkpt>
      <trkpt lat="42.47675" lon="1.58243">
        <ele>2237.13</ele>
        <time>2022-07-15T11:53:08Z</time>
      </trkpt>
      <trkpt lat="42.47686" lon="1.58229">
        <ele>2236.64</ele>
        <time>2022-07-15T11:53:22Z</time>
      </trkpt>
      <trkpt lat="42.47695" lon="1.58215">
        <ele>2235.68</ele>
        <time>2022-07-15T11:53:37Z</time>
      </trkpt>
      <trkpt lat="42.47702" lon="1.58205">
        <ele>2235.68</ele>
        <time>2022-07-15T11:53:47Z</time>
      </trkpt>
      <trkpt lat="42.47708" lon="1.58198">
        <ele>2235.2</ele>
        <time>2022-07-15T11:53:55Z</time>
      </trkpt>
      <trkpt lat="42.4772" lon="1.58185">
        <ele>2233.28</ele>
        <time>2022-07-15T11:54:10Z</time>
      </trkpt>
      <trkpt lat="42.47722" lon="1.58183">
        <ele>2233.28</ele>
        <time>2022-07-15T11:54:27Z</time>
      </trkpt>
      <trkpt lat="42.47724" lon="1.58176">
        <ele>2232.32</ele>
        <time>2022-07-15T11:54:44Z</time>
      </trkpt>
      <trkpt lat="42.47729" lon="1.58168">
        <ele>2232.32</ele>
        <time>2022-07-15T11:54:59Z</time>
      </trkpt>
      <trkpt lat="42.47728" lon="1.5817">
        <ele>2231.84</ele>
        <time>2022-07-15T11:55:22Z</time>
      </trkpt>
      <trkpt lat="42.47728" lon="1.5817">
        <ele>2231.84</ele>
        <time>2022-07-15T11:55:41Z</time>
      </trkpt>
      <trkpt lat="42.47725" lon="1.58168">
        <ele>2231.84</ele>
        <time>2022-07-15T11:55:49Z</time>
      </trkpt>
      <trkpt lat="42.47719" lon="1.58165">
        <ele>2231.84</ele>
        <time>2022-07-15T11:56:04Z</time>
      </trkpt>
      <trkpt lat="42.47708" lon="1.58154">
        <ele>2231.36</ele>
        <time>2022-07-15T11:56:18Z</time>
      </trkpt>
      <trkpt lat="42.47706" lon="1.5815">
        <ele>2230.88</ele>
        <time>2022-07-15T11:56:22Z</time>
      </trkpt>
      <trkpt lat="42.47701" lon="1.58145">
        <ele>2230.4</ele>
        <time>2022-07-15T11:56:29Z</time>
      </trkpt>
      <trkpt lat="42.477" lon="1.58143">
        <ele>2230.4</ele>
        <time>2022-07-15T11:56:31Z</time>
      </trkpt>
      <trkpt lat="42.47689" lon="1.58135">
        <ele>2229.43</ele>
        <time>2022-07-15T11:56:44Z</time>
      </trkpt>
      <trkpt lat="42.47685" lon="1.58123">
        <ele>2228.47</ele>
        <time>2022-07-15T11:56:57Z</time>
      </trkpt>
      <trkpt lat="42.47682" lon="1.58119">
        <ele>2226.55</ele>
        <time>2022-07-15T11:57:07Z</time>
      </trkpt>
      <trkpt lat="42.47679" lon="1.5812">
        <ele>2226.55</ele>
        <time>2022-07-15T11:57:19Z</time>
      </trkpt>
      <trkpt lat="42.47679" lon="1.58121">
        <ele>2226.55</ele>
        <time>2022-07-15T11:57:31Z</time>
      </trkpt>
      <trkpt lat="42.47676" lon="1.58122">
        <ele>2224.63</ele>
        <time>2022-07-15T12:06:06Z</time>
      </trkpt>
      <trkpt lat="42.47675" lon="1.58119">
        <ele>2224.63</ele>
        <time>2022-07-15T12:06:07Z</time>
      </trkpt>
      <trkpt lat="42.47673" lon="1.58116">
        <ele>2226.07</ele>
        <time>2022-07-15T12:06:24Z</time>
      </trkpt>
      <trkpt lat="42.47668" lon="1.58105">
        <ele>2226.07</ele>
        <time>2022-07-15T12:06:36Z</time>
      </trkpt>
      <trkpt lat="42.47657" lon="1.58097">
        <ele>2226.07</ele>
        <time>2022-07-15T12:06:51Z</time>
      </trkpt>
      <trkpt lat="42.47649" lon="1.58087">
        <ele>2226.07</ele>
        <time>2022-07-15T12:07:03Z</time>
      </trkpt>
      <trkpt lat="42.4764" lon="1.58076">
        <ele>2227.51</ele>
        <time>2022-07-15T12:07:18Z</time>
      </trkpt>
      <trkpt lat="42.47637" lon="1.58074">
        <ele>2227.51</ele>
        <time>2022-07-15T12:07:23Z</time>
      </trkpt>
      <trkpt lat="42.47634" lon="1.58068">
        <ele>2227.99</ele>
        <time>2022-07-15T12:07:29Z</time>
      </trkpt>
      <trkpt lat="42.47622" lon="1.58062">
        <ele>2228.95</ele>
        <time>2022-07-15T12:07:43Z</time>
      </trkpt>
      <trkpt lat="42.47613" lon="1.58052">
        <ele>2230.88</ele>
        <time>2022-07-15T12:07:57Z</time>
      </trkpt>
      <trkpt lat="42.47606" lon="1.58044">
        <ele>2232.32</ele>
        <time>2022-07-15T12:08:09Z</time>
      </trkpt>
      <trkpt lat="42.47596" lon="1.58035">
        <ele>2233.28</ele>
        <time>2022-07-15T12:08:23Z</time>
      </trkpt>
      <trkpt lat="42.47591" lon="1.58027">
        <ele>2233.28</ele>
        <time>2022-07-15T12:08:32Z</time>
      </trkpt>
      <trkpt lat="42.47586" lon="1.58012">
        <ele>2233.76</ele>
        <time>2022-07-15T12:08:46Z</time>
      </trkpt>
      <trkpt lat="42.47579" lon="1.57998">
        <ele>2236.64</ele>
        <time>2022-07-15T12:09:02Z</time>
      </trkpt>
      <trkpt lat="42.47574" lon="1.57987">
        <ele>2239.05</ele>
        <time>2022-07-15T12:09:17Z</time>
      </trkpt>
      <trkpt lat="42.4757" lon="1.5798">
        <ele>2241.93</ele>
        <time>2022-07-15T12:09:31Z</time>
      </trkpt>
      <trkpt lat="42.47566" lon="1.57977">
        <ele>2244.33</ele>
        <time>2022-07-15T12:09:44Z</time>
      </trkpt>
      <trkpt lat="42.47561" lon="1.57973">
        <ele>2246.26</ele>
        <time>2022-07-15T12:10:02Z</time>
      </trkpt>
      <trkpt lat="42.47558" lon="1.57968">
        <ele>2248.18</ele>
        <time>2022-07-15T12:10:17Z</time>
      </trkpt>
      <trkpt lat="42.47555" lon="1.57964">
        <ele>2250.58</ele>
        <time>2022-07-15T12:10:34Z</time>
      </trkpt>
      <trkpt lat="42.47551" lon="1.57959">
        <ele>2252.03</ele>
        <time>2022-07-15T12:10:48Z</time>
      </trkpt>
      <trkpt lat="42.47546" lon="1.57953">
        <ele>2253.95</ele>
        <time>2022-07-15T12:11:04Z</time>
      </trkpt>
      <trkpt lat="42.47539" lon="1.57944">
        <ele>2255.87</ele>
        <time>2022-07-15T12:11:22Z</time>
      </trkpt>
      <trkpt lat="42.47534" lon="1.5793">
        <ele>2257.79</ele>
        <time>2022-07-15T12:11:37Z</time>
      </trkpt>
      <trkpt lat="42.47531" lon="1.57916">
        <ele>2258.75</ele>
        <time>2022-07-15T12:11:50Z</time>
      </trkpt>
      <trkpt lat="42.4753" lon="1.57914">
        <ele>2258.75</ele>
        <time>2022-07-15T12:11:52Z</time>
      </trkpt>
      <trkpt lat="42.47527" lon="1.57899">
        <ele>2259.72</ele>
        <time>2022-07-15T12:12:05Z</time>
      </trkpt>
      <trkpt lat="42.47522" lon="1.57882">
        <ele>2261.16</ele>
        <time>2022-07-15T12:12:20Z</time>
      </trkpt>
      <trkpt lat="42.47519" lon="1.57872">
        <ele>2261.16</ele>
        <time>2022-07-15T12:12:29Z</time>
      </trkpt>
      <trkpt lat="42.47514" lon="1.57855">
        <ele>2261.64</ele>
        <time>2022-07-15T12:12:43Z</time>
      </trkpt>
      <trkpt lat="42.47513" lon="1.57845">
        <ele>2260.2</ele>
        <time>2022-07-15T12:12:50Z</time>
      </trkpt>
      <trkpt lat="42.47514" lon="1.57824">
        <ele>2256.83</ele>
        <time>2022-07-15T12:13:05Z</time>
      </trkpt>
      <trkpt lat="42.47514" lon="1.57812">
        <ele>2254.91</ele>
        <time>2022-07-15T12:13:16Z</time>
      </trkpt>
      <trkpt lat="42.47508" lon="1.57791">
        <ele>2251.06</ele>
        <time>2022-07-15T12:13:32Z</time>
      </trkpt>
      <trkpt lat="42.47508" lon="1.57788">
        <ele>2251.06</ele>
        <time>2022-07-15T12:13:34Z</time>
      </trkpt>
      <trkpt lat="42.47504" lon="1.57772">
        <ele>2248.66</ele>
        <time>2022-07-15T12:13:45Z</time>
      </trkpt>
      <trkpt lat="42.475" lon="1.5775">
        <ele>2247.22</ele>
        <time>2022-07-15T12:14:02Z</time>
      </trkpt>
      <trkpt lat="42.47498" lon="1.57739">
        <ele>2245.78</ele>
        <time>2022-07-15T12:14:10Z</time>
      </trkpt>
      <trkpt lat="42.47498" lon="1.57719">
        <ele>2242.89</ele>
        <time>2022-07-15T12:14:24Z</time>
      </trkpt>
      <trkpt lat="42.47495" lon="1.57713">
        <ele>2241.93</ele>
        <time>2022-07-15T12:14:31Z</time>
      </trkpt>
      <trkpt lat="42.4749" lon="1.57699">
        <ele>2239.05</ele>
        <time>2022-07-15T12:14:46Z</time>
      </trkpt>
      <trkpt lat="42.47484" lon="1.57686">
        <ele>2235.68</ele>
        <time>2022-07-15T12:15:00Z</time>
      </trkpt>
      <trkpt lat="42.47482" lon="1.5768">
        <ele>2234.72</ele>
        <time>2022-07-15T12:15:05Z</time>
      </trkpt>
      <trkpt lat="42.47476" lon="1.5766">
        <ele>2233.28</ele>
        <time>2022-07-15T12:15:20Z</time>
      </trkpt>
      <trkpt lat="42.47478" lon="1.57644">
        <ele>2232.8</ele>
        <time>2022-07-15T12:15:34Z</time>
      </trkpt>
      <trkpt lat="42.47474" lon="1.57625">
        <ele>2229.92</ele>
        <time>2022-07-15T12:15:51Z</time>
      </trkpt>
      <trkpt lat="42.47471" lon="1.5761">
        <ele>2228.95</ele>
        <time>2022-07-15T12:16:04Z</time>
      </trkpt>
      <trkpt lat="42.47472" lon="1.57599">
        <ele>2227.51</ele>
        <time>2022-07-15T12:16:15Z</time>
      </trkpt>
      <trkpt lat="42.47476" lon="1.57587">
        <ele>2225.59</ele>
        <time>2022-07-15T12:16:28Z</time>
      </trkpt>
      <trkpt lat="42.47476" lon="1.57585">
        <ele>2225.11</ele>
        <time>2022-07-15T12:16:30Z</time>
      </trkpt>
      <trkpt lat="42.47477" lon="1.57582">
        <ele>2224.63</ele>
        <time>2022-07-15T12:16:32Z</time>
      </trkpt>
      <trkpt lat="42.47476" lon="1.57576">
        <ele>2224.15</ele>
        <time>2022-07-15T12:16:37Z</time>
      </trkpt>
      <trkpt lat="42.47477" lon="1.57568">
        <ele>2224.15</ele>
        <time>2022-07-15T12:16:42Z</time>
      </trkpt>
      <trkpt lat="42.47485" lon="1.57552">
        <ele>2224.15</ele>
        <time>2022-07-15T12:16:56Z</time>
      </trkpt>
      <trkpt lat="42.4749" lon="1.57537">
        <ele>2224.15</ele>
        <time>2022-07-15T12:17:09Z</time>
      </trkpt>
      <trkpt lat="42.47494" lon="1.57516">
        <ele>2223.67</ele>
        <time>2022-07-15T12:17:25Z</time>
      </trkpt>
      <trkpt lat="42.47499" lon="1.57501">
        <ele>2223.67</ele>
        <time>2022-07-15T12:17:38Z</time>
      </trkpt>
      <trkpt lat="42.47507" lon="1.57487">
        <ele>2223.67</ele>
        <time>2022-07-15T12:17:51Z</time>
      </trkpt>
      <trkpt lat="42.47513" lon="1.57484">
        <ele>2223.67</ele>
        <time>2022-07-15T12:18:05Z</time>
      </trkpt>
      <trkpt lat="42.47517" lon="1.57481">
        <ele>2223.67</ele>
        <time>2022-07-15T12:18:14Z</time>
      </trkpt>
      <trkpt lat="42.47524" lon="1.57477">
        <ele>2223.67</ele>
        <time>2022-07-15T12:18:27Z</time>
      </trkpt>
      <trkpt lat="42.47533" lon="1.5747">
        <ele>2223.67</ele>
        <time>2022-07-15T12:18:41Z</time>
      </trkpt>
      <trkpt lat="42.47538" lon="1.57467">
        <ele>2223.67</ele>
        <time>2022-07-15T12:18:57Z</time>
      </trkpt>
      <trkpt lat="42.47538" lon="1.57467">
        <ele>2223.67</ele>
        <time>2022-07-15T12:19:09Z</time>
      </trkpt>
      <trkpt lat="42.47547" lon="1.57472">
        <ele>2215.98</ele>
        <time>2022-07-15T14:29:19Z</time>
      </trkpt>
      <trkpt lat="42.47536" lon="1.57476">
        <ele>2216.94</ele>
        <time>2022-07-15T14:29:39Z</time>
      </trkpt>
      <trkpt lat="42.47542" lon="1.57474">
        <ele>2220.3</ele>
        <time>2022-07-15T14:30:03Z</time>
      </trkpt>
      <trkpt lat="42.47546" lon="1.57472">
        <ele>2223.67</ele>
        <time>2022-07-15T14:30:09Z</time>
      </trkpt>
      <trkpt lat="42.4755" lon="1.57467">
        <ele>2227.03</ele>
        <time>2022-07-15T14:30:18Z</time>
      </trkpt>
      <trkpt lat="42.47559" lon="1.57457">
        <ele>2227.99</ele>
        <time>2022-07-15T14:30:33Z</time>
      </trkpt>
      <trkpt lat="42.47567" lon="1.57456">
        <ele>2227.99</ele>
        <time>2022-07-15T14:30:46Z</time>
      </trkpt>
      <trkpt lat="42.47573" lon="1.57458">
        <ele>2227.99</ele>
        <time>2022-07-15T14:30:59Z</time>
      </trkpt>
      <trkpt lat="42.47574" lon="1.57464">
        <ele>2227.99</ele>
        <time>2022-07-15T14:31:18Z</time>
      </trkpt>
      <trkpt lat="42.47576" lon="1.57463">
        <ele>2227.99</ele>
        <time>2022-07-15T14:31:34Z</time>
      </trkpt>
      <trkpt lat="42.47578" lon="1.57465">
        <ele>2227.99</ele>
        <time>2022-07-15T14:31:48Z</time>
      </trkpt>
      <trkpt lat="42.47578" lon="1.57466">
        <ele>2228.47</ele>
        <time>2022-07-15T14:32:15Z</time>
      </trkpt>
      <trkpt lat="42.47578" lon="1.57461">
        <ele>2228.47</ele>
        <time>2022-07-15T14:32:45Z</time>
      </trkpt>
      <trkpt lat="42.47576" lon="1.57456">
        <ele>2228.47</ele>
        <time>2022-07-15T14:33:01Z</time>
      </trkpt>
      <trkpt lat="42.47573" lon="1.57459">
        <ele>2228.47</ele>
        <time>2022-07-15T14:33:23Z</time>
      </trkpt>
      <trkpt lat="42.47579" lon="1.57451">
        <ele>2228.47</ele>
        <time>2022-07-15T14:33:37Z</time>
      </trkpt>
      <trkpt lat="42.4758" lon="1.57449">
        <ele>2227.51</ele>
        <time>2022-07-15T14:33:40Z</time>
      </trkpt>
      <trkpt lat="42.47588" lon="1.57439">
        <ele>2225.59</ele>
        <time>2022-07-15T14:33:54Z</time>
      </trkpt>
      <trkpt lat="42.47597" lon="1.57433">
        <ele>2223.67</ele>
        <time>2022-07-15T14:34:07Z</time>
      </trkpt>
      <trkpt lat="42.47601" lon="1.57426">
        <ele>2220.78</ele>
        <time>2022-07-15T14:34:20Z</time>
      </trkpt>
      <trkpt lat="42.47606" lon="1.57422">
        <ele>2217.42</ele>
        <time>2022-07-15T14:34:34Z</time>
      </trkpt>
      <trkpt lat="42.47614" lon="1.57418">
        <ele>2214.53</ele>
        <time>2022-07-15T14:34:44Z</time>
      </trkpt>
      <trkpt lat="42.47619" lon="1.57411">
        <ele>2211.65</ele>
        <time>2022-07-15T14:34:59Z</time>
      </trkpt>
      <trkpt lat="42.47625" lon="1.57405">
        <ele>2209.25</ele>
        <time>2022-07-15T14:35:12Z</time>
      </trkpt>
      <trkpt lat="42.47628" lon="1.57396">
        <ele>2206.36</ele>
        <time>2022-07-15T14:35:25Z</time>
      </trkpt>
      <trkpt lat="42.47625" lon="1.57397">
        <ele>2206.36</ele>
        <time>2022-07-15T14:35:42Z</time>
      </trkpt>
      <trkpt lat="42.47625" lon="1.57395">
        <ele>2205.88</ele>
        <time>2022-07-15T14:36:00Z</time>
      </trkpt>
      <trkpt lat="42.47629" lon="1.57391">
        <ele>2205.4</ele>
        <time>2022-07-15T14:36:23Z</time>
      </trkpt>
      <trkpt lat="42.4764" lon="1.57374">
        <ele>2202.52</ele>
        <time>2022-07-15T14:36:41Z</time>
      </trkpt>
      <trkpt lat="42.47648" lon="1.57368">
        <ele>2200.59</ele>
        <time>2022-07-15T14:36:53Z</time>
      </trkpt>
      <trkpt lat="42.47651" lon="1.57366">
        <ele>2199.15</ele>
        <time>2022-07-15T14:36:58Z</time>
      </trkpt>
      <trkpt lat="42.47655" lon="1.57368">
        <ele>2197.23</ele>
        <time>2022-07-15T14:37:10Z</time>
      </trkpt>
      <trkpt lat="42.47671" lon="1.57373">
        <ele>2195.79</ele>
        <time>2022-07-15T14:37:25Z</time>
      </trkpt>
      <trkpt lat="42.47682" lon="1.57377">
        <ele>2194.35</ele>
        <time>2022-07-15T14:37:37Z</time>
      </trkpt>
      <trkpt lat="42.47686" lon="1.57384">
        <ele>2193.87</ele>
        <time>2022-07-15T14:37:49Z</time>
      </trkpt>
      <trkpt lat="42.47695" lon="1.57386">
        <ele>2193.39</ele>
        <time>2022-07-15T14:38:01Z</time>
      </trkpt>
      <trkpt lat="42.47707" lon="1.57381">
        <ele>2194.83</ele>
        <time>2022-07-15T14:38:15Z</time>
      </trkpt>
      <trkpt lat="42.47716" lon="1.57378">
        <ele>2194.35</ele>
        <time>2022-07-15T14:38:30Z</time>
      </trkpt>
      <trkpt lat="42.47723" lon="1.57381">
        <ele>2194.35</ele>
        <time>2022-07-15T14:38:44Z</time>
      </trkpt>
      <trkpt lat="42.47732" lon="1.57389">
        <ele>2194.83</ele>
        <time>2022-07-15T14:38:58Z</time>
      </trkpt>
      <trkpt lat="42.4774" lon="1.57403">
        <ele>2193.39</ele>
        <time>2022-07-15T14:39:13Z</time>
      </trkpt>
      <trkpt lat="42.47742" lon="1.57415">
        <ele>2192.42</ele>
        <time>2022-07-15T14:39:27Z</time>
      </trkpt>
      <trkpt lat="42.47742" lon="1.5743">
        <ele>2190.98</ele>
        <time>2022-07-15T14:39:39Z</time>
      </trkpt>
      <trkpt lat="42.47748" lon="1.57449">
        <ele>2189.06</ele>
        <time>2022-07-15T14:39:53Z</time>
      </trkpt>
      <trkpt lat="42.47748" lon="1.57462">
        <ele>2186.18</ele>
        <time>2022-07-15T14:40:08Z</time>
      </trkpt>
      <trkpt lat="42.47749" lon="1.57475">
        <ele>2183.29</ele>
        <time>2022-07-15T14:40:21Z</time>
      </trkpt>
      <trkpt lat="42.47752" lon="1.57493">
        <ele>2181.37</ele>
        <time>2022-07-15T14:40:31Z</time>
      </trkpt>
      <trkpt lat="42.47757" lon="1.57506">
        <ele>2178.97</ele>
        <time>2022-07-15T14:40:40Z</time>
      </trkpt>
      <trkpt lat="42.4776" lon="1.57515">
        <ele>2178.97</ele>
        <time>2022-07-15T14:40:46Z</time>
      </trkpt>
      <trkpt lat="42.47763" lon="1.57523">
        <ele>2178</ele>
        <time>2022-07-15T14:40:51Z</time>
      </trkpt>
      <trkpt lat="42.47768" lon="1.57547">
        <ele>2177.04</ele>
        <time>2022-07-15T14:41:06Z</time>
      </trkpt>
      <trkpt lat="42.47776" lon="1.5757">
        <ele>2176.08</ele>
        <time>2022-07-15T14:41:21Z</time>
      </trkpt>
      <trkpt lat="42.47779" lon="1.57591">
        <ele>2175.6</ele>
        <time>2022-07-15T14:41:36Z</time>
      </trkpt>
      <trkpt lat="42.47782" lon="1.5761">
        <ele>2175.6</ele>
        <time>2022-07-15T14:41:51Z</time>
      </trkpt>
      <trkpt lat="42.47786" lon="1.57631">
        <ele>2175.12</ele>
        <time>2022-07-15T14:42:06Z</time>
      </trkpt>
      <trkpt lat="42.4779" lon="1.57649">
        <ele>2176.08</ele>
        <time>2022-07-15T14:42:19Z</time>
      </trkpt>
      <trkpt lat="42.47793" lon="1.57668">
        <ele>2177.04</ele>
        <time>2022-07-15T14:42:33Z</time>
      </trkpt>
      <trkpt lat="42.47798" lon="1.57679">
        <ele>2177.52</ele>
        <time>2022-07-15T14:42:43Z</time>
      </trkpt>
      <trkpt lat="42.47806" lon="1.5769">
        <ele>2177.52</ele>
        <time>2022-07-15T14:42:53Z</time>
      </trkpt>
      <trkpt lat="42.47817" lon="1.57704">
        <ele>2177.52</ele>
        <time>2022-07-15T14:43:08Z</time>
      </trkpt>
      <trkpt lat="42.47825" lon="1.57715">
        <ele>2178</ele>
        <time>2022-07-15T14:43:22Z</time>
      </trkpt>
      <trkpt lat="42.47831" lon="1.57719">
        <ele>2178.48</ele>
        <time>2022-07-15T14:43:35Z</time>
      </trkpt>
      <trkpt lat="42.47837" lon="1.57723">
        <ele>2178.48</ele>
        <time>2022-07-15T14:43:47Z</time>
      </trkpt>
      <trkpt lat="42.47845" lon="1.57729">
        <ele>2179.93</ele>
        <time>2022-07-15T14:44:01Z</time>
      </trkpt>
      <trkpt lat="42.47852" lon="1.57732">
        <ele>2179.45</ele>
        <time>2022-07-15T14:44:16Z</time>
      </trkpt>
      <trkpt lat="42.47858" lon="1.57735">
        <ele>2179.45</ele>
        <time>2022-07-15T14:44:30Z</time>
      </trkpt>
      <trkpt lat="42.47866" lon="1.57735">
        <ele>2177.52</ele>
        <time>2022-07-15T14:44:44Z</time>
      </trkpt>
      <trkpt lat="42.47874" lon="1.57735">
        <ele>2178.48</ele>
        <time>2022-07-15T14:45:00Z</time>
      </trkpt>
      <trkpt lat="42.47879" lon="1.57735">
        <ele>2179.93</ele>
        <time>2022-07-15T14:45:12Z</time>
      </trkpt>
      <trkpt lat="42.47887" lon="1.57748">
        <ele>2181.85</ele>
        <time>2022-07-15T14:45:30Z</time>
      </trkpt>
      <trkpt lat="42.47897" lon="1.5776">
        <ele>2183.29</ele>
        <time>2022-07-15T14:45:46Z</time>
      </trkpt>
      <trkpt lat="42.47907" lon="1.57766">
        <ele>2184.25</ele>
        <time>2022-07-15T14:46:00Z</time>
      </trkpt>
      <trkpt lat="42.47915" lon="1.57773">
        <ele>2184.73</ele>
        <time>2022-07-15T14:46:13Z</time>
      </trkpt>
      <trkpt lat="42.47922" lon="1.57779">
        <ele>2185.21</ele>
        <time>2022-07-15T14:46:26Z</time>
      </trkpt>
      <trkpt lat="42.47929" lon="1.57781">
        <ele>2185.69</ele>
        <time>2022-07-15T14:46:39Z</time>
      </trkpt>
      <trkpt lat="42.4794" lon="1.57787">
        <ele>2187.14</ele>
        <time>2022-07-15T14:46:52Z</time>
      </trkpt>
      <trkpt lat="42.47952" lon="1.57797">
        <ele>2189.06</ele>
        <time>2022-07-15T14:47:08Z</time>
      </trkpt>
      <trkpt lat="42.4796" lon="1.57806">
        <ele>2190.5</ele>
        <time>2022-07-15T14:47:21Z</time>
      </trkpt>
      <trkpt lat="42.47965" lon="1.57809">
        <ele>2191.46</ele>
        <time>2022-07-15T14:47:35Z</time>
      </trkpt>
      <trkpt lat="42.47966" lon="1.57815">
        <ele>2191.94</ele>
        <time>2022-07-15T14:47:50Z</time>
      </trkpt>
      <trkpt lat="42.4797" lon="1.5782">
        <ele>2191.94</ele>
        <time>2022-07-15T14:48:08Z</time>
      </trkpt>
      <trkpt lat="42.47971" lon="1.57827">
        <ele>2191.94</ele>
        <time>2022-07-15T14:48:24Z</time>
      </trkpt>
      <trkpt lat="42.4797" lon="1.57825">
        <ele>2192.42</ele>
        <time>2022-07-15T14:48:41Z</time>
      </trkpt>
      <trkpt lat="42.47972" lon="1.57827">
        <ele>2192.9</ele>
        <time>2022-07-15T14:48:55Z</time>
      </trkpt>
      <trkpt lat="42.47976" lon="1.57827">
        <ele>2193.39</ele>
        <time>2022-07-15T14:49:27Z</time>
      </trkpt>
      <trkpt lat="42.47978" lon="1.5783">
        <ele>2193.39</ele>
        <time>2022-07-15T14:49:40Z</time>
      </trkpt>
      <trkpt lat="42.47975" lon="1.5783">
        <ele>2193.87</ele>
        <time>2022-07-15T14:50:02Z</time>
      </trkpt>
      <trkpt lat="42.47974" lon="1.57832">
        <ele>2193.87</ele>
        <time>2022-07-15T14:50:16Z</time>
      </trkpt>
      <trkpt lat="42.47973" lon="1.5783">
        <ele>2193.87</ele>
        <time>2022-07-15T14:50:36Z</time>
      </trkpt>
      <trkpt lat="42.47973" lon="1.5783">
        <ele>2193.87</ele>
        <time>2022-07-15T14:50:44Z</time>
      </trkpt>
      <trkpt lat="42.4797" lon="1.57834">
        <ele>2122.25</ele>
        <time>2022-07-16T06:45:07Z</time>
      </trkpt>
      <trkpt lat="42.47964" lon="1.57831">
        <ele>2122.25</ele>
        <time>2022-07-16T06:45:27Z</time>
      </trkpt>
      <trkpt lat="42.47961" lon="1.57831">
        <ele>2122.25</ele>
        <time>2022-07-16T06:45:42Z</time>
      </trkpt>
      <trkpt lat="42.47962" lon="1.57832">
        <ele>2123.69</ele>
        <time>2022-07-16T06:46:00Z</time>
      </trkpt>
      <trkpt lat="42.47967" lon="1.57825">
        <ele>2130.9</ele>
        <time>2022-07-16T06:46:07Z</time>
      </trkpt>
      <trkpt lat="42.47967" lon="1.57825">
        <ele>2130.9</ele>
        <time>2022-07-16T06:46:08Z</time>
      </trkpt>
      <trkpt lat="42.47967" lon="1.57824">
        <ele>2135.23</ele>
        <time>2022-07-16T06:46:10Z</time>
      </trkpt>
      <trkpt lat="42.47967" lon="1.57823">
        <ele>2139.55</ele>
        <time>2022-07-16T06:46:12Z</time>
      </trkpt>
      <trkpt lat="42.47967" lon="1.57824">
        <ele>2143.4</ele>
        <time>2022-07-16T06:46:14Z</time>
      </trkpt>
      <trkpt lat="42.47967" lon="1.57824">
        <ele>2147.24</ele>
        <time>2022-07-16T06:46:16Z</time>
      </trkpt>
      <trkpt lat="42.47967" lon="1.57823">
        <ele>2150.61</ele>
        <time>2022-07-16T06:46:18Z</time>
      </trkpt>
      <trkpt lat="42.47967" lon="1.57824">
        <ele>2153.97</ele>
        <time>2022-07-16T06:46:20Z</time>
      </trkpt>
      <trkpt lat="42.47967" lon="1.57824">
        <ele>2158.3</ele>
        <time>2022-07-16T06:46:23Z</time>
      </trkpt>
      <trkpt lat="42.47968" lon="1.57823">
        <ele>2162.14</ele>
        <time>2022-07-16T06:46:26Z</time>
      </trkpt>
      <trkpt lat="42.47968" lon="1.57823">
        <ele>2165.51</ele>
        <time>2022-07-16T06:46:29Z</time>
      </trkpt>
      <trkpt lat="42.47969" lon="1.57823">
        <ele>2168.87</ele>
        <time>2022-07-16T06:46:32Z</time>
      </trkpt>
      <trkpt lat="42.47969" lon="1.57823">
        <ele>2170.79</ele>
        <time>2022-07-16T06:46:34Z</time>
      </trkpt>
      <trkpt lat="42.47969" lon="1.57823">
        <ele>2174.16</ele>
        <time>2022-07-16T06:46:38Z</time>
      </trkpt>
      <trkpt lat="42.47968" lon="1.57823">
        <ele>2177.52</ele>
        <time>2022-07-16T06:46:43Z</time>
      </trkpt>
      <trkpt lat="42.47967" lon="1.57822">
        <ele>2180.89</ele>
        <time>2022-07-16T06:46:49Z</time>
      </trkpt>
      <trkpt lat="42.47965" lon="1.57823">
        <ele>2184.25</ele>
        <time>2022-07-16T06:46:57Z</time>
      </trkpt>
      <trkpt lat="42.47968" lon="1.57817">
        <ele>2187.14</ele>
        <time>2022-07-16T06:47:08Z</time>
      </trkpt>
      <trkpt lat="42.47967" lon="1.57812">
        <ele>2188.58</ele>
        <time>2022-07-16T06:47:18Z</time>
      </trkpt>
      <trkpt lat="42.47976" lon="1.57796">
        <ele>2188.58</ele>
        <time>2022-07-16T06:47:33Z</time>
      </trkpt>
      <trkpt lat="42.47978" lon="1.5779">
        <ele>2189.06</ele>
        <time>2022-07-16T06:47:38Z</time>
      </trkpt>
      <trkpt lat="42.4798" lon="1.57784">
        <ele>2189.06</ele>
        <time>2022-07-16T06:47:43Z</time>
      </trkpt>
      <trkpt lat="42.4798" lon="1.57776">
        <ele>2189.06</ele>
        <time>2022-07-16T06:47:49Z</time>
      </trkpt>
      <trkpt lat="42.47983" lon="1.57771">
        <ele>2121.77</ele>
        <time>2022-07-16T06:47:54Z</time>
      </trkpt>
      <trkpt lat="42.47984" lon="1.5777">
        <ele>2190.02</ele>
        <time>2022-07-16T06:47:55Z</time>
      </trkpt>
      <trkpt lat="42.47989" lon="1.57753">
        <ele>2190.02</ele>
        <time>2022-07-16T06:48:10Z</time>
      </trkpt>
      <trkpt lat="42.47994" lon="1.57744">
        <ele>2190.5</ele>
        <time>2022-07-16T06:48:24Z</time>
      </trkpt>
      <trkpt lat="42.48002" lon="1.57733">
        <ele>2190.5</ele>
        <time>2022-07-16T06:48:37Z</time>
      </trkpt>
      <trkpt lat="42.48005" lon="1.57729">
        <ele>2190.5</ele>
        <time>2022-07-16T06:48:41Z</time>
      </trkpt>
      <trkpt lat="42.48012" lon="1.57718">
        <ele>2190.5</ele>
        <time>2022-07-16T06:48:56Z</time>
      </trkpt>
      <trkpt lat="42.48014" lon="1.57717">
        <ele>2190.5</ele>
        <time>2022-07-16T06:49:15Z</time>
      </trkpt>
      <trkpt lat="42.48015" lon="1.57711">
        <ele>2190.5</ele>
        <time>2022-07-16T06:49:26Z</time>
      </trkpt>
      <trkpt lat="42.48014" lon="1.57708">
        <ele>2189.54</ele>
        <time>2022-07-16T06:49:41Z</time>
      </trkpt>
      <trkpt lat="42.48014" lon="1.57708">
        <ele>2189.54</ele>
        <time>2022-07-16T06:50:01Z</time>
      </trkpt>
      <trkpt lat="42.48016" lon="1.57708">
        <ele>2189.54</ele>
        <time>2022-07-16T06:50:16Z</time>
      </trkpt>
      <trkpt lat="42.48014" lon="1.57708">
        <ele>2189.54</ele>
        <time>2022-07-16T06:50:38Z</time>
      </trkpt>
      <trkpt lat="42.48013" lon="1.5771">
        <ele>2189.06</ele>
        <time>2022-07-16T06:50:52Z</time>
      </trkpt>
      <trkpt lat="42.4802" lon="1.57702">
        <ele>2189.06</ele>
        <time>2022-07-16T06:51:06Z</time>
      </trkpt>
      <trkpt lat="42.48031" lon="1.57685">
        <ele>2188.1</ele>
        <time>2022-07-16T06:51:21Z</time>
      </trkpt>
      <trkpt lat="42.48041" lon="1.57674">
        <ele>2187.14</ele>
        <time>2022-07-16T06:51:33Z</time>
      </trkpt>
      <trkpt lat="42.48049" lon="1.57657">
        <ele>2186.18</ele>
        <time>2022-07-16T06:51:48Z</time>
      </trkpt>
      <trkpt lat="42.48056" lon="1.57643">
        <ele>2185.69</ele>
        <time>2022-07-16T06:52:01Z</time>
      </trkpt>
      <trkpt lat="42.48063" lon="1.57632">
        <ele>2185.69</ele>
        <time>2022-07-16T06:52:14Z</time>
      </trkpt>
      <trkpt lat="42.48065" lon="1.57625">
        <ele>2185.69</ele>
        <time>2022-07-16T06:52:19Z</time>
      </trkpt>
      <trkpt lat="42.4807" lon="1.57609">
        <ele>2185.21</ele>
        <time>2022-07-16T06:52:31Z</time>
      </trkpt>
      <trkpt lat="42.48069" lon="1.57599">
        <ele>2184.73</ele>
        <time>2022-07-16T06:52:37Z</time>
      </trkpt>
      <trkpt lat="42.4807" lon="1.57588">
        <ele>2184.73</ele>
        <time>2022-07-16T06:52:46Z</time>
      </trkpt>
      <trkpt lat="42.48071" lon="1.57575">
        <ele>2185.21</ele>
        <time>2022-07-16T06:53:02Z</time>
      </trkpt>
      <trkpt lat="42.4807" lon="1.57573">
        <ele>2185.21</ele>
        <time>2022-07-16T06:53:19Z</time>
      </trkpt>
      <trkpt lat="42.4807" lon="1.57573">
        <ele>2185.21</ele>
        <time>2022-07-16T06:53:33Z</time>
      </trkpt>
      <trkpt lat="42.48069" lon="1.57571">
        <ele>2185.21</ele>
        <time>2022-07-16T06:54:01Z</time>
      </trkpt>
      <trkpt lat="42.4807" lon="1.57574">
        <ele>2185.69</ele>
        <time>2022-07-16T06:54:35Z</time>
      </trkpt>
      <trkpt lat="42.48068" lon="1.57572">
        <ele>2185.69</ele>
        <time>2022-07-16T06:55:11Z</time>
      </trkpt>
      <trkpt lat="42.48067" lon="1.57575">
        <ele>2185.69</ele>
        <time>2022-07-16T06:55:41Z</time>
      </trkpt>
      <trkpt lat="42.48074" lon="1.57571">
        <ele>2185.69</ele>
        <time>2022-07-16T06:55:52Z</time>
      </trkpt>
      <trkpt lat="42.48075" lon="1.57569">
        <ele>2187.14</ele>
        <time>2022-07-16T06:55:54Z</time>
      </trkpt>
      <trkpt lat="42.48078" lon="1.57563">
        <ele>2188.1</ele>
        <time>2022-07-16T06:56:07Z</time>
      </trkpt>
      <trkpt lat="42.48083" lon="1.57567">
        <ele>2188.58</ele>
        <time>2022-07-16T06:56:20Z</time>
      </trkpt>
      <trkpt lat="42.48082" lon="1.57567">
        <ele>2188.58</ele>
        <time>2022-07-16T06:56:27Z</time>
      </trkpt>
      <trkpt lat="42.48075" lon="1.57569">
        <ele>2187.14</ele>
        <time>2022-07-16T06:56:36Z</time>
      </trkpt>
      <trkpt lat="42.4807" lon="1.57566">
        <ele>2185.69</ele>
        <time>2022-07-16T06:56:53Z</time>
      </trkpt>
      <trkpt lat="42.48061" lon="1.57568">
        <ele>2184.25</ele>
        <time>2022-07-16T06:57:05Z</time>
      </trkpt>
      <trkpt lat="42.48052" lon="1.57565">
        <ele>2179.93</ele>
        <time>2022-07-16T06:57:19Z</time>
      </trkpt>
      <trkpt lat="42.48048" lon="1.57561">
        <ele>2178.48</ele>
        <time>2022-07-16T06:57:33Z</time>
      </trkpt>
      <trkpt lat="42.48047" lon="1.57562">
        <ele>2178.48</ele>
        <time>2022-07-16T06:57:57Z</time>
      </trkpt>
      <trkpt lat="42.48047" lon="1.57561">
        <ele>2178.48</ele>
        <time>2022-07-16T06:58:24Z</time>
      </trkpt>
      <trkpt lat="42.48047" lon="1.57555">
        <ele>2177.52</ele>
        <time>2022-07-16T06:58:48Z</time>
      </trkpt>
      <trkpt lat="42.48046" lon="1.57551">
        <ele>2177.04</ele>
        <time>2022-07-16T06:59:01Z</time>
      </trkpt>
      <trkpt lat="42.48043" lon="1.57541">
        <ele>2174.64</ele>
        <time>2022-07-16T06:59:22Z</time>
      </trkpt>
      <trkpt lat="42.4804" lon="1.57536">
        <ele>2173.68</ele>
        <time>2022-07-16T06:59:27Z</time>
      </trkpt>
      <trkpt lat="42.4804" lon="1.57517">
        <ele>2170.31</ele>
        <time>2022-07-16T06:59:40Z</time>
      </trkpt>
      <trkpt lat="42.48042" lon="1.57513">
        <ele>2169.83</ele>
        <time>2022-07-16T06:59:43Z</time>
      </trkpt>
      <trkpt lat="42.48048" lon="1.57499">
        <ele>2166.47</ele>
        <time>2022-07-16T06:59:55Z</time>
      </trkpt>
      <trkpt lat="42.48046" lon="1.57485">
        <ele>2163.1</ele>
        <time>2022-07-16T07:00:08Z</time>
      </trkpt>
      <trkpt lat="42.48048" lon="1.57474">
        <ele>2160.7</ele>
        <time>2022-07-16T07:00:20Z</time>
      </trkpt>
      <trkpt lat="42.48047" lon="1.57461">
        <ele>2157.82</ele>
        <time>2022-07-16T07:00:33Z</time>
      </trkpt>
      <trkpt lat="42.48042" lon="1.57455">
        <ele>2154.93</ele>
        <time>2022-07-16T07:00:41Z</time>
      </trkpt>
      <trkpt lat="42.48042" lon="1.57445">
        <ele>2152.53</ele>
        <time>2022-07-16T07:00:53Z</time>
      </trkpt>
      <trkpt lat="42.48042" lon="1.57435">
        <ele>2150.13</ele>
        <time>2022-07-16T07:01:05Z</time>
      </trkpt>
      <trkpt lat="42.48043" lon="1.57433">
        <ele>2149.16</ele>
        <time>2022-07-16T07:01:20Z</time>
      </trkpt>
      <trkpt lat="42.48041" lon="1.57429">
        <ele>2149.16</ele>
        <time>2022-07-16T07:01:39Z</time>
      </trkpt>
      <trkpt lat="42.48042" lon="1.57428">
        <ele>2149.16</ele>
        <time>2022-07-16T07:01:40Z</time>
      </trkpt>
      <trkpt lat="42.48039" lon="1.57422">
        <ele>2147.24</ele>
        <time>2022-07-16T07:01:54Z</time>
      </trkpt>
      <trkpt lat="42.48034" lon="1.57417">
        <ele>2145.8</ele>
        <time>2022-07-16T07:02:07Z</time>
      </trkpt>
      <trkpt lat="42.48028" lon="1.57411">
        <ele>2143.4</ele>
        <time>2022-07-16T07:02:18Z</time>
      </trkpt>
      <trkpt lat="42.48026" lon="1.57405">
        <ele>2142.44</ele>
        <time>2022-07-16T07:02:30Z</time>
      </trkpt>
      <trkpt lat="42.48021" lon="1.57393">
        <ele>2140.51</ele>
        <time>2022-07-16T07:02:43Z</time>
      </trkpt>
      <trkpt lat="42.48016" lon="1.5738">
        <ele>2138.11</ele>
        <time>2022-07-16T07:02:57Z</time>
      </trkpt>
      <trkpt lat="42.48019" lon="1.57368">
        <ele>2135.23</ele>
        <time>2022-07-16T07:03:10Z</time>
      </trkpt>
      <trkpt lat="42.48021" lon="1.57364">
        <ele>2133.78</ele>
        <time>2022-07-16T07:03:21Z</time>
      </trkpt>
      <trkpt lat="42.4802" lon="1.5736">
        <ele>2131.86</ele>
        <time>2022-07-16T07:03:31Z</time>
      </trkpt>
      <trkpt lat="42.4801" lon="1.57356">
        <ele>2130.42</ele>
        <time>2022-07-16T07:03:43Z</time>
      </trkpt>
      <trkpt lat="42.48012" lon="1.57348">
        <ele>2128.5</ele>
        <time>2022-07-16T07:03:55Z</time>
      </trkpt>
      <trkpt lat="42.48016" lon="1.57343">
        <ele>2126.57</ele>
        <time>2022-07-16T07:04:06Z</time>
      </trkpt>
      <trkpt lat="42.48018" lon="1.5734">
        <ele>2126.09</ele>
        <time>2022-07-16T07:04:10Z</time>
      </trkpt>
      <trkpt lat="42.48024" lon="1.57332">
        <ele>2124.17</ele>
        <time>2022-07-16T07:04:22Z</time>
      </trkpt>
      <trkpt lat="42.48025" lon="1.57323">
        <ele>2120.81</ele>
        <time>2022-07-16T07:04:37Z</time>
      </trkpt>
      <trkpt lat="42.48022" lon="1.57312">
        <ele>2118.4</ele>
        <time>2022-07-16T07:04:51Z</time>
      </trkpt>
      <trkpt lat="42.48015" lon="1.57302">
        <ele>2115.52</ele>
        <time>2022-07-16T07:05:06Z</time>
      </trkpt>
      <trkpt lat="42.48012" lon="1.57292">
        <ele>2112.63</ele>
        <time>2022-07-16T07:05:21Z</time>
      </trkpt>
      <trkpt lat="42.48007" lon="1.57284">
        <ele>2110.23</ele>
        <time>2022-07-16T07:05:35Z</time>
      </trkpt>
      <trkpt lat="42.48008" lon="1.57267">
        <ele>2106.87</ele>
        <time>2022-07-16T07:05:52Z</time>
      </trkpt>
      <trkpt lat="42.48008" lon="1.57251">
        <ele>2104.46</ele>
        <time>2022-07-16T07:06:07Z</time>
      </trkpt>
      <trkpt lat="42.48006" lon="1.57248">
        <ele>2104.46</ele>
        <time>2022-07-16T07:06:23Z</time>
      </trkpt>
      <trkpt lat="42.48003" lon="1.57244">
        <ele>2103.98</ele>
        <time>2022-07-16T07:06:44Z</time>
      </trkpt>
      <trkpt lat="42.48003" lon="1.57242">
        <ele>2103.5</ele>
        <time>2022-07-16T07:06:58Z</time>
      </trkpt>
      <trkpt lat="42.48003" lon="1.57223">
        <ele>2100.62</ele>
        <time>2022-07-16T07:07:14Z</time>
      </trkpt>
      <trkpt lat="42.47998" lon="1.57209">
        <ele>2097.25</ele>
        <time>2022-07-16T07:07:26Z</time>
      </trkpt>
      <trkpt lat="42.47992" lon="1.57198">
        <ele>2093.89</ele>
        <time>2022-07-16T07:07:43Z</time>
      </trkpt>
      <trkpt lat="42.47993" lon="1.57192">
        <ele>2091.97</ele>
        <time>2022-07-16T07:07:57Z</time>
      </trkpt>
      <trkpt lat="42.47987" lon="1.57184">
        <ele>2088.6</ele>
        <time>2022-07-16T07:08:12Z</time>
      </trkpt>
      <trkpt lat="42.47978" lon="1.57173">
        <ele>2085.72</ele>
        <time>2022-07-16T07:08:33Z</time>
      </trkpt>
      <trkpt lat="42.47977" lon="1.57171">
        <ele>2082.83</ele>
        <time>2022-07-16T07:08:47Z</time>
      </trkpt>
      <trkpt lat="42.47973" lon="1.57165">
        <ele>2080.43</ele>
        <time>2022-07-16T07:09:04Z</time>
      </trkpt>
      <trkpt lat="42.47973" lon="1.57157">
        <ele>2078.03</ele>
        <time>2022-07-16T07:09:17Z</time>
      </trkpt>
      <trkpt lat="42.47973" lon="1.57156">
        <ele>2078.03</ele>
        <time>2022-07-16T07:09:41Z</time>
      </trkpt>
      <trkpt lat="42.47973" lon="1.57145">
        <ele>2076.1</ele>
        <time>2022-07-16T07:09:52Z</time>
      </trkpt>
      <trkpt lat="42.47971" lon="1.57141">
        <ele>2074.18</ele>
        <time>2022-07-16T07:10:04Z</time>
      </trkpt>
      <trkpt lat="42.47972" lon="1.57137">
        <ele>2072.74</ele>
        <time>2022-07-16T07:10:20Z</time>
      </trkpt>
      <trkpt lat="42.47977" lon="1.57133">
        <ele>2070.34</ele>
        <time>2022-07-16T07:10:35Z</time>
      </trkpt>
      <trkpt lat="42.47978" lon="1.57129">
        <ele>2068.41</ele>
        <time>2022-07-16T07:10:48Z</time>
      </trkpt>
      <trkpt lat="42.47978" lon="1.57123">
        <ele>2066.01</ele>
        <time>2022-07-16T07:11:02Z</time>
      </trkpt>
      <trkpt lat="42.47979" lon="1.57113">
        <ele>2063.13</ele>
        <time>2022-07-16T07:11:18Z</time>
      </trkpt>
      <trkpt lat="42.47983" lon="1.57104">
        <ele>2061.2</ele>
        <time>2022-07-16T07:11:30Z</time>
      </trkpt>
      <trkpt lat="42.47983" lon="1.57098">
        <ele>2058.8</ele>
        <time>2022-07-16T07:11:42Z</time>
      </trkpt>
      <trkpt lat="42.47976" lon="1.57096">
        <ele>2055.92</ele>
        <time>2022-07-16T07:11:59Z</time>
      </trkpt>
      <trkpt lat="42.47975" lon="1.57088">
        <ele>2053.03</ele>
        <time>2022-07-16T07:12:15Z</time>
      </trkpt>
      <trkpt lat="42.47978" lon="1.57076">
        <ele>2050.63</ele>
        <time>2022-07-16T07:12:28Z</time>
      </trkpt>
      <trkpt lat="42.47981" lon="1.57068">
        <ele>2048.23</ele>
        <time>2022-07-16T07:12:42Z</time>
      </trkpt>
      <trkpt lat="42.47987" lon="1.57059">
        <ele>2045.82</ele>
        <time>2022-07-16T07:12:56Z</time>
      </trkpt>
      <trkpt lat="42.47983" lon="1.57055">
        <ele>2042.94</ele>
        <time>2022-07-16T07:13:09Z</time>
      </trkpt>
      <trkpt lat="42.47987" lon="1.57048">
        <ele>2041.02</ele>
        <time>2022-07-16T07:13:21Z</time>
      </trkpt>
      <trkpt lat="42.47992" lon="1.57041">
        <ele>2039.09</ele>
        <time>2022-07-16T07:13:34Z</time>
      </trkpt>
      <trkpt lat="42.47996" lon="1.5703">
        <ele>2037.65</ele>
        <time>2022-07-16T07:13:48Z</time>
      </trkpt>
      <trkpt lat="42.47995" lon="1.57023">
        <ele>2035.25</ele>
        <time>2022-07-16T07:14:00Z</time>
      </trkpt>
      <trkpt lat="42.47991" lon="1.5702">
        <ele>2032.36</ele>
        <time>2022-07-16T07:14:16Z</time>
      </trkpt>
      <trkpt lat="42.47994" lon="1.57021">
        <ele>2029.96</ele>
        <time>2022-07-16T07:14:31Z</time>
      </trkpt>
      <trkpt lat="42.47987" lon="1.57011">
        <ele>2027.08</ele>
        <time>2022-07-16T07:14:46Z</time>
      </trkpt>
      <trkpt lat="42.47991" lon="1.57004">
        <ele>2024.19</ele>
        <time>2022-07-16T07:15:00Z</time>
      </trkpt>
      <trkpt lat="42.47979" lon="1.56999">
        <ele>2021.31</ele>
        <time>2022-07-16T07:15:16Z</time>
      </trkpt>
      <trkpt lat="42.47978" lon="1.56997">
        <ele>2018.91</ele>
        <time>2022-07-16T07:15:32Z</time>
      </trkpt>
      <trkpt lat="42.47979" lon="1.56988">
        <ele>2016.5</ele>
        <time>2022-07-16T07:15:47Z</time>
      </trkpt>
      <trkpt lat="42.47982" lon="1.56977">
        <ele>2014.1</ele>
        <time>2022-07-16T07:15:58Z</time>
      </trkpt>
      <trkpt lat="42.47989" lon="1.56971">
        <ele>2011.7</ele>
        <time>2022-07-16T07:16:11Z</time>
      </trkpt>
      <trkpt lat="42.47994" lon="1.56964">
        <ele>2009.29</ele>
        <time>2022-07-16T07:16:24Z</time>
      </trkpt>
      <trkpt lat="42.47998" lon="1.56956">
        <ele>2005.93</ele>
        <time>2022-07-16T07:16:39Z</time>
      </trkpt>
      <trkpt lat="42.48006" lon="1.56947">
        <ele>2003.52</ele>
        <time>2022-07-16T07:16:53Z</time>
      </trkpt>
      <trkpt lat="42.4801" lon="1.56937">
        <ele>2000.16</ele>
        <time>2022-07-16T07:17:05Z</time>
      </trkpt>
      <trkpt lat="42.48013" lon="1.56924">
        <ele>1997.76</ele>
        <time>2022-07-16T07:17:20Z</time>
      </trkpt>
      <trkpt lat="42.48011" lon="1.56915">
        <ele>1994.87</ele>
        <time>2022-07-16T07:17:34Z</time>
      </trkpt>
      <trkpt lat="42.48004" lon="1.56906">
        <ele>1992.47</ele>
        <time>2022-07-16T07:17:50Z</time>
      </trkpt>
      <trkpt lat="42.48001" lon="1.569">
        <ele>1990.07</ele>
        <time>2022-07-16T07:18:04Z</time>
      </trkpt>
      <trkpt lat="42.48003" lon="1.56885">
        <ele>1988.14</ele>
        <time>2022-07-16T07:18:18Z</time>
      </trkpt>
      <trkpt lat="42.48008" lon="1.56886">
        <ele>1986.7</ele>
        <time>2022-07-16T07:18:37Z</time>
      </trkpt>
      <trkpt lat="42.48009" lon="1.56877">
        <ele>1985.26</ele>
        <time>2022-07-16T07:18:52Z</time>
      </trkpt>
      <trkpt lat="42.48015" lon="1.56875">
        <ele>1985.26</ele>
        <time>2022-07-16T07:18:59Z</time>
      </trkpt>
      <trkpt lat="42.4802" lon="1.56872">
        <ele>1984.3</ele>
        <time>2022-07-16T07:19:11Z</time>
      </trkpt>
      <trkpt lat="42.48031" lon="1.56867">
        <ele>1982.38</ele>
        <time>2022-07-16T07:19:26Z</time>
      </trkpt>
      <trkpt lat="42.48037" lon="1.56859">
        <ele>1980.45</ele>
        <time>2022-07-16T07:19:41Z</time>
      </trkpt>
      <trkpt lat="42.48043" lon="1.56849">
        <ele>1977.57</ele>
        <time>2022-07-16T07:19:55Z</time>
      </trkpt>
      <trkpt lat="42.48047" lon="1.56841">
        <ele>1975.65</ele>
        <time>2022-07-16T07:20:08Z</time>
      </trkpt>
      <trkpt lat="42.48053" lon="1.56832">
        <ele>1973.72</ele>
        <time>2022-07-16T07:20:21Z</time>
      </trkpt>
      <trkpt lat="42.4806" lon="1.56828">
        <ele>1971.8</ele>
        <time>2022-07-16T07:20:34Z</time>
      </trkpt>
      <trkpt lat="42.48064" lon="1.56825">
        <ele>1970.36</ele>
        <time>2022-07-16T07:20:49Z</time>
      </trkpt>
      <trkpt lat="42.48063" lon="1.56817">
        <ele>1968.44</ele>
        <time>2022-07-16T07:21:00Z</time>
      </trkpt>
      <trkpt lat="42.48066" lon="1.56814">
        <ele>1967.48</ele>
        <time>2022-07-16T07:21:06Z</time>
      </trkpt>
      <trkpt lat="42.48071" lon="1.5681">
        <ele>1965.55</ele>
        <time>2022-07-16T07:21:19Z</time>
      </trkpt>
      <trkpt lat="42.48078" lon="1.56801">
        <ele>1962.67</ele>
        <time>2022-07-16T07:21:32Z</time>
      </trkpt>
      <trkpt lat="42.48079" lon="1.56792">
        <ele>1960.27</ele>
        <time>2022-07-16T07:21:47Z</time>
      </trkpt>
      <trkpt lat="42.48082" lon="1.56787">
        <ele>1957.86</ele>
        <time>2022-07-16T07:22:01Z</time>
      </trkpt>
      <trkpt lat="42.48089" lon="1.56786">
        <ele>1955.94</ele>
        <time>2022-07-16T07:22:15Z</time>
      </trkpt>
      <trkpt lat="42.48094" lon="1.56787">
        <ele>1954.5</ele>
        <time>2022-07-16T07:22:25Z</time>
      </trkpt>
      <trkpt lat="42.48096" lon="1.56784">
        <ele>1953.06</ele>
        <time>2022-07-16T07:22:38Z</time>
      </trkpt>
      <trkpt lat="42.48104" lon="1.56782">
        <ele>1951.61</ele>
        <time>2022-07-16T07:22:49Z</time>
      </trkpt>
      <trkpt lat="42.48111" lon="1.56774">
        <ele>1949.21</ele>
        <time>2022-07-16T07:23:03Z</time>
      </trkpt>
      <trkpt lat="42.48113" lon="1.56768">
        <ele>1948.25</ele>
        <time>2022-07-16T07:23:18Z</time>
      </trkpt>
      <trkpt lat="42.48121" lon="1.56762">
        <ele>1946.81</ele>
        <time>2022-07-16T07:23:32Z</time>
      </trkpt>
      <trkpt lat="42.48125" lon="1.56754">
        <ele>1943.92</ele>
        <time>2022-07-16T07:23:46Z</time>
      </trkpt>
      <trkpt lat="42.48129" lon="1.56747">
        <ele>1942</ele>
        <time>2022-07-16T07:24:00Z</time>
      </trkpt>
      <trkpt lat="42.48136" lon="1.56743">
        <ele>1940.56</ele>
        <time>2022-07-16T07:24:14Z</time>
      </trkpt>
      <trkpt lat="42.48142" lon="1.56737">
        <ele>1939.6</ele>
        <time>2022-07-16T07:24:28Z</time>
      </trkpt>
      <trkpt lat="42.48151" lon="1.56733">
        <ele>1937.67</ele>
        <time>2022-07-16T07:24:44Z</time>
      </trkpt>
      <trkpt lat="42.48157" lon="1.56727">
        <ele>1936.23</ele>
        <time>2022-07-16T07:24:57Z</time>
      </trkpt>
      <trkpt lat="42.48163" lon="1.56718">
        <ele>1935.75</ele>
        <time>2022-07-16T07:25:12Z</time>
      </trkpt>
      <trkpt lat="42.48165" lon="1.56715">
        <ele>1934.79</ele>
        <time>2022-07-16T07:25:27Z</time>
      </trkpt>
      <trkpt lat="42.4817" lon="1.56715">
        <ele>1934.31</ele>
        <time>2022-07-16T07:25:33Z</time>
      </trkpt>
      <trkpt lat="42.48172" lon="1.56714">
        <ele>1933.83</ele>
        <time>2022-07-16T07:25:35Z</time>
      </trkpt>
      <trkpt lat="42.48186" lon="1.56699">
        <ele>1933.35</ele>
        <time>2022-07-16T07:25:50Z</time>
      </trkpt>
      <trkpt lat="42.48197" lon="1.56686">
        <ele>1932.87</ele>
        <time>2022-07-16T07:26:03Z</time>
      </trkpt>
      <trkpt lat="42.48205" lon="1.56679">
        <ele>1932.87</ele>
        <time>2022-07-16T07:26:17Z</time>
      </trkpt>
      <trkpt lat="42.48219" lon="1.56673">
        <ele>1930.95</ele>
        <time>2022-07-16T07:26:31Z</time>
      </trkpt>
      <trkpt lat="42.48229" lon="1.56665">
        <ele>1930.95</ele>
        <time>2022-07-16T07:26:43Z</time>
      </trkpt>
      <trkpt lat="42.48231" lon="1.56662">
        <ele>1930.95</ele>
        <time>2022-07-16T07:26:46Z</time>
      </trkpt>
      <trkpt lat="42.48237" lon="1.56657">
        <ele>1930.46</ele>
        <time>2022-07-16T07:26:54Z</time>
      </trkpt>
      <trkpt lat="42.48248" lon="1.56659">
        <ele>1930.46</ele>
        <time>2022-07-16T07:27:06Z</time>
      </trkpt>
      <trkpt lat="42.48257" lon="1.56658">
        <ele>1930.46</ele>
        <time>2022-07-16T07:27:19Z</time>
      </trkpt>
      <trkpt lat="42.48265" lon="1.56647">
        <ele>1929.5</ele>
        <time>2022-07-16T07:27:32Z</time>
      </trkpt>
      <trkpt lat="42.48268" lon="1.56638">
        <ele>1927.58</ele>
        <time>2022-07-16T07:27:43Z</time>
      </trkpt>
      <trkpt lat="42.48269" lon="1.56628">
        <ele>1926.14</ele>
        <time>2022-07-16T07:27:57Z</time>
      </trkpt>
      <trkpt lat="42.48278" lon="1.56629">
        <ele>1925.66</ele>
        <time>2022-07-16T07:28:09Z</time>
      </trkpt>
      <trkpt lat="42.48286" lon="1.5662">
        <ele>1924.7</ele>
        <time>2022-07-16T07:28:22Z</time>
      </trkpt>
      <trkpt lat="42.48287" lon="1.56613">
        <ele>1923.74</ele>
        <time>2022-07-16T07:28:33Z</time>
      </trkpt>
      <trkpt lat="42.48294" lon="1.56612">
        <ele>1923.74</ele>
        <time>2022-07-16T07:28:45Z</time>
      </trkpt>
      <trkpt lat="42.48297" lon="1.56613">
        <ele>1923.25</ele>
        <time>2022-07-16T07:29:00Z</time>
      </trkpt>
      <trkpt lat="42.48304" lon="1.56613">
        <ele>1922.29</ele>
        <time>2022-07-16T07:29:12Z</time>
      </trkpt>
      <trkpt lat="42.48307" lon="1.56611">
        <ele>1921.81</ele>
        <time>2022-07-16T07:29:17Z</time>
      </trkpt>
      <trkpt lat="42.48314" lon="1.56604">
        <ele>1920.37</ele>
        <time>2022-07-16T07:29:29Z</time>
      </trkpt>
      <trkpt lat="42.48323" lon="1.56603">
        <ele>1918.93</ele>
        <time>2022-07-16T07:29:41Z</time>
      </trkpt>
      <trkpt lat="42.48329" lon="1.56602">
        <ele>1917.49</ele>
        <time>2022-07-16T07:29:52Z</time>
      </trkpt>
      <trkpt lat="42.48336" lon="1.56601">
        <ele>1916.04</ele>
        <time>2022-07-16T07:30:05Z</time>
      </trkpt>
      <trkpt lat="42.48332" lon="1.56603">
        <ele>1915.56</ele>
        <time>2022-07-16T07:30:23Z</time>
      </trkpt>
      <trkpt lat="42.48336" lon="1.56601">
        <ele>1915.56</ele>
        <time>2022-07-16T07:30:39Z</time>
      </trkpt>
      <trkpt lat="42.48339" lon="1.566">
        <ele>1915.08</ele>
        <time>2022-07-16T07:30:43Z</time>
      </trkpt>
      <trkpt lat="42.48349" lon="1.56583">
        <ele>1913.16</ele>
        <time>2022-07-16T07:30:56Z</time>
      </trkpt>
      <trkpt lat="42.48357" lon="1.56566">
        <ele>1910.76</ele>
        <time>2022-07-16T07:31:08Z</time>
      </trkpt>
      <trkpt lat="42.4836" lon="1.56559">
        <ele>1908.83</ele>
        <time>2022-07-16T07:31:20Z</time>
      </trkpt>
      <trkpt lat="42.48363" lon="1.56554">
        <ele>1906.91</ele>
        <time>2022-07-16T07:31:32Z</time>
      </trkpt>
      <trkpt lat="42.48373" lon="1.56553">
        <ele>1904.51</ele>
        <time>2022-07-16T07:31:45Z</time>
      </trkpt>
      <trkpt lat="42.48376" lon="1.5655">
        <ele>1903.55</ele>
        <time>2022-07-16T07:31:50Z</time>
      </trkpt>
      <trkpt lat="42.48385" lon="1.56547">
        <ele>1902.11</ele>
        <time>2022-07-16T07:32:04Z</time>
      </trkpt>
      <trkpt lat="42.4839" lon="1.56541">
        <ele>1900.18</ele>
        <time>2022-07-16T07:32:17Z</time>
      </trkpt>
      <trkpt lat="42.48394" lon="1.5654">
        <ele>1899.22</ele>
        <time>2022-07-16T07:32:23Z</time>
      </trkpt>
      <trkpt lat="42.48396" lon="1.56529">
        <ele>1897.3</ele>
        <time>2022-07-16T07:32:35Z</time>
      </trkpt>
      <trkpt lat="42.484" lon="1.56514">
        <ele>1894.9</ele>
        <time>2022-07-16T07:32:48Z</time>
      </trkpt>
      <trkpt lat="42.48407" lon="1.56503">
        <ele>1893.45</ele>
        <time>2022-07-16T07:33:01Z</time>
      </trkpt>
      <trkpt lat="42.4841" lon="1.56494">
        <ele>1891.05</ele>
        <time>2022-07-16T07:33:13Z</time>
      </trkpt>
      <trkpt lat="42.48415" lon="1.56484">
        <ele>1889.13</ele>
        <time>2022-07-16T07:33:25Z</time>
      </trkpt>
      <trkpt lat="42.48426" lon="1.56477">
        <ele>1887.69</ele>
        <time>2022-07-16T07:33:39Z</time>
      </trkpt>
      <trkpt lat="42.48426" lon="1.56477">
        <ele>1887.21</ele>
        <time>2022-07-16T07:33:40Z</time>
      </trkpt>
      <trkpt lat="42.48429" lon="1.56475">
        <ele>1887.21</ele>
        <time>2022-07-16T07:33:42Z</time>
      </trkpt>
      <trkpt lat="42.48435" lon="1.56474">
        <ele>1885.76</ele>
        <time>2022-07-16T07:33:55Z</time>
      </trkpt>
      <trkpt lat="42.48443" lon="1.56474">
        <ele>1883.36</ele>
        <time>2022-07-16T07:34:11Z</time>
      </trkpt>
      <trkpt lat="42.48448" lon="1.56474">
        <ele>1881.92</ele>
        <time>2022-07-16T07:34:24Z</time>
      </trkpt>
      <trkpt lat="42.48449" lon="1.56474">
        <ele>1881.92</ele>
        <time>2022-07-16T07:34:26Z</time>
      </trkpt>
      <trkpt lat="42.4845" lon="1.5646">
        <ele>1879.51</ele>
        <time>2022-07-16T07:34:40Z</time>
      </trkpt>
      <trkpt lat="42.48453" lon="1.56459">
        <ele>1878.07</ele>
        <time>2022-07-16T07:34:48Z</time>
      </trkpt>
      <trkpt lat="42.48459" lon="1.56457">
        <ele>1876.15</ele>
        <time>2022-07-16T07:34:59Z</time>
      </trkpt>
      <trkpt lat="42.48468" lon="1.56461">
        <ele>1874.71</ele>
        <time>2022-07-16T07:35:12Z</time>
      </trkpt>
      <trkpt lat="42.48472" lon="1.56458">
        <ele>1873.27</ele>
        <time>2022-07-16T07:35:26Z</time>
      </trkpt>
      <trkpt lat="42.48475" lon="1.56447">
        <ele>1870.86</ele>
        <time>2022-07-16T07:35:39Z</time>
      </trkpt>
      <trkpt lat="42.4848" lon="1.56449">
        <ele>1868.94</ele>
        <time>2022-07-16T07:35:50Z</time>
      </trkpt>
      <trkpt lat="42.48488" lon="1.56447">
        <ele>1867.02</ele>
        <time>2022-07-16T07:36:01Z</time>
      </trkpt>
      <trkpt lat="42.48495" lon="1.56448">
        <ele>1865.58</ele>
        <time>2022-07-16T07:36:13Z</time>
      </trkpt>
      <trkpt lat="42.485" lon="1.56444">
        <ele>1863.65</ele>
        <time>2022-07-16T07:36:24Z</time>
      </trkpt>
      <trkpt lat="42.48509" lon="1.56446">
        <ele>1862.21</ele>
        <time>2022-07-16T07:36:38Z</time>
      </trkpt>
      <trkpt lat="42.48518" lon="1.56449">
        <ele>1860.29</ele>
        <time>2022-07-16T07:36:52Z</time>
      </trkpt>
      <trkpt lat="42.48523" lon="1.56443">
        <ele>1858.85</ele>
        <time>2022-07-16T07:37:02Z</time>
      </trkpt>
      <trkpt lat="42.48527" lon="1.56442">
        <ele>1856.92</ele>
        <time>2022-07-16T07:37:15Z</time>
      </trkpt>
      <trkpt lat="42.48529" lon="1.56442">
        <ele>1855</ele>
        <time>2022-07-16T07:37:27Z</time>
      </trkpt>
      <trkpt lat="42.48536" lon="1.56439">
        <ele>1853.08</ele>
        <time>2022-07-16T07:37:39Z</time>
      </trkpt>
      <trkpt lat="42.48543" lon="1.56436">
        <ele>1851.16</ele>
        <time>2022-07-16T07:37:50Z</time>
      </trkpt>
      <trkpt lat="42.4855" lon="1.56434">
        <ele>1849.71</ele>
        <time>2022-07-16T07:38:03Z</time>
      </trkpt>
      <trkpt lat="42.48555" lon="1.56425">
        <ele>1846.83</ele>
        <time>2022-07-16T07:38:18Z</time>
      </trkpt>
      <trkpt lat="42.48558" lon="1.56423">
        <ele>1845.87</ele>
        <time>2022-07-16T07:38:37Z</time>
      </trkpt>
      <trkpt lat="42.48566" lon="1.56426">
        <ele>1843.95</ele>
        <time>2022-07-16T07:38:53Z</time>
      </trkpt>
      <trkpt lat="42.4857" lon="1.56424">
        <ele>1842.02</ele>
        <time>2022-07-16T07:39:04Z</time>
      </trkpt>
      <trkpt lat="42.48576" lon="1.5642">
        <ele>1840.58</ele>
        <time>2022-07-16T07:39:17Z</time>
      </trkpt>
      <trkpt lat="42.48576" lon="1.56413">
        <ele>1839.14</ele>
        <time>2022-07-16T07:39:30Z</time>
      </trkpt>
      <trkpt lat="42.48574" lon="1.56413">
        <ele>1839.14</ele>
        <time>2022-07-16T07:39:49Z</time>
      </trkpt>
      <trkpt lat="42.48575" lon="1.56414">
        <ele>1839.14</ele>
        <time>2022-07-16T07:40:13Z</time>
      </trkpt>
      <trkpt lat="42.48581" lon="1.56418">
        <ele>1838.66</ele>
        <time>2022-07-16T07:40:28Z</time>
      </trkpt>
      <trkpt lat="42.48591" lon="1.56426">
        <ele>1836.74</ele>
        <time>2022-07-16T07:40:43Z</time>
      </trkpt>
      <trkpt lat="42.48595" lon="1.56421">
        <ele>1834.81</ele>
        <time>2022-07-16T07:40:55Z</time>
      </trkpt>
      <trkpt lat="42.48601" lon="1.56417">
        <ele>1833.37</ele>
        <time>2022-07-16T07:41:07Z</time>
      </trkpt>
      <trkpt lat="42.48603" lon="1.56413">
        <ele>1831.45</ele>
        <time>2022-07-16T07:41:21Z</time>
      </trkpt>
      <trkpt lat="42.48606" lon="1.56411">
        <ele>1829.53</ele>
        <time>2022-07-16T07:41:35Z</time>
      </trkpt>
      <trkpt lat="42.48613" lon="1.56408">
        <ele>1829.05</ele>
        <time>2022-07-16T07:41:50Z</time>
      </trkpt>
      <trkpt lat="42.4862" lon="1.56403">
        <ele>1827.6</ele>
        <time>2022-07-16T07:42:02Z</time>
      </trkpt>
      <trkpt lat="42.48622" lon="1.56394">
        <ele>1825.68</ele>
        <time>2022-07-16T07:42:15Z</time>
      </trkpt>
      <trkpt lat="42.48619" lon="1.56397">
        <ele>1825.2</ele>
        <time>2022-07-16T07:42:30Z</time>
      </trkpt>
      <trkpt lat="42.48619" lon="1.56399">
        <ele>1825.2</ele>
        <time>2022-07-16T07:42:34Z</time>
      </trkpt>
      <trkpt lat="42.48638" lon="1.56404">
        <ele>1826.64</ele>
        <time>2022-07-16T07:48:01Z</time>
      </trkpt>
      <trkpt lat="42.48638" lon="1.56405">
        <ele>1827.6</ele>
        <time>2022-07-16T07:48:18Z</time>
      </trkpt>
      <trkpt lat="42.48637" lon="1.56405">
        <ele>1827.6</ele>
        <time>2022-07-16T07:48:36Z</time>
      </trkpt>
      <trkpt lat="42.48624" lon="1.564">
        <ele>1827.6</ele>
        <time>2022-07-16T07:48:55Z</time>
      </trkpt>
      <trkpt lat="42.48623" lon="1.56398">
        <ele>1827.6</ele>
        <time>2022-07-16T07:49:11Z</time>
      </trkpt>
      <trkpt lat="42.48626" lon="1.56396">
        <ele>1827.6</ele>
        <time>2022-07-16T07:49:22Z</time>
      </trkpt>
      <trkpt lat="42.48653" lon="1.56364">
        <ele>1825.2</ele>
        <time>2022-07-16T07:49:34Z</time>
      </trkpt>
      <trkpt lat="42.48666" lon="1.56359">
        <ele>1823.76</ele>
        <time>2022-07-16T07:49:43Z</time>
      </trkpt>
      <trkpt lat="42.48666" lon="1.56359">
        <ele>1821.84</ele>
        <time>2022-07-16T07:49:55Z</time>
      </trkpt>
      <trkpt lat="42.48671" lon="1.56357">
        <ele>1819.43</ele>
        <time>2022-07-16T07:50:09Z</time>
      </trkpt>
      <trkpt lat="42.48666" lon="1.56355">
        <ele>1817.51</ele>
        <time>2022-07-16T07:50:22Z</time>
      </trkpt>
      <trkpt lat="42.48664" lon="1.56347">
        <ele>1816.07</ele>
        <time>2022-07-16T07:50:36Z</time>
      </trkpt>
      <trkpt lat="42.48657" lon="1.56339">
        <ele>1813.18</ele>
        <time>2022-07-16T07:50:48Z</time>
      </trkpt>
      <trkpt lat="42.48676" lon="1.56336">
        <ele>1810.78</ele>
        <time>2022-07-16T07:51:00Z</time>
      </trkpt>
      <trkpt lat="42.48692" lon="1.5634">
        <ele>1811.26</ele>
        <time>2022-07-16T07:51:15Z</time>
      </trkpt>
      <trkpt lat="42.48693" lon="1.56341">
        <ele>1809.82</ele>
        <time>2022-07-16T07:51:18Z</time>
      </trkpt>
      <trkpt lat="42.48698" lon="1.56342">
        <ele>1808.38</ele>
        <time>2022-07-16T07:51:31Z</time>
      </trkpt>
      <trkpt lat="42.48707" lon="1.56344">
        <ele>1806.94</ele>
        <time>2022-07-16T07:51:44Z</time>
      </trkpt>
      <trkpt lat="42.48717" lon="1.56346">
        <ele>1806.45</ele>
        <time>2022-07-16T07:51:56Z</time>
      </trkpt>
      <trkpt lat="42.4872" lon="1.56343">
        <ele>1804.53</ele>
        <time>2022-07-16T07:52:07Z</time>
      </trkpt>
      <trkpt lat="42.48717" lon="1.56339">
        <ele>1803.09</ele>
        <time>2022-07-16T07:52:20Z</time>
      </trkpt>
      <trkpt lat="42.48715" lon="1.5634">
        <ele>1801.65</ele>
        <time>2022-07-16T07:52:33Z</time>
      </trkpt>
      <trkpt lat="42.48715" lon="1.56341">
        <ele>1799.73</ele>
        <time>2022-07-16T07:52:43Z</time>
      </trkpt>
      <trkpt lat="42.48724" lon="1.5634">
        <ele>1797.32</ele>
        <time>2022-07-16T07:52:55Z</time>
      </trkpt>
      <trkpt lat="42.48726" lon="1.56337">
        <ele>1795.4</ele>
        <time>2022-07-16T07:53:06Z</time>
      </trkpt>
      <trkpt lat="42.48732" lon="1.56336">
        <ele>1793.48</ele>
        <time>2022-07-16T07:53:17Z</time>
      </trkpt>
      <trkpt lat="42.48738" lon="1.56332">
        <ele>1791.55</ele>
        <time>2022-07-16T07:53:31Z</time>
      </trkpt>
      <trkpt lat="42.48739" lon="1.56327">
        <ele>1789.15</ele>
        <time>2022-07-16T07:53:43Z</time>
      </trkpt>
      <trkpt lat="42.48746" lon="1.56325">
        <ele>1787.71</ele>
        <time>2022-07-16T07:53:58Z</time>
      </trkpt>
      <trkpt lat="42.48749" lon="1.56321">
        <ele>1786.27</ele>
        <time>2022-07-16T07:54:07Z</time>
      </trkpt>
      <trkpt lat="42.4876" lon="1.56323">
        <ele>1784.34</ele>
        <time>2022-07-16T07:54:18Z</time>
      </trkpt>
      <trkpt lat="42.48767" lon="1.56326">
        <ele>1784.34</ele>
        <time>2022-07-16T07:54:29Z</time>
      </trkpt>
      <trkpt lat="42.48774" lon="1.56329">
        <ele>1782.42</ele>
        <time>2022-07-16T07:54:42Z</time>
      </trkpt>
      <trkpt lat="42.4878" lon="1.56329">
        <ele>1780.5</ele>
        <time>2022-07-16T07:54:56Z</time>
      </trkpt>
      <trkpt lat="42.48792" lon="1.5633">
        <ele>1778.58</ele>
        <time>2022-07-16T07:55:09Z</time>
      </trkpt>
      <trkpt lat="42.48793" lon="1.56323">
        <ele>1776.17</ele>
        <time>2022-07-16T07:55:21Z</time>
      </trkpt>
      <trkpt lat="42.48795" lon="1.56323">
        <ele>1774.25</ele>
        <time>2022-07-16T07:55:35Z</time>
      </trkpt>
      <trkpt lat="42.48806" lon="1.5632">
        <ele>1771.85</ele>
        <time>2022-07-16T07:55:48Z</time>
      </trkpt>
      <trkpt lat="42.48817" lon="1.56317">
        <ele>1769.92</ele>
        <time>2022-07-16T07:56:03Z</time>
      </trkpt>
      <trkpt lat="42.48825" lon="1.56317">
        <ele>1767.52</ele>
        <time>2022-07-16T07:56:17Z</time>
      </trkpt>
      <trkpt lat="42.48837" lon="1.56318">
        <ele>1764.64</ele>
        <time>2022-07-16T07:56:31Z</time>
      </trkpt>
      <trkpt lat="42.48841" lon="1.56313">
        <ele>1764.16</ele>
        <time>2022-07-16T07:56:42Z</time>
      </trkpt>
      <trkpt lat="42.48851" lon="1.56315">
        <ele>1762.23</ele>
        <time>2022-07-16T07:56:57Z</time>
      </trkpt>
      <trkpt lat="42.48815" lon="1.56287">
        <ele>1761.27</ele>
        <time>2022-07-16T07:57:14Z</time>
      </trkpt>
      <trkpt lat="42.48805" lon="1.56297">
        <ele>1759.83</ele>
        <time>2022-07-16T07:57:29Z</time>
      </trkpt>
      <trkpt lat="42.48798" lon="1.56295">
        <ele>1757.91</ele>
        <time>2022-07-16T07:57:42Z</time>
      </trkpt>
      <trkpt lat="42.48803" lon="1.56292">
        <ele>1755.5</ele>
        <time>2022-07-16T07:57:55Z</time>
      </trkpt>
      <trkpt lat="42.4881" lon="1.5629">
        <ele>1752.62</ele>
        <time>2022-07-16T07:58:07Z</time>
      </trkpt>
      <trkpt lat="42.48815" lon="1.56287">
        <ele>1750.22</ele>
        <time>2022-07-16T07:58:21Z</time>
      </trkpt>
      <trkpt lat="42.48818" lon="1.56281">
        <ele>1748.29</ele>
        <time>2022-07-16T07:58:34Z</time>
      </trkpt>
      <trkpt lat="42.48825" lon="1.5628">
        <ele>1746.37</ele>
        <time>2022-07-16T07:58:46Z</time>
      </trkpt>
      <trkpt lat="42.48832" lon="1.56278">
        <ele>1743.49</ele>
        <time>2022-07-16T07:59:00Z</time>
      </trkpt>
      <trkpt lat="42.48841" lon="1.56279">
        <ele>1740.6</ele>
        <time>2022-07-16T07:59:14Z</time>
      </trkpt>
      <trkpt lat="42.48842" lon="1.56272">
        <ele>1737.72</ele>
        <time>2022-07-16T07:59:28Z</time>
      </trkpt>
      <trkpt lat="42.48841" lon="1.56271">
        <ele>1737.72</ele>
        <time>2022-07-16T07:59:30Z</time>
      </trkpt>
      <trkpt lat="42.48848" lon="1.56268">
        <ele>1734.84</ele>
        <time>2022-07-16T07:59:44Z</time>
      </trkpt>
      <trkpt lat="42.4886" lon="1.56264">
        <ele>1732.91</ele>
        <time>2022-07-16T07:59:57Z</time>
      </trkpt>
      <trkpt lat="42.48873" lon="1.56268">
        <ele>1730.99</ele>
        <time>2022-07-16T08:00:12Z</time>
      </trkpt>
      <trkpt lat="42.4888" lon="1.56269">
        <ele>1728.11</ele>
        <time>2022-07-16T08:00:26Z</time>
      </trkpt>
      <trkpt lat="42.48887" lon="1.5627">
        <ele>1726.18</ele>
        <time>2022-07-16T08:00:40Z</time>
      </trkpt>
      <trkpt lat="42.48891" lon="1.56272">
        <ele>1724.26</ele>
        <time>2022-07-16T08:00:52Z</time>
      </trkpt>
      <trkpt lat="42.48897" lon="1.56273">
        <ele>1720.9</ele>
        <time>2022-07-16T08:01:07Z</time>
      </trkpt>
      <trkpt lat="42.48898" lon="1.56279">
        <ele>1718.49</ele>
        <time>2022-07-16T08:01:21Z</time>
      </trkpt>
      <trkpt lat="42.48909" lon="1.56273">
        <ele>1715.13</ele>
        <time>2022-07-16T08:01:35Z</time>
      </trkpt>
      <trkpt lat="42.48918" lon="1.5627">
        <ele>1712.25</ele>
        <time>2022-07-16T08:01:48Z</time>
      </trkpt>
      <trkpt lat="42.48923" lon="1.56266">
        <ele>1709.36</ele>
        <time>2022-07-16T08:02:02Z</time>
      </trkpt>
      <trkpt lat="42.4893" lon="1.56266">
        <ele>1707.92</ele>
        <time>2022-07-16T08:02:16Z</time>
      </trkpt>
      <trkpt lat="42.48934" lon="1.56267">
        <ele>1706.96</ele>
        <time>2022-07-16T08:02:30Z</time>
      </trkpt>
      <trkpt lat="42.48938" lon="1.56265">
        <ele>1706</ele>
        <time>2022-07-16T08:02:37Z</time>
      </trkpt>
      <trkpt lat="42.48945" lon="1.56263">
        <ele>1704.07</ele>
        <time>2022-07-16T08:02:51Z</time>
      </trkpt>
      <trkpt lat="42.48949" lon="1.56259">
        <ele>1702.15</ele>
        <time>2022-07-16T08:02:58Z</time>
      </trkpt>
      <trkpt lat="42.48958" lon="1.56252">
        <ele>1700.23</ele>
        <time>2022-07-16T08:03:12Z</time>
      </trkpt>
      <trkpt lat="42.48961" lon="1.56251">
        <ele>1698.31</ele>
        <time>2022-07-16T08:03:24Z</time>
      </trkpt>
      <trkpt lat="42.48965" lon="1.56251">
        <ele>1696.38</ele>
        <time>2022-07-16T08:03:38Z</time>
      </trkpt>
      <trkpt lat="42.48971" lon="1.56246">
        <ele>1694.46</ele>
        <time>2022-07-16T08:03:53Z</time>
      </trkpt>
      <trkpt lat="42.48978" lon="1.56241">
        <ele>1691.58</ele>
        <time>2022-07-16T08:04:09Z</time>
      </trkpt>
      <trkpt lat="42.48988" lon="1.56237">
        <ele>1688.69</ele>
        <time>2022-07-16T08:04:22Z</time>
      </trkpt>
      <trkpt lat="42.48992" lon="1.56235">
        <ele>1686.29</ele>
        <time>2022-07-16T08:04:36Z</time>
      </trkpt>
      <trkpt lat="42.48993" lon="1.56234">
        <ele>1683.89</ele>
        <time>2022-07-16T08:04:48Z</time>
      </trkpt>
      <trkpt lat="42.48989" lon="1.56231">
        <ele>1682.93</ele>
        <time>2022-07-16T08:05:09Z</time>
      </trkpt>
      <trkpt lat="42.48996" lon="1.56228">
        <ele>1681.96</ele>
        <time>2022-07-16T08:05:25Z</time>
      </trkpt>
      <trkpt lat="42.49002" lon="1.56231">
        <ele>1679.08</ele>
        <time>2022-07-16T08:05:39Z</time>
      </trkpt>
      <trkpt lat="42.49017" lon="1.56238">
        <ele>1676.68</ele>
        <time>2022-07-16T08:05:54Z</time>
      </trkpt>
      <trkpt lat="42.49028" lon="1.5624">
        <ele>1673.79</ele>
        <time>2022-07-16T08:06:07Z</time>
      </trkpt>
      <trkpt lat="42.49035" lon="1.5624">
        <ele>1670.91</ele>
        <time>2022-07-16T08:06:23Z</time>
      </trkpt>
      <trkpt lat="42.49038" lon="1.56234">
        <ele>1667.54</ele>
        <time>2022-07-16T08:06:36Z</time>
      </trkpt>
      <trkpt lat="42.49046" lon="1.56231">
        <ele>1667.54</ele>
        <time>2022-07-16T08:06:51Z</time>
      </trkpt>
      <trkpt lat="42.49048" lon="1.56233">
        <ele>1666.1</ele>
        <time>2022-07-16T08:07:08Z</time>
      </trkpt>
      <trkpt lat="42.49056" lon="1.56234">
        <ele>1665.62</ele>
        <time>2022-07-16T08:07:24Z</time>
      </trkpt>
      <trkpt lat="42.49065" lon="1.56232">
        <ele>1664.18</ele>
        <time>2022-07-16T08:07:36Z</time>
      </trkpt>
      <trkpt lat="42.49067" lon="1.56228">
        <ele>1661.78</ele>
        <time>2022-07-16T08:07:47Z</time>
      </trkpt>
      <trkpt lat="42.4906" lon="1.56222">
        <ele>1661.78</ele>
        <time>2022-07-16T08:08:04Z</time>
      </trkpt>
      <trkpt lat="42.49063" lon="1.56219">
        <ele>1660.81</ele>
        <time>2022-07-16T08:08:16Z</time>
      </trkpt>
      <trkpt lat="42.49075" lon="1.56218">
        <ele>1659.85</ele>
        <time>2022-07-16T08:08:33Z</time>
      </trkpt>
      <trkpt lat="42.4908" lon="1.56218">
        <ele>1657.45</ele>
        <time>2022-07-16T08:08:45Z</time>
      </trkpt>
      <trkpt lat="42.49085" lon="1.56216">
        <ele>1655.05</ele>
        <time>2022-07-16T08:08:57Z</time>
      </trkpt>
      <trkpt lat="42.49093" lon="1.56217">
        <ele>1653.12</ele>
        <time>2022-07-16T08:09:10Z</time>
      </trkpt>
      <trkpt lat="42.49096" lon="1.56219">
        <ele>1652.16</ele>
        <time>2022-07-16T08:09:17Z</time>
      </trkpt>
      <trkpt lat="42.49105" lon="1.56217">
        <ele>1649.28</ele>
        <time>2022-07-16T08:09:30Z</time>
      </trkpt>
      <trkpt lat="42.49116" lon="1.56216">
        <ele>1646.88</ele>
        <time>2022-07-16T08:09:43Z</time>
      </trkpt>
      <trkpt lat="42.49121" lon="1.56216">
        <ele>1644.47</ele>
        <time>2022-07-16T08:09:56Z</time>
      </trkpt>
      <trkpt lat="42.49124" lon="1.56214">
        <ele>1642.55</ele>
        <time>2022-07-16T08:10:09Z</time>
      </trkpt>
      <trkpt lat="42.4913" lon="1.56212">
        <ele>1639.67</ele>
        <time>2022-07-16T08:10:22Z</time>
      </trkpt>
      <trkpt lat="42.49134" lon="1.5621">
        <ele>1637.74</ele>
        <time>2022-07-16T08:10:34Z</time>
      </trkpt>
      <trkpt lat="42.49136" lon="1.56212">
        <ele>1635.34</ele>
        <time>2022-07-16T08:10:47Z</time>
      </trkpt>
      <trkpt lat="42.49142" lon="1.56211">
        <ele>1632.94</ele>
        <time>2022-07-16T08:11:00Z</time>
      </trkpt>
      <trkpt lat="42.49147" lon="1.56206">
        <ele>1631.01</ele>
        <time>2022-07-16T08:11:12Z</time>
      </trkpt>
      <trkpt lat="42.49146" lon="1.56194">
        <ele>1628.61</ele>
        <time>2022-07-16T08:11:25Z</time>
      </trkpt>
      <trkpt lat="42.49153" lon="1.56191">
        <ele>1626.69</ele>
        <time>2022-07-16T08:11:41Z</time>
      </trkpt>
      <trkpt lat="42.49159" lon="1.562">
        <ele>1624.77</ele>
        <time>2022-07-16T08:11:55Z</time>
      </trkpt>
      <trkpt lat="42.49164" lon="1.56197">
        <ele>1622.36</ele>
        <time>2022-07-16T08:12:08Z</time>
      </trkpt>
      <trkpt lat="42.49169" lon="1.56196">
        <ele>1620.44</ele>
        <time>2022-07-16T08:12:22Z</time>
      </trkpt>
      <trkpt lat="42.49177" lon="1.56199">
        <ele>1618.04</ele>
        <time>2022-07-16T08:12:35Z</time>
      </trkpt>
      <trkpt lat="42.49189" lon="1.56206">
        <ele>1615.63</ele>
        <time>2022-07-16T08:12:50Z</time>
      </trkpt>
      <trkpt lat="42.49194" lon="1.5621">
        <ele>1612.75</ele>
        <time>2022-07-16T08:13:03Z</time>
      </trkpt>
      <trkpt lat="42.49195" lon="1.56211">
        <ele>1610.83</ele>
        <time>2022-07-16T08:13:11Z</time>
      </trkpt>
      <trkpt lat="42.49194" lon="1.56202">
        <ele>1608.42</ele>
        <time>2022-07-16T08:13:24Z</time>
      </trkpt>
      <trkpt lat="42.49203" lon="1.56202">
        <ele>1606.5</ele>
        <time>2022-07-16T08:13:35Z</time>
      </trkpt>
      <trkpt lat="42.49211" lon="1.56204">
        <ele>1604.58</ele>
        <time>2022-07-16T08:13:45Z</time>
      </trkpt>
      <trkpt lat="42.49225" lon="1.56206">
        <ele>1601.69</ele>
        <time>2022-07-16T08:13:59Z</time>
      </trkpt>
      <trkpt lat="42.49236" lon="1.56201">
        <ele>1599.77</ele>
        <time>2022-07-16T08:14:12Z</time>
      </trkpt>
      <trkpt lat="42.49242" lon="1.56195">
        <ele>1597.37</ele>
        <time>2022-07-16T08:14:26Z</time>
      </trkpt>
      <trkpt lat="42.49246" lon="1.56189">
        <ele>1594</ele>
        <time>2022-07-16T08:14:43Z</time>
      </trkpt>
      <trkpt lat="42.49251" lon="1.56182">
        <ele>1592.56</ele>
        <time>2022-07-16T08:14:58Z</time>
      </trkpt>
      <trkpt lat="42.49257" lon="1.56177">
        <ele>1590.16</ele>
        <time>2022-07-16T08:15:13Z</time>
      </trkpt>
      <trkpt lat="42.49265" lon="1.56172">
        <ele>1589.2</ele>
        <time>2022-07-16T08:15:26Z</time>
      </trkpt>
      <trkpt lat="42.4927" lon="1.56164">
        <ele>1586.31</ele>
        <time>2022-07-16T08:15:39Z</time>
      </trkpt>
      <trkpt lat="42.4928" lon="1.56159">
        <ele>1584.87</ele>
        <time>2022-07-16T08:15:52Z</time>
      </trkpt>
      <trkpt lat="42.49288" lon="1.56159">
        <ele>1582.47</ele>
        <time>2022-07-16T08:16:07Z</time>
      </trkpt>
      <trkpt lat="42.49298" lon="1.56162">
        <ele>1580.06</ele>
        <time>2022-07-16T08:16:21Z</time>
      </trkpt>
      <trkpt lat="42.49307" lon="1.56164">
        <ele>1577.66</ele>
        <time>2022-07-16T08:16:35Z</time>
      </trkpt>
      <trkpt lat="42.49317" lon="1.56164">
        <ele>1574.78</ele>
        <time>2022-07-16T08:16:49Z</time>
      </trkpt>
      <trkpt lat="42.49327" lon="1.56161">
        <ele>1573.82</ele>
        <time>2022-07-16T08:17:03Z</time>
      </trkpt>
      <trkpt lat="42.49336" lon="1.5616">
        <ele>1571.41</ele>
        <time>2022-07-16T08:17:14Z</time>
      </trkpt>
      <trkpt lat="42.49343" lon="1.56154">
        <ele>1569.01</ele>
        <time>2022-07-16T08:17:27Z</time>
      </trkpt>
      <trkpt lat="42.49352" lon="1.56147">
        <ele>1566.61</ele>
        <time>2022-07-16T08:17:39Z</time>
      </trkpt>
      <trkpt lat="42.49365" lon="1.56145">
        <ele>1564.2</ele>
        <time>2022-07-16T08:17:52Z</time>
      </trkpt>
      <trkpt lat="42.49374" lon="1.56143">
        <ele>1561.8</ele>
        <time>2022-07-16T08:18:07Z</time>
      </trkpt>
      <trkpt lat="42.49379" lon="1.56143">
        <ele>1558.92</ele>
        <time>2022-07-16T08:18:21Z</time>
      </trkpt>
      <trkpt lat="42.49386" lon="1.56137">
        <ele>1556.03</ele>
        <time>2022-07-16T08:18:35Z</time>
      </trkpt>
      <trkpt lat="42.49392" lon="1.56133">
        <ele>1553.15</ele>
        <time>2022-07-16T08:18:50Z</time>
      </trkpt>
      <trkpt lat="42.49401" lon="1.56131">
        <ele>1550.74</ele>
        <time>2022-07-16T08:19:03Z</time>
      </trkpt>
      <trkpt lat="42.49413" lon="1.56127">
        <ele>1547.86</ele>
        <time>2022-07-16T08:19:18Z</time>
      </trkpt>
      <trkpt lat="42.49424" lon="1.56128">
        <ele>1545.46</ele>
        <time>2022-07-16T08:19:33Z</time>
      </trkpt>
      <trkpt lat="42.49429" lon="1.56122">
        <ele>1542.57</ele>
        <time>2022-07-16T08:19:46Z</time>
      </trkpt>
      <trkpt lat="42.49432" lon="1.56122">
        <ele>1541.13</ele>
        <time>2022-07-16T08:19:59Z</time>
      </trkpt>
      <trkpt lat="42.49443" lon="1.56124">
        <ele>1540.17</ele>
        <time>2022-07-16T08:20:16Z</time>
      </trkpt>
      <trkpt lat="42.4945" lon="1.56121">
        <ele>1538.25</ele>
        <time>2022-07-16T08:20:32Z</time>
      </trkpt>
      <trkpt lat="42.49448" lon="1.5612">
        <ele>1537.29</ele>
        <time>2022-07-16T08:20:47Z</time>
      </trkpt>
      <trkpt lat="42.49448" lon="1.56116">
        <ele>1537.29</ele>
        <time>2022-07-16T08:21:06Z</time>
      </trkpt>
      <trkpt lat="42.49449" lon="1.56117">
        <ele>1536.8</ele>
        <time>2022-07-16T08:21:39Z</time>
      </trkpt>
      <trkpt lat="42.49451" lon="1.56117">
        <ele>1536.32</ele>
        <time>2022-07-16T08:22:06Z</time>
      </trkpt>
      <trkpt lat="42.4944" lon="1.5611">
        <ele>1536.32</ele>
        <time>2022-07-16T08:22:21Z</time>
      </trkpt>
      <trkpt lat="42.49431" lon="1.56103">
        <ele>1536.32</ele>
        <time>2022-07-16T08:22:34Z</time>
      </trkpt>
      <trkpt lat="42.49429" lon="1.56088">
        <ele>1535.36</ele>
        <time>2022-07-16T08:22:47Z</time>
      </trkpt>
      <trkpt lat="42.49429" lon="1.56072">
        <ele>1535.36</ele>
        <time>2022-07-16T08:23:01Z</time>
      </trkpt>
      <trkpt lat="42.49429" lon="1.56061">
        <ele>1534.4</ele>
        <time>2022-07-16T08:23:13Z</time>
      </trkpt>
      <trkpt lat="42.49426" lon="1.56052">
        <ele>1533.92</ele>
        <time>2022-07-16T08:23:26Z</time>
      </trkpt>
      <trkpt lat="42.49424" lon="1.56046">
        <ele>1533.44</ele>
        <time>2022-07-16T08:23:38Z</time>
      </trkpt>
      <trkpt lat="42.49422" lon="1.5604">
        <ele>1532.48</ele>
        <time>2022-07-16T08:23:51Z</time>
      </trkpt>
      <trkpt lat="42.49422" lon="1.56037">
        <ele>1532.48</ele>
        <time>2022-07-16T08:24:14Z</time>
      </trkpt>
      <trkpt lat="42.49421" lon="1.56034">
        <ele>1532</ele>
        <time>2022-07-16T08:24:37Z</time>
      </trkpt>
      <trkpt lat="42.49422" lon="1.56019">
        <ele>1532</ele>
        <time>2022-07-16T08:24:52Z</time>
      </trkpt>
      <trkpt lat="42.49425" lon="1.56022">
        <ele>1531.52</ele>
        <time>2022-07-16T08:25:13Z</time>
      </trkpt>
      <trkpt lat="42.49428" lon="1.56023">
        <ele>1531.52</ele>
        <time>2022-07-16T08:25:39Z</time>
      </trkpt>
      <trkpt lat="42.49427" lon="1.56024">
        <ele>1531.04</ele>
        <time>2022-07-16T08:26:02Z</time>
      </trkpt>
      <trkpt lat="42.49427" lon="1.56027">
        <ele>1531.04</ele>
        <time>2022-07-16T08:26:20Z</time>
      </trkpt>
      <trkpt lat="42.49427" lon="1.56027">
        <ele>1531.04</ele>
        <time>2022-07-16T08:26:54Z</time>
      </trkpt>
      <trkpt lat="42.49428" lon="1.56026">
        <ele>1530.56</ele>
        <time>2022-07-16T08:27:26Z</time>
      </trkpt>
      <trkpt lat="42.49431" lon="1.5601">
        <ele>1530.56</ele>
        <time>2022-07-16T08:27:48Z</time>
      </trkpt>
      <trkpt lat="42.49442" lon="1.56011">
        <ele>1530.56</ele>
        <time>2022-07-16T08:28:13Z</time>
      </trkpt>
      <trkpt lat="42.49456" lon="1.56">
        <ele>1530.08</ele>
        <time>2022-07-16T08:28:31Z</time>
      </trkpt>
      <trkpt lat="42.49462" lon="1.55989">
        <ele>1530.08</ele>
        <time>2022-07-16T08:28:46Z</time>
      </trkpt>
      <trkpt lat="42.49468" lon="1.55979">
        <ele>1528.15</ele>
        <time>2022-07-16T08:29:01Z</time>
      </trkpt>
      <trkpt lat="42.49478" lon="1.55965">
        <ele>1526.71</ele>
        <time>2022-07-16T08:29:14Z</time>
      </trkpt>
      <trkpt lat="42.49489" lon="1.55957">
        <ele>1523.83</ele>
        <time>2022-07-16T08:29:30Z</time>
      </trkpt>
      <trkpt lat="42.49499" lon="1.55954">
        <ele>1520.46</ele>
        <time>2022-07-16T08:29:44Z</time>
      </trkpt>
      <trkpt lat="42.49503" lon="1.55945">
        <ele>1517.58</ele>
        <time>2022-07-16T08:29:56Z</time>
      </trkpt>
      <trkpt lat="42.49513" lon="1.55941">
        <ele>1515.18</ele>
        <time>2022-07-16T08:30:10Z</time>
      </trkpt>
      <trkpt lat="42.49524" lon="1.55934">
        <ele>1511.81</ele>
        <time>2022-07-16T08:30:27Z</time>
      </trkpt>
      <trkpt lat="42.49532" lon="1.55927">
        <ele>1509.41</ele>
        <time>2022-07-16T08:30:41Z</time>
      </trkpt>
      <trkpt lat="42.49541" lon="1.55917">
        <ele>1507</ele>
        <time>2022-07-16T08:30:56Z</time>
      </trkpt>
      <trkpt lat="42.49549" lon="1.5591">
        <ele>1504.12</ele>
        <time>2022-07-16T08:31:10Z</time>
      </trkpt>
      <trkpt lat="42.49557" lon="1.55898">
        <ele>1501.24</ele>
        <time>2022-07-16T08:31:26Z</time>
      </trkpt>
      <trkpt lat="42.49566" lon="1.5589">
        <ele>1497.39</ele>
        <time>2022-07-16T08:31:43Z</time>
      </trkpt>
      <trkpt lat="42.49574" lon="1.55889">
        <ele>1496.43</ele>
        <time>2022-07-16T08:32:03Z</time>
      </trkpt>
      <trkpt lat="42.49581" lon="1.55885">
        <ele>1493.55</ele>
        <time>2022-07-16T08:32:20Z</time>
      </trkpt>
      <trkpt lat="42.4959" lon="1.55886">
        <ele>1490.66</ele>
        <time>2022-07-16T08:32:33Z</time>
      </trkpt>
      <trkpt lat="42.49596" lon="1.55884">
        <ele>1487.78</ele>
        <time>2022-07-16T08:32:46Z</time>
      </trkpt>
      <trkpt lat="42.49601" lon="1.55879">
        <ele>1485.37</ele>
        <time>2022-07-16T08:33:03Z</time>
      </trkpt>
      <trkpt lat="42.49607" lon="1.55871">
        <ele>1482.49</ele>
        <time>2022-07-16T08:33:17Z</time>
      </trkpt>
      <trkpt lat="42.49613" lon="1.55866">
        <ele>1480.09</ele>
        <time>2022-07-16T08:33:31Z</time>
      </trkpt>
      <trkpt lat="42.49616" lon="1.55862">
        <ele>1477.68</ele>
        <time>2022-07-16T08:33:45Z</time>
      </trkpt>
      <trkpt lat="42.49623" lon="1.55852">
        <ele>1473.84</ele>
        <time>2022-07-16T08:33:58Z</time>
      </trkpt>
      <trkpt lat="42.49626" lon="1.55849">
        <ele>1473.36</ele>
        <time>2022-07-16T08:34:02Z</time>
      </trkpt>
      <trkpt lat="42.49634" lon="1.55838">
        <ele>1469.99</ele>
        <time>2022-07-16T08:34:16Z</time>
      </trkpt>
      <trkpt lat="42.49642" lon="1.55831">
        <ele>1467.11</ele>
        <time>2022-07-16T08:34:30Z</time>
      </trkpt>
      <trkpt lat="42.4965" lon="1.55817">
        <ele>1464.23</ele>
        <time>2022-07-16T08:34:44Z</time>
      </trkpt>
      <trkpt lat="42.49654" lon="1.55808">
        <ele>1461.34</ele>
        <time>2022-07-16T08:34:59Z</time>
      </trkpt>
      <trkpt lat="42.49662" lon="1.55802">
        <ele>1458.46</ele>
        <time>2022-07-16T08:35:14Z</time>
      </trkpt>
      <trkpt lat="42.49667" lon="1.55792">
        <ele>1455.57</ele>
        <time>2022-07-16T08:35:29Z</time>
      </trkpt>
      <trkpt lat="42.49671" lon="1.55784">
        <ele>1452.69</ele>
        <time>2022-07-16T08:35:42Z</time>
      </trkpt>
      <trkpt lat="42.49679" lon="1.55782">
        <ele>1449.32</ele>
        <time>2022-07-16T08:35:56Z</time>
      </trkpt>
      <trkpt lat="42.4969" lon="1.55782">
        <ele>1445.96</ele>
        <time>2022-07-16T08:36:11Z</time>
      </trkpt>
      <trkpt lat="42.49704" lon="1.55778">
        <ele>1444.04</ele>
        <time>2022-07-16T08:36:23Z</time>
      </trkpt>
      <trkpt lat="42.49714" lon="1.55756">
        <ele>1442.6</ele>
        <time>2022-07-16T08:36:39Z</time>
      </trkpt>
      <trkpt lat="42.49718" lon="1.55744">
        <ele>1440.19</ele>
        <time>2022-07-16T08:36:55Z</time>
      </trkpt>
      <trkpt lat="42.49728" lon="1.55728">
        <ele>1437.31</ele>
        <time>2022-07-16T08:37:11Z</time>
      </trkpt>
      <trkpt lat="42.49734" lon="1.55714">
        <ele>1434.91</ele>
        <time>2022-07-16T08:37:25Z</time>
      </trkpt>
      <trkpt lat="42.49734" lon="1.55694">
        <ele>1433.94</ele>
        <time>2022-07-16T08:37:41Z</time>
      </trkpt>
      <trkpt lat="42.49737" lon="1.55689">
        <ele>1432.5</ele>
        <time>2022-07-16T08:37:47Z</time>
      </trkpt>
      <trkpt lat="42.49749" lon="1.55672">
        <ele>1430.1</ele>
        <time>2022-07-16T08:38:03Z</time>
      </trkpt>
      <trkpt lat="42.49761" lon="1.55666">
        <ele>1426.73</ele>
        <time>2022-07-16T08:38:15Z</time>
      </trkpt>
      <trkpt lat="42.4977" lon="1.55667">
        <ele>1423.85</ele>
        <time>2022-07-16T08:38:28Z</time>
      </trkpt>
      <trkpt lat="42.49777" lon="1.55665">
        <ele>1420.97</ele>
        <time>2022-07-16T08:38:40Z</time>
      </trkpt>
      <trkpt lat="42.49782" lon="1.55653">
        <ele>1419.52</ele>
        <time>2022-07-16T08:38:54Z</time>
      </trkpt>
      <trkpt lat="42.49779" lon="1.55643">
        <ele>1416.64</ele>
        <time>2022-07-16T08:39:08Z</time>
      </trkpt>
      <trkpt lat="42.49778" lon="1.55636">
        <ele>1415.2</ele>
        <time>2022-07-16T08:39:24Z</time>
      </trkpt>
      <trkpt lat="42.49777" lon="1.55632">
        <ele>1413.76</ele>
        <time>2022-07-16T08:39:40Z</time>
      </trkpt>
      <trkpt lat="42.49775" lon="1.5563">
        <ele>1413.28</ele>
        <time>2022-07-16T08:40:11Z</time>
      </trkpt>
      <trkpt lat="42.49781" lon="1.5563">
        <ele>1411.83</ele>
        <time>2022-07-16T08:40:36Z</time>
      </trkpt>
      <trkpt lat="42.49789" lon="1.5563">
        <ele>1410.39</ele>
        <time>2022-07-16T08:40:50Z</time>
      </trkpt>
      <trkpt lat="42.498" lon="1.55625">
        <ele>1407.99</ele>
        <time>2022-07-16T08:41:05Z</time>
      </trkpt>
      <trkpt lat="42.49814" lon="1.5562">
        <ele>1405.1</ele>
        <time>2022-07-16T08:41:19Z</time>
      </trkpt>
      <trkpt lat="42.49825" lon="1.55607">
        <ele>1401.74</ele>
        <time>2022-07-16T08:41:34Z</time>
      </trkpt>
      <trkpt lat="42.4983" lon="1.55591">
        <ele>1398.37</ele>
        <time>2022-07-16T08:41:50Z</time>
      </trkpt>
      <trkpt lat="42.49836" lon="1.55581">
        <ele>1395.97</ele>
        <time>2022-07-16T08:42:05Z</time>
      </trkpt>
      <trkpt lat="42.4984" lon="1.55573">
        <ele>1392.61</ele>
        <time>2022-07-16T08:42:17Z</time>
      </trkpt>
      <trkpt lat="42.49846" lon="1.55565">
        <ele>1390.2</ele>
        <time>2022-07-16T08:42:30Z</time>
      </trkpt>
      <trkpt lat="42.49849" lon="1.55556">
        <ele>1387.32</ele>
        <time>2022-07-16T08:42:43Z</time>
      </trkpt>
      <trkpt lat="42.49856" lon="1.55547">
        <ele>1384.92</ele>
        <time>2022-07-16T08:42:57Z</time>
      </trkpt>
      <trkpt lat="42.49861" lon="1.55542">
        <ele>1382.03</ele>
        <time>2022-07-16T08:43:11Z</time>
      </trkpt>
      <trkpt lat="42.49866" lon="1.55533">
        <ele>1378.67</ele>
        <time>2022-07-16T08:43:25Z</time>
      </trkpt>
      <trkpt lat="42.49873" lon="1.55525">
        <ele>1376.75</ele>
        <time>2022-07-16T08:43:39Z</time>
      </trkpt>
      <trkpt lat="42.4988" lon="1.55516">
        <ele>1376.26</ele>
        <time>2022-07-16T08:43:52Z</time>
      </trkpt>
      <trkpt lat="42.49881" lon="1.55515">
        <ele>1375.78</ele>
        <time>2022-07-16T08:44:06Z</time>
      </trkpt>
      <trkpt lat="42.4988" lon="1.55515">
        <ele>1375.3</ele>
        <time>2022-07-16T08:44:23Z</time>
      </trkpt>
      <trkpt lat="42.49882" lon="1.55523">
        <ele>1375.3</ele>
        <time>2022-07-16T08:44:46Z</time>
      </trkpt>
      <trkpt lat="42.49889" lon="1.55522">
        <ele>1374.34</ele>
        <time>2022-07-16T08:45:11Z</time>
      </trkpt>
      <trkpt lat="42.4988" lon="1.55519">
        <ele>1374.34</ele>
        <time>2022-07-16T08:45:39Z</time>
      </trkpt>
      <trkpt lat="42.49883" lon="1.55513">
        <ele>1374.34</ele>
        <time>2022-07-16T08:46:00Z</time>
      </trkpt>
      <trkpt lat="42.49882" lon="1.55521">
        <ele>1374.34</ele>
        <time>2022-07-16T08:46:23Z</time>
      </trkpt>
      <trkpt lat="42.49881" lon="1.55519">
        <ele>1374.34</ele>
        <time>2022-07-16T08:46:43Z</time>
      </trkpt>
      <trkpt lat="42.49888" lon="1.55516">
        <ele>1374.34</ele>
        <time>2022-07-16T08:47:02Z</time>
      </trkpt>
      <trkpt lat="42.49891" lon="1.5551">
        <ele>1372.42</ele>
        <time>2022-07-16T08:47:16Z</time>
      </trkpt>
      <trkpt lat="42.4989" lon="1.55504">
        <ele>1370.5</ele>
        <time>2022-07-16T08:47:28Z</time>
      </trkpt>
      <trkpt lat="42.49889" lon="1.55488">
        <ele>1369.05</ele>
        <time>2022-07-16T08:47:40Z</time>
      </trkpt>
      <trkpt lat="42.4989" lon="1.55482">
        <ele>1367.13</ele>
        <time>2022-07-16T08:47:56Z</time>
      </trkpt>
      <trkpt lat="42.49895" lon="1.55477">
        <ele>1365.21</ele>
        <time>2022-07-16T08:48:08Z</time>
      </trkpt>
      <trkpt lat="42.49903" lon="1.55469">
        <ele>1362.81</ele>
        <time>2022-07-16T08:48:21Z</time>
      </trkpt>
      <trkpt lat="42.49905" lon="1.55472">
        <ele>1362.33</ele>
        <time>2022-07-16T08:48:36Z</time>
      </trkpt>
      <trkpt lat="42.4991" lon="1.55475">
        <ele>1361.84</ele>
        <time>2022-07-16T08:48:58Z</time>
      </trkpt>
      <trkpt lat="42.49912" lon="1.55477">
        <ele>1361.36</ele>
        <time>2022-07-16T08:49:10Z</time>
      </trkpt>
      <trkpt lat="42.49921" lon="1.55477">
        <ele>1359.44</ele>
        <time>2022-07-16T08:49:21Z</time>
      </trkpt>
      <trkpt lat="42.49922" lon="1.55476">
        <ele>1358.96</ele>
        <time>2022-07-16T08:49:23Z</time>
      </trkpt>
      <trkpt lat="42.49927" lon="1.55459">
        <ele>1357.04</ele>
        <time>2022-07-16T08:49:37Z</time>
      </trkpt>
      <trkpt lat="42.49935" lon="1.55443">
        <ele>1355.6</ele>
        <time>2022-07-16T08:49:53Z</time>
      </trkpt>
      <trkpt lat="42.49945" lon="1.55437">
        <ele>1353.19</ele>
        <time>2022-07-16T08:50:07Z</time>
      </trkpt>
      <trkpt lat="42.49951" lon="1.55431">
        <ele>1351.75</ele>
        <time>2022-07-16T08:50:21Z</time>
      </trkpt>
      <trkpt lat="42.49955" lon="1.55428">
        <ele>1350.79</ele>
        <time>2022-07-16T08:50:26Z</time>
      </trkpt>
      <trkpt lat="42.49973" lon="1.55426">
        <ele>1348.87</ele>
        <time>2022-07-16T08:50:42Z</time>
      </trkpt>
      <trkpt lat="42.49983" lon="1.55424">
        <ele>1346.94</ele>
        <time>2022-07-16T08:50:51Z</time>
      </trkpt>
      <trkpt lat="42.49991" lon="1.55421">
        <ele>1345.98</ele>
        <time>2022-07-16T08:50:59Z</time>
      </trkpt>
      <trkpt lat="42.50009" lon="1.55411">
        <ele>1342.62</ele>
        <time>2022-07-16T08:51:15Z</time>
      </trkpt>
      <trkpt lat="42.50034" lon="1.55427">
        <ele>1340.22</ele>
        <time>2022-07-16T08:51:29Z</time>
      </trkpt>
      <trkpt lat="42.50052" lon="1.55427">
        <ele>1337.33</ele>
        <time>2022-07-16T08:51:40Z</time>
      </trkpt>
      <trkpt lat="42.50062" lon="1.55415">
        <ele>1335.89</ele>
        <time>2022-07-16T08:51:53Z</time>
      </trkpt>
      <trkpt lat="42.50067" lon="1.554">
        <ele>1333.49</ele>
        <time>2022-07-16T08:52:05Z</time>
      </trkpt>
      <trkpt lat="42.50074" lon="1.5539">
        <ele>1330.12</ele>
        <time>2022-07-16T08:52:16Z</time>
      </trkpt>
      <trkpt lat="42.50076" lon="1.55348">
        <ele>1327.24</ele>
        <time>2022-07-16T08:52:30Z</time>
      </trkpt>
      <trkpt lat="42.50084" lon="1.55338">
        <ele>1323.87</ele>
        <time>2022-07-16T08:52:44Z</time>
      </trkpt>
      <trkpt lat="42.50093" lon="1.55335">
        <ele>1320.99</ele>
        <time>2022-07-16T08:52:57Z</time>
      </trkpt>
      <trkpt lat="42.50101" lon="1.5533">
        <ele>1317.62</ele>
        <time>2022-07-16T08:53:09Z</time>
      </trkpt>
      <trkpt lat="42.50108" lon="1.55329">
        <ele>1314.74</ele>
        <time>2022-07-16T08:53:21Z</time>
      </trkpt>
      <trkpt lat="42.5012" lon="1.55319">
        <ele>1311.86</ele>
        <time>2022-07-16T08:53:35Z</time>
      </trkpt>
      <trkpt lat="42.50127" lon="1.55314">
        <ele>1308.49</ele>
        <time>2022-07-16T08:53:51Z</time>
      </trkpt>
      <trkpt lat="42.50135" lon="1.55308">
        <ele>1305.13</ele>
        <time>2022-07-16T08:54:05Z</time>
      </trkpt>
      <trkpt lat="42.5014" lon="1.55306">
        <ele>1302.24</ele>
        <time>2022-07-16T08:54:22Z</time>
      </trkpt>
      <trkpt lat="42.50152" lon="1.55309">
        <ele>1300.32</ele>
        <time>2022-07-16T08:54:36Z</time>
      </trkpt>
      <trkpt lat="42.50152" lon="1.55305">
        <ele>1299.84</ele>
        <time>2022-07-16T08:54:56Z</time>
      </trkpt>
      <trkpt lat="42.50159" lon="1.553">
        <ele>1297.92</ele>
        <time>2022-07-16T08:55:14Z</time>
      </trkpt>
      <trkpt lat="42.5016" lon="1.55299">
        <ele>1297.44</ele>
        <time>2022-07-16T08:55:15Z</time>
      </trkpt>
      <trkpt lat="42.50164" lon="1.553">
        <ele>1296.96</ele>
        <time>2022-07-16T08:55:20Z</time>
      </trkpt>
      <trkpt lat="42.50164" lon="1.553">
        <ele>1296.96</ele>
        <time>2022-07-16T08:55:21Z</time>
      </trkpt>
      <trkpt lat="42.50167" lon="1.55297">
        <ele>1295.99</ele>
        <time>2022-07-16T08:55:36Z</time>
      </trkpt>
      <trkpt lat="42.50175" lon="1.55293">
        <ele>1295.03</ele>
        <time>2022-07-16T08:55:49Z</time>
      </trkpt>
      <trkpt lat="42.50191" lon="1.55286">
        <ele>1291.67</ele>
        <time>2022-07-16T08:56:05Z</time>
      </trkpt>
      <trkpt lat="42.50205" lon="1.55287">
        <ele>1289.27</ele>
        <time>2022-07-16T08:56:20Z</time>
      </trkpt>
      <trkpt lat="42.50208" lon="1.55269">
        <ele>1288.3</ele>
        <time>2022-07-16T08:56:27Z</time>
      </trkpt>
      <trkpt lat="42.50209" lon="1.55269">
        <ele>1287.82</ele>
        <time>2022-07-16T08:56:28Z</time>
      </trkpt>
      <trkpt lat="42.50219" lon="1.55255">
        <ele>1286.86</ele>
        <time>2022-07-16T08:56:41Z</time>
      </trkpt>
      <trkpt lat="42.50231" lon="1.55243">
        <ele>1286.38</ele>
        <time>2022-07-16T08:56:57Z</time>
      </trkpt>
      <trkpt lat="42.50239" lon="1.55235">
        <ele>1283.98</ele>
        <time>2022-07-16T08:57:10Z</time>
      </trkpt>
      <trkpt lat="42.50242" lon="1.55237">
        <ele>1283.5</ele>
        <time>2022-07-16T08:57:13Z</time>
      </trkpt>
      <trkpt lat="42.50256" lon="1.55239">
        <ele>1280.61</ele>
        <time>2022-07-16T08:57:26Z</time>
      </trkpt>
      <trkpt lat="42.5027" lon="1.55232">
        <ele>1278.21</ele>
        <time>2022-07-16T08:57:39Z</time>
      </trkpt>
      <trkpt lat="42.50277" lon="1.55219">
        <ele>1276.29</ele>
        <time>2022-07-16T08:57:52Z</time>
      </trkpt>
      <trkpt lat="42.50279" lon="1.55204">
        <ele>1274.85</ele>
        <time>2022-07-16T08:58:07Z</time>
      </trkpt>
      <trkpt lat="42.50287" lon="1.55198">
        <ele>1271.48</ele>
        <time>2022-07-16T08:58:21Z</time>
      </trkpt>
      <trkpt lat="42.50297" lon="1.55168">
        <ele>1269.56</ele>
        <time>2022-07-16T08:58:36Z</time>
      </trkpt>
      <trkpt lat="42.50309" lon="1.55159">
        <ele>1267.16</ele>
        <time>2022-07-16T08:58:52Z</time>
      </trkpt>
      <trkpt lat="42.50313" lon="1.55145">
        <ele>1264.27</ele>
        <time>2022-07-16T08:59:07Z</time>
      </trkpt>
      <trkpt lat="42.50321" lon="1.55142">
        <ele>1262.35</ele>
        <time>2022-07-16T08:59:23Z</time>
      </trkpt>
      <trkpt lat="42.50325" lon="1.55149">
        <ele>1259.46</ele>
        <time>2022-07-16T08:59:36Z</time>
      </trkpt>
      <trkpt lat="42.50321" lon="1.55155">
        <ele>1256.58</ele>
        <time>2022-07-16T08:59:50Z</time>
      </trkpt>
      <trkpt lat="42.50328" lon="1.55153">
        <ele>1254.18</ele>
        <time>2022-07-16T09:00:05Z</time>
      </trkpt>
      <trkpt lat="42.50352" lon="1.55158">
        <ele>1251.29</ele>
        <time>2022-07-16T09:00:19Z</time>
      </trkpt>
      <trkpt lat="42.5037" lon="1.55159">
        <ele>1249.37</ele>
        <time>2022-07-16T09:00:34Z</time>
      </trkpt>
      <trkpt lat="42.50373" lon="1.55158">
        <ele>1248.41</ele>
        <time>2022-07-16T09:00:38Z</time>
      </trkpt>
      <trkpt lat="42.50379" lon="1.55157">
        <ele>1247.45</ele>
        <time>2022-07-16T09:00:52Z</time>
      </trkpt>
      <trkpt lat="42.50377" lon="1.55147">
        <ele>1246.49</ele>
        <time>2022-07-16T09:01:12Z</time>
      </trkpt>
      <trkpt lat="42.50382" lon="1.55139">
        <ele>1245.53</ele>
        <time>2022-07-16T09:01:31Z</time>
      </trkpt>
      <trkpt lat="42.50388" lon="1.55138">
        <ele>1243.12</ele>
        <time>2022-07-16T09:01:46Z</time>
      </trkpt>
      <trkpt lat="42.50388" lon="1.55131">
        <ele>1243.12</ele>
        <time>2022-07-16T09:02:10Z</time>
      </trkpt>
      <trkpt lat="42.50393" lon="1.55129">
        <ele>1242.16</ele>
        <time>2022-07-16T09:02:30Z</time>
      </trkpt>
      <trkpt lat="42.50399" lon="1.55126">
        <ele>1240.72</ele>
        <time>2022-07-16T09:02:47Z</time>
      </trkpt>
      <trkpt lat="42.50411" lon="1.55119">
        <ele>1238.8</ele>
        <time>2022-07-16T09:03:05Z</time>
      </trkpt>
      <trkpt lat="42.50411" lon="1.55118">
        <ele>1237.83</ele>
        <time>2022-07-16T09:03:17Z</time>
      </trkpt>
      <trkpt lat="42.50408" lon="1.55109">
        <ele>1237.83</ele>
        <time>2022-07-16T09:03:37Z</time>
      </trkpt>
      <trkpt lat="42.50401" lon="1.55121">
        <ele>1239.76</ele>
        <time>2022-07-16T09:03:53Z</time>
      </trkpt>
      <trkpt lat="42.50398" lon="1.55124">
        <ele>1240.24</ele>
        <time>2022-07-16T09:03:57Z</time>
      </trkpt>
      <trkpt lat="42.5039" lon="1.55127">
        <ele>1242.16</ele>
        <time>2022-07-16T09:04:11Z</time>
      </trkpt>
      <trkpt lat="42.50388" lon="1.55136">
        <ele>1242.16</ele>
        <time>2022-07-16T09:04:27Z</time>
      </trkpt>
      <trkpt lat="42.50386" lon="1.55134">
        <ele>1242.16</ele>
        <time>2022-07-16T09:04:40Z</time>
      </trkpt>
      <trkpt lat="42.50386" lon="1.55134">
        <ele>1242.64</ele>
        <time>2022-07-16T09:04:47Z</time>
      </trkpt>
      <trkpt lat="42.50297" lon="1.55189">
        <ele>1252.74</ele>
        <time>2022-07-16T09:06:17Z</time>
      </trkpt>
      <trkpt lat="42.50337" lon="1.55162">
        <ele>1253.7</ele>
        <time>2022-07-16T09:06:31Z</time>
      </trkpt>
      <trkpt lat="42.50333" lon="1.5516">
        <ele>1254.66</ele>
        <time>2022-07-16T09:06:36Z</time>
      </trkpt>
      <trkpt lat="42.50326" lon="1.55156">
        <ele>1257.06</ele>
        <time>2022-07-16T09:06:52Z</time>
      </trkpt>
      <trkpt lat="42.5032" lon="1.55149">
        <ele>1260.43</ele>
        <time>2022-07-16T09:07:08Z</time>
      </trkpt>
      <trkpt lat="42.50316" lon="1.55146">
        <ele>1262.35</ele>
        <time>2022-07-16T09:07:23Z</time>
      </trkpt>
      <trkpt lat="42.50332" lon="1.55135">
        <ele>1262.35</ele>
        <time>2022-07-16T09:07:38Z</time>
      </trkpt>
      <trkpt lat="42.50345" lon="1.55121">
        <ele>1262.35</ele>
        <time>2022-07-16T09:07:54Z</time>
      </trkpt>
      <trkpt lat="42.50354" lon="1.55107">
        <ele>1262.35</ele>
        <time>2022-07-16T09:08:09Z</time>
      </trkpt>
      <trkpt lat="42.50366" lon="1.55092">
        <ele>1261.87</ele>
        <time>2022-07-16T09:08:24Z</time>
      </trkpt>
      <trkpt lat="42.50378" lon="1.55082">
        <ele>1261.87</ele>
        <time>2022-07-16T09:08:39Z</time>
      </trkpt>
      <trkpt lat="42.50384" lon="1.55073">
        <ele>1261.87</ele>
        <time>2022-07-16T09:08:51Z</time>
      </trkpt>
      <trkpt lat="42.50387" lon="1.55067">
        <ele>1261.87</ele>
        <time>2022-07-16T09:08:58Z</time>
      </trkpt>
      <trkpt lat="42.50389" lon="1.55064">
        <ele>1261.87</ele>
        <time>2022-07-16T09:09:01Z</time>
      </trkpt>
      <trkpt lat="42.504" lon="1.5505">
        <ele>1261.39</ele>
        <time>2022-07-16T09:09:15Z</time>
      </trkpt>
      <trkpt lat="42.50406" lon="1.55017">
        <ele>1261.39</ele>
        <time>2022-07-16T09:09:30Z</time>
      </trkpt>
      <trkpt lat="42.50413" lon="1.54993">
        <ele>1261.39</ele>
        <time>2022-07-16T09:09:47Z</time>
      </trkpt>
      <trkpt lat="42.50419" lon="1.54978">
        <ele>1260.91</ele>
        <time>2022-07-16T09:10:02Z</time>
      </trkpt>
      <trkpt lat="42.50432" lon="1.54965">
        <ele>1260.91</ele>
        <time>2022-07-16T09:10:18Z</time>
      </trkpt>
      <trkpt lat="42.5044" lon="1.54951">
        <ele>1260.91</ele>
        <time>2022-07-16T09:10:31Z</time>
      </trkpt>
      <trkpt lat="42.50447" lon="1.54943">
        <ele>1260.91</ele>
        <time>2022-07-16T09:10:43Z</time>
      </trkpt>
      <trkpt lat="42.50447" lon="1.5493">
        <ele>1260.43</ele>
        <time>2022-07-16T09:10:55Z</time>
      </trkpt>
      <trkpt lat="42.50456" lon="1.54919">
        <ele>1260.43</ele>
        <time>2022-07-16T09:11:07Z</time>
      </trkpt>
      <trkpt lat="42.5046" lon="1.54893">
        <ele>1260.43</ele>
        <time>2022-07-16T09:11:21Z</time>
      </trkpt>
      <trkpt lat="42.50469" lon="1.54876">
        <ele>1260.43</ele>
        <time>2022-07-16T09:11:35Z</time>
      </trkpt>
      <trkpt lat="42.5047" lon="1.54853">
        <ele>1260.43</ele>
        <time>2022-07-16T09:11:51Z</time>
      </trkpt>
      <trkpt lat="42.50476" lon="1.54843">
        <ele>1259.94</ele>
        <time>2022-07-16T09:12:11Z</time>
      </trkpt>
      <trkpt lat="42.50476" lon="1.54823">
        <ele>1259.94</ele>
        <time>2022-07-16T09:12:27Z</time>
      </trkpt>
      <trkpt lat="42.5048" lon="1.54806">
        <ele>1259.94</ele>
        <time>2022-07-16T09:12:41Z</time>
      </trkpt>
      <trkpt lat="42.50485" lon="1.54787">
        <ele>1259.94</ele>
        <time>2022-07-16T09:12:55Z</time>
      </trkpt>
      <trkpt lat="42.50496" lon="1.5477">
        <ele>1259.94</ele>
        <time>2022-07-16T09:13:10Z</time>
      </trkpt>
      <trkpt lat="42.50501" lon="1.5475">
        <ele>1259.94</ele>
        <time>2022-07-16T09:13:23Z</time>
      </trkpt>
      <trkpt lat="42.5051" lon="1.54729">
        <ele>1259.94</ele>
        <time>2022-07-16T09:13:40Z</time>
      </trkpt>
      <trkpt lat="42.50522" lon="1.54709">
        <ele>1259.94</ele>
        <time>2022-07-16T09:13:57Z</time>
      </trkpt>
      <trkpt lat="42.5053" lon="1.54691">
        <ele>1259.46</ele>
        <time>2022-07-16T09:14:12Z</time>
      </trkpt>
      <trkpt lat="42.50536" lon="1.54682">
        <ele>1259.46</ele>
        <time>2022-07-16T09:14:24Z</time>
      </trkpt>
      <trkpt lat="42.50539" lon="1.54665">
        <ele>1259.94</ele>
        <time>2022-07-16T09:14:38Z</time>
      </trkpt>
      <trkpt lat="42.5054" lon="1.54661">
        <ele>1260.91</ele>
        <time>2022-07-16T09:14:56Z</time>
      </trkpt>
      <trkpt lat="42.50547" lon="1.54656">
        <ele>1261.39</ele>
        <time>2022-07-16T09:15:21Z</time>
      </trkpt>
      <trkpt lat="42.50549" lon="1.54655">
        <ele>1260.91</ele>
        <time>2022-07-16T09:15:39Z</time>
      </trkpt>
      <trkpt lat="42.50548" lon="1.54649">
        <ele>1261.87</ele>
        <time>2022-07-16T09:15:55Z</time>
      </trkpt>
      <trkpt lat="42.50554" lon="1.54624">
        <ele>1262.83</ele>
        <time>2022-07-16T09:16:12Z</time>
      </trkpt>
      <trkpt lat="42.50558" lon="1.54607">
        <ele>1262.83</ele>
        <time>2022-07-16T09:16:26Z</time>
      </trkpt>
      <trkpt lat="42.5056" lon="1.54602">
        <ele>1262.35</ele>
        <time>2022-07-16T09:16:42Z</time>
      </trkpt>
      <trkpt lat="42.50565" lon="1.54592">
        <ele>1260.43</ele>
        <time>2022-07-16T09:16:50Z</time>
      </trkpt>
      <trkpt lat="42.50568" lon="1.54583">
        <ele>1258.02</ele>
        <time>2022-07-16T09:16:58Z</time>
      </trkpt>
      <trkpt lat="42.50576" lon="1.54567">
        <ele>1257.54</ele>
        <time>2022-07-16T09:17:14Z</time>
      </trkpt>
      <trkpt lat="42.50576" lon="1.54569">
        <ele>1257.06</ele>
        <time>2022-07-16T09:17:30Z</time>
      </trkpt>
      <trkpt lat="42.50579" lon="1.54567">
        <ele>1256.58</ele>
        <time>2022-07-16T09:17:54Z</time>
      </trkpt>
      <trkpt lat="42.50587" lon="1.54558">
        <ele>1254.18</ele>
        <time>2022-07-16T09:18:08Z</time>
      </trkpt>
      <trkpt lat="42.5059" lon="1.54545">
        <ele>1250.81</ele>
        <time>2022-07-16T09:18:21Z</time>
      </trkpt>
      <trkpt lat="42.50595" lon="1.54537">
        <ele>1247.93</ele>
        <time>2022-07-16T09:18:33Z</time>
      </trkpt>
      <trkpt lat="42.50597" lon="1.54533">
        <ele>1246.49</ele>
        <time>2022-07-16T09:18:37Z</time>
      </trkpt>
      <trkpt lat="42.50601" lon="1.54521">
        <ele>1246.49</ele>
        <time>2022-07-16T09:18:48Z</time>
      </trkpt>
      <trkpt lat="42.50603" lon="1.54496">
        <ele>1246.49</ele>
        <time>2022-07-16T09:19:05Z</time>
      </trkpt>
      <trkpt lat="42.50601" lon="1.54475">
        <ele>1246.01</ele>
        <time>2022-07-16T09:19:18Z</time>
      </trkpt>
      <trkpt lat="42.50601" lon="1.54472">
        <ele>1246.01</ele>
        <time>2022-07-16T09:19:20Z</time>
      </trkpt>
      <trkpt lat="42.50597" lon="1.54447">
        <ele>1246.01</ele>
        <time>2022-07-16T09:19:36Z</time>
      </trkpt>
      <trkpt lat="42.50597" lon="1.54428">
        <ele>1246.01</ele>
        <time>2022-07-16T09:19:51Z</time>
      </trkpt>
      <trkpt lat="42.50597" lon="1.54417">
        <ele>1245.53</ele>
        <time>2022-07-16T09:19:59Z</time>
      </trkpt>
      <trkpt lat="42.50592" lon="1.54397">
        <ele>1245.53</ele>
        <time>2022-07-16T09:20:15Z</time>
      </trkpt>
      <trkpt lat="42.50588" lon="1.54388">
        <ele>1245.53</ele>
        <time>2022-07-16T09:20:33Z</time>
      </trkpt>
      <trkpt lat="42.50584" lon="1.54367">
        <ele>1245.53</ele>
        <time>2022-07-16T09:20:50Z</time>
      </trkpt>
      <trkpt lat="42.5058" lon="1.54342">
        <ele>1245.53</ele>
        <time>2022-07-16T09:21:06Z</time>
      </trkpt>
      <trkpt lat="42.50577" lon="1.54336">
        <ele>1245.53</ele>
        <time>2022-07-16T09:21:12Z</time>
      </trkpt>
      <trkpt lat="42.50572" lon="1.54316">
        <ele>1245.53</ele>
        <time>2022-07-16T09:21:26Z</time>
      </trkpt>
      <trkpt lat="42.50566" lon="1.54293">
        <ele>1245.04</ele>
        <time>2022-07-16T09:21:41Z</time>
      </trkpt>
      <trkpt lat="42.50565" lon="1.54287">
        <ele>1245.04</ele>
        <time>2022-07-16T09:21:45Z</time>
      </trkpt>
      <trkpt lat="42.50558" lon="1.54261">
        <ele>1244.56</ele>
        <time>2022-07-16T09:22:01Z</time>
      </trkpt>
      <trkpt lat="42.50552" lon="1.54238">
        <ele>1244.56</ele>
        <time>2022-07-16T09:22:17Z</time>
      </trkpt>
      <trkpt lat="42.50548" lon="1.54222">
        <ele>1244.56</ele>
        <time>2022-07-16T09:22:30Z</time>
      </trkpt>
      <trkpt lat="42.50542" lon="1.54197">
        <ele>1244.56</ele>
        <time>2022-07-16T09:22:45Z</time>
      </trkpt>
      <trkpt lat="42.50542" lon="1.54194">
        <ele>1244.56</ele>
        <time>2022-07-16T09:22:47Z</time>
      </trkpt>
      <trkpt lat="42.50539" lon="1.54168">
        <ele>1244.56</ele>
        <time>2022-07-16T09:23:05Z</time>
      </trkpt>
      <trkpt lat="42.50535" lon="1.54149">
        <ele>1244.56</ele>
        <time>2022-07-16T09:23:22Z</time>
      </trkpt>
      <trkpt lat="42.50533" lon="1.54137">
        <ele>1244.56</ele>
        <time>2022-07-16T09:23:37Z</time>
      </trkpt>
      <trkpt lat="42.5053" lon="1.54115">
        <ele>1242.16</ele>
        <time>2022-07-16T09:23:53Z</time>
      </trkpt>
      <trkpt lat="42.5053" lon="1.54113">
        <ele>1241.68</ele>
        <time>2022-07-16T09:23:55Z</time>
      </trkpt>
      <trkpt lat="42.5053" lon="1.54106">
        <ele>1240.72</ele>
        <time>2022-07-16T09:24:00Z</time>
      </trkpt>
      <trkpt lat="42.5053" lon="1.54086">
        <ele>1236.87</ele>
        <time>2022-07-16T09:24:16Z</time>
      </trkpt>
      <trkpt lat="42.50526" lon="1.54073">
        <ele>1233.99</ele>
        <time>2022-07-16T09:24:29Z</time>
      </trkpt>
      <trkpt lat="42.50515" lon="1.54064">
        <ele>1233.03</ele>
        <time>2022-07-16T09:24:43Z</time>
      </trkpt>
      <trkpt lat="42.50502" lon="1.5405">
        <ele>1231.59</ele>
        <time>2022-07-16T09:24:59Z</time>
      </trkpt>
      <trkpt lat="42.5049" lon="1.54034">
        <ele>1230.62</ele>
        <time>2022-07-16T09:25:15Z</time>
      </trkpt>
      <trkpt lat="42.50475" lon="1.54017">
        <ele>1229.18</ele>
        <time>2022-07-16T09:25:32Z</time>
      </trkpt>
      <trkpt lat="42.50465" lon="1.54011">
        <ele>1229.18</ele>
        <time>2022-07-16T09:25:44Z</time>
      </trkpt>
      <trkpt lat="42.50457" lon="1.54005">
        <ele>1228.7</ele>
        <time>2022-07-16T09:25:56Z</time>
      </trkpt>
      <trkpt lat="42.50444" lon="1.53998">
        <ele>1228.22</ele>
        <time>2022-07-16T09:26:09Z</time>
      </trkpt>
      <trkpt lat="42.50428" lon="1.53988">
        <ele>1228.22</ele>
        <time>2022-07-16T09:26:24Z</time>
      </trkpt>
      <trkpt lat="42.5042" lon="1.53983">
        <ele>1227.74</ele>
        <time>2022-07-16T09:26:31Z</time>
      </trkpt>
      <trkpt lat="42.50412" lon="1.53977">
        <ele>1227.74</ele>
        <time>2022-07-16T09:26:48Z</time>
      </trkpt>
      <trkpt lat="42.50406" lon="1.53968">
        <ele>1227.74</ele>
        <time>2022-07-16T09:27:04Z</time>
      </trkpt>
      <trkpt lat="42.50413" lon="1.53968">
        <ele>1224.38</ele>
        <time>2022-07-16T09:27:18Z</time>
      </trkpt>
      <trkpt lat="42.50414" lon="1.53967">
        <ele>1223.9</ele>
        <time>2022-07-16T09:27:32Z</time>
      </trkpt>
      <trkpt lat="42.50412" lon="1.5396">
        <ele>1222.45</ele>
        <time>2022-07-16T09:27:47Z</time>
      </trkpt>
      <trkpt lat="42.50412" lon="1.53952">
        <ele>1221.97</ele>
        <time>2022-07-16T09:27:54Z</time>
      </trkpt>
      <trkpt lat="42.50413" lon="1.53944">
        <ele>1221.97</ele>
        <time>2022-07-16T09:27:59Z</time>
      </trkpt>
      <trkpt lat="42.5041" lon="1.53931">
        <ele>1221.97</ele>
        <time>2022-07-16T09:28:14Z</time>
      </trkpt>
      <trkpt lat="42.50405" lon="1.53927">
        <ele>1221.97</ele>
        <time>2022-07-16T09:28:34Z</time>
      </trkpt>
      <trkpt lat="42.50403" lon="1.53924">
        <ele>1221.97</ele>
        <time>2022-07-16T09:28:57Z</time>
      </trkpt>
      <trkpt lat="42.50403" lon="1.53924">
        <ele>1221.97</ele>
        <time>2022-07-16T09:29:17Z</time>
      </trkpt>
      <trkpt lat="42.50402" lon="1.53926">
        <ele>1221.97</ele>
        <time>2022-07-16T09:29:38Z</time>
      </trkpt>
      <trkpt lat="42.50401" lon="1.5392">
        <ele>1221.97</ele>
        <time>2022-07-16T09:30:00Z</time>
      </trkpt>
      <trkpt lat="42.50392" lon="1.53912">
        <ele>1222.45</ele>
        <time>2022-07-16T09:30:14Z</time>
      </trkpt>
      <trkpt lat="42.50381" lon="1.53903">
        <ele>1222.45</ele>
        <time>2022-07-16T09:30:26Z</time>
      </trkpt>
      <trkpt lat="42.50364" lon="1.53889">
        <ele>1223.42</ele>
        <time>2022-07-16T09:30:44Z</time>
      </trkpt>
      <trkpt lat="42.50354" lon="1.53879">
        <ele>1223.42</ele>
        <time>2022-07-16T09:30:57Z</time>
      </trkpt>
      <trkpt lat="42.50352" lon="1.53877">
        <ele>1223.42</ele>
        <time>2022-07-16T09:30:59Z</time>
      </trkpt>
      <trkpt lat="42.50345" lon="1.53853">
        <ele>1223.9</ele>
        <time>2022-07-16T09:31:14Z</time>
      </trkpt>
      <trkpt lat="42.50343" lon="1.53833">
        <ele>1223.9</ele>
        <time>2022-07-16T09:31:25Z</time>
      </trkpt>
      <trkpt lat="42.50343" lon="1.53813">
        <ele>1224.38</ele>
        <time>2022-07-16T09:31:38Z</time>
      </trkpt>
      <trkpt lat="42.50345" lon="1.53799">
        <ele>1225.34</ele>
        <time>2022-07-16T09:31:45Z</time>
      </trkpt>
      <trkpt lat="42.50339" lon="1.53765">
        <ele>1225.82</ele>
        <time>2022-07-16T09:32:02Z</time>
      </trkpt>
      <trkpt lat="42.50333" lon="1.5374">
        <ele>1226.78</ele>
        <time>2022-07-16T09:32:18Z</time>
      </trkpt>
      <trkpt lat="42.50331" lon="1.53734">
        <ele>1227.26</ele>
        <time>2022-07-16T09:32:22Z</time>
      </trkpt>
      <trkpt lat="42.50324" lon="1.53708">
        <ele>1228.22</ele>
        <time>2022-07-16T09:32:38Z</time>
      </trkpt>
      <trkpt lat="42.50318" lon="1.53684">
        <ele>1228.7</ele>
        <time>2022-07-16T09:32:53Z</time>
      </trkpt>
      <trkpt lat="42.50315" lon="1.53674">
        <ele>1229.66</ele>
        <time>2022-07-16T09:33:00Z</time>
      </trkpt>
      <trkpt lat="42.5031" lon="1.53654">
        <ele>1230.62</ele>
        <time>2022-07-16T09:33:14Z</time>
      </trkpt>
      <trkpt lat="42.50306" lon="1.5363">
        <ele>1231.59</ele>
        <time>2022-07-16T09:33:29Z</time>
      </trkpt>
      <trkpt lat="42.503" lon="1.5361">
        <ele>1233.03</ele>
        <time>2022-07-16T09:33:44Z</time>
      </trkpt>
      <trkpt lat="42.50299" lon="1.53602">
        <ele>1233.51</ele>
        <time>2022-07-16T09:33:50Z</time>
      </trkpt>
      <trkpt lat="42.50298" lon="1.53595">
        <ele>1233.99</ele>
        <time>2022-07-16T09:33:56Z</time>
      </trkpt>
      <trkpt lat="42.50295" lon="1.53581">
        <ele>1234.47</ele>
        <time>2022-07-16T09:34:04Z</time>
      </trkpt>
      <trkpt lat="42.50295" lon="1.53576">
        <ele>1234.95</ele>
        <time>2022-07-16T09:34:07Z</time>
      </trkpt>
      <trkpt lat="42.50291" lon="1.5355">
        <ele>1235.91</ele>
        <time>2022-07-16T09:34:22Z</time>
      </trkpt>
      <trkpt lat="42.50287" lon="1.53525">
        <ele>1237.83</ele>
        <time>2022-07-16T09:34:39Z</time>
      </trkpt>
      <trkpt lat="42.50282" lon="1.53506">
        <ele>1239.76</ele>
        <time>2022-07-16T09:34:54Z</time>
      </trkpt>
      <trkpt lat="42.50277" lon="1.5349">
        <ele>1241.68</ele>
        <time>2022-07-16T09:35:07Z</time>
      </trkpt>
      <trkpt lat="42.50271" lon="1.53468">
        <ele>1242.64</ele>
        <time>2022-07-16T09:35:22Z</time>
      </trkpt>
      <trkpt lat="42.50271" lon="1.53447">
        <ele>1244.56</ele>
        <time>2022-07-16T09:35:36Z</time>
      </trkpt>
      <trkpt lat="42.50268" lon="1.53424">
        <ele>1246.01</ele>
        <time>2022-07-16T09:35:51Z</time>
      </trkpt>
      <trkpt lat="42.50258" lon="1.53405">
        <ele>1247.45</ele>
        <time>2022-07-16T09:36:07Z</time>
      </trkpt>
      <trkpt lat="42.50244" lon="1.53392">
        <ele>1248.89</ele>
        <time>2022-07-16T09:36:23Z</time>
      </trkpt>
      <trkpt lat="42.50234" lon="1.53384">
        <ele>1250.33</ele>
        <time>2022-07-16T09:36:36Z</time>
      </trkpt>
      <trkpt lat="42.50234" lon="1.53381">
        <ele>1250.33</ele>
        <time>2022-07-16T09:36:57Z</time>
      </trkpt>
      <trkpt lat="42.50223" lon="1.53372">
        <ele>1251.29</ele>
        <time>2022-07-16T09:37:10Z</time>
      </trkpt>
      <trkpt lat="42.5021" lon="1.53361">
        <ele>1253.22</ele>
        <time>2022-07-16T09:37:26Z</time>
      </trkpt>
      <trkpt lat="42.50202" lon="1.53354">
        <ele>1254.18</ele>
        <time>2022-07-16T09:37:40Z</time>
      </trkpt>
      <trkpt lat="42.50195" lon="1.53336">
        <ele>1255.14</ele>
        <time>2022-07-16T09:37:56Z</time>
      </trkpt>
      <trkpt lat="42.50189" lon="1.53324">
        <ele>1256.58</ele>
        <time>2022-07-16T09:38:08Z</time>
      </trkpt>
      <trkpt lat="42.50184" lon="1.53318">
        <ele>1257.06</ele>
        <time>2022-07-16T09:38:14Z</time>
      </trkpt>
      <trkpt lat="42.50179" lon="1.53313">
        <ele>1258.02</ele>
        <time>2022-07-16T09:38:29Z</time>
      </trkpt>
      <trkpt lat="42.50178" lon="1.53307">
        <ele>1258.02</ele>
        <time>2022-07-16T09:38:48Z</time>
      </trkpt>
      <trkpt lat="42.50173" lon="1.53303">
        <ele>1259.94</ele>
        <time>2022-07-16T09:39:01Z</time>
      </trkpt>
      <trkpt lat="42.50163" lon="1.53301">
        <ele>1262.83</ele>
        <time>2022-07-16T09:39:14Z</time>
      </trkpt>
      <trkpt lat="42.50155" lon="1.53313">
        <ele>1265.71</ele>
        <time>2022-07-16T09:39:30Z</time>
      </trkpt>
      <trkpt lat="42.50146" lon="1.53308">
        <ele>1267.64</ele>
        <time>2022-07-16T09:39:45Z</time>
      </trkpt>
      <trkpt lat="42.50139" lon="1.53313">
        <ele>1270.52</ele>
        <time>2022-07-16T09:40:03Z</time>
      </trkpt>
      <trkpt lat="42.50137" lon="1.5332">
        <ele>1271.96</ele>
        <time>2022-07-16T09:40:20Z</time>
      </trkpt>
      <trkpt lat="42.50138" lon="1.53321">
        <ele>1272.44</ele>
        <time>2022-07-16T09:40:43Z</time>
      </trkpt>
      <trkpt lat="42.50134" lon="1.53317">
        <ele>1273.4</ele>
        <time>2022-07-16T09:41:01Z</time>
      </trkpt>
      <trkpt lat="42.50127" lon="1.53311">
        <ele>1274.36</ele>
        <time>2022-07-16T09:41:17Z</time>
      </trkpt>
      <trkpt lat="42.50119" lon="1.5331">
        <ele>1277.25</ele>
        <time>2022-07-16T09:41:34Z</time>
      </trkpt>
      <trkpt lat="42.50113" lon="1.53303">
        <ele>1280.13</ele>
        <time>2022-07-16T09:41:52Z</time>
      </trkpt>
      <trkpt lat="42.50114" lon="1.53297">
        <ele>1281.09</ele>
        <time>2022-07-16T09:42:08Z</time>
      </trkpt>
      <trkpt lat="42.5011" lon="1.5329">
        <ele>1283.02</ele>
        <time>2022-07-16T09:42:22Z</time>
      </trkpt>
      <trkpt lat="42.50103" lon="1.53287">
        <ele>1284.46</ele>
        <time>2022-07-16T09:42:35Z</time>
      </trkpt>
      <trkpt lat="42.50093" lon="1.53295">
        <ele>1285.42</ele>
        <time>2022-07-16T09:42:50Z</time>
      </trkpt>
      <trkpt lat="42.5009" lon="1.53297">
        <ele>1285.42</ele>
        <time>2022-07-16T09:43:11Z</time>
      </trkpt>
      <trkpt lat="42.50089" lon="1.533">
        <ele>1285.9</ele>
        <time>2022-07-16T09:43:29Z</time>
      </trkpt>
      <trkpt lat="42.50084" lon="1.53308">
        <ele>1285.9</ele>
        <time>2022-07-16T09:43:49Z</time>
      </trkpt>
      <trkpt lat="42.50084" lon="1.53307">
        <ele>1285.9</ele>
        <time>2022-07-16T09:44:04Z</time>
      </trkpt>
      <trkpt lat="42.50083" lon="1.53307">
        <ele>1286.86</ele>
        <time>2022-07-16T09:44:21Z</time>
      </trkpt>
      <trkpt lat="42.50083" lon="1.53309">
        <ele>1287.82</ele>
        <time>2022-07-16T09:44:38Z</time>
      </trkpt>
      <trkpt lat="42.50081" lon="1.5331">
        <ele>1289.27</ele>
        <time>2022-07-16T09:44:49Z</time>
      </trkpt>
      <trkpt lat="42.50076" lon="1.53309">
        <ele>1292.63</ele>
        <time>2022-07-16T09:45:04Z</time>
      </trkpt>
      <trkpt lat="42.5007" lon="1.53304">
        <ele>1294.07</ele>
        <time>2022-07-16T09:45:19Z</time>
      </trkpt>
      <trkpt lat="42.50067" lon="1.53295">
        <ele>1296.48</ele>
        <time>2022-07-16T09:45:35Z</time>
      </trkpt>
      <trkpt lat="42.50067" lon="1.5328">
        <ele>1298.4</ele>
        <time>2022-07-16T09:45:52Z</time>
      </trkpt>
      <trkpt lat="42.50067" lon="1.53268">
        <ele>1300.32</ele>
        <time>2022-07-16T09:46:07Z</time>
      </trkpt>
      <trkpt lat="42.50062" lon="1.53266">
        <ele>1302.24</ele>
        <time>2022-07-16T09:46:24Z</time>
      </trkpt>
      <trkpt lat="42.50055" lon="1.53275">
        <ele>1304.17</ele>
        <time>2022-07-16T09:46:41Z</time>
      </trkpt>
      <trkpt lat="42.50059" lon="1.53264">
        <ele>1306.09</ele>
        <time>2022-07-16T09:46:58Z</time>
      </trkpt>
      <trkpt lat="42.50058" lon="1.53253">
        <ele>1308.49</ele>
        <time>2022-07-16T09:47:14Z</time>
      </trkpt>
      <trkpt lat="42.50057" lon="1.53244">
        <ele>1310.41</ele>
        <time>2022-07-16T09:47:33Z</time>
      </trkpt>
      <trkpt lat="42.50058" lon="1.53235">
        <ele>1312.82</ele>
        <time>2022-07-16T09:47:47Z</time>
      </trkpt>
      <trkpt lat="42.50058" lon="1.53231">
        <ele>1314.26</ele>
        <time>2022-07-16T09:48:05Z</time>
      </trkpt>
      <trkpt lat="42.50058" lon="1.53222">
        <ele>1316.66</ele>
        <time>2022-07-16T09:48:21Z</time>
      </trkpt>
      <trkpt lat="42.50056" lon="1.53217">
        <ele>1318.59</ele>
        <time>2022-07-16T09:48:35Z</time>
      </trkpt>
      <trkpt lat="42.50053" lon="1.53214">
        <ele>1320.03</ele>
        <time>2022-07-16T09:48:52Z</time>
      </trkpt>
      <trkpt lat="42.50049" lon="1.5322">
        <ele>1322.91</ele>
        <time>2022-07-16T09:49:08Z</time>
      </trkpt>
      <trkpt lat="42.50045" lon="1.53229">
        <ele>1324.83</ele>
        <time>2022-07-16T09:49:29Z</time>
      </trkpt>
      <trkpt lat="42.50038" lon="1.53238">
        <ele>1326.76</ele>
        <time>2022-07-16T09:49:43Z</time>
      </trkpt>
      <trkpt lat="42.50037" lon="1.5323">
        <ele>1328.68</ele>
        <time>2022-07-16T09:49:58Z</time>
      </trkpt>
      <trkpt lat="42.5004" lon="1.53211">
        <ele>1329.64</ele>
        <time>2022-07-16T09:50:13Z</time>
      </trkpt>
      <trkpt lat="42.50047" lon="1.53195">
        <ele>1330.6</ele>
        <time>2022-07-16T09:50:28Z</time>
      </trkpt>
      <trkpt lat="42.50054" lon="1.53177">
        <ele>1331.56</ele>
        <time>2022-07-16T09:50:42Z</time>
      </trkpt>
      <trkpt lat="42.50063" lon="1.53166">
        <ele>1333.01</ele>
        <time>2022-07-16T09:50:55Z</time>
      </trkpt>
      <trkpt lat="42.50067" lon="1.53161">
        <ele>1333.49</ele>
        <time>2022-07-16T09:51:01Z</time>
      </trkpt>
      <trkpt lat="42.50072" lon="1.53149">
        <ele>1333.97</ele>
        <time>2022-07-16T09:51:15Z</time>
      </trkpt>
      <trkpt lat="42.50067" lon="1.53139">
        <ele>1334.45</ele>
        <time>2022-07-16T09:51:30Z</time>
      </trkpt>
      <trkpt lat="42.50059" lon="1.5314">
        <ele>1334.93</ele>
        <time>2022-07-16T09:51:42Z</time>
      </trkpt>
      <trkpt lat="42.50041" lon="1.53142">
        <ele>1333.01</ele>
        <time>2022-07-16T09:52:00Z</time>
      </trkpt>
      <trkpt lat="42.50027" lon="1.53144">
        <ele>1332.52</ele>
        <time>2022-07-16T09:52:15Z</time>
      </trkpt>
      <trkpt lat="42.50008" lon="1.53142">
        <ele>1330.12</ele>
        <time>2022-07-16T09:52:31Z</time>
      </trkpt>
      <trkpt lat="42.49988" lon="1.53133">
        <ele>1327.72</ele>
        <time>2022-07-16T09:52:48Z</time>
      </trkpt>
      <trkpt lat="42.49974" lon="1.53121">
        <ele>1326.76</ele>
        <time>2022-07-16T09:53:01Z</time>
      </trkpt>
      <trkpt lat="42.49955" lon="1.53105">
        <ele>1324.83</ele>
        <time>2022-07-16T09:53:18Z</time>
      </trkpt>
      <trkpt lat="42.49934" lon="1.53089">
        <ele>1322.43</ele>
        <time>2022-07-16T09:53:37Z</time>
      </trkpt>
      <trkpt lat="42.49928" lon="1.53087">
        <ele>1321.95</ele>
        <time>2022-07-16T09:53:43Z</time>
      </trkpt>
      <trkpt lat="42.4991" lon="1.53074">
        <ele>1321.47</ele>
        <time>2022-07-16T09:54:00Z</time>
      </trkpt>
      <trkpt lat="42.49903" lon="1.53071">
        <ele>1321.47</ele>
        <time>2022-07-16T09:54:13Z</time>
      </trkpt>
      <trkpt lat="42.49899" lon="1.53067">
        <ele>1320.99</ele>
        <time>2022-07-16T09:54:33Z</time>
      </trkpt>
      <trkpt lat="42.49891" lon="1.53064">
        <ele>1322.91</ele>
        <time>2022-07-16T09:54:51Z</time>
      </trkpt>
      <trkpt lat="42.49876" lon="1.53059">
        <ele>1323.39</ele>
        <time>2022-07-16T09:55:07Z</time>
      </trkpt>
      <trkpt lat="42.49863" lon="1.53056">
        <ele>1324.83</ele>
        <time>2022-07-16T09:55:21Z</time>
      </trkpt>
      <trkpt lat="42.49864" lon="1.53064">
        <ele>1324.83</ele>
        <time>2022-07-16T09:55:34Z</time>
      </trkpt>
      <trkpt lat="42.49864" lon="1.53062">
        <ele>1324.83</ele>
        <time>2022-07-16T09:55:48Z</time>
      </trkpt>
    </trkseg>
  </trk>
</gpx>